<?xml version="1.0" encoding="UTF-8" standalone="no" ?>
<gpx xmlns="http://www.topografix.com/GPX/1/1" xmlns:xsi="http://www.w3.org/2001/XMLSchema-instance" xsi:schemaLocation="http://www.topografix.com/GPX/1/1 http://www.topografix.com/GPX/1/1/gpx.xsd" version="1.1" creator="VisuGPX - https://www.visugpx.com">
  <metadata>
    <name>ski Les Aiguilles du Mont  (2132m)</name>
  </metadata>
  <trk>
    <name><![CDATA[ski Les Aiguilles du Mont  (2132m)]]></name>
    <trkseg>
      <trkpt lat="45.79878" lon="6.38272">
        <ele>1297.4000244141</ele>
        <time>2019-02-17T08:26:35.000Z</time>
      </trkpt>
      <trkpt lat="45.79878" lon="6.38272">
        <ele>1296</ele>
        <time>2019-02-17T08:26:41.000Z</time>
      </trkpt>
      <trkpt lat="45.79879" lon="6.38274">
        <ele>1294.5999755859</ele>
        <time>2019-02-17T08:26:43.000Z</time>
      </trkpt>
      <trkpt lat="45.79879" lon="6.38274">
        <ele>1294</ele>
        <time>2019-02-17T08:26:45.000Z</time>
      </trkpt>
      <trkpt lat="45.79879" lon="6.38274">
        <ele>1294.8000488281</ele>
        <time>2019-02-17T08:26:54.000Z</time>
      </trkpt>
      <trkpt lat="45.79879" lon="6.38272">
        <ele>1294.8000488281</ele>
        <time>2019-02-17T08:27:01.000Z</time>
      </trkpt>
      <trkpt lat="45.79878" lon="6.38273">
        <ele>1294.5999755859</ele>
        <time>2019-02-17T08:27:09.000Z</time>
      </trkpt>
      <trkpt lat="45.79876" lon="6.38273">
        <ele>1294.8000488281</ele>
        <time>2019-02-17T08:27:15.000Z</time>
      </trkpt>
      <trkpt lat="45.79876" lon="6.38273">
        <ele>1294.5999755859</ele>
        <time>2019-02-17T08:27:36.000Z</time>
      </trkpt>
      <trkpt lat="45.79876" lon="6.38274">
        <ele>1294.8000488281</ele>
        <time>2019-02-17T08:27:51.000Z</time>
      </trkpt>
      <trkpt lat="45.79876" lon="6.38274">
        <ele>1294.4000244141</ele>
        <time>2019-02-17T08:28:10.000Z</time>
      </trkpt>
      <trkpt lat="45.79875" lon="6.38275">
        <ele>1294.5999755859</ele>
        <time>2019-02-17T08:28:21.000Z</time>
      </trkpt>
      <trkpt lat="45.79875" lon="6.38275">
        <ele>1294.5999755859</ele>
        <time>2019-02-17T08:28:29.000Z</time>
      </trkpt>
      <trkpt lat="45.79875" lon="6.38275">
        <ele>1294.5999755859</ele>
        <time>2019-02-17T08:28:44.000Z</time>
      </trkpt>
      <trkpt lat="45.79875" lon="6.38275">
        <ele>1294.5999755859</ele>
        <time>2019-02-17T08:29:03.000Z</time>
      </trkpt>
      <trkpt lat="45.79875" lon="6.38275">
        <ele>1294.5999755859</ele>
        <time>2019-02-17T08:29:14.000Z</time>
      </trkpt>
      <trkpt lat="45.79875" lon="6.38275">
        <ele>1294</ele>
        <time>2019-02-17T08:29:23.000Z</time>
      </trkpt>
      <trkpt lat="45.79875" lon="6.38273">
        <ele>1294.5999755859</ele>
        <time>2019-02-17T08:29:36.000Z</time>
      </trkpt>
      <trkpt lat="45.79875" lon="6.38273">
        <ele>1294.4000244141</ele>
        <time>2019-02-17T08:29:45.000Z</time>
      </trkpt>
      <trkpt lat="45.79874" lon="6.38273">
        <ele>1294.4000244141</ele>
        <time>2019-02-17T08:29:51.000Z</time>
      </trkpt>
      <trkpt lat="45.79874" lon="6.38273">
        <ele>1294.5999755859</ele>
        <time>2019-02-17T08:30:02.000Z</time>
      </trkpt>
      <trkpt lat="45.79874" lon="6.38273">
        <ele>1293.4000244141</ele>
        <time>2019-02-17T08:30:10.000Z</time>
      </trkpt>
      <trkpt lat="45.79874" lon="6.38273">
        <ele>1293.4000244141</ele>
        <time>2019-02-17T08:30:11.000Z</time>
      </trkpt>
      <trkpt lat="45.79874" lon="6.38273">
        <ele>1295.1999511719</ele>
        <time>2019-02-17T08:30:15.000Z</time>
      </trkpt>
      <trkpt lat="45.79874" lon="6.38273">
        <ele>1294.1999511719</ele>
        <time>2019-02-17T08:30:21.000Z</time>
      </trkpt>
      <trkpt lat="45.79874" lon="6.38273">
        <ele>1293.5999755859</ele>
        <time>2019-02-17T08:30:23.000Z</time>
      </trkpt>
      <trkpt lat="45.79874" lon="6.38273">
        <ele>1295.1999511719</ele>
        <time>2019-02-17T08:30:28.000Z</time>
      </trkpt>
      <trkpt lat="45.79871" lon="6.38269">
        <ele>1294.8000488281</ele>
        <time>2019-02-17T08:30:33.000Z</time>
      </trkpt>
      <trkpt lat="45.79865" lon="6.38266">
        <ele>1294.5999755859</ele>
        <time>2019-02-17T08:30:39.000Z</time>
      </trkpt>
      <trkpt lat="45.79861" lon="6.38262">
        <ele>1294.5999755859</ele>
        <time>2019-02-17T08:30:44.000Z</time>
      </trkpt>
      <trkpt lat="45.79852" lon="6.38262">
        <ele>1294.8000488281</ele>
        <time>2019-02-17T08:30:50.000Z</time>
      </trkpt>
      <trkpt lat="45.79846" lon="6.3826">
        <ele>1294.5999755859</ele>
        <time>2019-02-17T08:30:56.000Z</time>
      </trkpt>
      <trkpt lat="45.79843" lon="6.3826">
        <ele>1294.5999755859</ele>
        <time>2019-02-17T08:30:59.000Z</time>
      </trkpt>
      <trkpt lat="45.7984" lon="6.3826">
        <ele>1294.8000488281</ele>
        <time>2019-02-17T08:31:02.000Z</time>
      </trkpt>
      <trkpt lat="45.79834" lon="6.38262">
        <ele>1294.8000488281</ele>
        <time>2019-02-17T08:31:08.000Z</time>
      </trkpt>
      <trkpt lat="45.79833" lon="6.38262">
        <ele>1294.5999755859</ele>
        <time>2019-02-17T08:31:09.000Z</time>
      </trkpt>
      <trkpt lat="45.79827" lon="6.38263">
        <ele>1294.5999755859</ele>
        <time>2019-02-17T08:31:13.000Z</time>
      </trkpt>
      <trkpt lat="45.79825" lon="6.38264">
        <ele>1294.5999755859</ele>
        <time>2019-02-17T08:31:15.000Z</time>
      </trkpt>
      <trkpt lat="45.79821" lon="6.38264">
        <ele>1294.5999755859</ele>
        <time>2019-02-17T08:31:18.000Z</time>
      </trkpt>
      <trkpt lat="45.79816" lon="6.38265">
        <ele>1294.5999755859</ele>
        <time>2019-02-17T08:31:22.000Z</time>
      </trkpt>
      <trkpt lat="45.79812" lon="6.38266">
        <ele>1294.4000244141</ele>
        <time>2019-02-17T08:31:26.000Z</time>
      </trkpt>
      <trkpt lat="45.79805" lon="6.38266">
        <ele>1294.4000244141</ele>
        <time>2019-02-17T08:31:31.000Z</time>
      </trkpt>
      <trkpt lat="45.79803" lon="6.38266">
        <ele>1294.4000244141</ele>
        <time>2019-02-17T08:31:34.000Z</time>
      </trkpt>
      <trkpt lat="45.79802" lon="6.38266">
        <ele>1294.4000244141</ele>
        <time>2019-02-17T08:31:36.000Z</time>
      </trkpt>
      <trkpt lat="45.798" lon="6.38266">
        <ele>1294.4000244141</ele>
        <time>2019-02-17T08:31:37.000Z</time>
      </trkpt>
      <trkpt lat="45.79797" lon="6.38266">
        <ele>1294.1999511719</ele>
        <time>2019-02-17T08:31:40.000Z</time>
      </trkpt>
      <trkpt lat="45.79796" lon="6.38266">
        <ele>1294.1999511719</ele>
        <time>2019-02-17T08:31:41.000Z</time>
      </trkpt>
      <trkpt lat="45.7979" lon="6.38264">
        <ele>1294.1999511719</ele>
        <time>2019-02-17T08:31:46.000Z</time>
      </trkpt>
      <trkpt lat="45.79789" lon="6.38264">
        <ele>1294.1999511719</ele>
        <time>2019-02-17T08:31:47.000Z</time>
      </trkpt>
      <trkpt lat="45.79786" lon="6.38264">
        <ele>1294.1999511719</ele>
        <time>2019-02-17T08:31:50.000Z</time>
      </trkpt>
      <trkpt lat="45.79783" lon="6.38263">
        <ele>1294</ele>
        <time>2019-02-17T08:31:53.000Z</time>
      </trkpt>
      <trkpt lat="45.79777" lon="6.3826">
        <ele>1294</ele>
        <time>2019-02-17T08:31:59.000Z</time>
      </trkpt>
      <trkpt lat="45.79772" lon="6.38259">
        <ele>1294.1999511719</ele>
        <time>2019-02-17T08:32:04.000Z</time>
      </trkpt>
      <trkpt lat="45.79771" lon="6.38257">
        <ele>1294.1999511719</ele>
        <time>2019-02-17T08:32:09.000Z</time>
      </trkpt>
      <trkpt lat="45.79771" lon="6.38257">
        <ele>1294.1999511719</ele>
        <time>2019-02-17T08:32:21.000Z</time>
      </trkpt>
      <trkpt lat="45.79767" lon="6.38255">
        <ele>1294.1999511719</ele>
        <time>2019-02-17T08:32:30.000Z</time>
      </trkpt>
      <trkpt lat="45.79764" lon="6.38254">
        <ele>1294.1999511719</ele>
        <time>2019-02-17T08:32:34.000Z</time>
      </trkpt>
      <trkpt lat="45.79762" lon="6.38253">
        <ele>1294.1999511719</ele>
        <time>2019-02-17T08:32:35.000Z</time>
      </trkpt>
      <trkpt lat="45.79761" lon="6.38253">
        <ele>1294.4000244141</ele>
        <time>2019-02-17T08:32:39.000Z</time>
      </trkpt>
      <trkpt lat="45.7976" lon="6.38252">
        <ele>1294</ele>
        <time>2019-02-17T08:32:47.000Z</time>
      </trkpt>
      <trkpt lat="45.79755" lon="6.38248">
        <ele>1294.5999755859</ele>
        <time>2019-02-17T08:32:54.000Z</time>
      </trkpt>
      <trkpt lat="45.79751" lon="6.38247">
        <ele>1294.8000488281</ele>
        <time>2019-02-17T08:32:58.000Z</time>
      </trkpt>
      <trkpt lat="45.79749" lon="6.38247">
        <ele>1294.8000488281</ele>
        <time>2019-02-17T08:32:59.000Z</time>
      </trkpt>
      <trkpt lat="45.79747" lon="6.38246">
        <ele>1295</ele>
        <time>2019-02-17T08:33:02.000Z</time>
      </trkpt>
      <trkpt lat="45.79745" lon="6.38245">
        <ele>1295.1999511719</ele>
        <time>2019-02-17T08:33:04.000Z</time>
      </trkpt>
      <trkpt lat="45.79741" lon="6.38244">
        <ele>1295.4000244141</ele>
        <time>2019-02-17T08:33:07.000Z</time>
      </trkpt>
      <trkpt lat="45.79737" lon="6.38242">
        <ele>1296.1999511719</ele>
        <time>2019-02-17T08:33:11.000Z</time>
      </trkpt>
      <trkpt lat="45.79736" lon="6.38242">
        <ele>1296.1999511719</ele>
        <time>2019-02-17T08:33:12.000Z</time>
      </trkpt>
      <trkpt lat="45.79732" lon="6.3824">
        <ele>1296.8000488281</ele>
        <time>2019-02-17T08:33:16.000Z</time>
      </trkpt>
      <trkpt lat="45.79726" lon="6.38239">
        <ele>1297.4000244141</ele>
        <time>2019-02-17T08:33:20.000Z</time>
      </trkpt>
      <trkpt lat="45.79725" lon="6.38239">
        <ele>1297.5999755859</ele>
        <time>2019-02-17T08:33:21.000Z</time>
      </trkpt>
      <trkpt lat="45.79721" lon="6.38239">
        <ele>1298</ele>
        <time>2019-02-17T08:33:23.000Z</time>
      </trkpt>
      <trkpt lat="45.7972" lon="6.3824">
        <ele>1298.4000244141</ele>
        <time>2019-02-17T08:33:25.000Z</time>
      </trkpt>
      <trkpt lat="45.79718" lon="6.3824">
        <ele>1298.5999755859</ele>
        <time>2019-02-17T08:33:27.000Z</time>
      </trkpt>
      <trkpt lat="45.79715" lon="6.38241">
        <ele>1298.8000488281</ele>
        <time>2019-02-17T08:33:30.000Z</time>
      </trkpt>
      <trkpt lat="45.7971" lon="6.38242">
        <ele>1299.4000244141</ele>
        <time>2019-02-17T08:33:35.000Z</time>
      </trkpt>
      <trkpt lat="45.79709" lon="6.38242">
        <ele>1299.5999755859</ele>
        <time>2019-02-17T08:33:36.000Z</time>
      </trkpt>
      <trkpt lat="45.79708" lon="6.38242">
        <ele>1299.5999755859</ele>
        <time>2019-02-17T08:33:37.000Z</time>
      </trkpt>
      <trkpt lat="45.79702" lon="6.38243">
        <ele>1300.4000244141</ele>
        <time>2019-02-17T08:33:42.000Z</time>
      </trkpt>
      <trkpt lat="45.79698" lon="6.38243">
        <ele>1300.8000488281</ele>
        <time>2019-02-17T08:33:47.000Z</time>
      </trkpt>
      <trkpt lat="45.79695" lon="6.38243">
        <ele>1301.1999511719</ele>
        <time>2019-02-17T08:33:51.000Z</time>
      </trkpt>
      <trkpt lat="45.79689" lon="6.38245">
        <ele>1301.5999755859</ele>
        <time>2019-02-17T08:33:56.000Z</time>
      </trkpt>
      <trkpt lat="45.79687" lon="6.38245">
        <ele>1302</ele>
        <time>2019-02-17T08:33:59.000Z</time>
      </trkpt>
      <trkpt lat="45.79684" lon="6.38245">
        <ele>1302.1999511719</ele>
        <time>2019-02-17T08:34:02.000Z</time>
      </trkpt>
      <trkpt lat="45.79676" lon="6.38248">
        <ele>1302.8000488281</ele>
        <time>2019-02-17T08:34:09.000Z</time>
      </trkpt>
      <trkpt lat="45.79674" lon="6.38249">
        <ele>1303</ele>
        <time>2019-02-17T08:34:11.000Z</time>
      </trkpt>
      <trkpt lat="45.79669" lon="6.38251">
        <ele>1303.5999755859</ele>
        <time>2019-02-17T08:34:15.000Z</time>
      </trkpt>
      <trkpt lat="45.79663" lon="6.38255">
        <ele>1304.1999511719</ele>
        <time>2019-02-17T08:34:22.000Z</time>
      </trkpt>
      <trkpt lat="45.79659" lon="6.38258">
        <ele>1304.5999755859</ele>
        <time>2019-02-17T08:34:28.000Z</time>
      </trkpt>
      <trkpt lat="45.79658" lon="6.38262">
        <ele>1305</ele>
        <time>2019-02-17T08:34:34.000Z</time>
      </trkpt>
      <trkpt lat="45.79657" lon="6.38268">
        <ele>1305.1999511719</ele>
        <time>2019-02-17T08:34:39.000Z</time>
      </trkpt>
      <trkpt lat="45.79657" lon="6.38268">
        <ele>1305.1999511719</ele>
        <time>2019-02-17T08:34:40.000Z</time>
      </trkpt>
      <trkpt lat="45.79656" lon="6.38273">
        <ele>1306.1999511719</ele>
        <time>2019-02-17T08:34:45.000Z</time>
      </trkpt>
      <trkpt lat="45.79655" lon="6.38274">
        <ele>1306.4000244141</ele>
        <time>2019-02-17T08:34:46.000Z</time>
      </trkpt>
      <trkpt lat="45.79654" lon="6.3828">
        <ele>1306.8000488281</ele>
        <time>2019-02-17T08:34:51.000Z</time>
      </trkpt>
      <trkpt lat="45.79653" lon="6.38284">
        <ele>1307.4000244141</ele>
        <time>2019-02-17T08:34:55.000Z</time>
      </trkpt>
      <trkpt lat="45.79653" lon="6.38285">
        <ele>1307.5999755859</ele>
        <time>2019-02-17T08:34:56.000Z</time>
      </trkpt>
      <trkpt lat="45.79652" lon="6.38288">
        <ele>1308.1999511719</ele>
        <time>2019-02-17T08:35:00.000Z</time>
      </trkpt>
      <trkpt lat="45.79652" lon="6.38289">
        <ele>1308.4000244141</ele>
        <time>2019-02-17T08:35:01.000Z</time>
      </trkpt>
      <trkpt lat="45.7965" lon="6.38293">
        <ele>1309.1999511719</ele>
        <time>2019-02-17T08:35:05.000Z</time>
      </trkpt>
      <trkpt lat="45.79648" lon="6.38295">
        <ele>1309.5999755859</ele>
        <time>2019-02-17T08:35:07.000Z</time>
      </trkpt>
      <trkpt lat="45.79648" lon="6.38297">
        <ele>1310.5999755859</ele>
        <time>2019-02-17T08:35:11.000Z</time>
      </trkpt>
      <trkpt lat="45.79647" lon="6.38301">
        <ele>1311.1999511719</ele>
        <time>2019-02-17T08:35:19.000Z</time>
      </trkpt>
      <trkpt lat="45.79646" lon="6.38303">
        <ele>1311.8000488281</ele>
        <time>2019-02-17T08:35:22.000Z</time>
      </trkpt>
      <trkpt lat="45.79645" lon="6.38304">
        <ele>1312.1999511719</ele>
        <time>2019-02-17T08:35:24.000Z</time>
      </trkpt>
      <trkpt lat="45.79643" lon="6.38306">
        <ele>1313</ele>
        <time>2019-02-17T08:35:27.000Z</time>
      </trkpt>
      <trkpt lat="45.79641" lon="6.38307">
        <ele>1313.4000244141</ele>
        <time>2019-02-17T08:35:29.000Z</time>
      </trkpt>
      <trkpt lat="45.7964" lon="6.38307">
        <ele>1314</ele>
        <time>2019-02-17T08:35:31.000Z</time>
      </trkpt>
      <trkpt lat="45.79638" lon="6.38307">
        <ele>1314.8000488281</ele>
        <time>2019-02-17T08:35:34.000Z</time>
      </trkpt>
      <trkpt lat="45.79638" lon="6.38307">
        <ele>1315.1999511719</ele>
        <time>2019-02-17T08:35:35.000Z</time>
      </trkpt>
      <trkpt lat="45.79634" lon="6.38307">
        <ele>1316.1999511719</ele>
        <time>2019-02-17T08:35:41.000Z</time>
      </trkpt>
      <trkpt lat="45.79633" lon="6.38307">
        <ele>1316.4000244141</ele>
        <time>2019-02-17T08:35:42.000Z</time>
      </trkpt>
      <trkpt lat="45.79631" lon="6.38311">
        <ele>1317.4000244141</ele>
        <time>2019-02-17T08:35:47.000Z</time>
      </trkpt>
      <trkpt lat="45.79631" lon="6.38311">
        <ele>1317.8000488281</ele>
        <time>2019-02-17T08:35:48.000Z</time>
      </trkpt>
      <trkpt lat="45.79631" lon="6.38312">
        <ele>1318</ele>
        <time>2019-02-17T08:35:49.000Z</time>
      </trkpt>
      <trkpt lat="45.7963" lon="6.38315">
        <ele>1318.5999755859</ele>
        <time>2019-02-17T08:35:52.000Z</time>
      </trkpt>
      <trkpt lat="45.79629" lon="6.38316">
        <ele>1319</ele>
        <time>2019-02-17T08:35:53.000Z</time>
      </trkpt>
      <trkpt lat="45.79628" lon="6.38319">
        <ele>1319.8000488281</ele>
        <time>2019-02-17T08:35:57.000Z</time>
      </trkpt>
      <trkpt lat="45.79627" lon="6.38319">
        <ele>1320</ele>
        <time>2019-02-17T08:35:58.000Z</time>
      </trkpt>
      <trkpt lat="45.79627" lon="6.38325">
        <ele>1321</ele>
        <time>2019-02-17T08:36:02.000Z</time>
      </trkpt>
      <trkpt lat="45.79627" lon="6.38325">
        <ele>1321.1999511719</ele>
        <time>2019-02-17T08:36:03.000Z</time>
      </trkpt>
      <trkpt lat="45.79625" lon="6.3833">
        <ele>1322.1999511719</ele>
        <time>2019-02-17T08:36:08.000Z</time>
      </trkpt>
      <trkpt lat="45.79624" lon="6.38336">
        <ele>1323.1999511719</ele>
        <time>2019-02-17T08:36:13.000Z</time>
      </trkpt>
      <trkpt lat="45.79623" lon="6.38341">
        <ele>1324.1999511719</ele>
        <time>2019-02-17T08:36:19.000Z</time>
      </trkpt>
      <trkpt lat="45.79623" lon="6.38347">
        <ele>1324.5999755859</ele>
        <time>2019-02-17T08:36:23.000Z</time>
      </trkpt>
      <trkpt lat="45.79623" lon="6.38348">
        <ele>1324.8000488281</ele>
        <time>2019-02-17T08:36:24.000Z</time>
      </trkpt>
      <trkpt lat="45.79623" lon="6.3835">
        <ele>1325.4000244141</ele>
        <time>2019-02-17T08:36:26.000Z</time>
      </trkpt>
      <trkpt lat="45.79623" lon="6.38352">
        <ele>1325.8000488281</ele>
        <time>2019-02-17T08:36:28.000Z</time>
      </trkpt>
      <trkpt lat="45.79623" lon="6.38355">
        <ele>1326.4000244141</ele>
        <time>2019-02-17T08:36:31.000Z</time>
      </trkpt>
      <trkpt lat="45.79623" lon="6.38357">
        <ele>1326.5999755859</ele>
        <time>2019-02-17T08:36:32.000Z</time>
      </trkpt>
      <trkpt lat="45.79622" lon="6.38362">
        <ele>1327.4000244141</ele>
        <time>2019-02-17T08:36:37.000Z</time>
      </trkpt>
      <trkpt lat="45.79621" lon="6.38368">
        <ele>1328.1999511719</ele>
        <time>2019-02-17T08:36:42.000Z</time>
      </trkpt>
      <trkpt lat="45.79621" lon="6.38369">
        <ele>1328.4000244141</ele>
        <time>2019-02-17T08:36:44.000Z</time>
      </trkpt>
      <trkpt lat="45.79621" lon="6.38372">
        <ele>1329.1999511719</ele>
        <time>2019-02-17T08:36:47.000Z</time>
      </trkpt>
      <trkpt lat="45.79622" lon="6.38374">
        <ele>1329.5999755859</ele>
        <time>2019-02-17T08:36:49.000Z</time>
      </trkpt>
      <trkpt lat="45.79622" lon="6.38378">
        <ele>1330</ele>
        <time>2019-02-17T08:36:51.000Z</time>
      </trkpt>
      <trkpt lat="45.79621" lon="6.38381">
        <ele>1330.5999755859</ele>
        <time>2019-02-17T08:36:55.000Z</time>
      </trkpt>
      <trkpt lat="45.79622" lon="6.38384">
        <ele>1331.8000488281</ele>
        <time>2019-02-17T08:37:00.000Z</time>
      </trkpt>
      <trkpt lat="45.79622" lon="6.38389">
        <ele>1333</ele>
        <time>2019-02-17T08:37:05.000Z</time>
      </trkpt>
      <trkpt lat="45.79622" lon="6.38395">
        <ele>1334.1999511719</ele>
        <time>2019-02-17T08:37:11.000Z</time>
      </trkpt>
      <trkpt lat="45.79621" lon="6.38398">
        <ele>1335.4000244141</ele>
        <time>2019-02-17T08:37:17.000Z</time>
      </trkpt>
      <trkpt lat="45.79621" lon="6.38398">
        <ele>1335.8000488281</ele>
        <time>2019-02-17T08:37:18.000Z</time>
      </trkpt>
      <trkpt lat="45.79621" lon="6.38399">
        <ele>1336</ele>
        <time>2019-02-17T08:37:31.000Z</time>
      </trkpt>
      <trkpt lat="45.79623" lon="6.38405">
        <ele>1336.1999511719</ele>
        <time>2019-02-17T08:37:36.000Z</time>
      </trkpt>
      <trkpt lat="45.79622" lon="6.38407">
        <ele>1336.5999755859</ele>
        <time>2019-02-17T08:37:39.000Z</time>
      </trkpt>
      <trkpt lat="45.79623" lon="6.38411">
        <ele>1336.8000488281</ele>
        <time>2019-02-17T08:37:40.000Z</time>
      </trkpt>
      <trkpt lat="45.79623" lon="6.38414">
        <ele>1337.5999755859</ele>
        <time>2019-02-17T08:37:44.000Z</time>
      </trkpt>
      <trkpt lat="45.79623" lon="6.38415">
        <ele>1337.8000488281</ele>
        <time>2019-02-17T08:37:45.000Z</time>
      </trkpt>
      <trkpt lat="45.79625" lon="6.38419">
        <ele>1339</ele>
        <time>2019-02-17T08:37:50.000Z</time>
      </trkpt>
      <trkpt lat="45.79625" lon="6.38426">
        <ele>1340</ele>
        <time>2019-02-17T08:37:54.000Z</time>
      </trkpt>
      <trkpt lat="45.79625" lon="6.38426">
        <ele>1340.1999511719</ele>
        <time>2019-02-17T08:37:55.000Z</time>
      </trkpt>
      <trkpt lat="45.79626" lon="6.38429">
        <ele>1340.8000488281</ele>
        <time>2019-02-17T08:37:57.000Z</time>
      </trkpt>
      <trkpt lat="45.79626" lon="6.3843">
        <ele>1341</ele>
        <time>2019-02-17T08:37:58.000Z</time>
      </trkpt>
      <trkpt lat="45.79626" lon="6.38431">
        <ele>1341.5999755859</ele>
        <time>2019-02-17T08:38:00.000Z</time>
      </trkpt>
      <trkpt lat="45.79626" lon="6.38437">
        <ele>1342.8000488281</ele>
        <time>2019-02-17T08:38:06.000Z</time>
      </trkpt>
      <trkpt lat="45.79626" lon="6.38443">
        <ele>1343.5999755859</ele>
        <time>2019-02-17T08:38:11.000Z</time>
      </trkpt>
      <trkpt lat="45.79626" lon="6.38444">
        <ele>1343.8000488281</ele>
        <time>2019-02-17T08:38:12.000Z</time>
      </trkpt>
      <trkpt lat="45.79627" lon="6.38448">
        <ele>1345</ele>
        <time>2019-02-17T08:38:16.000Z</time>
      </trkpt>
      <trkpt lat="45.79626" lon="6.38452">
        <ele>1346.1999511719</ele>
        <time>2019-02-17T08:38:21.000Z</time>
      </trkpt>
      <trkpt lat="45.79626" lon="6.38455">
        <ele>1347.1999511719</ele>
        <time>2019-02-17T08:38:25.000Z</time>
      </trkpt>
      <trkpt lat="45.79626" lon="6.38457">
        <ele>1347.5999755859</ele>
        <time>2019-02-17T08:38:27.000Z</time>
      </trkpt>
      <trkpt lat="45.79626" lon="6.38461">
        <ele>1348.1999511719</ele>
        <time>2019-02-17T08:38:30.000Z</time>
      </trkpt>
      <trkpt lat="45.79626" lon="6.38463">
        <ele>1348.8000488281</ele>
        <time>2019-02-17T08:38:32.000Z</time>
      </trkpt>
      <trkpt lat="45.79626" lon="6.38468">
        <ele>1349.4000244141</ele>
        <time>2019-02-17T08:38:38.000Z</time>
      </trkpt>
      <trkpt lat="45.79626" lon="6.3847">
        <ele>1349.5999755859</ele>
        <time>2019-02-17T08:38:39.000Z</time>
      </trkpt>
      <trkpt lat="45.79626" lon="6.38476">
        <ele>1350.1999511719</ele>
        <time>2019-02-17T08:38:44.000Z</time>
      </trkpt>
      <trkpt lat="45.79627" lon="6.38478">
        <ele>1350.4000244141</ele>
        <time>2019-02-17T08:38:47.000Z</time>
      </trkpt>
      <trkpt lat="45.79627" lon="6.38478">
        <ele>1350.5999755859</ele>
        <time>2019-02-17T08:38:48.000Z</time>
      </trkpt>
      <trkpt lat="45.79627" lon="6.38483">
        <ele>1351.4000244141</ele>
        <time>2019-02-17T08:38:53.000Z</time>
      </trkpt>
      <trkpt lat="45.79627" lon="6.38485">
        <ele>1351.5999755859</ele>
        <time>2019-02-17T08:38:54.000Z</time>
      </trkpt>
      <trkpt lat="45.79627" lon="6.3849">
        <ele>1352</ele>
        <time>2019-02-17T08:38:59.000Z</time>
      </trkpt>
      <trkpt lat="45.79627" lon="6.38494">
        <ele>1352.5999755859</ele>
        <time>2019-02-17T08:39:03.000Z</time>
      </trkpt>
      <trkpt lat="45.79627" lon="6.38498">
        <ele>1353.4000244141</ele>
        <time>2019-02-17T08:39:07.000Z</time>
      </trkpt>
      <trkpt lat="45.79628" lon="6.385">
        <ele>1353.5999755859</ele>
        <time>2019-02-17T08:39:08.000Z</time>
      </trkpt>
      <trkpt lat="45.79628" lon="6.385">
        <ele>1353.5999755859</ele>
        <time>2019-02-17T08:39:09.000Z</time>
      </trkpt>
      <trkpt lat="45.79628" lon="6.38502">
        <ele>1354.8000488281</ele>
        <time>2019-02-17T08:39:14.000Z</time>
      </trkpt>
      <trkpt lat="45.79629" lon="6.38506">
        <ele>1355</ele>
        <time>2019-02-17T08:39:25.000Z</time>
      </trkpt>
      <trkpt lat="45.79629" lon="6.3851">
        <ele>1355</ele>
        <time>2019-02-17T08:39:28.000Z</time>
      </trkpt>
      <trkpt lat="45.79631" lon="6.38515">
        <ele>1355.4000244141</ele>
        <time>2019-02-17T08:39:32.000Z</time>
      </trkpt>
      <trkpt lat="45.79631" lon="6.38519">
        <ele>1356</ele>
        <time>2019-02-17T08:39:36.000Z</time>
      </trkpt>
      <trkpt lat="45.79631" lon="6.3852">
        <ele>1356.1999511719</ele>
        <time>2019-02-17T08:39:37.000Z</time>
      </trkpt>
      <trkpt lat="45.79633" lon="6.38525">
        <ele>1357</ele>
        <time>2019-02-17T08:39:42.000Z</time>
      </trkpt>
      <trkpt lat="45.79634" lon="6.38531">
        <ele>1357.8000488281</ele>
        <time>2019-02-17T08:39:47.000Z</time>
      </trkpt>
      <trkpt lat="45.79634" lon="6.38532">
        <ele>1358</ele>
        <time>2019-02-17T08:39:48.000Z</time>
      </trkpt>
      <trkpt lat="45.79635" lon="6.38538">
        <ele>1358.8000488281</ele>
        <time>2019-02-17T08:39:52.000Z</time>
      </trkpt>
      <trkpt lat="45.79635" lon="6.38541">
        <ele>1359.1999511719</ele>
        <time>2019-02-17T08:39:55.000Z</time>
      </trkpt>
      <trkpt lat="45.79635" lon="6.38545">
        <ele>1360</ele>
        <time>2019-02-17T08:39:58.000Z</time>
      </trkpt>
      <trkpt lat="45.79635" lon="6.38547">
        <ele>1360.1999511719</ele>
        <time>2019-02-17T08:39:59.000Z</time>
      </trkpt>
      <trkpt lat="45.79636" lon="6.38552">
        <ele>1360.8000488281</ele>
        <time>2019-02-17T08:40:03.000Z</time>
      </trkpt>
      <trkpt lat="45.79637" lon="6.38559">
        <ele>1361.1999511719</ele>
        <time>2019-02-17T08:40:08.000Z</time>
      </trkpt>
      <trkpt lat="45.79637" lon="6.38568">
        <ele>1361.8000488281</ele>
        <time>2019-02-17T08:40:14.000Z</time>
      </trkpt>
      <trkpt lat="45.79637" lon="6.38572">
        <ele>1362.4000244141</ele>
        <time>2019-02-17T08:40:18.000Z</time>
      </trkpt>
      <trkpt lat="45.79637" lon="6.38578">
        <ele>1363</ele>
        <time>2019-02-17T08:40:23.000Z</time>
      </trkpt>
      <trkpt lat="45.79637" lon="6.38579">
        <ele>1363.5999755859</ele>
        <time>2019-02-17T08:40:24.000Z</time>
      </trkpt>
      <trkpt lat="45.79636" lon="6.38584">
        <ele>1364.4000244141</ele>
        <time>2019-02-17T08:40:28.000Z</time>
      </trkpt>
      <trkpt lat="45.79636" lon="6.38586">
        <ele>1364.5999755859</ele>
        <time>2019-02-17T08:40:30.000Z</time>
      </trkpt>
      <trkpt lat="45.79635" lon="6.38591">
        <ele>1365.8000488281</ele>
        <time>2019-02-17T08:40:34.000Z</time>
      </trkpt>
      <trkpt lat="45.79634" lon="6.38596">
        <ele>1366.4000244141</ele>
        <time>2019-02-17T08:40:38.000Z</time>
      </trkpt>
      <trkpt lat="45.79634" lon="6.38598">
        <ele>1366.8000488281</ele>
        <time>2019-02-17T08:40:40.000Z</time>
      </trkpt>
      <trkpt lat="45.79634" lon="6.38602">
        <ele>1367.1999511719</ele>
        <time>2019-02-17T08:40:43.000Z</time>
      </trkpt>
      <trkpt lat="45.79633" lon="6.38605">
        <ele>1367.8000488281</ele>
        <time>2019-02-17T08:40:46.000Z</time>
      </trkpt>
      <trkpt lat="45.79633" lon="6.38607">
        <ele>1368.1999511719</ele>
        <time>2019-02-17T08:40:48.000Z</time>
      </trkpt>
      <trkpt lat="45.79633" lon="6.3861">
        <ele>1368.8000488281</ele>
        <time>2019-02-17T08:40:53.000Z</time>
      </trkpt>
      <trkpt lat="45.79633" lon="6.38612">
        <ele>1369</ele>
        <time>2019-02-17T08:40:54.000Z</time>
      </trkpt>
      <trkpt lat="45.79634" lon="6.38616">
        <ele>1369.5999755859</ele>
        <time>2019-02-17T08:40:58.000Z</time>
      </trkpt>
      <trkpt lat="45.79633" lon="6.38619">
        <ele>1370</ele>
        <time>2019-02-17T08:41:00.000Z</time>
      </trkpt>
      <trkpt lat="45.79634" lon="6.38622">
        <ele>1370.5999755859</ele>
        <time>2019-02-17T08:41:03.000Z</time>
      </trkpt>
      <trkpt lat="45.79634" lon="6.38624">
        <ele>1371</ele>
        <time>2019-02-17T08:41:05.000Z</time>
      </trkpt>
      <trkpt lat="45.79635" lon="6.38627">
        <ele>1371.4000244141</ele>
        <time>2019-02-17T08:41:08.000Z</time>
      </trkpt>
      <trkpt lat="45.79636" lon="6.3863">
        <ele>1372</ele>
        <time>2019-02-17T08:41:11.000Z</time>
      </trkpt>
      <trkpt lat="45.79636" lon="6.3863">
        <ele>1372.4000244141</ele>
        <time>2019-02-17T08:41:12.000Z</time>
      </trkpt>
      <trkpt lat="45.79636" lon="6.38635">
        <ele>1373.1999511719</ele>
        <time>2019-02-17T08:41:16.000Z</time>
      </trkpt>
      <trkpt lat="45.79636" lon="6.38635">
        <ele>1373.4000244141</ele>
        <time>2019-02-17T08:41:18.000Z</time>
      </trkpt>
      <trkpt lat="45.79636" lon="6.38637">
        <ele>1373.8000488281</ele>
        <time>2019-02-17T08:41:20.000Z</time>
      </trkpt>
      <trkpt lat="45.79636" lon="6.38638">
        <ele>1374.5999755859</ele>
        <time>2019-02-17T08:41:23.000Z</time>
      </trkpt>
      <trkpt lat="45.79636" lon="6.38638">
        <ele>1375</ele>
        <time>2019-02-17T08:41:25.000Z</time>
      </trkpt>
      <trkpt lat="45.79637" lon="6.38643">
        <ele>1375.5999755859</ele>
        <time>2019-02-17T08:41:31.000Z</time>
      </trkpt>
      <trkpt lat="45.79636" lon="6.38648">
        <ele>1376.1999511719</ele>
        <time>2019-02-17T08:41:36.000Z</time>
      </trkpt>
      <trkpt lat="45.79636" lon="6.38648">
        <ele>1376.8000488281</ele>
        <time>2019-02-17T08:41:40.000Z</time>
      </trkpt>
      <trkpt lat="45.79636" lon="6.38648">
        <ele>1377</ele>
        <time>2019-02-17T08:41:50.000Z</time>
      </trkpt>
      <trkpt lat="45.79637" lon="6.38651">
        <ele>1377</ele>
        <time>2019-02-17T08:41:56.000Z</time>
      </trkpt>
      <trkpt lat="45.79637" lon="6.38659">
        <ele>1377.4000244141</ele>
        <time>2019-02-17T08:42:01.000Z</time>
      </trkpt>
      <trkpt lat="45.79636" lon="6.3866">
        <ele>1377.4000244141</ele>
        <time>2019-02-17T08:42:02.000Z</time>
      </trkpt>
      <trkpt lat="45.79636" lon="6.38663">
        <ele>1377.8000488281</ele>
        <time>2019-02-17T08:42:05.000Z</time>
      </trkpt>
      <trkpt lat="45.79635" lon="6.38667">
        <ele>1379</ele>
        <time>2019-02-17T08:42:10.000Z</time>
      </trkpt>
      <trkpt lat="45.79633" lon="6.38671">
        <ele>1379.4000244141</ele>
        <time>2019-02-17T08:42:14.000Z</time>
      </trkpt>
      <trkpt lat="45.79631" lon="6.38674">
        <ele>1379.8000488281</ele>
        <time>2019-02-17T08:42:16.000Z</time>
      </trkpt>
      <trkpt lat="45.7963" lon="6.38676">
        <ele>1380</ele>
        <time>2019-02-17T08:42:18.000Z</time>
      </trkpt>
      <trkpt lat="45.79625" lon="6.38681">
        <ele>1380.5999755859</ele>
        <time>2019-02-17T08:42:23.000Z</time>
      </trkpt>
      <trkpt lat="45.79624" lon="6.38682">
        <ele>1381.1999511719</ele>
        <time>2019-02-17T08:42:25.000Z</time>
      </trkpt>
      <trkpt lat="45.79623" lon="6.38683">
        <ele>1381.1999511719</ele>
        <time>2019-02-17T08:42:26.000Z</time>
      </trkpt>
      <trkpt lat="45.79621" lon="6.38685">
        <ele>1381.4000244141</ele>
        <time>2019-02-17T08:42:29.000Z</time>
      </trkpt>
      <trkpt lat="45.79617" lon="6.38689">
        <ele>1381.8000488281</ele>
        <time>2019-02-17T08:42:34.000Z</time>
      </trkpt>
      <trkpt lat="45.79615" lon="6.3869">
        <ele>1382.1999511719</ele>
        <time>2019-02-17T08:42:36.000Z</time>
      </trkpt>
      <trkpt lat="45.79612" lon="6.38692">
        <ele>1382.8000488281</ele>
        <time>2019-02-17T08:42:39.000Z</time>
      </trkpt>
      <trkpt lat="45.7961" lon="6.38693">
        <ele>1383</ele>
        <time>2019-02-17T08:42:41.000Z</time>
      </trkpt>
      <trkpt lat="45.79605" lon="6.38695">
        <ele>1383.1999511719</ele>
        <time>2019-02-17T08:42:45.000Z</time>
      </trkpt>
      <trkpt lat="45.79604" lon="6.38695">
        <ele>1383.1999511719</ele>
        <time>2019-02-17T08:42:46.000Z</time>
      </trkpt>
      <trkpt lat="45.796" lon="6.38697">
        <ele>1383.4000244141</ele>
        <time>2019-02-17T08:42:50.000Z</time>
      </trkpt>
      <trkpt lat="45.79596" lon="6.387">
        <ele>1383.5999755859</ele>
        <time>2019-02-17T08:42:56.000Z</time>
      </trkpt>
      <trkpt lat="45.79596" lon="6.387">
        <ele>1383.8000488281</ele>
        <time>2019-02-17T08:42:57.000Z</time>
      </trkpt>
      <trkpt lat="45.79594" lon="6.38702">
        <ele>1384.1999511719</ele>
        <time>2019-02-17T08:42:59.000Z</time>
      </trkpt>
      <trkpt lat="45.79593" lon="6.38702">
        <ele>1384.8000488281</ele>
        <time>2019-02-17T08:43:01.000Z</time>
      </trkpt>
      <trkpt lat="45.79591" lon="6.38705">
        <ele>1385.4000244141</ele>
        <time>2019-02-17T08:43:04.000Z</time>
      </trkpt>
      <trkpt lat="45.7959" lon="6.38706">
        <ele>1385.4000244141</ele>
        <time>2019-02-17T08:43:05.000Z</time>
      </trkpt>
      <trkpt lat="45.7959" lon="6.38707">
        <ele>1385.5999755859</ele>
        <time>2019-02-17T08:43:06.000Z</time>
      </trkpt>
      <trkpt lat="45.79588" lon="6.38712">
        <ele>1386.4000244141</ele>
        <time>2019-02-17T08:43:11.000Z</time>
      </trkpt>
      <trkpt lat="45.79588" lon="6.38713">
        <ele>1387</ele>
        <time>2019-02-17T08:43:17.000Z</time>
      </trkpt>
      <trkpt lat="45.79588" lon="6.38713">
        <ele>1387</ele>
        <time>2019-02-17T08:43:21.000Z</time>
      </trkpt>
      <trkpt lat="45.79588" lon="6.38715">
        <ele>1387</ele>
        <time>2019-02-17T08:43:23.000Z</time>
      </trkpt>
      <trkpt lat="45.79589" lon="6.38717">
        <ele>1387</ele>
        <time>2019-02-17T08:43:24.000Z</time>
      </trkpt>
      <trkpt lat="45.7959" lon="6.38722">
        <ele>1387.1999511719</ele>
        <time>2019-02-17T08:43:27.000Z</time>
      </trkpt>
      <trkpt lat="45.79591" lon="6.38725">
        <ele>1387.4000244141</ele>
        <time>2019-02-17T08:43:29.000Z</time>
      </trkpt>
      <trkpt lat="45.79591" lon="6.38726">
        <ele>1387.4000244141</ele>
        <time>2019-02-17T08:43:30.000Z</time>
      </trkpt>
      <trkpt lat="45.79592" lon="6.38731">
        <ele>1387.5999755859</ele>
        <time>2019-02-17T08:43:34.000Z</time>
      </trkpt>
      <trkpt lat="45.79592" lon="6.38733">
        <ele>1387.5999755859</ele>
        <time>2019-02-17T08:43:35.000Z</time>
      </trkpt>
      <trkpt lat="45.79593" lon="6.38745">
        <ele>1387.5999755859</ele>
        <time>2019-02-17T08:43:42.000Z</time>
      </trkpt>
      <trkpt lat="45.79595" lon="6.38755">
        <ele>1386.8000488281</ele>
        <time>2019-02-17T08:43:47.000Z</time>
      </trkpt>
      <trkpt lat="45.79597" lon="6.38761">
        <ele>1386.8000488281</ele>
        <time>2019-02-17T08:43:52.000Z</time>
      </trkpt>
      <trkpt lat="45.796" lon="6.38767">
        <ele>1387.5999755859</ele>
        <time>2019-02-17T08:43:56.000Z</time>
      </trkpt>
      <trkpt lat="45.796" lon="6.38769">
        <ele>1387.5999755859</ele>
        <time>2019-02-17T08:43:57.000Z</time>
      </trkpt>
      <trkpt lat="45.79601" lon="6.38774">
        <ele>1388</ele>
        <time>2019-02-17T08:44:01.000Z</time>
      </trkpt>
      <trkpt lat="45.79602" lon="6.38779">
        <ele>1388.1999511719</ele>
        <time>2019-02-17T08:44:04.000Z</time>
      </trkpt>
      <trkpt lat="45.79603" lon="6.38782">
        <ele>1388.4000244141</ele>
        <time>2019-02-17T08:44:06.000Z</time>
      </trkpt>
      <trkpt lat="45.79605" lon="6.38787">
        <ele>1389.1999511719</ele>
        <time>2019-02-17T08:44:11.000Z</time>
      </trkpt>
      <trkpt lat="45.79605" lon="6.38789">
        <ele>1389.4000244141</ele>
        <time>2019-02-17T08:44:12.000Z</time>
      </trkpt>
      <trkpt lat="45.79606" lon="6.38791">
        <ele>1389.5999755859</ele>
        <time>2019-02-17T08:44:14.000Z</time>
      </trkpt>
      <trkpt lat="45.79607" lon="6.38795">
        <ele>1389.5999755859</ele>
        <time>2019-02-17T08:44:16.000Z</time>
      </trkpt>
      <trkpt lat="45.79608" lon="6.38802">
        <ele>1390</ele>
        <time>2019-02-17T08:44:21.000Z</time>
      </trkpt>
      <trkpt lat="45.79611" lon="6.38807">
        <ele>1390.4000244141</ele>
        <time>2019-02-17T08:44:25.000Z</time>
      </trkpt>
      <trkpt lat="45.79612" lon="6.3881">
        <ele>1390.5999755859</ele>
        <time>2019-02-17T08:44:27.000Z</time>
      </trkpt>
      <trkpt lat="45.79614" lon="6.38814">
        <ele>1391</ele>
        <time>2019-02-17T08:44:30.000Z</time>
      </trkpt>
      <trkpt lat="45.79617" lon="6.38817">
        <ele>1391.5999755859</ele>
        <time>2019-02-17T08:44:34.000Z</time>
      </trkpt>
      <trkpt lat="45.79621" lon="6.38823">
        <ele>1392.5999755859</ele>
        <time>2019-02-17T08:44:40.000Z</time>
      </trkpt>
      <trkpt lat="45.79622" lon="6.38827">
        <ele>1393.4000244141</ele>
        <time>2019-02-17T08:44:44.000Z</time>
      </trkpt>
      <trkpt lat="45.79624" lon="6.38831">
        <ele>1393.8000488281</ele>
        <time>2019-02-17T08:44:47.000Z</time>
      </trkpt>
      <trkpt lat="45.79625" lon="6.38833">
        <ele>1394.1999511719</ele>
        <time>2019-02-17T08:44:49.000Z</time>
      </trkpt>
      <trkpt lat="45.79626" lon="6.38837">
        <ele>1394.8000488281</ele>
        <time>2019-02-17T08:44:52.000Z</time>
      </trkpt>
      <trkpt lat="45.79627" lon="6.38838">
        <ele>1395</ele>
        <time>2019-02-17T08:44:53.000Z</time>
      </trkpt>
      <trkpt lat="45.79629" lon="6.3884">
        <ele>1395.4000244141</ele>
        <time>2019-02-17T08:44:56.000Z</time>
      </trkpt>
      <trkpt lat="45.7963" lon="6.38841">
        <ele>1395.5999755859</ele>
        <time>2019-02-17T08:44:57.000Z</time>
      </trkpt>
      <trkpt lat="45.7963" lon="6.38842">
        <ele>1395.8000488281</ele>
        <time>2019-02-17T08:44:58.000Z</time>
      </trkpt>
      <trkpt lat="45.79632" lon="6.38845">
        <ele>1396.4000244141</ele>
        <time>2019-02-17T08:45:01.000Z</time>
      </trkpt>
      <trkpt lat="45.79633" lon="6.38846">
        <ele>1396.8000488281</ele>
        <time>2019-02-17T08:45:02.000Z</time>
      </trkpt>
      <trkpt lat="45.79634" lon="6.38846">
        <ele>1397</ele>
        <time>2019-02-17T08:45:03.000Z</time>
      </trkpt>
      <trkpt lat="45.79635" lon="6.38848">
        <ele>1397.4000244141</ele>
        <time>2019-02-17T08:45:05.000Z</time>
      </trkpt>
      <trkpt lat="45.79638" lon="6.38851">
        <ele>1398</ele>
        <time>2019-02-17T08:45:09.000Z</time>
      </trkpt>
      <trkpt lat="45.79642" lon="6.38852">
        <ele>1399.1999511719</ele>
        <time>2019-02-17T08:45:13.000Z</time>
      </trkpt>
      <trkpt lat="45.79643" lon="6.38853">
        <ele>1399.4000244141</ele>
        <time>2019-02-17T08:45:14.000Z</time>
      </trkpt>
      <trkpt lat="45.79645" lon="6.38853">
        <ele>1400.4000244141</ele>
        <time>2019-02-17T08:45:19.000Z</time>
      </trkpt>
      <trkpt lat="45.79645" lon="6.38853">
        <ele>1401.1999511719</ele>
        <time>2019-02-17T08:45:34.000Z</time>
      </trkpt>
      <trkpt lat="45.79645" lon="6.38854">
        <ele>1401.1999511719</ele>
        <time>2019-02-17T08:45:36.000Z</time>
      </trkpt>
      <trkpt lat="45.79646" lon="6.38855">
        <ele>1401.1999511719</ele>
        <time>2019-02-17T08:45:38.000Z</time>
      </trkpt>
      <trkpt lat="45.7965" lon="6.38857">
        <ele>1401.5999755859</ele>
        <time>2019-02-17T08:45:42.000Z</time>
      </trkpt>
      <trkpt lat="45.79652" lon="6.38859">
        <ele>1402</ele>
        <time>2019-02-17T08:45:44.000Z</time>
      </trkpt>
      <trkpt lat="45.79654" lon="6.3886">
        <ele>1402.5999755859</ele>
        <time>2019-02-17T08:45:46.000Z</time>
      </trkpt>
      <trkpt lat="45.79656" lon="6.38861">
        <ele>1403</ele>
        <time>2019-02-17T08:45:48.000Z</time>
      </trkpt>
      <trkpt lat="45.79657" lon="6.38863">
        <ele>1403.5999755859</ele>
        <time>2019-02-17T08:45:51.000Z</time>
      </trkpt>
      <trkpt lat="45.79657" lon="6.38863">
        <ele>1403.8000488281</ele>
        <time>2019-02-17T08:45:52.000Z</time>
      </trkpt>
      <trkpt lat="45.79658" lon="6.38864">
        <ele>1404</ele>
        <time>2019-02-17T08:45:53.000Z</time>
      </trkpt>
      <trkpt lat="45.79659" lon="6.38867">
        <ele>1404.5999755859</ele>
        <time>2019-02-17T08:45:56.000Z</time>
      </trkpt>
      <trkpt lat="45.7966" lon="6.38868">
        <ele>1405</ele>
        <time>2019-02-17T08:45:58.000Z</time>
      </trkpt>
      <trkpt lat="45.7966" lon="6.38871">
        <ele>1405.8000488281</ele>
        <time>2019-02-17T08:46:01.000Z</time>
      </trkpt>
      <trkpt lat="45.7966" lon="6.38873">
        <ele>1406</ele>
        <time>2019-02-17T08:46:02.000Z</time>
      </trkpt>
      <trkpt lat="45.7966" lon="6.38875">
        <ele>1406.1999511719</ele>
        <time>2019-02-17T08:46:03.000Z</time>
      </trkpt>
      <trkpt lat="45.79662" lon="6.38878">
        <ele>1406.8000488281</ele>
        <time>2019-02-17T08:46:06.000Z</time>
      </trkpt>
      <trkpt lat="45.79662" lon="6.38878">
        <ele>1407</ele>
        <time>2019-02-17T08:46:07.000Z</time>
      </trkpt>
      <trkpt lat="45.79663" lon="6.3888">
        <ele>1407.5999755859</ele>
        <time>2019-02-17T08:46:10.000Z</time>
      </trkpt>
      <trkpt lat="45.79663" lon="6.38882">
        <ele>1408</ele>
        <time>2019-02-17T08:46:12.000Z</time>
      </trkpt>
      <trkpt lat="45.79664" lon="6.38884">
        <ele>1408.4000244141</ele>
        <time>2019-02-17T08:46:14.000Z</time>
      </trkpt>
      <trkpt lat="45.79664" lon="6.38888">
        <ele>1409.1999511719</ele>
        <time>2019-02-17T08:46:17.000Z</time>
      </trkpt>
      <trkpt lat="45.79664" lon="6.38889">
        <ele>1409.4000244141</ele>
        <time>2019-02-17T08:46:18.000Z</time>
      </trkpt>
      <trkpt lat="45.79664" lon="6.38893">
        <ele>1410.1999511719</ele>
        <time>2019-02-17T08:46:22.000Z</time>
      </trkpt>
      <trkpt lat="45.79664" lon="6.38894">
        <ele>1410.4000244141</ele>
        <time>2019-02-17T08:46:23.000Z</time>
      </trkpt>
      <trkpt lat="45.79664" lon="6.389">
        <ele>1411.4000244141</ele>
        <time>2019-02-17T08:46:28.000Z</time>
      </trkpt>
      <trkpt lat="45.79663" lon="6.38905">
        <ele>1412.4000244141</ele>
        <time>2019-02-17T08:46:33.000Z</time>
      </trkpt>
      <trkpt lat="45.79663" lon="6.38906">
        <ele>1412.5999755859</ele>
        <time>2019-02-17T08:46:34.000Z</time>
      </trkpt>
      <trkpt lat="45.79663" lon="6.38911">
        <ele>1413.5999755859</ele>
        <time>2019-02-17T08:46:39.000Z</time>
      </trkpt>
      <trkpt lat="45.79663" lon="6.38913">
        <ele>1414.4000244141</ele>
        <time>2019-02-17T08:46:43.000Z</time>
      </trkpt>
      <trkpt lat="45.79663" lon="6.38915">
        <ele>1414.5999755859</ele>
        <time>2019-02-17T08:46:44.000Z</time>
      </trkpt>
      <trkpt lat="45.79663" lon="6.38918">
        <ele>1415.1999511719</ele>
        <time>2019-02-17T08:46:47.000Z</time>
      </trkpt>
      <trkpt lat="45.79663" lon="6.3892">
        <ele>1415.8000488281</ele>
        <time>2019-02-17T08:46:49.000Z</time>
      </trkpt>
      <trkpt lat="45.79662" lon="6.38923">
        <ele>1416.4000244141</ele>
        <time>2019-02-17T08:46:52.000Z</time>
      </trkpt>
      <trkpt lat="45.79662" lon="6.38924">
        <ele>1417</ele>
        <time>2019-02-17T08:46:54.000Z</time>
      </trkpt>
      <trkpt lat="45.79662" lon="6.38928">
        <ele>1417.5999755859</ele>
        <time>2019-02-17T08:46:57.000Z</time>
      </trkpt>
      <trkpt lat="45.79662" lon="6.3893">
        <ele>1418</ele>
        <time>2019-02-17T08:46:59.000Z</time>
      </trkpt>
      <trkpt lat="45.79662" lon="6.38932">
        <ele>1418.1999511719</ele>
        <time>2019-02-17T08:47:00.000Z</time>
      </trkpt>
      <trkpt lat="45.79662" lon="6.38935">
        <ele>1418.8000488281</ele>
        <time>2019-02-17T08:47:02.000Z</time>
      </trkpt>
      <trkpt lat="45.79662" lon="6.38937">
        <ele>1419.1999511719</ele>
        <time>2019-02-17T08:47:04.000Z</time>
      </trkpt>
      <trkpt lat="45.79663" lon="6.38942">
        <ele>1420</ele>
        <time>2019-02-17T08:47:08.000Z</time>
      </trkpt>
      <trkpt lat="45.79663" lon="6.38943">
        <ele>1420.1999511719</ele>
        <time>2019-02-17T08:47:09.000Z</time>
      </trkpt>
      <trkpt lat="45.79663" lon="6.38946">
        <ele>1421.1999511719</ele>
        <time>2019-02-17T08:47:13.000Z</time>
      </trkpt>
      <trkpt lat="45.79664" lon="6.38947">
        <ele>1421.4000244141</ele>
        <time>2019-02-17T08:47:14.000Z</time>
      </trkpt>
      <trkpt lat="45.79664" lon="6.38949">
        <ele>1422</ele>
        <time>2019-02-17T08:47:17.000Z</time>
      </trkpt>
      <trkpt lat="45.79664" lon="6.3895">
        <ele>1422.1999511719</ele>
        <time>2019-02-17T08:47:18.000Z</time>
      </trkpt>
      <trkpt lat="45.79664" lon="6.3895">
        <ele>1422.5999755859</ele>
        <time>2019-02-17T08:47:19.000Z</time>
      </trkpt>
      <trkpt lat="45.79664" lon="6.38951">
        <ele>1423</ele>
        <time>2019-02-17T08:47:21.000Z</time>
      </trkpt>
      <trkpt lat="45.79663" lon="6.38951">
        <ele>1423.5999755859</ele>
        <time>2019-02-17T08:47:24.000Z</time>
      </trkpt>
      <trkpt lat="45.79662" lon="6.38952">
        <ele>1424.1999511719</ele>
        <time>2019-02-17T08:47:27.000Z</time>
      </trkpt>
      <trkpt lat="45.79661" lon="6.38952">
        <ele>1424.4000244141</ele>
        <time>2019-02-17T08:47:28.000Z</time>
      </trkpt>
      <trkpt lat="45.7966" lon="6.38954">
        <ele>1424.8000488281</ele>
        <time>2019-02-17T08:47:31.000Z</time>
      </trkpt>
      <trkpt lat="45.7966" lon="6.38954">
        <ele>1424.8000488281</ele>
        <time>2019-02-17T08:47:32.000Z</time>
      </trkpt>
      <trkpt lat="45.79657" lon="6.38958">
        <ele>1425.5999755859</ele>
        <time>2019-02-17T08:47:37.000Z</time>
      </trkpt>
      <trkpt lat="45.79657" lon="6.38959">
        <ele>1425.8000488281</ele>
        <time>2019-02-17T08:47:38.000Z</time>
      </trkpt>
      <trkpt lat="45.79656" lon="6.38962">
        <ele>1426.8000488281</ele>
        <time>2019-02-17T08:47:44.000Z</time>
      </trkpt>
      <trkpt lat="45.79656" lon="6.38963">
        <ele>1427</ele>
        <time>2019-02-17T08:47:45.000Z</time>
      </trkpt>
      <trkpt lat="45.79656" lon="6.38966">
        <ele>1428</ele>
        <time>2019-02-17T08:47:51.000Z</time>
      </trkpt>
      <trkpt lat="45.79656" lon="6.38966">
        <ele>1429</ele>
        <time>2019-02-17T08:48:04.000Z</time>
      </trkpt>
      <trkpt lat="45.79656" lon="6.38966">
        <ele>1429</ele>
        <time>2019-02-17T08:48:20.000Z</time>
      </trkpt>
      <trkpt lat="45.79656" lon="6.38966">
        <ele>1429</ele>
        <time>2019-02-17T08:48:42.000Z</time>
      </trkpt>
      <trkpt lat="45.79656" lon="6.38966">
        <ele>1429</ele>
        <time>2019-02-17T08:48:48.000Z</time>
      </trkpt>
      <trkpt lat="45.79656" lon="6.38966">
        <ele>1429</ele>
        <time>2019-02-17T08:49:05.000Z</time>
      </trkpt>
      <trkpt lat="45.79656" lon="6.38967">
        <ele>1429.1999511719</ele>
        <time>2019-02-17T08:49:20.000Z</time>
      </trkpt>
      <trkpt lat="45.79656" lon="6.38976">
        <ele>1429.4000244141</ele>
        <time>2019-02-17T08:49:25.000Z</time>
      </trkpt>
      <trkpt lat="45.79657" lon="6.3898">
        <ele>1430.1999511719</ele>
        <time>2019-02-17T08:49:28.000Z</time>
      </trkpt>
      <trkpt lat="45.79658" lon="6.38983">
        <ele>1430.5999755859</ele>
        <time>2019-02-17T08:49:30.000Z</time>
      </trkpt>
      <trkpt lat="45.79658" lon="6.38985">
        <ele>1431.4000244141</ele>
        <time>2019-02-17T08:49:32.000Z</time>
      </trkpt>
      <trkpt lat="45.79657" lon="6.38988">
        <ele>1433</ele>
        <time>2019-02-17T08:49:36.000Z</time>
      </trkpt>
      <trkpt lat="45.79657" lon="6.3899">
        <ele>1433.1999511719</ele>
        <time>2019-02-17T08:49:37.000Z</time>
      </trkpt>
      <trkpt lat="45.79656" lon="6.38994">
        <ele>1434.1999511719</ele>
        <time>2019-02-17T08:49:41.000Z</time>
      </trkpt>
      <trkpt lat="45.79656" lon="6.38994">
        <ele>1434.4000244141</ele>
        <time>2019-02-17T08:49:42.000Z</time>
      </trkpt>
      <trkpt lat="45.79656" lon="6.39">
        <ele>1435.1999511719</ele>
        <time>2019-02-17T08:49:47.000Z</time>
      </trkpt>
      <trkpt lat="45.79657" lon="6.39007">
        <ele>1436.4000244141</ele>
        <time>2019-02-17T08:49:51.000Z</time>
      </trkpt>
      <trkpt lat="45.79657" lon="6.39008">
        <ele>1436.5999755859</ele>
        <time>2019-02-17T08:49:52.000Z</time>
      </trkpt>
      <trkpt lat="45.79658" lon="6.39012">
        <ele>1437.4000244141</ele>
        <time>2019-02-17T08:49:55.000Z</time>
      </trkpt>
      <trkpt lat="45.7966" lon="6.39015">
        <ele>1437.8000488281</ele>
        <time>2019-02-17T08:49:58.000Z</time>
      </trkpt>
      <trkpt lat="45.79665" lon="6.39026">
        <ele>1438.4000244141</ele>
        <time>2019-02-17T08:50:05.000Z</time>
      </trkpt>
      <trkpt lat="45.79668" lon="6.39036">
        <ele>1438.4000244141</ele>
        <time>2019-02-17T08:50:11.000Z</time>
      </trkpt>
      <trkpt lat="45.79669" lon="6.39037">
        <ele>1438.4000244141</ele>
        <time>2019-02-17T08:50:12.000Z</time>
      </trkpt>
      <trkpt lat="45.79672" lon="6.39039">
        <ele>1438.8000488281</ele>
        <time>2019-02-17T08:50:16.000Z</time>
      </trkpt>
      <trkpt lat="45.79672" lon="6.39039">
        <ele>1439.4000244141</ele>
        <time>2019-02-17T08:50:27.000Z</time>
      </trkpt>
      <trkpt lat="45.79672" lon="6.39039">
        <ele>1439.5999755859</ele>
        <time>2019-02-17T08:50:29.000Z</time>
      </trkpt>
      <trkpt lat="45.79665" lon="6.3904">
        <ele>1440</ele>
        <time>2019-02-17T08:50:34.000Z</time>
      </trkpt>
      <trkpt lat="45.79661" lon="6.39042">
        <ele>1440.5999755859</ele>
        <time>2019-02-17T08:50:40.000Z</time>
      </trkpt>
      <trkpt lat="45.79661" lon="6.39044">
        <ele>1441.8000488281</ele>
        <time>2019-02-17T08:50:45.000Z</time>
      </trkpt>
      <trkpt lat="45.79661" lon="6.39045">
        <ele>1442</ele>
        <time>2019-02-17T08:50:46.000Z</time>
      </trkpt>
      <trkpt lat="45.79659" lon="6.39047">
        <ele>1442.8000488281</ele>
        <time>2019-02-17T08:50:49.000Z</time>
      </trkpt>
      <trkpt lat="45.79657" lon="6.39048">
        <ele>1443.1999511719</ele>
        <time>2019-02-17T08:50:51.000Z</time>
      </trkpt>
      <trkpt lat="45.79656" lon="6.3905">
        <ele>1443.8000488281</ele>
        <time>2019-02-17T08:50:54.000Z</time>
      </trkpt>
      <trkpt lat="45.79655" lon="6.39052">
        <ele>1445</ele>
        <time>2019-02-17T08:50:58.000Z</time>
      </trkpt>
      <trkpt lat="45.79655" lon="6.39052">
        <ele>1445.1999511719</ele>
        <time>2019-02-17T08:50:59.000Z</time>
      </trkpt>
      <trkpt lat="45.79653" lon="6.39056">
        <ele>1446.1999511719</ele>
        <time>2019-02-17T08:51:03.000Z</time>
      </trkpt>
      <trkpt lat="45.79653" lon="6.39059">
        <ele>1446.5999755859</ele>
        <time>2019-02-17T08:51:05.000Z</time>
      </trkpt>
      <trkpt lat="45.79652" lon="6.39062">
        <ele>1447.4000244141</ele>
        <time>2019-02-17T08:51:09.000Z</time>
      </trkpt>
      <trkpt lat="45.79651" lon="6.39064">
        <ele>1447.8000488281</ele>
        <time>2019-02-17T08:51:11.000Z</time>
      </trkpt>
      <trkpt lat="45.7965" lon="6.39066">
        <ele>1448.4000244141</ele>
        <time>2019-02-17T08:51:14.000Z</time>
      </trkpt>
      <trkpt lat="45.79649" lon="6.39068">
        <ele>1448.8000488281</ele>
        <time>2019-02-17T08:51:17.000Z</time>
      </trkpt>
      <trkpt lat="45.79647" lon="6.39073">
        <ele>1449.4000244141</ele>
        <time>2019-02-17T08:51:21.000Z</time>
      </trkpt>
      <trkpt lat="45.79647" lon="6.39077">
        <ele>1450</ele>
        <time>2019-02-17T08:51:23.000Z</time>
      </trkpt>
      <trkpt lat="45.79647" lon="6.3908">
        <ele>1450.5999755859</ele>
        <time>2019-02-17T08:51:26.000Z</time>
      </trkpt>
      <trkpt lat="45.79646" lon="6.39082">
        <ele>1450.8000488281</ele>
        <time>2019-02-17T08:51:28.000Z</time>
      </trkpt>
      <trkpt lat="45.79646" lon="6.39088">
        <ele>1451.5999755859</ele>
        <time>2019-02-17T08:51:33.000Z</time>
      </trkpt>
      <trkpt lat="45.79646" lon="6.39094">
        <ele>1452.8000488281</ele>
        <time>2019-02-17T08:51:38.000Z</time>
      </trkpt>
      <trkpt lat="45.79646" lon="6.39095">
        <ele>1453</ele>
        <time>2019-02-17T08:51:39.000Z</time>
      </trkpt>
      <trkpt lat="45.79645" lon="6.391">
        <ele>1453.8000488281</ele>
        <time>2019-02-17T08:51:44.000Z</time>
      </trkpt>
      <trkpt lat="45.79646" lon="6.39102">
        <ele>1454</ele>
        <time>2019-02-17T08:51:45.000Z</time>
      </trkpt>
      <trkpt lat="45.79645" lon="6.39106">
        <ele>1454.5999755859</ele>
        <time>2019-02-17T08:51:49.000Z</time>
      </trkpt>
      <trkpt lat="45.79644" lon="6.39109">
        <ele>1455</ele>
        <time>2019-02-17T08:51:53.000Z</time>
      </trkpt>
      <trkpt lat="45.79643" lon="6.3911">
        <ele>1455.1999511719</ele>
        <time>2019-02-17T08:51:55.000Z</time>
      </trkpt>
      <trkpt lat="45.79644" lon="6.39116">
        <ele>1456.1999511719</ele>
        <time>2019-02-17T08:52:00.000Z</time>
      </trkpt>
      <trkpt lat="45.79642" lon="6.39123">
        <ele>1457.1999511719</ele>
        <time>2019-02-17T08:52:06.000Z</time>
      </trkpt>
      <trkpt lat="45.79641" lon="6.39125">
        <ele>1457.4000244141</ele>
        <time>2019-02-17T08:52:07.000Z</time>
      </trkpt>
      <trkpt lat="45.79639" lon="6.39128">
        <ele>1457.5999755859</ele>
        <time>2019-02-17T08:52:11.000Z</time>
      </trkpt>
      <trkpt lat="45.79639" lon="6.39133">
        <ele>1458.4000244141</ele>
        <time>2019-02-17T08:52:16.000Z</time>
      </trkpt>
      <trkpt lat="45.79638" lon="6.39134">
        <ele>1458.5999755859</ele>
        <time>2019-02-17T08:52:17.000Z</time>
      </trkpt>
      <trkpt lat="45.79636" lon="6.39141">
        <ele>1459.4000244141</ele>
        <time>2019-02-17T08:52:22.000Z</time>
      </trkpt>
      <trkpt lat="45.79636" lon="6.39142">
        <ele>1459.5999755859</ele>
        <time>2019-02-17T08:52:23.000Z</time>
      </trkpt>
      <trkpt lat="45.79635" lon="6.39144">
        <ele>1460</ele>
        <time>2019-02-17T08:52:25.000Z</time>
      </trkpt>
      <trkpt lat="45.79635" lon="6.39149">
        <ele>1460.4000244141</ele>
        <time>2019-02-17T08:52:28.000Z</time>
      </trkpt>
      <trkpt lat="45.79635" lon="6.3915">
        <ele>1460.5999755859</ele>
        <time>2019-02-17T08:52:29.000Z</time>
      </trkpt>
      <trkpt lat="45.79636" lon="6.39157">
        <ele>1460.8000488281</ele>
        <time>2019-02-17T08:52:33.000Z</time>
      </trkpt>
      <trkpt lat="45.79636" lon="6.39163">
        <ele>1461.1999511719</ele>
        <time>2019-02-17T08:52:38.000Z</time>
      </trkpt>
      <trkpt lat="45.79636" lon="6.39165">
        <ele>1461.5999755859</ele>
        <time>2019-02-17T08:52:40.000Z</time>
      </trkpt>
      <trkpt lat="45.79636" lon="6.39166">
        <ele>1462</ele>
        <time>2019-02-17T08:52:42.000Z</time>
      </trkpt>
      <trkpt lat="45.79635" lon="6.39171">
        <ele>1462.5999755859</ele>
        <time>2019-02-17T08:52:45.000Z</time>
      </trkpt>
      <trkpt lat="45.79635" lon="6.39174">
        <ele>1462.8000488281</ele>
        <time>2019-02-17T08:52:46.000Z</time>
      </trkpt>
      <trkpt lat="45.79636" lon="6.39178">
        <ele>1463.4000244141</ele>
        <time>2019-02-17T08:52:50.000Z</time>
      </trkpt>
      <trkpt lat="45.79636" lon="6.39181">
        <ele>1463.8000488281</ele>
        <time>2019-02-17T08:52:52.000Z</time>
      </trkpt>
      <trkpt lat="45.79635" lon="6.39184">
        <ele>1464.1999511719</ele>
        <time>2019-02-17T08:52:55.000Z</time>
      </trkpt>
      <trkpt lat="45.79635" lon="6.39188">
        <ele>1464.8000488281</ele>
        <time>2019-02-17T08:52:58.000Z</time>
      </trkpt>
      <trkpt lat="45.79636" lon="6.3919">
        <ele>1465</ele>
        <time>2019-02-17T08:53:00.000Z</time>
      </trkpt>
      <trkpt lat="45.79638" lon="6.39193">
        <ele>1465.4000244141</ele>
        <time>2019-02-17T08:53:05.000Z</time>
      </trkpt>
      <trkpt lat="45.79639" lon="6.39195">
        <ele>1465.8000488281</ele>
        <time>2019-02-17T08:53:07.000Z</time>
      </trkpt>
      <trkpt lat="45.79639" lon="6.39197">
        <ele>1466</ele>
        <time>2019-02-17T08:53:08.000Z</time>
      </trkpt>
      <trkpt lat="45.79638" lon="6.392">
        <ele>1466.4000244141</ele>
        <time>2019-02-17T08:53:10.000Z</time>
      </trkpt>
      <trkpt lat="45.79637" lon="6.39205">
        <ele>1466.8000488281</ele>
        <time>2019-02-17T08:53:14.000Z</time>
      </trkpt>
      <trkpt lat="45.79637" lon="6.39216">
        <ele>1467.4000244141</ele>
        <time>2019-02-17T08:53:20.000Z</time>
      </trkpt>
      <trkpt lat="45.79639" lon="6.3922">
        <ele>1468</ele>
        <time>2019-02-17T08:53:24.000Z</time>
      </trkpt>
      <trkpt lat="45.79639" lon="6.39222">
        <ele>1468</ele>
        <time>2019-02-17T08:53:25.000Z</time>
      </trkpt>
      <trkpt lat="45.79639" lon="6.3923">
        <ele>1468.1999511719</ele>
        <time>2019-02-17T08:53:31.000Z</time>
      </trkpt>
      <trkpt lat="45.79636" lon="6.39237">
        <ele>1469</ele>
        <time>2019-02-17T08:53:37.000Z</time>
      </trkpt>
      <trkpt lat="45.79635" lon="6.39237">
        <ele>1469.1999511719</ele>
        <time>2019-02-17T08:53:45.000Z</time>
      </trkpt>
      <trkpt lat="45.79634" lon="6.39237">
        <ele>1469.1999511719</ele>
        <time>2019-02-17T08:53:46.000Z</time>
      </trkpt>
      <trkpt lat="45.79629" lon="6.39236">
        <ele>1469.8000488281</ele>
        <time>2019-02-17T08:53:51.000Z</time>
      </trkpt>
      <trkpt lat="45.79623" lon="6.39236">
        <ele>1469.5999755859</ele>
        <time>2019-02-17T08:53:57.000Z</time>
      </trkpt>
      <trkpt lat="45.79622" lon="6.39234">
        <ele>1469</ele>
        <time>2019-02-17T08:54:04.000Z</time>
      </trkpt>
      <trkpt lat="45.79622" lon="6.39234">
        <ele>1468.8000488281</ele>
        <time>2019-02-17T08:54:15.000Z</time>
      </trkpt>
      <trkpt lat="45.79622" lon="6.39234">
        <ele>1468.5999755859</ele>
        <time>2019-02-17T08:54:26.000Z</time>
      </trkpt>
      <trkpt lat="45.79622" lon="6.39234">
        <ele>1468.5999755859</ele>
        <time>2019-02-17T08:54:36.000Z</time>
      </trkpt>
      <trkpt lat="45.79622" lon="6.39234">
        <ele>1468.5999755859</ele>
        <time>2019-02-17T08:54:48.000Z</time>
      </trkpt>
      <trkpt lat="45.79622" lon="6.39234">
        <ele>1468.5999755859</ele>
        <time>2019-02-17T08:55:03.000Z</time>
      </trkpt>
      <trkpt lat="45.79622" lon="6.39234">
        <ele>1468.5999755859</ele>
        <time>2019-02-17T08:55:15.000Z</time>
      </trkpt>
      <trkpt lat="45.79621" lon="6.39234">
        <ele>1468.5999755859</ele>
        <time>2019-02-17T08:55:24.000Z</time>
      </trkpt>
      <trkpt lat="45.79621" lon="6.39234">
        <ele>1468.4000244141</ele>
        <time>2019-02-17T08:55:40.000Z</time>
      </trkpt>
      <trkpt lat="45.79621" lon="6.39234">
        <ele>1468.5999755859</ele>
        <time>2019-02-17T08:55:50.000Z</time>
      </trkpt>
      <trkpt lat="45.79622" lon="6.39234">
        <ele>1468.4000244141</ele>
        <time>2019-02-17T08:56:01.000Z</time>
      </trkpt>
      <trkpt lat="45.79621" lon="6.39234">
        <ele>1468.5999755859</ele>
        <time>2019-02-17T08:56:06.000Z</time>
      </trkpt>
      <trkpt lat="45.79622" lon="6.39236">
        <ele>1468.5999755859</ele>
        <time>2019-02-17T08:56:12.000Z</time>
      </trkpt>
      <trkpt lat="45.79623" lon="6.39237">
        <ele>1468.8000488281</ele>
        <time>2019-02-17T08:56:22.000Z</time>
      </trkpt>
      <trkpt lat="45.79623" lon="6.39237">
        <ele>1468.8000488281</ele>
        <time>2019-02-17T08:56:35.000Z</time>
      </trkpt>
      <trkpt lat="45.79623" lon="6.39237">
        <ele>1468.8000488281</ele>
        <time>2019-02-17T08:56:47.000Z</time>
      </trkpt>
      <trkpt lat="45.79623" lon="6.39237">
        <ele>1468.8000488281</ele>
        <time>2019-02-17T08:56:59.000Z</time>
      </trkpt>
      <trkpt lat="45.79623" lon="6.39237">
        <ele>1468.8000488281</ele>
        <time>2019-02-17T08:57:12.000Z</time>
      </trkpt>
      <trkpt lat="45.79625" lon="6.39235">
        <ele>1468.8000488281</ele>
        <time>2019-02-17T08:57:19.000Z</time>
      </trkpt>
      <trkpt lat="45.79629" lon="6.39235">
        <ele>1469.1999511719</ele>
        <time>2019-02-17T08:57:25.000Z</time>
      </trkpt>
      <trkpt lat="45.79636" lon="6.39241">
        <ele>1469</ele>
        <time>2019-02-17T08:57:35.000Z</time>
      </trkpt>
      <trkpt lat="45.7964" lon="6.39247">
        <ele>1467.8000488281</ele>
        <time>2019-02-17T08:57:39.000Z</time>
      </trkpt>
      <trkpt lat="45.79641" lon="6.39252">
        <ele>1467.1999511719</ele>
        <time>2019-02-17T08:57:42.000Z</time>
      </trkpt>
      <trkpt lat="45.79641" lon="6.39258">
        <ele>1467.4000244141</ele>
        <time>2019-02-17T08:57:48.000Z</time>
      </trkpt>
      <trkpt lat="45.7964" lon="6.39266">
        <ele>1467.8000488281</ele>
        <time>2019-02-17T08:57:53.000Z</time>
      </trkpt>
      <trkpt lat="45.79638" lon="6.39272">
        <ele>1468.4000244141</ele>
        <time>2019-02-17T08:57:59.000Z</time>
      </trkpt>
      <trkpt lat="45.79632" lon="6.39275">
        <ele>1468.8000488281</ele>
        <time>2019-02-17T08:58:04.000Z</time>
      </trkpt>
      <trkpt lat="45.79629" lon="6.39279">
        <ele>1469.8000488281</ele>
        <time>2019-02-17T08:58:09.000Z</time>
      </trkpt>
      <trkpt lat="45.79628" lon="6.3928">
        <ele>1470.1999511719</ele>
        <time>2019-02-17T08:58:10.000Z</time>
      </trkpt>
      <trkpt lat="45.79625" lon="6.39287">
        <ele>1470.8000488281</ele>
        <time>2019-02-17T08:58:15.000Z</time>
      </trkpt>
      <trkpt lat="45.79624" lon="6.39289">
        <ele>1471</ele>
        <time>2019-02-17T08:58:16.000Z</time>
      </trkpt>
      <trkpt lat="45.79624" lon="6.39293">
        <ele>1471.4000244141</ele>
        <time>2019-02-17T08:58:20.000Z</time>
      </trkpt>
      <trkpt lat="45.79625" lon="6.39296">
        <ele>1472</ele>
        <time>2019-02-17T08:58:22.000Z</time>
      </trkpt>
      <trkpt lat="45.79626" lon="6.39301">
        <ele>1472.5999755859</ele>
        <time>2019-02-17T08:58:25.000Z</time>
      </trkpt>
      <trkpt lat="45.79627" lon="6.39303">
        <ele>1473</ele>
        <time>2019-02-17T08:58:27.000Z</time>
      </trkpt>
      <trkpt lat="45.79627" lon="6.39307">
        <ele>1473.5999755859</ele>
        <time>2019-02-17T08:58:30.000Z</time>
      </trkpt>
      <trkpt lat="45.79629" lon="6.39308">
        <ele>1474.1999511719</ele>
        <time>2019-02-17T08:58:32.000Z</time>
      </trkpt>
      <trkpt lat="45.79628" lon="6.39312">
        <ele>1474.5999755859</ele>
        <time>2019-02-17T08:58:35.000Z</time>
      </trkpt>
      <trkpt lat="45.79628" lon="6.39314">
        <ele>1475.1999511719</ele>
        <time>2019-02-17T08:58:39.000Z</time>
      </trkpt>
      <trkpt lat="45.79627" lon="6.39315">
        <ele>1475.4000244141</ele>
        <time>2019-02-17T08:58:40.000Z</time>
      </trkpt>
      <trkpt lat="45.79625" lon="6.39315">
        <ele>1476.1999511719</ele>
        <time>2019-02-17T08:58:45.000Z</time>
      </trkpt>
      <trkpt lat="45.79625" lon="6.39315">
        <ele>1476.4000244141</ele>
        <time>2019-02-17T08:58:46.000Z</time>
      </trkpt>
      <trkpt lat="45.79622" lon="6.39316">
        <ele>1477.5999755859</ele>
        <time>2019-02-17T08:58:51.000Z</time>
      </trkpt>
      <trkpt lat="45.79622" lon="6.39324">
        <ele>1478.5999755859</ele>
        <time>2019-02-17T08:58:57.000Z</time>
      </trkpt>
      <trkpt lat="45.79623" lon="6.39326">
        <ele>1479.1999511719</ele>
        <time>2019-02-17T08:59:01.000Z</time>
      </trkpt>
      <trkpt lat="45.79625" lon="6.39328">
        <ele>1479.5999755859</ele>
        <time>2019-02-17T08:59:03.000Z</time>
      </trkpt>
      <trkpt lat="45.79625" lon="6.39329">
        <ele>1479.8000488281</ele>
        <time>2019-02-17T08:59:04.000Z</time>
      </trkpt>
      <trkpt lat="45.79625" lon="6.39329">
        <ele>1480</ele>
        <time>2019-02-17T08:59:05.000Z</time>
      </trkpt>
      <trkpt lat="45.79625" lon="6.39331">
        <ele>1480.8000488281</ele>
        <time>2019-02-17T08:59:08.000Z</time>
      </trkpt>
      <trkpt lat="45.79625" lon="6.39331">
        <ele>1481.1999511719</ele>
        <time>2019-02-17T08:59:10.000Z</time>
      </trkpt>
      <trkpt lat="45.79624" lon="6.39337">
        <ele>1482</ele>
        <time>2019-02-17T08:59:15.000Z</time>
      </trkpt>
      <trkpt lat="45.79623" lon="6.39338">
        <ele>1483.1999511719</ele>
        <time>2019-02-17T08:59:21.000Z</time>
      </trkpt>
      <trkpt lat="45.79622" lon="6.39338">
        <ele>1483.5999755859</ele>
        <time>2019-02-17T08:59:22.000Z</time>
      </trkpt>
      <trkpt lat="45.79617" lon="6.39338">
        <ele>1484.4000244141</ele>
        <time>2019-02-17T08:59:28.000Z</time>
      </trkpt>
      <trkpt lat="45.79614" lon="6.39338">
        <ele>1485.5999755859</ele>
        <time>2019-02-17T08:59:34.000Z</time>
      </trkpt>
      <trkpt lat="45.79612" lon="6.39338">
        <ele>1486.5999755859</ele>
        <time>2019-02-17T08:59:37.000Z</time>
      </trkpt>
      <trkpt lat="45.79609" lon="6.39338">
        <ele>1487.1999511719</ele>
        <time>2019-02-17T08:59:40.000Z</time>
      </trkpt>
      <trkpt lat="45.79608" lon="6.39337">
        <ele>1487.8000488281</ele>
        <time>2019-02-17T08:59:44.000Z</time>
      </trkpt>
      <trkpt lat="45.79606" lon="6.39336">
        <ele>1488</ele>
        <time>2019-02-17T08:59:49.000Z</time>
      </trkpt>
      <trkpt lat="45.79607" lon="6.39338">
        <ele>1488.5999755859</ele>
        <time>2019-02-17T08:59:56.000Z</time>
      </trkpt>
      <trkpt lat="45.79607" lon="6.39341">
        <ele>1489</ele>
        <time>2019-02-17T09:00:01.000Z</time>
      </trkpt>
      <trkpt lat="45.79608" lon="6.39345">
        <ele>1489.5999755859</ele>
        <time>2019-02-17T09:00:04.000Z</time>
      </trkpt>
      <trkpt lat="45.79608" lon="6.39347">
        <ele>1490.1999511719</ele>
        <time>2019-02-17T09:00:07.000Z</time>
      </trkpt>
      <trkpt lat="45.79607" lon="6.39351">
        <ele>1490.5999755859</ele>
        <time>2019-02-17T09:00:12.000Z</time>
      </trkpt>
      <trkpt lat="45.79607" lon="6.39351">
        <ele>1491.1999511719</ele>
        <time>2019-02-17T09:00:15.000Z</time>
      </trkpt>
      <trkpt lat="45.79607" lon="6.39352">
        <ele>1491.8000488281</ele>
        <time>2019-02-17T09:00:26.000Z</time>
      </trkpt>
      <trkpt lat="45.79607" lon="6.39355">
        <ele>1492</ele>
        <time>2019-02-17T09:00:30.000Z</time>
      </trkpt>
      <trkpt lat="45.79607" lon="6.39359">
        <ele>1492.1999511719</ele>
        <time>2019-02-17T09:00:33.000Z</time>
      </trkpt>
      <trkpt lat="45.79607" lon="6.39362">
        <ele>1492.8000488281</ele>
        <time>2019-02-17T09:00:36.000Z</time>
      </trkpt>
      <trkpt lat="45.79607" lon="6.39364">
        <ele>1493.4000244141</ele>
        <time>2019-02-17T09:00:40.000Z</time>
      </trkpt>
      <trkpt lat="45.79607" lon="6.39364">
        <ele>1493.4000244141</ele>
        <time>2019-02-17T09:00:41.000Z</time>
      </trkpt>
      <trkpt lat="45.79608" lon="6.39367">
        <ele>1494</ele>
        <time>2019-02-17T09:00:45.000Z</time>
      </trkpt>
      <trkpt lat="45.79608" lon="6.39369">
        <ele>1494.4000244141</ele>
        <time>2019-02-17T09:00:47.000Z</time>
      </trkpt>
      <trkpt lat="45.79609" lon="6.3937">
        <ele>1495.1999511719</ele>
        <time>2019-02-17T09:00:50.000Z</time>
      </trkpt>
      <trkpt lat="45.79608" lon="6.39371">
        <ele>1495.4000244141</ele>
        <time>2019-02-17T09:00:51.000Z</time>
      </trkpt>
      <trkpt lat="45.79608" lon="6.39379">
        <ele>1496.4000244141</ele>
        <time>2019-02-17T09:00:56.000Z</time>
      </trkpt>
      <trkpt lat="45.79608" lon="6.3938">
        <ele>1496.5999755859</ele>
        <time>2019-02-17T09:00:57.000Z</time>
      </trkpt>
      <trkpt lat="45.79609" lon="6.39381">
        <ele>1497.1999511719</ele>
        <time>2019-02-17T09:01:00.000Z</time>
      </trkpt>
      <trkpt lat="45.7961" lon="6.39383">
        <ele>1497.8000488281</ele>
        <time>2019-02-17T09:01:03.000Z</time>
      </trkpt>
      <trkpt lat="45.7961" lon="6.39386">
        <ele>1498.1999511719</ele>
        <time>2019-02-17T09:01:05.000Z</time>
      </trkpt>
      <trkpt lat="45.79611" lon="6.39389">
        <ele>1498.5999755859</ele>
        <time>2019-02-17T09:01:08.000Z</time>
      </trkpt>
      <trkpt lat="45.79611" lon="6.39389">
        <ele>1498.8000488281</ele>
        <time>2019-02-17T09:01:09.000Z</time>
      </trkpt>
      <trkpt lat="45.79612" lon="6.39391">
        <ele>1499</ele>
        <time>2019-02-17T09:01:10.000Z</time>
      </trkpt>
      <trkpt lat="45.79612" lon="6.39395">
        <ele>1499.5999755859</ele>
        <time>2019-02-17T09:01:14.000Z</time>
      </trkpt>
      <trkpt lat="45.79613" lon="6.39397">
        <ele>1500</ele>
        <time>2019-02-17T09:01:16.000Z</time>
      </trkpt>
      <trkpt lat="45.79613" lon="6.39398">
        <ele>1500.1999511719</ele>
        <time>2019-02-17T09:01:19.000Z</time>
      </trkpt>
      <trkpt lat="45.79614" lon="6.394">
        <ele>1500.4000244141</ele>
        <time>2019-02-17T09:01:26.000Z</time>
      </trkpt>
      <trkpt lat="45.79614" lon="6.39406">
        <ele>1500.8000488281</ele>
        <time>2019-02-17T09:01:31.000Z</time>
      </trkpt>
      <trkpt lat="45.79614" lon="6.39407">
        <ele>1501</ele>
        <time>2019-02-17T09:01:33.000Z</time>
      </trkpt>
      <trkpt lat="45.79614" lon="6.39409">
        <ele>1501.4000244141</ele>
        <time>2019-02-17T09:01:35.000Z</time>
      </trkpt>
      <trkpt lat="45.79615" lon="6.39414">
        <ele>1502.1999511719</ele>
        <time>2019-02-17T09:01:40.000Z</time>
      </trkpt>
      <trkpt lat="45.79614" lon="6.39418">
        <ele>1502.5999755859</ele>
        <time>2019-02-17T09:01:43.000Z</time>
      </trkpt>
      <trkpt lat="45.79614" lon="6.39421">
        <ele>1503</ele>
        <time>2019-02-17T09:01:45.000Z</time>
      </trkpt>
      <trkpt lat="45.79614" lon="6.39421">
        <ele>1503.1999511719</ele>
        <time>2019-02-17T09:01:46.000Z</time>
      </trkpt>
      <trkpt lat="45.79614" lon="6.39425">
        <ele>1503.5999755859</ele>
        <time>2019-02-17T09:01:49.000Z</time>
      </trkpt>
      <trkpt lat="45.79614" lon="6.39428">
        <ele>1504.4000244141</ele>
        <time>2019-02-17T09:01:52.000Z</time>
      </trkpt>
      <trkpt lat="45.79615" lon="6.3943">
        <ele>1504.5999755859</ele>
        <time>2019-02-17T09:01:54.000Z</time>
      </trkpt>
      <trkpt lat="45.79617" lon="6.39434">
        <ele>1505</ele>
        <time>2019-02-17T09:01:58.000Z</time>
      </trkpt>
      <trkpt lat="45.79619" lon="6.39434">
        <ele>1505.4000244141</ele>
        <time>2019-02-17T09:02:01.000Z</time>
      </trkpt>
      <trkpt lat="45.79619" lon="6.39435">
        <ele>1506</ele>
        <time>2019-02-17T09:02:03.000Z</time>
      </trkpt>
      <trkpt lat="45.79619" lon="6.39437">
        <ele>1506.5999755859</ele>
        <time>2019-02-17T09:02:05.000Z</time>
      </trkpt>
      <trkpt lat="45.79618" lon="6.39441">
        <ele>1506.8000488281</ele>
        <time>2019-02-17T09:02:07.000Z</time>
      </trkpt>
      <trkpt lat="45.79618" lon="6.39444">
        <ele>1507</ele>
        <time>2019-02-17T09:02:09.000Z</time>
      </trkpt>
      <trkpt lat="45.79618" lon="6.39446">
        <ele>1507.1999511719</ele>
        <time>2019-02-17T09:02:13.000Z</time>
      </trkpt>
      <trkpt lat="45.79618" lon="6.39451">
        <ele>1507.4000244141</ele>
        <time>2019-02-17T09:02:16.000Z</time>
      </trkpt>
      <trkpt lat="45.79619" lon="6.39453">
        <ele>1507.5999755859</ele>
        <time>2019-02-17T09:02:18.000Z</time>
      </trkpt>
      <trkpt lat="45.7962" lon="6.39453">
        <ele>1507.5999755859</ele>
        <time>2019-02-17T09:02:19.000Z</time>
      </trkpt>
      <trkpt lat="45.79621" lon="6.39455">
        <ele>1507.8000488281</ele>
        <time>2019-02-17T09:02:22.000Z</time>
      </trkpt>
      <trkpt lat="45.79623" lon="6.39458">
        <ele>1508.5999755859</ele>
        <time>2019-02-17T09:02:26.000Z</time>
      </trkpt>
      <trkpt lat="45.79623" lon="6.39461">
        <ele>1509</ele>
        <time>2019-02-17T09:02:28.000Z</time>
      </trkpt>
      <trkpt lat="45.79623" lon="6.39465">
        <ele>1509.5999755859</ele>
        <time>2019-02-17T09:02:32.000Z</time>
      </trkpt>
      <trkpt lat="45.79625" lon="6.39466">
        <ele>1509.8000488281</ele>
        <time>2019-02-17T09:02:34.000Z</time>
      </trkpt>
      <trkpt lat="45.79624" lon="6.39469">
        <ele>1510</ele>
        <time>2019-02-17T09:02:37.000Z</time>
      </trkpt>
      <trkpt lat="45.79624" lon="6.39471">
        <ele>1510.1999511719</ele>
        <time>2019-02-17T09:02:38.000Z</time>
      </trkpt>
      <trkpt lat="45.79625" lon="6.39472">
        <ele>1510.5999755859</ele>
        <time>2019-02-17T09:02:42.000Z</time>
      </trkpt>
      <trkpt lat="45.79626" lon="6.39473">
        <ele>1510.8000488281</ele>
        <time>2019-02-17T09:02:43.000Z</time>
      </trkpt>
      <trkpt lat="45.79627" lon="6.39477">
        <ele>1512</ele>
        <time>2019-02-17T09:02:48.000Z</time>
      </trkpt>
      <trkpt lat="45.79627" lon="6.39477">
        <ele>1512</ele>
        <time>2019-02-17T09:02:49.000Z</time>
      </trkpt>
      <trkpt lat="45.7963" lon="6.39481">
        <ele>1512.5999755859</ele>
        <time>2019-02-17T09:02:54.000Z</time>
      </trkpt>
      <trkpt lat="45.79631" lon="6.39483">
        <ele>1513</ele>
        <time>2019-02-17T09:02:58.000Z</time>
      </trkpt>
      <trkpt lat="45.79631" lon="6.39484">
        <ele>1513.1999511719</ele>
        <time>2019-02-17T09:02:59.000Z</time>
      </trkpt>
      <trkpt lat="45.79635" lon="6.39487">
        <ele>1513.8000488281</ele>
        <time>2019-02-17T09:03:04.000Z</time>
      </trkpt>
      <trkpt lat="45.79638" lon="6.39491">
        <ele>1514.1999511719</ele>
        <time>2019-02-17T09:03:07.000Z</time>
      </trkpt>
      <trkpt lat="45.79638" lon="6.39491">
        <ele>1514.1999511719</ele>
        <time>2019-02-17T09:03:08.000Z</time>
      </trkpt>
      <trkpt lat="45.79639" lon="6.39496">
        <ele>1514.8000488281</ele>
        <time>2019-02-17T09:03:12.000Z</time>
      </trkpt>
      <trkpt lat="45.79638" lon="6.39496">
        <ele>1514.8000488281</ele>
        <time>2019-02-17T09:03:13.000Z</time>
      </trkpt>
      <trkpt lat="45.79639" lon="6.39497">
        <ele>1515.1999511719</ele>
        <time>2019-02-17T09:03:15.000Z</time>
      </trkpt>
      <trkpt lat="45.7964" lon="6.39499">
        <ele>1515.5999755859</ele>
        <time>2019-02-17T09:03:17.000Z</time>
      </trkpt>
      <trkpt lat="45.79642" lon="6.39505">
        <ele>1516.1999511719</ele>
        <time>2019-02-17T09:03:23.000Z</time>
      </trkpt>
      <trkpt lat="45.79644" lon="6.39507">
        <ele>1516.8000488281</ele>
        <time>2019-02-17T09:03:28.000Z</time>
      </trkpt>
      <trkpt lat="45.79645" lon="6.39508">
        <ele>1517.4000244141</ele>
        <time>2019-02-17T09:03:30.000Z</time>
      </trkpt>
      <trkpt lat="45.79646" lon="6.39509">
        <ele>1517.5999755859</ele>
        <time>2019-02-17T09:03:32.000Z</time>
      </trkpt>
      <trkpt lat="45.79648" lon="6.39513">
        <ele>1517.8000488281</ele>
        <time>2019-02-17T09:03:37.000Z</time>
      </trkpt>
      <trkpt lat="45.79649" lon="6.39516">
        <ele>1518.4000244141</ele>
        <time>2019-02-17T09:03:40.000Z</time>
      </trkpt>
      <trkpt lat="45.7965" lon="6.39517">
        <ele>1518.5999755859</ele>
        <time>2019-02-17T09:03:41.000Z</time>
      </trkpt>
      <trkpt lat="45.79651" lon="6.39521">
        <ele>1519.4000244141</ele>
        <time>2019-02-17T09:03:46.000Z</time>
      </trkpt>
      <trkpt lat="45.79653" lon="6.39525">
        <ele>1519.8000488281</ele>
        <time>2019-02-17T09:03:51.000Z</time>
      </trkpt>
      <trkpt lat="45.79655" lon="6.39529">
        <ele>1520.1999511719</ele>
        <time>2019-02-17T09:03:56.000Z</time>
      </trkpt>
      <trkpt lat="45.79655" lon="6.39533">
        <ele>1520.5999755859</ele>
        <time>2019-02-17T09:04:00.000Z</time>
      </trkpt>
      <trkpt lat="45.79656" lon="6.39535">
        <ele>1520.8000488281</ele>
        <time>2019-02-17T09:04:02.000Z</time>
      </trkpt>
      <trkpt lat="45.79655" lon="6.39537">
        <ele>1521.5999755859</ele>
        <time>2019-02-17T09:04:06.000Z</time>
      </trkpt>
      <trkpt lat="45.79656" lon="6.39538">
        <ele>1521.8000488281</ele>
        <time>2019-02-17T09:04:07.000Z</time>
      </trkpt>
      <trkpt lat="45.79659" lon="6.39541">
        <ele>1522.5999755859</ele>
        <time>2019-02-17T09:04:12.000Z</time>
      </trkpt>
      <trkpt lat="45.7966" lon="6.39542">
        <ele>1522.5999755859</ele>
        <time>2019-02-17T09:04:13.000Z</time>
      </trkpt>
      <trkpt lat="45.79662" lon="6.39544">
        <ele>1523.1999511719</ele>
        <time>2019-02-17T09:04:17.000Z</time>
      </trkpt>
      <trkpt lat="45.79665" lon="6.39546">
        <ele>1523.5999755859</ele>
        <time>2019-02-17T09:04:21.000Z</time>
      </trkpt>
      <trkpt lat="45.79666" lon="6.39547">
        <ele>1524</ele>
        <time>2019-02-17T09:04:23.000Z</time>
      </trkpt>
      <trkpt lat="45.79665" lon="6.39554">
        <ele>1524.5999755859</ele>
        <time>2019-02-17T09:04:29.000Z</time>
      </trkpt>
      <trkpt lat="45.79665" lon="6.39555">
        <ele>1524.8000488281</ele>
        <time>2019-02-17T09:04:30.000Z</time>
      </trkpt>
      <trkpt lat="45.79665" lon="6.3956">
        <ele>1525.4000244141</ele>
        <time>2019-02-17T09:04:34.000Z</time>
      </trkpt>
      <trkpt lat="45.79666" lon="6.39563">
        <ele>1526</ele>
        <time>2019-02-17T09:04:38.000Z</time>
      </trkpt>
      <trkpt lat="45.79667" lon="6.39567">
        <ele>1526.5999755859</ele>
        <time>2019-02-17T09:04:43.000Z</time>
      </trkpt>
      <trkpt lat="45.79668" lon="6.39574">
        <ele>1526.8000488281</ele>
        <time>2019-02-17T09:04:49.000Z</time>
      </trkpt>
      <trkpt lat="45.79669" lon="6.39578">
        <ele>1526.8000488281</ele>
        <time>2019-02-17T09:04:54.000Z</time>
      </trkpt>
      <trkpt lat="45.79669" lon="6.3958">
        <ele>1527</ele>
        <time>2019-02-17T09:04:56.000Z</time>
      </trkpt>
      <trkpt lat="45.7967" lon="6.39584">
        <ele>1527.1999511719</ele>
        <time>2019-02-17T09:04:59.000Z</time>
      </trkpt>
      <trkpt lat="45.79672" lon="6.39589">
        <ele>1527.8000488281</ele>
        <time>2019-02-17T09:05:05.000Z</time>
      </trkpt>
      <trkpt lat="45.79672" lon="6.3959">
        <ele>1528</ele>
        <time>2019-02-17T09:05:07.000Z</time>
      </trkpt>
      <trkpt lat="45.79673" lon="6.39592">
        <ele>1528.5999755859</ele>
        <time>2019-02-17T09:05:11.000Z</time>
      </trkpt>
      <trkpt lat="45.79674" lon="6.39593">
        <ele>1529</ele>
        <time>2019-02-17T09:05:13.000Z</time>
      </trkpt>
      <trkpt lat="45.79675" lon="6.39598">
        <ele>1529.5999755859</ele>
        <time>2019-02-17T09:05:16.000Z</time>
      </trkpt>
      <trkpt lat="45.79677" lon="6.39601">
        <ele>1530</ele>
        <time>2019-02-17T09:05:20.000Z</time>
      </trkpt>
      <trkpt lat="45.79677" lon="6.39601">
        <ele>1530</ele>
        <time>2019-02-17T09:05:21.000Z</time>
      </trkpt>
      <trkpt lat="45.79678" lon="6.39603">
        <ele>1530.4000244141</ele>
        <time>2019-02-17T09:05:25.000Z</time>
      </trkpt>
      <trkpt lat="45.79679" lon="6.39609">
        <ele>1530.8000488281</ele>
        <time>2019-02-17T09:05:31.000Z</time>
      </trkpt>
      <trkpt lat="45.79679" lon="6.39609">
        <ele>1531.1999511719</ele>
        <time>2019-02-17T09:05:33.000Z</time>
      </trkpt>
      <trkpt lat="45.7968" lon="6.3961">
        <ele>1531.4000244141</ele>
        <time>2019-02-17T09:05:35.000Z</time>
      </trkpt>
      <trkpt lat="45.79683" lon="6.39614">
        <ele>1532</ele>
        <time>2019-02-17T09:05:41.000Z</time>
      </trkpt>
      <trkpt lat="45.79684" lon="6.39616">
        <ele>1532.1999511719</ele>
        <time>2019-02-17T09:05:42.000Z</time>
      </trkpt>
      <trkpt lat="45.79684" lon="6.39616">
        <ele>1532.1999511719</ele>
        <time>2019-02-17T09:05:43.000Z</time>
      </trkpt>
      <trkpt lat="45.79685" lon="6.39619">
        <ele>1532.5999755859</ele>
        <time>2019-02-17T09:05:45.000Z</time>
      </trkpt>
      <trkpt lat="45.79686" lon="6.39621">
        <ele>1533</ele>
        <time>2019-02-17T09:05:49.000Z</time>
      </trkpt>
      <trkpt lat="45.79687" lon="6.39623">
        <ele>1533.1999511719</ele>
        <time>2019-02-17T09:05:51.000Z</time>
      </trkpt>
      <trkpt lat="45.79687" lon="6.39624">
        <ele>1533.5999755859</ele>
        <time>2019-02-17T09:05:53.000Z</time>
      </trkpt>
      <trkpt lat="45.7969" lon="6.39629">
        <ele>1534.1999511719</ele>
        <time>2019-02-17T09:06:00.000Z</time>
      </trkpt>
      <trkpt lat="45.79691" lon="6.3963">
        <ele>1534.4000244141</ele>
        <time>2019-02-17T09:06:01.000Z</time>
      </trkpt>
      <trkpt lat="45.79693" lon="6.39633">
        <ele>1535.4000244141</ele>
        <time>2019-02-17T09:06:06.000Z</time>
      </trkpt>
      <trkpt lat="45.79698" lon="6.39637">
        <ele>1536.1999511719</ele>
        <time>2019-02-17T09:06:12.000Z</time>
      </trkpt>
      <trkpt lat="45.797" lon="6.39638">
        <ele>1536.4000244141</ele>
        <time>2019-02-17T09:06:14.000Z</time>
      </trkpt>
      <trkpt lat="45.79701" lon="6.39641">
        <ele>1537</ele>
        <time>2019-02-17T09:06:17.000Z</time>
      </trkpt>
      <trkpt lat="45.79702" lon="6.39643">
        <ele>1537.4000244141</ele>
        <time>2019-02-17T09:06:20.000Z</time>
      </trkpt>
      <trkpt lat="45.79703" lon="6.39645">
        <ele>1537.8000488281</ele>
        <time>2019-02-17T09:06:22.000Z</time>
      </trkpt>
      <trkpt lat="45.79705" lon="6.39648">
        <ele>1538.4000244141</ele>
        <time>2019-02-17T09:06:27.000Z</time>
      </trkpt>
      <trkpt lat="45.79705" lon="6.39649">
        <ele>1538.5999755859</ele>
        <time>2019-02-17T09:06:28.000Z</time>
      </trkpt>
      <trkpt lat="45.79707" lon="6.39652">
        <ele>1539</ele>
        <time>2019-02-17T09:06:33.000Z</time>
      </trkpt>
      <trkpt lat="45.79708" lon="6.39656">
        <ele>1539.5999755859</ele>
        <time>2019-02-17T09:06:38.000Z</time>
      </trkpt>
      <trkpt lat="45.7971" lon="6.39659">
        <ele>1540.4000244141</ele>
        <time>2019-02-17T09:06:44.000Z</time>
      </trkpt>
      <trkpt lat="45.7971" lon="6.3966">
        <ele>1540.8000488281</ele>
        <time>2019-02-17T09:06:46.000Z</time>
      </trkpt>
      <trkpt lat="45.79713" lon="6.39662">
        <ele>1541.4000244141</ele>
        <time>2019-02-17T09:06:50.000Z</time>
      </trkpt>
      <trkpt lat="45.79714" lon="6.39663">
        <ele>1541.5999755859</ele>
        <time>2019-02-17T09:06:51.000Z</time>
      </trkpt>
      <trkpt lat="45.79714" lon="6.39665">
        <ele>1541.8000488281</ele>
        <time>2019-02-17T09:06:52.000Z</time>
      </trkpt>
      <trkpt lat="45.79715" lon="6.39669">
        <ele>1542.4000244141</ele>
        <time>2019-02-17T09:06:57.000Z</time>
      </trkpt>
      <trkpt lat="45.79716" lon="6.39672">
        <ele>1542.8000488281</ele>
        <time>2019-02-17T09:07:01.000Z</time>
      </trkpt>
      <trkpt lat="45.79716" lon="6.39674">
        <ele>1543</ele>
        <time>2019-02-17T09:07:02.000Z</time>
      </trkpt>
      <trkpt lat="45.79717" lon="6.39676">
        <ele>1543.4000244141</ele>
        <time>2019-02-17T09:07:06.000Z</time>
      </trkpt>
      <trkpt lat="45.79718" lon="6.39678">
        <ele>1543.8000488281</ele>
        <time>2019-02-17T09:07:10.000Z</time>
      </trkpt>
      <trkpt lat="45.79718" lon="6.39678">
        <ele>1544</ele>
        <time>2019-02-17T09:07:11.000Z</time>
      </trkpt>
      <trkpt lat="45.79721" lon="6.39682">
        <ele>1544.8000488281</ele>
        <time>2019-02-17T09:07:16.000Z</time>
      </trkpt>
      <trkpt lat="45.79721" lon="6.39684">
        <ele>1545</ele>
        <time>2019-02-17T09:07:18.000Z</time>
      </trkpt>
      <trkpt lat="45.79721" lon="6.39685">
        <ele>1545.1999511719</ele>
        <time>2019-02-17T09:07:20.000Z</time>
      </trkpt>
      <trkpt lat="45.79722" lon="6.39687">
        <ele>1545.8000488281</ele>
        <time>2019-02-17T09:07:24.000Z</time>
      </trkpt>
      <trkpt lat="45.79723" lon="6.39687">
        <ele>1546</ele>
        <time>2019-02-17T09:07:25.000Z</time>
      </trkpt>
      <trkpt lat="45.79724" lon="6.39689">
        <ele>1546.1999511719</ele>
        <time>2019-02-17T09:07:27.000Z</time>
      </trkpt>
      <trkpt lat="45.79725" lon="6.39693">
        <ele>1547</ele>
        <time>2019-02-17T09:07:31.000Z</time>
      </trkpt>
      <trkpt lat="45.79726" lon="6.39694">
        <ele>1547</ele>
        <time>2019-02-17T09:07:32.000Z</time>
      </trkpt>
      <trkpt lat="45.79726" lon="6.39695">
        <ele>1547.4000244141</ele>
        <time>2019-02-17T09:07:35.000Z</time>
      </trkpt>
      <trkpt lat="45.79727" lon="6.39696">
        <ele>1547.8000488281</ele>
        <time>2019-02-17T09:07:39.000Z</time>
      </trkpt>
      <trkpt lat="45.79728" lon="6.39699">
        <ele>1548</ele>
        <time>2019-02-17T09:07:40.000Z</time>
      </trkpt>
      <trkpt lat="45.79728" lon="6.39699">
        <ele>1548</ele>
        <time>2019-02-17T09:07:41.000Z</time>
      </trkpt>
      <trkpt lat="45.79728" lon="6.397">
        <ele>1548.4000244141</ele>
        <time>2019-02-17T09:07:43.000Z</time>
      </trkpt>
      <trkpt lat="45.7973" lon="6.39705">
        <ele>1549.1999511719</ele>
        <time>2019-02-17T09:07:48.000Z</time>
      </trkpt>
      <trkpt lat="45.7973" lon="6.39708">
        <ele>1549.5999755859</ele>
        <time>2019-02-17T09:07:53.000Z</time>
      </trkpt>
      <trkpt lat="45.7973" lon="6.3971">
        <ele>1550.1999511719</ele>
        <time>2019-02-17T09:07:56.000Z</time>
      </trkpt>
      <trkpt lat="45.79731" lon="6.39712">
        <ele>1550.4000244141</ele>
        <time>2019-02-17T09:07:58.000Z</time>
      </trkpt>
      <trkpt lat="45.79732" lon="6.39713">
        <ele>1551.1999511719</ele>
        <time>2019-02-17T09:08:02.000Z</time>
      </trkpt>
      <trkpt lat="45.79732" lon="6.39714">
        <ele>1551.4000244141</ele>
        <time>2019-02-17T09:08:03.000Z</time>
      </trkpt>
      <trkpt lat="45.79732" lon="6.39716">
        <ele>1551.8000488281</ele>
        <time>2019-02-17T09:08:07.000Z</time>
      </trkpt>
      <trkpt lat="45.79734" lon="6.39723">
        <ele>1552.1999511719</ele>
        <time>2019-02-17T09:08:12.000Z</time>
      </trkpt>
      <trkpt lat="45.79734" lon="6.39724">
        <ele>1552.4000244141</ele>
        <time>2019-02-17T09:08:13.000Z</time>
      </trkpt>
      <trkpt lat="45.79734" lon="6.39725">
        <ele>1552.5999755859</ele>
        <time>2019-02-17T09:08:14.000Z</time>
      </trkpt>
      <trkpt lat="45.79734" lon="6.39727">
        <ele>1552.8000488281</ele>
        <time>2019-02-17T09:08:15.000Z</time>
      </trkpt>
      <trkpt lat="45.79734" lon="6.39729">
        <ele>1552.8000488281</ele>
        <time>2019-02-17T09:08:17.000Z</time>
      </trkpt>
      <trkpt lat="45.79735" lon="6.39733">
        <ele>1553.1999511719</ele>
        <time>2019-02-17T09:08:21.000Z</time>
      </trkpt>
      <trkpt lat="45.79736" lon="6.39736">
        <ele>1553.5999755859</ele>
        <time>2019-02-17T09:08:25.000Z</time>
      </trkpt>
      <trkpt lat="45.79735" lon="6.39743">
        <ele>1554.5999755859</ele>
        <time>2019-02-17T09:08:31.000Z</time>
      </trkpt>
      <trkpt lat="45.79735" lon="6.39744">
        <ele>1554.5999755859</ele>
        <time>2019-02-17T09:08:32.000Z</time>
      </trkpt>
      <trkpt lat="45.79737" lon="6.39748">
        <ele>1555.4000244141</ele>
        <time>2019-02-17T09:08:37.000Z</time>
      </trkpt>
      <trkpt lat="45.79739" lon="6.3975">
        <ele>1555.5999755859</ele>
        <time>2019-02-17T09:08:41.000Z</time>
      </trkpt>
      <trkpt lat="45.7974" lon="6.39751">
        <ele>1555.8000488281</ele>
        <time>2019-02-17T09:08:42.000Z</time>
      </trkpt>
      <trkpt lat="45.79741" lon="6.39752">
        <ele>1556.1999511719</ele>
        <time>2019-02-17T09:08:46.000Z</time>
      </trkpt>
      <trkpt lat="45.79741" lon="6.39753">
        <ele>1556.8000488281</ele>
        <time>2019-02-17T09:08:50.000Z</time>
      </trkpt>
      <trkpt lat="45.79742" lon="6.39754">
        <ele>1557.1999511719</ele>
        <time>2019-02-17T09:08:51.000Z</time>
      </trkpt>
      <trkpt lat="45.79742" lon="6.39754">
        <ele>1557.8000488281</ele>
        <time>2019-02-17T09:08:58.000Z</time>
      </trkpt>
      <trkpt lat="45.79744" lon="6.39756">
        <ele>1557.8000488281</ele>
        <time>2019-02-17T09:09:05.000Z</time>
      </trkpt>
      <trkpt lat="45.79745" lon="6.3976">
        <ele>1557.8000488281</ele>
        <time>2019-02-17T09:09:09.000Z</time>
      </trkpt>
      <trkpt lat="45.79747" lon="6.39763">
        <ele>1558.8000488281</ele>
        <time>2019-02-17T09:09:14.000Z</time>
      </trkpt>
      <trkpt lat="45.79748" lon="6.39763">
        <ele>1559.1999511719</ele>
        <time>2019-02-17T09:09:15.000Z</time>
      </trkpt>
      <trkpt lat="45.79748" lon="6.39765">
        <ele>1559.4000244141</ele>
        <time>2019-02-17T09:09:18.000Z</time>
      </trkpt>
      <trkpt lat="45.79749" lon="6.39767">
        <ele>1559.8000488281</ele>
        <time>2019-02-17T09:09:22.000Z</time>
      </trkpt>
      <trkpt lat="45.79749" lon="6.39769">
        <ele>1560.1999511719</ele>
        <time>2019-02-17T09:09:25.000Z</time>
      </trkpt>
      <trkpt lat="45.79751" lon="6.39772">
        <ele>1560.8000488281</ele>
        <time>2019-02-17T09:09:29.000Z</time>
      </trkpt>
      <trkpt lat="45.79752" lon="6.39775">
        <ele>1561.1999511719</ele>
        <time>2019-02-17T09:09:33.000Z</time>
      </trkpt>
      <trkpt lat="45.79753" lon="6.39776">
        <ele>1561.5999755859</ele>
        <time>2019-02-17T09:09:36.000Z</time>
      </trkpt>
      <trkpt lat="45.79754" lon="6.39778">
        <ele>1562.4000244141</ele>
        <time>2019-02-17T09:09:39.000Z</time>
      </trkpt>
      <trkpt lat="45.79753" lon="6.3978">
        <ele>1562.8000488281</ele>
        <time>2019-02-17T09:09:41.000Z</time>
      </trkpt>
      <trkpt lat="45.79754" lon="6.3978">
        <ele>1562.8000488281</ele>
        <time>2019-02-17T09:09:42.000Z</time>
      </trkpt>
      <trkpt lat="45.79756" lon="6.39784">
        <ele>1563.4000244141</ele>
        <time>2019-02-17T09:09:47.000Z</time>
      </trkpt>
      <trkpt lat="45.79756" lon="6.39784">
        <ele>1563.4000244141</ele>
        <time>2019-02-17T09:09:48.000Z</time>
      </trkpt>
      <trkpt lat="45.79758" lon="6.39786">
        <ele>1564</ele>
        <time>2019-02-17T09:09:51.000Z</time>
      </trkpt>
      <trkpt lat="45.79759" lon="6.39789">
        <ele>1564.4000244141</ele>
        <time>2019-02-17T09:09:54.000Z</time>
      </trkpt>
      <trkpt lat="45.7976" lon="6.39789">
        <ele>1564.5999755859</ele>
        <time>2019-02-17T09:09:55.000Z</time>
      </trkpt>
      <trkpt lat="45.79761" lon="6.39791">
        <ele>1565.4000244141</ele>
        <time>2019-02-17T09:09:59.000Z</time>
      </trkpt>
      <trkpt lat="45.79761" lon="6.39791">
        <ele>1565.4000244141</ele>
        <time>2019-02-17T09:10:00.000Z</time>
      </trkpt>
      <trkpt lat="45.79762" lon="6.39794">
        <ele>1566.1999511719</ele>
        <time>2019-02-17T09:10:04.000Z</time>
      </trkpt>
      <trkpt lat="45.79763" lon="6.39796">
        <ele>1566.5999755859</ele>
        <time>2019-02-17T09:10:08.000Z</time>
      </trkpt>
      <trkpt lat="45.79764" lon="6.39797">
        <ele>1566.5999755859</ele>
        <time>2019-02-17T09:10:09.000Z</time>
      </trkpt>
      <trkpt lat="45.79764" lon="6.39799">
        <ele>1567.1999511719</ele>
        <time>2019-02-17T09:10:13.000Z</time>
      </trkpt>
      <trkpt lat="45.79765" lon="6.39801">
        <ele>1567.5999755859</ele>
        <time>2019-02-17T09:10:15.000Z</time>
      </trkpt>
      <trkpt lat="45.79767" lon="6.39806">
        <ele>1568.1999511719</ele>
        <time>2019-02-17T09:10:20.000Z</time>
      </trkpt>
      <trkpt lat="45.79769" lon="6.3981">
        <ele>1568.8000488281</ele>
        <time>2019-02-17T09:10:25.000Z</time>
      </trkpt>
      <trkpt lat="45.79771" lon="6.39811">
        <ele>1569.1999511719</ele>
        <time>2019-02-17T09:10:27.000Z</time>
      </trkpt>
      <trkpt lat="45.79771" lon="6.39813">
        <ele>1569.8000488281</ele>
        <time>2019-02-17T09:10:31.000Z</time>
      </trkpt>
      <trkpt lat="45.79772" lon="6.39816">
        <ele>1570.1999511719</ele>
        <time>2019-02-17T09:10:33.000Z</time>
      </trkpt>
      <trkpt lat="45.79772" lon="6.39819">
        <ele>1571</ele>
        <time>2019-02-17T09:10:38.000Z</time>
      </trkpt>
      <trkpt lat="45.79773" lon="6.39822">
        <ele>1571.4000244141</ele>
        <time>2019-02-17T09:10:43.000Z</time>
      </trkpt>
      <trkpt lat="45.79775" lon="6.39822">
        <ele>1572</ele>
        <time>2019-02-17T09:10:47.000Z</time>
      </trkpt>
      <trkpt lat="45.79776" lon="6.39823">
        <ele>1572.4000244141</ele>
        <time>2019-02-17T09:10:49.000Z</time>
      </trkpt>
      <trkpt lat="45.79777" lon="6.39824">
        <ele>1573</ele>
        <time>2019-02-17T09:10:52.000Z</time>
      </trkpt>
      <trkpt lat="45.79777" lon="6.39825">
        <ele>1573.1999511719</ele>
        <time>2019-02-17T09:10:54.000Z</time>
      </trkpt>
      <trkpt lat="45.79778" lon="6.39826">
        <ele>1574.1999511719</ele>
        <time>2019-02-17T09:11:00.000Z</time>
      </trkpt>
      <trkpt lat="45.79779" lon="6.39827">
        <ele>1574.4000244141</ele>
        <time>2019-02-17T09:11:01.000Z</time>
      </trkpt>
      <trkpt lat="45.79782" lon="6.39829">
        <ele>1574.1999511719</ele>
        <time>2019-02-17T09:11:06.000Z</time>
      </trkpt>
      <trkpt lat="45.79786" lon="6.3983">
        <ele>1574.8000488281</ele>
        <time>2019-02-17T09:11:10.000Z</time>
      </trkpt>
      <trkpt lat="45.79789" lon="6.3983">
        <ele>1575.4000244141</ele>
        <time>2019-02-17T09:11:13.000Z</time>
      </trkpt>
      <trkpt lat="45.79793" lon="6.39832">
        <ele>1576</ele>
        <time>2019-02-17T09:11:18.000Z</time>
      </trkpt>
      <trkpt lat="45.79795" lon="6.39832">
        <ele>1576.4000244141</ele>
        <time>2019-02-17T09:11:20.000Z</time>
      </trkpt>
      <trkpt lat="45.79797" lon="6.39833">
        <ele>1576.8000488281</ele>
        <time>2019-02-17T09:11:23.000Z</time>
      </trkpt>
      <trkpt lat="45.79797" lon="6.39833">
        <ele>1577.5999755859</ele>
        <time>2019-02-17T09:11:31.000Z</time>
      </trkpt>
      <trkpt lat="45.79797" lon="6.39833">
        <ele>1577.8000488281</ele>
        <time>2019-02-17T09:11:44.000Z</time>
      </trkpt>
      <trkpt lat="45.79798" lon="6.39833">
        <ele>1577.8000488281</ele>
        <time>2019-02-17T09:11:56.000Z</time>
      </trkpt>
      <trkpt lat="45.79798" lon="6.39833">
        <ele>1577.4000244141</ele>
        <time>2019-02-17T09:12:10.000Z</time>
      </trkpt>
      <trkpt lat="45.79798" lon="6.39833">
        <ele>1577.8000488281</ele>
        <time>2019-02-17T09:12:18.000Z</time>
      </trkpt>
      <trkpt lat="45.79798" lon="6.39833">
        <ele>1577.4000244141</ele>
        <time>2019-02-17T09:12:30.000Z</time>
      </trkpt>
      <trkpt lat="45.79798" lon="6.39833">
        <ele>1577.5999755859</ele>
        <time>2019-02-17T09:12:40.000Z</time>
      </trkpt>
      <trkpt lat="45.79798" lon="6.39833">
        <ele>1577.8000488281</ele>
        <time>2019-02-17T09:12:50.000Z</time>
      </trkpt>
      <trkpt lat="45.79798" lon="6.39833">
        <ele>1577.8000488281</ele>
        <time>2019-02-17T09:12:59.000Z</time>
      </trkpt>
      <trkpt lat="45.79797" lon="6.39833">
        <ele>1577.8000488281</ele>
        <time>2019-02-17T09:13:14.000Z</time>
      </trkpt>
      <trkpt lat="45.79797" lon="6.39833">
        <ele>1577.8000488281</ele>
        <time>2019-02-17T09:13:22.000Z</time>
      </trkpt>
      <trkpt lat="45.79797" lon="6.39833">
        <ele>1577.5999755859</ele>
        <time>2019-02-17T09:13:33.000Z</time>
      </trkpt>
      <trkpt lat="45.79799" lon="6.39834">
        <ele>1577.5999755859</ele>
        <time>2019-02-17T09:13:38.000Z</time>
      </trkpt>
      <trkpt lat="45.79801" lon="6.39835">
        <ele>1577.5999755859</ele>
        <time>2019-02-17T09:13:40.000Z</time>
      </trkpt>
      <trkpt lat="45.79801" lon="6.39835">
        <ele>1577.8000488281</ele>
        <time>2019-02-17T09:13:46.000Z</time>
      </trkpt>
      <trkpt lat="45.79801" lon="6.39835">
        <ele>1578.1999511719</ele>
        <time>2019-02-17T09:13:59.000Z</time>
      </trkpt>
      <trkpt lat="45.79801" lon="6.39837">
        <ele>1578.5999755859</ele>
        <time>2019-02-17T09:14:17.000Z</time>
      </trkpt>
      <trkpt lat="45.79803" lon="6.39842">
        <ele>1578.5999755859</ele>
        <time>2019-02-17T09:14:22.000Z</time>
      </trkpt>
      <trkpt lat="45.79803" lon="6.39844">
        <ele>1579</ele>
        <time>2019-02-17T09:14:24.000Z</time>
      </trkpt>
      <trkpt lat="45.79802" lon="6.39846">
        <ele>1579.5999755859</ele>
        <time>2019-02-17T09:14:27.000Z</time>
      </trkpt>
      <trkpt lat="45.79802" lon="6.39849">
        <ele>1580.5999755859</ele>
        <time>2019-02-17T09:14:35.000Z</time>
      </trkpt>
      <trkpt lat="45.79802" lon="6.3985">
        <ele>1580.5999755859</ele>
        <time>2019-02-17T09:14:36.000Z</time>
      </trkpt>
      <trkpt lat="45.79802" lon="6.39855">
        <ele>1580.5999755859</ele>
        <time>2019-02-17T09:14:41.000Z</time>
      </trkpt>
      <trkpt lat="45.798" lon="6.39859">
        <ele>1581.5999755859</ele>
        <time>2019-02-17T09:14:46.000Z</time>
      </trkpt>
      <trkpt lat="45.798" lon="6.3986">
        <ele>1582</ele>
        <time>2019-02-17T09:14:47.000Z</time>
      </trkpt>
      <trkpt lat="45.79799" lon="6.39863">
        <ele>1582.8000488281</ele>
        <time>2019-02-17T09:14:50.000Z</time>
      </trkpt>
      <trkpt lat="45.79799" lon="6.39865">
        <ele>1583.5999755859</ele>
        <time>2019-02-17T09:14:53.000Z</time>
      </trkpt>
      <trkpt lat="45.79799" lon="6.39865">
        <ele>1583.8000488281</ele>
        <time>2019-02-17T09:14:54.000Z</time>
      </trkpt>
      <trkpt lat="45.79799" lon="6.39869">
        <ele>1584.4000244141</ele>
        <time>2019-02-17T09:14:59.000Z</time>
      </trkpt>
      <trkpt lat="45.79798" lon="6.39871">
        <ele>1584.8000488281</ele>
        <time>2019-02-17T09:15:01.000Z</time>
      </trkpt>
      <trkpt lat="45.79797" lon="6.39875">
        <ele>1585.8000488281</ele>
        <time>2019-02-17T09:15:05.000Z</time>
      </trkpt>
      <trkpt lat="45.79797" lon="6.39876">
        <ele>1585.8000488281</ele>
        <time>2019-02-17T09:15:06.000Z</time>
      </trkpt>
      <trkpt lat="45.79795" lon="6.39881">
        <ele>1586.4000244141</ele>
        <time>2019-02-17T09:15:12.000Z</time>
      </trkpt>
      <trkpt lat="45.79796" lon="6.39884">
        <ele>1586.8000488281</ele>
        <time>2019-02-17T09:15:15.000Z</time>
      </trkpt>
      <trkpt lat="45.79795" lon="6.39888">
        <ele>1587.1999511719</ele>
        <time>2019-02-17T09:15:19.000Z</time>
      </trkpt>
      <trkpt lat="45.79794" lon="6.39894">
        <ele>1587.8000488281</ele>
        <time>2019-02-17T09:15:25.000Z</time>
      </trkpt>
      <trkpt lat="45.79794" lon="6.39895">
        <ele>1588</ele>
        <time>2019-02-17T09:15:26.000Z</time>
      </trkpt>
      <trkpt lat="45.79794" lon="6.399">
        <ele>1589.1999511719</ele>
        <time>2019-02-17T09:15:33.000Z</time>
      </trkpt>
      <trkpt lat="45.79795" lon="6.39901">
        <ele>1590.1999511719</ele>
        <time>2019-02-17T09:15:38.000Z</time>
      </trkpt>
      <trkpt lat="45.79795" lon="6.39902">
        <ele>1590.4000244141</ele>
        <time>2019-02-17T09:15:39.000Z</time>
      </trkpt>
      <trkpt lat="45.79794" lon="6.39908">
        <ele>1591.5999755859</ele>
        <time>2019-02-17T09:15:46.000Z</time>
      </trkpt>
      <trkpt lat="45.79794" lon="6.39912">
        <ele>1592.4000244141</ele>
        <time>2019-02-17T09:15:51.000Z</time>
      </trkpt>
      <trkpt lat="45.79795" lon="6.39912">
        <ele>1592.5999755859</ele>
        <time>2019-02-17T09:15:52.000Z</time>
      </trkpt>
      <trkpt lat="45.79795" lon="6.39914">
        <ele>1593.4000244141</ele>
        <time>2019-02-17T09:15:55.000Z</time>
      </trkpt>
      <trkpt lat="45.79795" lon="6.39914">
        <ele>1593.5999755859</ele>
        <time>2019-02-17T09:15:56.000Z</time>
      </trkpt>
      <trkpt lat="45.79794" lon="6.39917">
        <ele>1594.1999511719</ele>
        <time>2019-02-17T09:16:00.000Z</time>
      </trkpt>
      <trkpt lat="45.79792" lon="6.39921">
        <ele>1594.8000488281</ele>
        <time>2019-02-17T09:16:05.000Z</time>
      </trkpt>
      <trkpt lat="45.7979" lon="6.39924">
        <ele>1595</ele>
        <time>2019-02-17T09:16:10.000Z</time>
      </trkpt>
      <trkpt lat="45.7979" lon="6.39926">
        <ele>1595.8000488281</ele>
        <time>2019-02-17T09:16:13.000Z</time>
      </trkpt>
      <trkpt lat="45.79789" lon="6.39928">
        <ele>1596.4000244141</ele>
        <time>2019-02-17T09:16:17.000Z</time>
      </trkpt>
      <trkpt lat="45.79786" lon="6.39929">
        <ele>1597</ele>
        <time>2019-02-17T09:16:22.000Z</time>
      </trkpt>
      <trkpt lat="45.79785" lon="6.39929">
        <ele>1597.4000244141</ele>
        <time>2019-02-17T09:16:24.000Z</time>
      </trkpt>
      <trkpt lat="45.79783" lon="6.39928">
        <ele>1598.1999511719</ele>
        <time>2019-02-17T09:16:27.000Z</time>
      </trkpt>
      <trkpt lat="45.79783" lon="6.39927">
        <ele>1598.5999755859</ele>
        <time>2019-02-17T09:16:29.000Z</time>
      </trkpt>
      <trkpt lat="45.79781" lon="6.39927">
        <ele>1599.1999511719</ele>
        <time>2019-02-17T09:16:32.000Z</time>
      </trkpt>
      <trkpt lat="45.7978" lon="6.39927">
        <ele>1599.8000488281</ele>
        <time>2019-02-17T09:16:35.000Z</time>
      </trkpt>
      <trkpt lat="45.79778" lon="6.39927">
        <ele>1600.1999511719</ele>
        <time>2019-02-17T09:16:39.000Z</time>
      </trkpt>
      <trkpt lat="45.79778" lon="6.39927">
        <ele>1600.4000244141</ele>
        <time>2019-02-17T09:16:40.000Z</time>
      </trkpt>
      <trkpt lat="45.79777" lon="6.39927">
        <ele>1601.1999511719</ele>
        <time>2019-02-17T09:16:45.000Z</time>
      </trkpt>
      <trkpt lat="45.79776" lon="6.39926">
        <ele>1601.1999511719</ele>
        <time>2019-02-17T09:16:47.000Z</time>
      </trkpt>
      <trkpt lat="45.79773" lon="6.39928">
        <ele>1601.5999755859</ele>
        <time>2019-02-17T09:16:51.000Z</time>
      </trkpt>
      <trkpt lat="45.7977" lon="6.3993">
        <ele>1602.1999511719</ele>
        <time>2019-02-17T09:16:56.000Z</time>
      </trkpt>
      <trkpt lat="45.7977" lon="6.3993">
        <ele>1602.1999511719</ele>
        <time>2019-02-17T09:16:57.000Z</time>
      </trkpt>
      <trkpt lat="45.79768" lon="6.39933">
        <ele>1603.4000244141</ele>
        <time>2019-02-17T09:17:02.000Z</time>
      </trkpt>
      <trkpt lat="45.79767" lon="6.39936">
        <ele>1603.5999755859</ele>
        <time>2019-02-17T09:17:05.000Z</time>
      </trkpt>
      <trkpt lat="45.79767" lon="6.39939">
        <ele>1604.4000244141</ele>
        <time>2019-02-17T09:17:10.000Z</time>
      </trkpt>
      <trkpt lat="45.79766" lon="6.3994">
        <ele>1604.5999755859</ele>
        <time>2019-02-17T09:17:11.000Z</time>
      </trkpt>
      <trkpt lat="45.79765" lon="6.39943">
        <ele>1605.1999511719</ele>
        <time>2019-02-17T09:17:16.000Z</time>
      </trkpt>
      <trkpt lat="45.79764" lon="6.39945">
        <ele>1605.5999755859</ele>
        <time>2019-02-17T09:17:19.000Z</time>
      </trkpt>
      <trkpt lat="45.79763" lon="6.39948">
        <ele>1606.4000244141</ele>
        <time>2019-02-17T09:17:24.000Z</time>
      </trkpt>
      <trkpt lat="45.79763" lon="6.39951">
        <ele>1606.8000488281</ele>
        <time>2019-02-17T09:17:28.000Z</time>
      </trkpt>
      <trkpt lat="45.79763" lon="6.39951">
        <ele>1607</ele>
        <time>2019-02-17T09:17:29.000Z</time>
      </trkpt>
      <trkpt lat="45.79762" lon="6.39954">
        <ele>1608</ele>
        <time>2019-02-17T09:17:34.000Z</time>
      </trkpt>
      <trkpt lat="45.79759" lon="6.39956">
        <ele>1609</ele>
        <time>2019-02-17T09:17:39.000Z</time>
      </trkpt>
      <trkpt lat="45.79756" lon="6.39959">
        <ele>1609.8000488281</ele>
        <time>2019-02-17T09:17:44.000Z</time>
      </trkpt>
      <trkpt lat="45.79755" lon="6.3996">
        <ele>1610</ele>
        <time>2019-02-17T09:17:46.000Z</time>
      </trkpt>
      <trkpt lat="45.79755" lon="6.39961">
        <ele>1610.4000244141</ele>
        <time>2019-02-17T09:17:49.000Z</time>
      </trkpt>
      <trkpt lat="45.79754" lon="6.39963">
        <ele>1611</ele>
        <time>2019-02-17T09:17:54.000Z</time>
      </trkpt>
      <trkpt lat="45.79753" lon="6.39964">
        <ele>1611.1999511719</ele>
        <time>2019-02-17T09:17:55.000Z</time>
      </trkpt>
      <trkpt lat="45.7975" lon="6.39967">
        <ele>1612</ele>
        <time>2019-02-17T09:18:01.000Z</time>
      </trkpt>
      <trkpt lat="45.79749" lon="6.39968">
        <ele>1612.4000244141</ele>
        <time>2019-02-17T09:18:03.000Z</time>
      </trkpt>
      <trkpt lat="45.79748" lon="6.39968">
        <ele>1613.1999511719</ele>
        <time>2019-02-17T09:18:06.000Z</time>
      </trkpt>
      <trkpt lat="45.79747" lon="6.39968">
        <ele>1613.5999755859</ele>
        <time>2019-02-17T09:18:08.000Z</time>
      </trkpt>
      <trkpt lat="45.79745" lon="6.39968">
        <ele>1614</ele>
        <time>2019-02-17T09:18:12.000Z</time>
      </trkpt>
      <trkpt lat="45.79745" lon="6.3997">
        <ele>1614.8000488281</ele>
        <time>2019-02-17T09:18:16.000Z</time>
      </trkpt>
      <trkpt lat="45.79746" lon="6.39975">
        <ele>1615.5999755859</ele>
        <time>2019-02-17T09:18:20.000Z</time>
      </trkpt>
      <trkpt lat="45.79746" lon="6.39976">
        <ele>1615.8000488281</ele>
        <time>2019-02-17T09:18:21.000Z</time>
      </trkpt>
      <trkpt lat="45.79746" lon="6.39978">
        <ele>1616.1999511719</ele>
        <time>2019-02-17T09:18:24.000Z</time>
      </trkpt>
      <trkpt lat="45.79746" lon="6.39979">
        <ele>1616.5999755859</ele>
        <time>2019-02-17T09:18:26.000Z</time>
      </trkpt>
      <trkpt lat="45.79746" lon="6.3998">
        <ele>1616.8000488281</ele>
        <time>2019-02-17T09:18:27.000Z</time>
      </trkpt>
      <trkpt lat="45.79747" lon="6.39984">
        <ele>1617.5999755859</ele>
        <time>2019-02-17T09:18:31.000Z</time>
      </trkpt>
      <trkpt lat="45.79747" lon="6.39984">
        <ele>1617.8000488281</ele>
        <time>2019-02-17T09:18:32.000Z</time>
      </trkpt>
      <trkpt lat="45.79747" lon="6.39986">
        <ele>1618.4000244141</ele>
        <time>2019-02-17T09:18:36.000Z</time>
      </trkpt>
      <trkpt lat="45.79749" lon="6.39989">
        <ele>1619</ele>
        <time>2019-02-17T09:18:39.000Z</time>
      </trkpt>
      <trkpt lat="45.79749" lon="6.39989">
        <ele>1619.4000244141</ele>
        <time>2019-02-17T09:18:41.000Z</time>
      </trkpt>
      <trkpt lat="45.79749" lon="6.39989">
        <ele>1620.1999511719</ele>
        <time>2019-02-17T09:18:47.000Z</time>
      </trkpt>
      <trkpt lat="45.7975" lon="6.39991">
        <ele>1621.1999511719</ele>
        <time>2019-02-17T09:18:52.000Z</time>
      </trkpt>
      <trkpt lat="45.7975" lon="6.39997">
        <ele>1622.1999511719</ele>
        <time>2019-02-17T09:18:57.000Z</time>
      </trkpt>
      <trkpt lat="45.7975" lon="6.4">
        <ele>1622.4000244141</ele>
        <time>2019-02-17T09:18:58.000Z</time>
      </trkpt>
      <trkpt lat="45.79749" lon="6.40009">
        <ele>1623</ele>
        <time>2019-02-17T09:19:03.000Z</time>
      </trkpt>
      <trkpt lat="45.79747" lon="6.40016">
        <ele>1623.4000244141</ele>
        <time>2019-02-17T09:19:07.000Z</time>
      </trkpt>
      <trkpt lat="45.79747" lon="6.40017">
        <ele>1623.8000488281</ele>
        <time>2019-02-17T09:19:09.000Z</time>
      </trkpt>
      <trkpt lat="45.79746" lon="6.40016">
        <ele>1624.5999755859</ele>
        <time>2019-02-17T09:19:12.000Z</time>
      </trkpt>
      <trkpt lat="45.79745" lon="6.40016">
        <ele>1625.4000244141</ele>
        <time>2019-02-17T09:19:14.000Z</time>
      </trkpt>
      <trkpt lat="45.79744" lon="6.40016">
        <ele>1625.8000488281</ele>
        <time>2019-02-17T09:19:15.000Z</time>
      </trkpt>
      <trkpt lat="45.79742" lon="6.40015">
        <ele>1626</ele>
        <time>2019-02-17T09:19:17.000Z</time>
      </trkpt>
      <trkpt lat="45.7974" lon="6.40014">
        <ele>1626.1999511719</ele>
        <time>2019-02-17T09:19:20.000Z</time>
      </trkpt>
      <trkpt lat="45.79737" lon="6.40013">
        <ele>1627</ele>
        <time>2019-02-17T09:19:26.000Z</time>
      </trkpt>
      <trkpt lat="45.79734" lon="6.40012">
        <ele>1627.8000488281</ele>
        <time>2019-02-17T09:19:31.000Z</time>
      </trkpt>
      <trkpt lat="45.79733" lon="6.40012">
        <ele>1628</ele>
        <time>2019-02-17T09:19:33.000Z</time>
      </trkpt>
      <trkpt lat="45.79733" lon="6.40011">
        <ele>1628.4000244141</ele>
        <time>2019-02-17T09:19:36.000Z</time>
      </trkpt>
      <trkpt lat="45.79731" lon="6.40009">
        <ele>1629</ele>
        <time>2019-02-17T09:19:40.000Z</time>
      </trkpt>
      <trkpt lat="45.79731" lon="6.40009">
        <ele>1629.5999755859</ele>
        <time>2019-02-17T09:19:42.000Z</time>
      </trkpt>
      <trkpt lat="45.79731" lon="6.40015">
        <ele>1629.8000488281</ele>
        <time>2019-02-17T09:19:49.000Z</time>
      </trkpt>
      <trkpt lat="45.7973" lon="6.40018">
        <ele>1630.1999511719</ele>
        <time>2019-02-17T09:19:53.000Z</time>
      </trkpt>
      <trkpt lat="45.79732" lon="6.40021">
        <ele>1631</ele>
        <time>2019-02-17T09:19:58.000Z</time>
      </trkpt>
      <trkpt lat="45.79732" lon="6.40024">
        <ele>1631.1999511719</ele>
        <time>2019-02-17T09:20:01.000Z</time>
      </trkpt>
      <trkpt lat="45.79734" lon="6.40028">
        <ele>1631.8000488281</ele>
        <time>2019-02-17T09:20:04.000Z</time>
      </trkpt>
      <trkpt lat="45.79734" lon="6.40031">
        <ele>1632.4000244141</ele>
        <time>2019-02-17T09:20:07.000Z</time>
      </trkpt>
      <trkpt lat="45.79734" lon="6.40031">
        <ele>1632.8000488281</ele>
        <time>2019-02-17T09:20:09.000Z</time>
      </trkpt>
      <trkpt lat="45.79735" lon="6.40034">
        <ele>1633.5999755859</ele>
        <time>2019-02-17T09:20:12.000Z</time>
      </trkpt>
      <trkpt lat="45.79735" lon="6.40039">
        <ele>1634.4000244141</ele>
        <time>2019-02-17T09:20:15.000Z</time>
      </trkpt>
      <trkpt lat="45.79735" lon="6.40041">
        <ele>1634.5999755859</ele>
        <time>2019-02-17T09:20:18.000Z</time>
      </trkpt>
      <trkpt lat="45.79734" lon="6.40044">
        <ele>1634.8000488281</ele>
        <time>2019-02-17T09:20:20.000Z</time>
      </trkpt>
      <trkpt lat="45.79734" lon="6.40049">
        <ele>1635.8000488281</ele>
        <time>2019-02-17T09:20:25.000Z</time>
      </trkpt>
      <trkpt lat="45.79735" lon="6.40057">
        <ele>1636.8000488281</ele>
        <time>2019-02-17T09:20:31.000Z</time>
      </trkpt>
      <trkpt lat="45.79734" lon="6.40059">
        <ele>1637.5999755859</ele>
        <time>2019-02-17T09:20:36.000Z</time>
      </trkpt>
      <trkpt lat="45.79734" lon="6.40059">
        <ele>1637.8000488281</ele>
        <time>2019-02-17T09:20:37.000Z</time>
      </trkpt>
      <trkpt lat="45.79735" lon="6.40063">
        <ele>1638.8000488281</ele>
        <time>2019-02-17T09:20:42.000Z</time>
      </trkpt>
      <trkpt lat="45.79735" lon="6.40063">
        <ele>1638.8000488281</ele>
        <time>2019-02-17T09:20:43.000Z</time>
      </trkpt>
      <trkpt lat="45.79733" lon="6.4007">
        <ele>1639.4000244141</ele>
        <time>2019-02-17T09:20:47.000Z</time>
      </trkpt>
      <trkpt lat="45.79734" lon="6.40074">
        <ele>1640.1999511719</ele>
        <time>2019-02-17T09:20:51.000Z</time>
      </trkpt>
      <trkpt lat="45.79733" lon="6.40074">
        <ele>1640.4000244141</ele>
        <time>2019-02-17T09:20:52.000Z</time>
      </trkpt>
      <trkpt lat="45.79732" lon="6.40078">
        <ele>1641.4000244141</ele>
        <time>2019-02-17T09:20:56.000Z</time>
      </trkpt>
      <trkpt lat="45.79732" lon="6.40079">
        <ele>1641.5999755859</ele>
        <time>2019-02-17T09:20:58.000Z</time>
      </trkpt>
      <trkpt lat="45.79731" lon="6.40079">
        <ele>1642.4000244141</ele>
        <time>2019-02-17T09:21:02.000Z</time>
      </trkpt>
      <trkpt lat="45.79731" lon="6.40079">
        <ele>1642.5999755859</ele>
        <time>2019-02-17T09:21:05.000Z</time>
      </trkpt>
      <trkpt lat="45.79732" lon="6.40078">
        <ele>1642.4000244141</ele>
        <time>2019-02-17T09:21:20.000Z</time>
      </trkpt>
      <trkpt lat="45.79729" lon="6.40075">
        <ele>1643</ele>
        <time>2019-02-17T09:21:26.000Z</time>
      </trkpt>
      <trkpt lat="45.79726" lon="6.40074">
        <ele>1643.4000244141</ele>
        <time>2019-02-17T09:21:29.000Z</time>
      </trkpt>
      <trkpt lat="45.79725" lon="6.40073">
        <ele>1643.8000488281</ele>
        <time>2019-02-17T09:21:32.000Z</time>
      </trkpt>
      <trkpt lat="45.79724" lon="6.40072">
        <ele>1644.5999755859</ele>
        <time>2019-02-17T09:21:36.000Z</time>
      </trkpt>
      <trkpt lat="45.79722" lon="6.40071">
        <ele>1644.5999755859</ele>
        <time>2019-02-17T09:21:37.000Z</time>
      </trkpt>
      <trkpt lat="45.79719" lon="6.40066">
        <ele>1645.4000244141</ele>
        <time>2019-02-17T09:21:44.000Z</time>
      </trkpt>
      <trkpt lat="45.79718" lon="6.40067">
        <ele>1645.5999755859</ele>
        <time>2019-02-17T09:21:45.000Z</time>
      </trkpt>
      <trkpt lat="45.79718" lon="6.40067">
        <ele>1646.4000244141</ele>
        <time>2019-02-17T09:21:50.000Z</time>
      </trkpt>
      <trkpt lat="45.79719" lon="6.40068">
        <ele>1646.5999755859</ele>
        <time>2019-02-17T09:21:58.000Z</time>
      </trkpt>
      <trkpt lat="45.79719" lon="6.40068">
        <ele>1646.5999755859</ele>
        <time>2019-02-17T09:21:59.000Z</time>
      </trkpt>
      <trkpt lat="45.79719" lon="6.40068">
        <ele>1647.4000244141</ele>
        <time>2019-02-17T09:22:14.000Z</time>
      </trkpt>
      <trkpt lat="45.79719" lon="6.40068">
        <ele>1647.5999755859</ele>
        <time>2019-02-17T09:22:16.000Z</time>
      </trkpt>
      <trkpt lat="45.79719" lon="6.40068">
        <ele>1647.1999511719</ele>
        <time>2019-02-17T09:22:35.000Z</time>
      </trkpt>
      <trkpt lat="45.79719" lon="6.40069">
        <ele>1647.1999511719</ele>
        <time>2019-02-17T09:22:39.000Z</time>
      </trkpt>
      <trkpt lat="45.79719" lon="6.40072">
        <ele>1647.1999511719</ele>
        <time>2019-02-17T09:22:44.000Z</time>
      </trkpt>
      <trkpt lat="45.79719" lon="6.40076">
        <ele>1648.5999755859</ele>
        <time>2019-02-17T09:22:49.000Z</time>
      </trkpt>
      <trkpt lat="45.79719" lon="6.40077">
        <ele>1648.8000488281</ele>
        <time>2019-02-17T09:22:50.000Z</time>
      </trkpt>
      <trkpt lat="45.79719" lon="6.40083">
        <ele>1649.8000488281</ele>
        <time>2019-02-17T09:22:55.000Z</time>
      </trkpt>
      <trkpt lat="45.79716" lon="6.40091">
        <ele>1650.8000488281</ele>
        <time>2019-02-17T09:23:00.000Z</time>
      </trkpt>
      <trkpt lat="45.79716" lon="6.40092">
        <ele>1651</ele>
        <time>2019-02-17T09:23:01.000Z</time>
      </trkpt>
      <trkpt lat="45.79715" lon="6.401">
        <ele>1652</ele>
        <time>2019-02-17T09:23:07.000Z</time>
      </trkpt>
      <trkpt lat="45.79715" lon="6.401">
        <ele>1652.1999511719</ele>
        <time>2019-02-17T09:23:08.000Z</time>
      </trkpt>
      <trkpt lat="45.79713" lon="6.40106">
        <ele>1652.8000488281</ele>
        <time>2019-02-17T09:23:14.000Z</time>
      </trkpt>
      <trkpt lat="45.79712" lon="6.40108">
        <ele>1653.1999511719</ele>
        <time>2019-02-17T09:23:15.000Z</time>
      </trkpt>
      <trkpt lat="45.79711" lon="6.40113">
        <ele>1654</ele>
        <time>2019-02-17T09:23:19.000Z</time>
      </trkpt>
      <trkpt lat="45.79711" lon="6.40116">
        <ele>1654.4000244141</ele>
        <time>2019-02-17T09:23:22.000Z</time>
      </trkpt>
      <trkpt lat="45.7971" lon="6.40119">
        <ele>1654.8000488281</ele>
        <time>2019-02-17T09:23:25.000Z</time>
      </trkpt>
      <trkpt lat="45.79709" lon="6.40124">
        <ele>1655.4000244141</ele>
        <time>2019-02-17T09:23:28.000Z</time>
      </trkpt>
      <trkpt lat="45.79709" lon="6.40127">
        <ele>1656</ele>
        <time>2019-02-17T09:23:31.000Z</time>
      </trkpt>
      <trkpt lat="45.79708" lon="6.40129">
        <ele>1656.5999755859</ele>
        <time>2019-02-17T09:23:35.000Z</time>
      </trkpt>
      <trkpt lat="45.79708" lon="6.40131">
        <ele>1656.8000488281</ele>
        <time>2019-02-17T09:23:36.000Z</time>
      </trkpt>
      <trkpt lat="45.79708" lon="6.40134">
        <ele>1657.8000488281</ele>
        <time>2019-02-17T09:23:40.000Z</time>
      </trkpt>
      <trkpt lat="45.79707" lon="6.40138">
        <ele>1658.1999511719</ele>
        <time>2019-02-17T09:23:43.000Z</time>
      </trkpt>
      <trkpt lat="45.79708" lon="6.40143">
        <ele>1658.5999755859</ele>
        <time>2019-02-17T09:23:48.000Z</time>
      </trkpt>
      <trkpt lat="45.79708" lon="6.40144">
        <ele>1658.8000488281</ele>
        <time>2019-02-17T09:23:49.000Z</time>
      </trkpt>
      <trkpt lat="45.79709" lon="6.40148">
        <ele>1659.8000488281</ele>
        <time>2019-02-17T09:23:53.000Z</time>
      </trkpt>
      <trkpt lat="45.79709" lon="6.40148">
        <ele>1660.1999511719</ele>
        <time>2019-02-17T09:23:54.000Z</time>
      </trkpt>
      <trkpt lat="45.79708" lon="6.40152">
        <ele>1660.8000488281</ele>
        <time>2019-02-17T09:23:59.000Z</time>
      </trkpt>
      <trkpt lat="45.79709" lon="6.40156">
        <ele>1661</ele>
        <time>2019-02-17T09:24:02.000Z</time>
      </trkpt>
      <trkpt lat="45.79708" lon="6.40159">
        <ele>1661.8000488281</ele>
        <time>2019-02-17T09:24:05.000Z</time>
      </trkpt>
      <trkpt lat="45.79707" lon="6.40161">
        <ele>1662.1999511719</ele>
        <time>2019-02-17T09:24:07.000Z</time>
      </trkpt>
      <trkpt lat="45.79706" lon="6.40163">
        <ele>1662.5999755859</ele>
        <time>2019-02-17T09:24:11.000Z</time>
      </trkpt>
      <trkpt lat="45.79706" lon="6.40165">
        <ele>1663.1999511719</ele>
        <time>2019-02-17T09:24:15.000Z</time>
      </trkpt>
      <trkpt lat="45.79706" lon="6.40166">
        <ele>1663.4000244141</ele>
        <time>2019-02-17T09:24:16.000Z</time>
      </trkpt>
      <trkpt lat="45.79706" lon="6.40168">
        <ele>1664.1999511719</ele>
        <time>2019-02-17T09:24:19.000Z</time>
      </trkpt>
      <trkpt lat="45.79706" lon="6.40169">
        <ele>1664.5999755859</ele>
        <time>2019-02-17T09:24:21.000Z</time>
      </trkpt>
      <trkpt lat="45.79706" lon="6.40177">
        <ele>1665</ele>
        <time>2019-02-17T09:24:28.000Z</time>
      </trkpt>
      <trkpt lat="45.79707" lon="6.40179">
        <ele>1665.4000244141</ele>
        <time>2019-02-17T09:24:31.000Z</time>
      </trkpt>
      <trkpt lat="45.79709" lon="6.40182">
        <ele>1666.1999511719</ele>
        <time>2019-02-17T09:24:34.000Z</time>
      </trkpt>
      <trkpt lat="45.7971" lon="6.40183">
        <ele>1666.5999755859</ele>
        <time>2019-02-17T09:24:35.000Z</time>
      </trkpt>
      <trkpt lat="45.79711" lon="6.40189">
        <ele>1667.5999755859</ele>
        <time>2019-02-17T09:24:41.000Z</time>
      </trkpt>
      <trkpt lat="45.79711" lon="6.40191">
        <ele>1667.8000488281</ele>
        <time>2019-02-17T09:24:43.000Z</time>
      </trkpt>
      <trkpt lat="45.79709" lon="6.40197">
        <ele>1668.4000244141</ele>
        <time>2019-02-17T09:24:48.000Z</time>
      </trkpt>
      <trkpt lat="45.79709" lon="6.40201">
        <ele>1668.5999755859</ele>
        <time>2019-02-17T09:24:51.000Z</time>
      </trkpt>
      <trkpt lat="45.79708" lon="6.40202">
        <ele>1669.4000244141</ele>
        <time>2019-02-17T09:24:53.000Z</time>
      </trkpt>
      <trkpt lat="45.79708" lon="6.40204">
        <ele>1669.8000488281</ele>
        <time>2019-02-17T09:24:55.000Z</time>
      </trkpt>
      <trkpt lat="45.79705" lon="6.40209">
        <ele>1671</ele>
        <time>2019-02-17T09:25:00.000Z</time>
      </trkpt>
      <trkpt lat="45.797" lon="6.40216">
        <ele>1672</ele>
        <time>2019-02-17T09:25:06.000Z</time>
      </trkpt>
      <trkpt lat="45.79698" lon="6.40222">
        <ele>1673</ele>
        <time>2019-02-17T09:25:14.000Z</time>
      </trkpt>
      <trkpt lat="45.79699" lon="6.40226">
        <ele>1674.1999511719</ele>
        <time>2019-02-17T09:25:19.000Z</time>
      </trkpt>
      <trkpt lat="45.79699" lon="6.4023">
        <ele>1675</ele>
        <time>2019-02-17T09:25:24.000Z</time>
      </trkpt>
      <trkpt lat="45.79699" lon="6.40231">
        <ele>1675.1999511719</ele>
        <time>2019-02-17T09:25:25.000Z</time>
      </trkpt>
      <trkpt lat="45.79697" lon="6.40236">
        <ele>1676.4000244141</ele>
        <time>2019-02-17T09:25:31.000Z</time>
      </trkpt>
      <trkpt lat="45.79697" lon="6.40243">
        <ele>1677.4000244141</ele>
        <time>2019-02-17T09:25:36.000Z</time>
      </trkpt>
      <trkpt lat="45.79697" lon="6.40244">
        <ele>1677.8000488281</ele>
        <time>2019-02-17T09:25:37.000Z</time>
      </trkpt>
      <trkpt lat="45.79696" lon="6.4025">
        <ele>1678.5999755859</ele>
        <time>2019-02-17T09:25:43.000Z</time>
      </trkpt>
      <trkpt lat="45.79695" lon="6.40251">
        <ele>1679</ele>
        <time>2019-02-17T09:25:45.000Z</time>
      </trkpt>
      <trkpt lat="45.79699" lon="6.40257">
        <ele>1679.5999755859</ele>
        <time>2019-02-17T09:25:51.000Z</time>
      </trkpt>
      <trkpt lat="45.797" lon="6.40258">
        <ele>1679.8000488281</ele>
        <time>2019-02-17T09:25:53.000Z</time>
      </trkpt>
      <trkpt lat="45.797" lon="6.40263">
        <ele>1680.4000244141</ele>
        <time>2019-02-17T09:25:57.000Z</time>
      </trkpt>
      <trkpt lat="45.79699" lon="6.40265">
        <ele>1681</ele>
        <time>2019-02-17T09:26:01.000Z</time>
      </trkpt>
      <trkpt lat="45.79698" lon="6.40266">
        <ele>1681</ele>
        <time>2019-02-17T09:26:03.000Z</time>
      </trkpt>
      <trkpt lat="45.79698" lon="6.40266">
        <ele>1681.5999755859</ele>
        <time>2019-02-17T09:26:12.000Z</time>
      </trkpt>
      <trkpt lat="45.79697" lon="6.40274">
        <ele>1682</ele>
        <time>2019-02-17T09:26:18.000Z</time>
      </trkpt>
      <trkpt lat="45.79696" lon="6.40275">
        <ele>1682.1999511719</ele>
        <time>2019-02-17T09:26:19.000Z</time>
      </trkpt>
      <trkpt lat="45.79696" lon="6.40281">
        <ele>1683</ele>
        <time>2019-02-17T09:26:25.000Z</time>
      </trkpt>
      <trkpt lat="45.79696" lon="6.40281">
        <ele>1683.1999511719</ele>
        <time>2019-02-17T09:26:26.000Z</time>
      </trkpt>
      <trkpt lat="45.79695" lon="6.40283">
        <ele>1684</ele>
        <time>2019-02-17T09:26:33.000Z</time>
      </trkpt>
      <trkpt lat="45.79694" lon="6.4029">
        <ele>1684</ele>
        <time>2019-02-17T09:26:39.000Z</time>
      </trkpt>
      <trkpt lat="45.79693" lon="6.40291">
        <ele>1684.1999511719</ele>
        <time>2019-02-17T09:26:40.000Z</time>
      </trkpt>
      <trkpt lat="45.79693" lon="6.40295">
        <ele>1685.1999511719</ele>
        <time>2019-02-17T09:26:45.000Z</time>
      </trkpt>
      <trkpt lat="45.79691" lon="6.403">
        <ele>1685.8000488281</ele>
        <time>2019-02-17T09:26:50.000Z</time>
      </trkpt>
      <trkpt lat="45.79688" lon="6.40305">
        <ele>1686.5999755859</ele>
        <time>2019-02-17T09:26:55.000Z</time>
      </trkpt>
      <trkpt lat="45.79687" lon="6.40306">
        <ele>1686.8000488281</ele>
        <time>2019-02-17T09:26:56.000Z</time>
      </trkpt>
      <trkpt lat="45.79685" lon="6.4031">
        <ele>1687.5999755859</ele>
        <time>2019-02-17T09:27:01.000Z</time>
      </trkpt>
      <trkpt lat="45.79685" lon="6.40313">
        <ele>1687.8000488281</ele>
        <time>2019-02-17T09:27:03.000Z</time>
      </trkpt>
      <trkpt lat="45.79681" lon="6.4032">
        <ele>1688.8000488281</ele>
        <time>2019-02-17T09:27:10.000Z</time>
      </trkpt>
      <trkpt lat="45.79681" lon="6.40325">
        <ele>1689.8000488281</ele>
        <time>2019-02-17T09:27:15.000Z</time>
      </trkpt>
      <trkpt lat="45.7968" lon="6.40325">
        <ele>1690.1999511719</ele>
        <time>2019-02-17T09:27:16.000Z</time>
      </trkpt>
      <trkpt lat="45.79676" lon="6.4033">
        <ele>1691</ele>
        <time>2019-02-17T09:27:22.000Z</time>
      </trkpt>
      <trkpt lat="45.79674" lon="6.40334">
        <ele>1691.5999755859</ele>
        <time>2019-02-17T09:27:28.000Z</time>
      </trkpt>
      <trkpt lat="45.79672" lon="6.40336">
        <ele>1692</ele>
        <time>2019-02-17T09:27:31.000Z</time>
      </trkpt>
      <trkpt lat="45.79671" lon="6.40339">
        <ele>1692.4000244141</ele>
        <time>2019-02-17T09:27:34.000Z</time>
      </trkpt>
      <trkpt lat="45.79669" lon="6.40345">
        <ele>1693.1999511719</ele>
        <time>2019-02-17T09:27:40.000Z</time>
      </trkpt>
      <trkpt lat="45.79669" lon="6.40349">
        <ele>1694.4000244141</ele>
        <time>2019-02-17T09:27:44.000Z</time>
      </trkpt>
      <trkpt lat="45.79668" lon="6.40351">
        <ele>1695.1999511719</ele>
        <time>2019-02-17T09:27:47.000Z</time>
      </trkpt>
      <trkpt lat="45.79667" lon="6.40353">
        <ele>1695.4000244141</ele>
        <time>2019-02-17T09:27:49.000Z</time>
      </trkpt>
      <trkpt lat="45.79665" lon="6.40354">
        <ele>1695.8000488281</ele>
        <time>2019-02-17T09:27:53.000Z</time>
      </trkpt>
      <trkpt lat="45.79664" lon="6.40358">
        <ele>1696.5999755859</ele>
        <time>2019-02-17T09:27:57.000Z</time>
      </trkpt>
      <trkpt lat="45.79663" lon="6.40361">
        <ele>1696.8000488281</ele>
        <time>2019-02-17T09:27:59.000Z</time>
      </trkpt>
      <trkpt lat="45.79658" lon="6.40366">
        <ele>1697.5999755859</ele>
        <time>2019-02-17T09:28:04.000Z</time>
      </trkpt>
      <trkpt lat="45.79658" lon="6.40368">
        <ele>1698</ele>
        <time>2019-02-17T09:28:06.000Z</time>
      </trkpt>
      <trkpt lat="45.79656" lon="6.40371">
        <ele>1698.5999755859</ele>
        <time>2019-02-17T09:28:09.000Z</time>
      </trkpt>
      <trkpt lat="45.79654" lon="6.40374">
        <ele>1699.4000244141</ele>
        <time>2019-02-17T09:28:13.000Z</time>
      </trkpt>
      <trkpt lat="45.79653" lon="6.40375">
        <ele>1699.5999755859</ele>
        <time>2019-02-17T09:28:14.000Z</time>
      </trkpt>
      <trkpt lat="45.79652" lon="6.4038">
        <ele>1700.1999511719</ele>
        <time>2019-02-17T09:28:19.000Z</time>
      </trkpt>
      <trkpt lat="45.79649" lon="6.40383">
        <ele>1700.5999755859</ele>
        <time>2019-02-17T09:28:22.000Z</time>
      </trkpt>
      <trkpt lat="45.79647" lon="6.40386">
        <ele>1701.1999511719</ele>
        <time>2019-02-17T09:28:26.000Z</time>
      </trkpt>
      <trkpt lat="45.79647" lon="6.40388">
        <ele>1701.8000488281</ele>
        <time>2019-02-17T09:28:29.000Z</time>
      </trkpt>
      <trkpt lat="45.79646" lon="6.40392">
        <ele>1702.4000244141</ele>
        <time>2019-02-17T09:28:33.000Z</time>
      </trkpt>
      <trkpt lat="45.79644" lon="6.40394">
        <ele>1702.8000488281</ele>
        <time>2019-02-17T09:28:35.000Z</time>
      </trkpt>
      <trkpt lat="45.79642" lon="6.40398">
        <ele>1703.4000244141</ele>
        <time>2019-02-17T09:28:39.000Z</time>
      </trkpt>
      <trkpt lat="45.79636" lon="6.40403">
        <ele>1704</ele>
        <time>2019-02-17T09:28:45.000Z</time>
      </trkpt>
      <trkpt lat="45.79636" lon="6.40407">
        <ele>1705</ele>
        <time>2019-02-17T09:28:51.000Z</time>
      </trkpt>
      <trkpt lat="45.79633" lon="6.40413">
        <ele>1706</ele>
        <time>2019-02-17T09:28:57.000Z</time>
      </trkpt>
      <trkpt lat="45.79633" lon="6.40415">
        <ele>1706.1999511719</ele>
        <time>2019-02-17T09:28:59.000Z</time>
      </trkpt>
      <trkpt lat="45.79631" lon="6.40419">
        <ele>1707</ele>
        <time>2019-02-17T09:29:04.000Z</time>
      </trkpt>
      <trkpt lat="45.79631" lon="6.4042">
        <ele>1707.1999511719</ele>
        <time>2019-02-17T09:29:05.000Z</time>
      </trkpt>
      <trkpt lat="45.7963" lon="6.40424">
        <ele>1707.5999755859</ele>
        <time>2019-02-17T09:29:09.000Z</time>
      </trkpt>
      <trkpt lat="45.79629" lon="6.40431">
        <ele>1708.4000244141</ele>
        <time>2019-02-17T09:29:16.000Z</time>
      </trkpt>
      <trkpt lat="45.79627" lon="6.40436">
        <ele>1709</ele>
        <time>2019-02-17T09:29:23.000Z</time>
      </trkpt>
      <trkpt lat="45.79625" lon="6.4044">
        <ele>1709.5999755859</ele>
        <time>2019-02-17T09:29:27.000Z</time>
      </trkpt>
      <trkpt lat="45.79624" lon="6.40443">
        <ele>1710.1999511719</ele>
        <time>2019-02-17T09:29:30.000Z</time>
      </trkpt>
      <trkpt lat="45.79623" lon="6.40446">
        <ele>1710.5999755859</ele>
        <time>2019-02-17T09:29:33.000Z</time>
      </trkpt>
      <trkpt lat="45.79622" lon="6.40449">
        <ele>1710.8000488281</ele>
        <time>2019-02-17T09:29:36.000Z</time>
      </trkpt>
      <trkpt lat="45.79619" lon="6.40453">
        <ele>1711.5999755859</ele>
        <time>2019-02-17T09:29:40.000Z</time>
      </trkpt>
      <trkpt lat="45.79618" lon="6.40455">
        <ele>1711.8000488281</ele>
        <time>2019-02-17T09:29:42.000Z</time>
      </trkpt>
      <trkpt lat="45.79616" lon="6.4046">
        <ele>1712.8000488281</ele>
        <time>2019-02-17T09:29:48.000Z</time>
      </trkpt>
      <trkpt lat="45.79616" lon="6.40461">
        <ele>1713</ele>
        <time>2019-02-17T09:29:49.000Z</time>
      </trkpt>
      <trkpt lat="45.79614" lon="6.40468">
        <ele>1713.8000488281</ele>
        <time>2019-02-17T09:29:55.000Z</time>
      </trkpt>
      <trkpt lat="45.79614" lon="6.40469">
        <ele>1714</ele>
        <time>2019-02-17T09:29:56.000Z</time>
      </trkpt>
      <trkpt lat="45.79613" lon="6.40472">
        <ele>1714.5999755859</ele>
        <time>2019-02-17T09:30:00.000Z</time>
      </trkpt>
      <trkpt lat="45.7961" lon="6.40477">
        <ele>1715.1999511719</ele>
        <time>2019-02-17T09:30:04.000Z</time>
      </trkpt>
      <trkpt lat="45.79608" lon="6.4048">
        <ele>1715.8000488281</ele>
        <time>2019-02-17T09:30:06.000Z</time>
      </trkpt>
      <trkpt lat="45.79607" lon="6.40483">
        <ele>1716.4000244141</ele>
        <time>2019-02-17T09:30:09.000Z</time>
      </trkpt>
      <trkpt lat="45.79606" lon="6.40486">
        <ele>1716.5999755859</ele>
        <time>2019-02-17T09:30:12.000Z</time>
      </trkpt>
      <trkpt lat="45.79607" lon="6.40491">
        <ele>1717.4000244141</ele>
        <time>2019-02-17T09:30:18.000Z</time>
      </trkpt>
      <trkpt lat="45.79608" lon="6.40495">
        <ele>1718.5999755859</ele>
        <time>2019-02-17T09:30:23.000Z</time>
      </trkpt>
      <trkpt lat="45.79609" lon="6.40503">
        <ele>1719.5999755859</ele>
        <time>2019-02-17T09:30:29.000Z</time>
      </trkpt>
      <trkpt lat="45.7961" lon="6.40504">
        <ele>1720.8000488281</ele>
        <time>2019-02-17T09:30:35.000Z</time>
      </trkpt>
      <trkpt lat="45.7961" lon="6.4051">
        <ele>1721.1999511719</ele>
        <time>2019-02-17T09:30:40.000Z</time>
      </trkpt>
      <trkpt lat="45.7961" lon="6.40516">
        <ele>1721.8000488281</ele>
        <time>2019-02-17T09:30:45.000Z</time>
      </trkpt>
      <trkpt lat="45.7961" lon="6.4052">
        <ele>1722.8000488281</ele>
        <time>2019-02-17T09:30:50.000Z</time>
      </trkpt>
      <trkpt lat="45.7961" lon="6.4052">
        <ele>1723.4000244141</ele>
        <time>2019-02-17T09:30:56.000Z</time>
      </trkpt>
      <trkpt lat="45.7961" lon="6.4052">
        <ele>1723.8000488281</ele>
        <time>2019-02-17T09:30:58.000Z</time>
      </trkpt>
      <trkpt lat="45.7961" lon="6.4052">
        <ele>1724.4000244141</ele>
        <time>2019-02-17T09:31:01.000Z</time>
      </trkpt>
      <trkpt lat="45.7961" lon="6.4052">
        <ele>1725</ele>
        <time>2019-02-17T09:31:05.000Z</time>
      </trkpt>
      <trkpt lat="45.7961" lon="6.4052">
        <ele>1725.1999511719</ele>
        <time>2019-02-17T09:31:06.000Z</time>
      </trkpt>
      <trkpt lat="45.79611" lon="6.40524">
        <ele>1725.8000488281</ele>
        <time>2019-02-17T09:31:12.000Z</time>
      </trkpt>
      <trkpt lat="45.79611" lon="6.40526">
        <ele>1726</ele>
        <time>2019-02-17T09:31:13.000Z</time>
      </trkpt>
      <trkpt lat="45.79609" lon="6.40532">
        <ele>1727.1999511719</ele>
        <time>2019-02-17T09:31:19.000Z</time>
      </trkpt>
      <trkpt lat="45.79605" lon="6.40535">
        <ele>1728.1999511719</ele>
        <time>2019-02-17T09:31:23.000Z</time>
      </trkpt>
      <trkpt lat="45.79603" lon="6.40537">
        <ele>1728.4000244141</ele>
        <time>2019-02-17T09:31:24.000Z</time>
      </trkpt>
      <trkpt lat="45.79601" lon="6.40538">
        <ele>1729.4000244141</ele>
        <time>2019-02-17T09:31:29.000Z</time>
      </trkpt>
      <trkpt lat="45.79601" lon="6.40538">
        <ele>1729.5999755859</ele>
        <time>2019-02-17T09:31:30.000Z</time>
      </trkpt>
      <trkpt lat="45.79601" lon="6.40538">
        <ele>1729.8000488281</ele>
        <time>2019-02-17T09:31:37.000Z</time>
      </trkpt>
      <trkpt lat="45.79597" lon="6.4054">
        <ele>1730</ele>
        <time>2019-02-17T09:31:42.000Z</time>
      </trkpt>
      <trkpt lat="45.79592" lon="6.40541">
        <ele>1730.4000244141</ele>
        <time>2019-02-17T09:31:46.000Z</time>
      </trkpt>
      <trkpt lat="45.7959" lon="6.40542">
        <ele>1730.5999755859</ele>
        <time>2019-02-17T09:31:47.000Z</time>
      </trkpt>
      <trkpt lat="45.79585" lon="6.40542">
        <ele>1731.1999511719</ele>
        <time>2019-02-17T09:31:52.000Z</time>
      </trkpt>
      <trkpt lat="45.79583" lon="6.40542">
        <ele>1731.5999755859</ele>
        <time>2019-02-17T09:31:54.000Z</time>
      </trkpt>
      <trkpt lat="45.7958" lon="6.40542">
        <ele>1732.1999511719</ele>
        <time>2019-02-17T09:31:58.000Z</time>
      </trkpt>
      <trkpt lat="45.79577" lon="6.40543">
        <ele>1732.5999755859</ele>
        <time>2019-02-17T09:32:02.000Z</time>
      </trkpt>
      <trkpt lat="45.79575" lon="6.40543">
        <ele>1733.1999511719</ele>
        <time>2019-02-17T09:32:04.000Z</time>
      </trkpt>
      <trkpt lat="45.79574" lon="6.40543">
        <ele>1733.5999755859</ele>
        <time>2019-02-17T09:32:06.000Z</time>
      </trkpt>
      <trkpt lat="45.79572" lon="6.40543">
        <ele>1734.1999511719</ele>
        <time>2019-02-17T09:32:10.000Z</time>
      </trkpt>
      <trkpt lat="45.79568" lon="6.40543">
        <ele>1734.8000488281</ele>
        <time>2019-02-17T09:32:14.000Z</time>
      </trkpt>
      <trkpt lat="45.79568" lon="6.40543">
        <ele>1734.8000488281</ele>
        <time>2019-02-17T09:32:15.000Z</time>
      </trkpt>
      <trkpt lat="45.7957" lon="6.40548">
        <ele>1735.8000488281</ele>
        <time>2019-02-17T09:32:21.000Z</time>
      </trkpt>
      <trkpt lat="45.79569" lon="6.40549">
        <ele>1736.8000488281</ele>
        <time>2019-02-17T09:32:27.000Z</time>
      </trkpt>
      <trkpt lat="45.79569" lon="6.40551">
        <ele>1737.1999511719</ele>
        <time>2019-02-17T09:32:28.000Z</time>
      </trkpt>
      <trkpt lat="45.79571" lon="6.40558">
        <ele>1737.8000488281</ele>
        <time>2019-02-17T09:32:34.000Z</time>
      </trkpt>
      <trkpt lat="45.79571" lon="6.40559">
        <ele>1738</ele>
        <time>2019-02-17T09:32:35.000Z</time>
      </trkpt>
      <trkpt lat="45.79571" lon="6.40564">
        <ele>1738.8000488281</ele>
        <time>2019-02-17T09:32:39.000Z</time>
      </trkpt>
      <trkpt lat="45.79571" lon="6.40565">
        <ele>1739</ele>
        <time>2019-02-17T09:32:40.000Z</time>
      </trkpt>
      <trkpt lat="45.79572" lon="6.40571">
        <ele>1739.5999755859</ele>
        <time>2019-02-17T09:32:46.000Z</time>
      </trkpt>
      <trkpt lat="45.79572" lon="6.40572">
        <ele>1740</ele>
        <time>2019-02-17T09:32:47.000Z</time>
      </trkpt>
      <trkpt lat="45.79571" lon="6.40578">
        <ele>1741</ele>
        <time>2019-02-17T09:32:52.000Z</time>
      </trkpt>
      <trkpt lat="45.79571" lon="6.40584">
        <ele>1741.8000488281</ele>
        <time>2019-02-17T09:32:57.000Z</time>
      </trkpt>
      <trkpt lat="45.79571" lon="6.40585">
        <ele>1742.1999511719</ele>
        <time>2019-02-17T09:32:58.000Z</time>
      </trkpt>
      <trkpt lat="45.7957" lon="6.40591">
        <ele>1743</ele>
        <time>2019-02-17T09:33:03.000Z</time>
      </trkpt>
      <trkpt lat="45.7957" lon="6.40592">
        <ele>1743.1999511719</ele>
        <time>2019-02-17T09:33:04.000Z</time>
      </trkpt>
      <trkpt lat="45.79572" lon="6.40595">
        <ele>1743.8000488281</ele>
        <time>2019-02-17T09:33:08.000Z</time>
      </trkpt>
      <trkpt lat="45.79572" lon="6.40596">
        <ele>1744.1999511719</ele>
        <time>2019-02-17T09:33:10.000Z</time>
      </trkpt>
      <trkpt lat="45.79572" lon="6.40596">
        <ele>1744.8000488281</ele>
        <time>2019-02-17T09:33:15.000Z</time>
      </trkpt>
      <trkpt lat="45.79572" lon="6.40596">
        <ele>1745.4000244141</ele>
        <time>2019-02-17T09:33:17.000Z</time>
      </trkpt>
      <trkpt lat="45.79572" lon="6.40599">
        <ele>1746</ele>
        <time>2019-02-17T09:33:21.000Z</time>
      </trkpt>
      <trkpt lat="45.79569" lon="6.40607">
        <ele>1746.5999755859</ele>
        <time>2019-02-17T09:33:26.000Z</time>
      </trkpt>
      <trkpt lat="45.79568" lon="6.40608">
        <ele>1746.8000488281</ele>
        <time>2019-02-17T09:33:27.000Z</time>
      </trkpt>
      <trkpt lat="45.79567" lon="6.40613">
        <ele>1747.5999755859</ele>
        <time>2019-02-17T09:33:31.000Z</time>
      </trkpt>
      <trkpt lat="45.79567" lon="6.40615">
        <ele>1748.1999511719</ele>
        <time>2019-02-17T09:33:33.000Z</time>
      </trkpt>
      <trkpt lat="45.79566" lon="6.40618">
        <ele>1748.8000488281</ele>
        <time>2019-02-17T09:33:36.000Z</time>
      </trkpt>
      <trkpt lat="45.79566" lon="6.40619">
        <ele>1749.1999511719</ele>
        <time>2019-02-17T09:33:38.000Z</time>
      </trkpt>
      <trkpt lat="45.79566" lon="6.40619">
        <ele>1750</ele>
        <time>2019-02-17T09:33:41.000Z</time>
      </trkpt>
      <trkpt lat="45.79566" lon="6.40619">
        <ele>1750.1999511719</ele>
        <time>2019-02-17T09:33:45.000Z</time>
      </trkpt>
      <trkpt lat="45.79566" lon="6.40619">
        <ele>1751</ele>
        <time>2019-02-17T09:33:48.000Z</time>
      </trkpt>
      <trkpt lat="45.79563" lon="6.40621">
        <ele>1752</ele>
        <time>2019-02-17T09:33:51.000Z</time>
      </trkpt>
      <trkpt lat="45.79561" lon="6.40622">
        <ele>1752.1999511719</ele>
        <time>2019-02-17T09:33:52.000Z</time>
      </trkpt>
      <trkpt lat="45.79556" lon="6.40623">
        <ele>1753</ele>
        <time>2019-02-17T09:33:57.000Z</time>
      </trkpt>
      <trkpt lat="45.79554" lon="6.40624">
        <ele>1753.4000244141</ele>
        <time>2019-02-17T09:33:59.000Z</time>
      </trkpt>
      <trkpt lat="45.79549" lon="6.40623">
        <ele>1754.1999511719</ele>
        <time>2019-02-17T09:34:03.000Z</time>
      </trkpt>
      <trkpt lat="45.79548" lon="6.40623">
        <ele>1754.4000244141</ele>
        <time>2019-02-17T09:34:04.000Z</time>
      </trkpt>
      <trkpt lat="45.79545" lon="6.40622">
        <ele>1755.4000244141</ele>
        <time>2019-02-17T09:34:08.000Z</time>
      </trkpt>
      <trkpt lat="45.79544" lon="6.40622">
        <ele>1755.5999755859</ele>
        <time>2019-02-17T09:34:09.000Z</time>
      </trkpt>
      <trkpt lat="45.7954" lon="6.40622">
        <ele>1756.5999755859</ele>
        <time>2019-02-17T09:34:14.000Z</time>
      </trkpt>
      <trkpt lat="45.79539" lon="6.40622">
        <ele>1756.8000488281</ele>
        <time>2019-02-17T09:34:15.000Z</time>
      </trkpt>
      <trkpt lat="45.79535" lon="6.40623">
        <ele>1757.4000244141</ele>
        <time>2019-02-17T09:34:19.000Z</time>
      </trkpt>
      <trkpt lat="45.79533" lon="6.40623">
        <ele>1757.8000488281</ele>
        <time>2019-02-17T09:34:22.000Z</time>
      </trkpt>
      <trkpt lat="45.7953" lon="6.40624">
        <ele>1758.4000244141</ele>
        <time>2019-02-17T09:34:25.000Z</time>
      </trkpt>
      <trkpt lat="45.79528" lon="6.40624">
        <ele>1759.1999511719</ele>
        <time>2019-02-17T09:34:28.000Z</time>
      </trkpt>
      <trkpt lat="45.79524" lon="6.40625">
        <ele>1759.5999755859</ele>
        <time>2019-02-17T09:34:31.000Z</time>
      </trkpt>
      <trkpt lat="45.79522" lon="6.40625">
        <ele>1760.1999511719</ele>
        <time>2019-02-17T09:34:34.000Z</time>
      </trkpt>
      <trkpt lat="45.79519" lon="6.40625">
        <ele>1760.8000488281</ele>
        <time>2019-02-17T09:34:37.000Z</time>
      </trkpt>
      <trkpt lat="45.79517" lon="6.40627">
        <ele>1761.4000244141</ele>
        <time>2019-02-17T09:34:42.000Z</time>
      </trkpt>
      <trkpt lat="45.79518" lon="6.40628">
        <ele>1761.5999755859</ele>
        <time>2019-02-17T09:34:44.000Z</time>
      </trkpt>
      <trkpt lat="45.79519" lon="6.40632">
        <ele>1762.4000244141</ele>
        <time>2019-02-17T09:34:48.000Z</time>
      </trkpt>
      <trkpt lat="45.79519" lon="6.40636">
        <ele>1762.8000488281</ele>
        <time>2019-02-17T09:34:51.000Z</time>
      </trkpt>
      <trkpt lat="45.79519" lon="6.40639">
        <ele>1763.5999755859</ele>
        <time>2019-02-17T09:34:54.000Z</time>
      </trkpt>
      <trkpt lat="45.7952" lon="6.40642">
        <ele>1764.1999511719</ele>
        <time>2019-02-17T09:34:58.000Z</time>
      </trkpt>
      <trkpt lat="45.7952" lon="6.40647">
        <ele>1764.5999755859</ele>
        <time>2019-02-17T09:35:02.000Z</time>
      </trkpt>
      <trkpt lat="45.79519" lon="6.4065">
        <ele>1765.1999511719</ele>
        <time>2019-02-17T09:35:05.000Z</time>
      </trkpt>
      <trkpt lat="45.7952" lon="6.40651">
        <ele>1765.5999755859</ele>
        <time>2019-02-17T09:35:07.000Z</time>
      </trkpt>
      <trkpt lat="45.79522" lon="6.40655">
        <ele>1766.1999511719</ele>
        <time>2019-02-17T09:35:11.000Z</time>
      </trkpt>
      <trkpt lat="45.79522" lon="6.40657">
        <ele>1766.8000488281</ele>
        <time>2019-02-17T09:35:15.000Z</time>
      </trkpt>
      <trkpt lat="45.79522" lon="6.40657">
        <ele>1767.4000244141</ele>
        <time>2019-02-17T09:35:17.000Z</time>
      </trkpt>
      <trkpt lat="45.79522" lon="6.40657">
        <ele>1767.8000488281</ele>
        <time>2019-02-17T09:35:19.000Z</time>
      </trkpt>
      <trkpt lat="45.79522" lon="6.40657">
        <ele>1768.8000488281</ele>
        <time>2019-02-17T09:35:24.000Z</time>
      </trkpt>
      <trkpt lat="45.79521" lon="6.40658">
        <ele>1769.8000488281</ele>
        <time>2019-02-17T09:35:30.000Z</time>
      </trkpt>
      <trkpt lat="45.79521" lon="6.4066">
        <ele>1769.8000488281</ele>
        <time>2019-02-17T09:35:31.000Z</time>
      </trkpt>
      <trkpt lat="45.79517" lon="6.40663">
        <ele>1771</ele>
        <time>2019-02-17T09:35:37.000Z</time>
      </trkpt>
      <trkpt lat="45.79514" lon="6.40665">
        <ele>1772.4000244141</ele>
        <time>2019-02-17T09:35:40.000Z</time>
      </trkpt>
      <trkpt lat="45.79514" lon="6.40665">
        <ele>1773</ele>
        <time>2019-02-17T09:35:45.000Z</time>
      </trkpt>
      <trkpt lat="45.79514" lon="6.40665">
        <ele>1773</ele>
        <time>2019-02-17T09:35:57.000Z</time>
      </trkpt>
      <trkpt lat="45.79542" lon="6.40646">
        <ele>1772.8000488281</ele>
        <time>2019-02-17T09:36:11.000Z</time>
      </trkpt>
      <trkpt lat="45.79536" lon="6.40643">
        <ele>1773</ele>
        <time>2019-02-17T09:36:22.000Z</time>
      </trkpt>
      <trkpt lat="45.79532" lon="6.40647">
        <ele>1773.8000488281</ele>
        <time>2019-02-17T09:36:28.000Z</time>
      </trkpt>
      <trkpt lat="45.79529" lon="6.40649">
        <ele>1774.4000244141</ele>
        <time>2019-02-17T09:36:34.000Z</time>
      </trkpt>
      <trkpt lat="45.79527" lon="6.40652">
        <ele>1775</ele>
        <time>2019-02-17T09:36:37.000Z</time>
      </trkpt>
      <trkpt lat="45.79525" lon="6.40652">
        <ele>1775.8000488281</ele>
        <time>2019-02-17T09:36:40.000Z</time>
      </trkpt>
      <trkpt lat="45.79524" lon="6.40653">
        <ele>1776.4000244141</ele>
        <time>2019-02-17T09:36:42.000Z</time>
      </trkpt>
      <trkpt lat="45.79521" lon="6.40654">
        <ele>1777</ele>
        <time>2019-02-17T09:36:46.000Z</time>
      </trkpt>
      <trkpt lat="45.79519" lon="6.40654">
        <ele>1777.4000244141</ele>
        <time>2019-02-17T09:36:49.000Z</time>
      </trkpt>
      <trkpt lat="45.79518" lon="6.40654">
        <ele>1777.5999755859</ele>
        <time>2019-02-17T09:36:51.000Z</time>
      </trkpt>
      <trkpt lat="45.79516" lon="6.40655">
        <ele>1778.5999755859</ele>
        <time>2019-02-17T09:36:53.000Z</time>
      </trkpt>
      <trkpt lat="45.79513" lon="6.40655">
        <ele>1779.1999511719</ele>
        <time>2019-02-17T09:36:57.000Z</time>
      </trkpt>
      <trkpt lat="45.79511" lon="6.40656">
        <ele>1779.5999755859</ele>
        <time>2019-02-17T09:37:00.000Z</time>
      </trkpt>
      <trkpt lat="45.7951" lon="6.40655">
        <ele>1780</ele>
        <time>2019-02-17T09:37:02.000Z</time>
      </trkpt>
      <trkpt lat="45.79507" lon="6.40655">
        <ele>1780.8000488281</ele>
        <time>2019-02-17T09:37:05.000Z</time>
      </trkpt>
      <trkpt lat="45.79506" lon="6.40655">
        <ele>1781</ele>
        <time>2019-02-17T09:37:07.000Z</time>
      </trkpt>
      <trkpt lat="45.79503" lon="6.40655">
        <ele>1781.8000488281</ele>
        <time>2019-02-17T09:37:13.000Z</time>
      </trkpt>
      <trkpt lat="45.795" lon="6.40655">
        <ele>1783</ele>
        <time>2019-02-17T09:37:17.000Z</time>
      </trkpt>
      <trkpt lat="45.79499" lon="6.40655">
        <ele>1783.1999511719</ele>
        <time>2019-02-17T09:37:18.000Z</time>
      </trkpt>
      <trkpt lat="45.79496" lon="6.40657">
        <ele>1784</ele>
        <time>2019-02-17T09:37:25.000Z</time>
      </trkpt>
      <trkpt lat="45.79495" lon="6.40661">
        <ele>1784.5999755859</ele>
        <time>2019-02-17T09:37:30.000Z</time>
      </trkpt>
      <trkpt lat="45.79495" lon="6.40665">
        <ele>1785.4000244141</ele>
        <time>2019-02-17T09:37:33.000Z</time>
      </trkpt>
      <trkpt lat="45.79495" lon="6.4067">
        <ele>1786.1999511719</ele>
        <time>2019-02-17T09:37:37.000Z</time>
      </trkpt>
      <trkpt lat="45.79496" lon="6.40672">
        <ele>1786.5999755859</ele>
        <time>2019-02-17T09:37:39.000Z</time>
      </trkpt>
      <trkpt lat="45.79498" lon="6.40692">
        <ele>1787.5999755859</ele>
        <time>2019-02-17T09:37:44.000Z</time>
      </trkpt>
      <trkpt lat="45.79495" lon="6.40695">
        <ele>1788.5999755859</ele>
        <time>2019-02-17T09:37:50.000Z</time>
      </trkpt>
      <trkpt lat="45.79496" lon="6.40695">
        <ele>1788.8000488281</ele>
        <time>2019-02-17T09:37:51.000Z</time>
      </trkpt>
      <trkpt lat="45.79498" lon="6.40699">
        <ele>1789.8000488281</ele>
        <time>2019-02-17T09:37:57.000Z</time>
      </trkpt>
      <trkpt lat="45.79499" lon="6.40699">
        <ele>1790</ele>
        <time>2019-02-17T09:37:58.000Z</time>
      </trkpt>
      <trkpt lat="45.79502" lon="6.40702">
        <ele>1791</ele>
        <time>2019-02-17T09:38:04.000Z</time>
      </trkpt>
      <trkpt lat="45.79501" lon="6.40707">
        <ele>1792.1999511719</ele>
        <time>2019-02-17T09:38:10.000Z</time>
      </trkpt>
      <trkpt lat="45.79502" lon="6.40711">
        <ele>1793.1999511719</ele>
        <time>2019-02-17T09:38:16.000Z</time>
      </trkpt>
      <trkpt lat="45.79502" lon="6.40711">
        <ele>1793.4000244141</ele>
        <time>2019-02-17T09:38:17.000Z</time>
      </trkpt>
      <trkpt lat="45.79503" lon="6.40713">
        <ele>1794.4000244141</ele>
        <time>2019-02-17T09:38:22.000Z</time>
      </trkpt>
      <trkpt lat="45.79501" lon="6.40713">
        <ele>1794.5999755859</ele>
        <time>2019-02-17T09:38:23.000Z</time>
      </trkpt>
      <trkpt lat="45.79501" lon="6.40712">
        <ele>1795.5999755859</ele>
        <time>2019-02-17T09:38:30.000Z</time>
      </trkpt>
      <trkpt lat="45.795" lon="6.40712">
        <ele>1795.5999755859</ele>
        <time>2019-02-17T09:38:31.000Z</time>
      </trkpt>
      <trkpt lat="45.79495" lon="6.40712">
        <ele>1796.4000244141</ele>
        <time>2019-02-17T09:38:37.000Z</time>
      </trkpt>
      <trkpt lat="45.79495" lon="6.40712">
        <ele>1796.8000488281</ele>
        <time>2019-02-17T09:38:38.000Z</time>
      </trkpt>
      <trkpt lat="45.79493" lon="6.40712">
        <ele>1798</ele>
        <time>2019-02-17T09:38:42.000Z</time>
      </trkpt>
      <trkpt lat="45.79489" lon="6.40711">
        <ele>1799</ele>
        <time>2019-02-17T09:38:48.000Z</time>
      </trkpt>
      <trkpt lat="45.79485" lon="6.4071">
        <ele>1800</ele>
        <time>2019-02-17T09:38:55.000Z</time>
      </trkpt>
      <trkpt lat="45.79482" lon="6.4071">
        <ele>1801</ele>
        <time>2019-02-17T09:39:00.000Z</time>
      </trkpt>
      <trkpt lat="45.79482" lon="6.4071">
        <ele>1801.1999511719</ele>
        <time>2019-02-17T09:39:01.000Z</time>
      </trkpt>
      <trkpt lat="45.79479" lon="6.40709">
        <ele>1802</ele>
        <time>2019-02-17T09:39:05.000Z</time>
      </trkpt>
      <trkpt lat="45.79478" lon="6.4071">
        <ele>1802.1999511719</ele>
        <time>2019-02-17T09:39:06.000Z</time>
      </trkpt>
      <trkpt lat="45.79473" lon="6.4071">
        <ele>1803.1999511719</ele>
        <time>2019-02-17T09:39:12.000Z</time>
      </trkpt>
      <trkpt lat="45.79473" lon="6.4071">
        <ele>1803.1999511719</ele>
        <time>2019-02-17T09:39:13.000Z</time>
      </trkpt>
      <trkpt lat="45.79469" lon="6.40709">
        <ele>1804.1999511719</ele>
        <time>2019-02-17T09:39:18.000Z</time>
      </trkpt>
      <trkpt lat="45.79467" lon="6.40709">
        <ele>1804.4000244141</ele>
        <time>2019-02-17T09:39:19.000Z</time>
      </trkpt>
      <trkpt lat="45.79465" lon="6.40708">
        <ele>1805.1999511719</ele>
        <time>2019-02-17T09:39:23.000Z</time>
      </trkpt>
      <trkpt lat="45.79464" lon="6.40708">
        <ele>1805.4000244141</ele>
        <time>2019-02-17T09:39:24.000Z</time>
      </trkpt>
      <trkpt lat="45.79463" lon="6.40708">
        <ele>1805.5999755859</ele>
        <time>2019-02-17T09:39:26.000Z</time>
      </trkpt>
      <trkpt lat="45.79461" lon="6.40707">
        <ele>1805.8000488281</ele>
        <time>2019-02-17T09:39:28.000Z</time>
      </trkpt>
      <trkpt lat="45.7946" lon="6.40706">
        <ele>1806.5999755859</ele>
        <time>2019-02-17T09:39:31.000Z</time>
      </trkpt>
      <trkpt lat="45.7946" lon="6.40706">
        <ele>1806.8000488281</ele>
        <time>2019-02-17T09:39:32.000Z</time>
      </trkpt>
      <trkpt lat="45.79457" lon="6.40705">
        <ele>1807.5999755859</ele>
        <time>2019-02-17T09:39:37.000Z</time>
      </trkpt>
      <trkpt lat="45.79456" lon="6.40705">
        <ele>1807.8000488281</ele>
        <time>2019-02-17T09:39:38.000Z</time>
      </trkpt>
      <trkpt lat="45.79454" lon="6.40703">
        <ele>1808.8000488281</ele>
        <time>2019-02-17T09:39:41.000Z</time>
      </trkpt>
      <trkpt lat="45.79454" lon="6.40703">
        <ele>1809</ele>
        <time>2019-02-17T09:39:42.000Z</time>
      </trkpt>
      <trkpt lat="45.79451" lon="6.40703">
        <ele>1809.5999755859</ele>
        <time>2019-02-17T09:39:47.000Z</time>
      </trkpt>
      <trkpt lat="45.79451" lon="6.40702">
        <ele>1809.8000488281</ele>
        <time>2019-02-17T09:39:48.000Z</time>
      </trkpt>
      <trkpt lat="45.79448" lon="6.407">
        <ele>1810.4000244141</ele>
        <time>2019-02-17T09:39:52.000Z</time>
      </trkpt>
      <trkpt lat="45.79446" lon="6.407">
        <ele>1810.8000488281</ele>
        <time>2019-02-17T09:39:54.000Z</time>
      </trkpt>
      <trkpt lat="45.79443" lon="6.40699">
        <ele>1811.5999755859</ele>
        <time>2019-02-17T09:39:58.000Z</time>
      </trkpt>
      <trkpt lat="45.79442" lon="6.40698">
        <ele>1812</ele>
        <time>2019-02-17T09:40:01.000Z</time>
      </trkpt>
      <trkpt lat="45.79442" lon="6.40698">
        <ele>1812.4000244141</ele>
        <time>2019-02-17T09:40:04.000Z</time>
      </trkpt>
      <trkpt lat="45.79442" lon="6.40698">
        <ele>1813.4000244141</ele>
        <time>2019-02-17T09:40:09.000Z</time>
      </trkpt>
      <trkpt lat="45.79442" lon="6.40701">
        <ele>1814</ele>
        <time>2019-02-17T09:40:11.000Z</time>
      </trkpt>
      <trkpt lat="45.79442" lon="6.40703">
        <ele>1814.4000244141</ele>
        <time>2019-02-17T09:40:13.000Z</time>
      </trkpt>
      <trkpt lat="45.79442" lon="6.40704">
        <ele>1814.5999755859</ele>
        <time>2019-02-17T09:40:15.000Z</time>
      </trkpt>
      <trkpt lat="45.79441" lon="6.40711">
        <ele>1815.4000244141</ele>
        <time>2019-02-17T09:40:21.000Z</time>
      </trkpt>
      <trkpt lat="45.79438" lon="6.40737">
        <ele>1816.1999511719</ele>
        <time>2019-02-17T09:40:26.000Z</time>
      </trkpt>
      <trkpt lat="45.79442" lon="6.40737">
        <ele>1816.4000244141</ele>
        <time>2019-02-17T09:40:28.000Z</time>
      </trkpt>
      <trkpt lat="45.79444" lon="6.40739">
        <ele>1817.5999755859</ele>
        <time>2019-02-17T09:40:33.000Z</time>
      </trkpt>
      <trkpt lat="45.79448" lon="6.40743">
        <ele>1818.5999755859</ele>
        <time>2019-02-17T09:40:40.000Z</time>
      </trkpt>
      <trkpt lat="45.79448" lon="6.40746">
        <ele>1819.8000488281</ele>
        <time>2019-02-17T09:40:46.000Z</time>
      </trkpt>
      <trkpt lat="45.79448" lon="6.40747">
        <ele>1820</ele>
        <time>2019-02-17T09:40:47.000Z</time>
      </trkpt>
      <trkpt lat="45.79448" lon="6.40751">
        <ele>1820.8000488281</ele>
        <time>2019-02-17T09:40:52.000Z</time>
      </trkpt>
      <trkpt lat="45.7945" lon="6.40755">
        <ele>1822</ele>
        <time>2019-02-17T09:40:58.000Z</time>
      </trkpt>
      <trkpt lat="45.7945" lon="6.40756">
        <ele>1823</ele>
        <time>2019-02-17T09:41:04.000Z</time>
      </trkpt>
      <trkpt lat="45.7945" lon="6.40756">
        <ele>1823.1999511719</ele>
        <time>2019-02-17T09:41:05.000Z</time>
      </trkpt>
      <trkpt lat="45.79452" lon="6.4076">
        <ele>1823.5999755859</ele>
        <time>2019-02-17T09:41:11.000Z</time>
      </trkpt>
      <trkpt lat="45.79453" lon="6.40765">
        <ele>1824</ele>
        <time>2019-02-17T09:41:16.000Z</time>
      </trkpt>
      <trkpt lat="45.79453" lon="6.40767">
        <ele>1824.4000244141</ele>
        <time>2019-02-17T09:41:18.000Z</time>
      </trkpt>
      <trkpt lat="45.79454" lon="6.4077">
        <ele>1825.1999511719</ele>
        <time>2019-02-17T09:41:22.000Z</time>
      </trkpt>
      <trkpt lat="45.79454" lon="6.40772">
        <ele>1825.4000244141</ele>
        <time>2019-02-17T09:41:24.000Z</time>
      </trkpt>
      <trkpt lat="45.79456" lon="6.40776">
        <ele>1826.4000244141</ele>
        <time>2019-02-17T09:41:28.000Z</time>
      </trkpt>
      <trkpt lat="45.79457" lon="6.40777">
        <ele>1826.5999755859</ele>
        <time>2019-02-17T09:41:29.000Z</time>
      </trkpt>
      <trkpt lat="45.79458" lon="6.40781">
        <ele>1827.4000244141</ele>
        <time>2019-02-17T09:41:34.000Z</time>
      </trkpt>
      <trkpt lat="45.79458" lon="6.40783">
        <ele>1827.5999755859</ele>
        <time>2019-02-17T09:41:36.000Z</time>
      </trkpt>
      <trkpt lat="45.79458" lon="6.40787">
        <ele>1828.5999755859</ele>
        <time>2019-02-17T09:41:40.000Z</time>
      </trkpt>
      <trkpt lat="45.79457" lon="6.4079">
        <ele>1829.1999511719</ele>
        <time>2019-02-17T09:41:43.000Z</time>
      </trkpt>
      <trkpt lat="45.79457" lon="6.40792">
        <ele>1829.8000488281</ele>
        <time>2019-02-17T09:41:47.000Z</time>
      </trkpt>
      <trkpt lat="45.79457" lon="6.40795">
        <ele>1830.1999511719</ele>
        <time>2019-02-17T09:41:50.000Z</time>
      </trkpt>
      <trkpt lat="45.79457" lon="6.40799">
        <ele>1830.8000488281</ele>
        <time>2019-02-17T09:41:56.000Z</time>
      </trkpt>
      <trkpt lat="45.79457" lon="6.408">
        <ele>1831</ele>
        <time>2019-02-17T09:41:57.000Z</time>
      </trkpt>
      <trkpt lat="45.79457" lon="6.40804">
        <ele>1832</ele>
        <time>2019-02-17T09:42:02.000Z</time>
      </trkpt>
      <trkpt lat="45.79457" lon="6.40804">
        <ele>1832</ele>
        <time>2019-02-17T09:42:03.000Z</time>
      </trkpt>
      <trkpt lat="45.79458" lon="6.40803">
        <ele>1833</ele>
        <time>2019-02-17T09:42:07.000Z</time>
      </trkpt>
      <trkpt lat="45.79458" lon="6.40803">
        <ele>1833.1999511719</ele>
        <time>2019-02-17T09:42:08.000Z</time>
      </trkpt>
      <trkpt lat="45.79457" lon="6.40803">
        <ele>1833.5999755859</ele>
        <time>2019-02-17T09:42:14.000Z</time>
      </trkpt>
      <trkpt lat="45.79456" lon="6.40803">
        <ele>1834.1999511719</ele>
        <time>2019-02-17T09:42:16.000Z</time>
      </trkpt>
      <trkpt lat="45.79456" lon="6.40803">
        <ele>1834.8000488281</ele>
        <time>2019-02-17T09:42:20.000Z</time>
      </trkpt>
      <trkpt lat="45.79455" lon="6.40803">
        <ele>1835.4000244141</ele>
        <time>2019-02-17T09:42:23.000Z</time>
      </trkpt>
      <trkpt lat="45.79452" lon="6.40802">
        <ele>1836</ele>
        <time>2019-02-17T09:42:27.000Z</time>
      </trkpt>
      <trkpt lat="45.79451" lon="6.40802">
        <ele>1836.5999755859</ele>
        <time>2019-02-17T09:42:29.000Z</time>
      </trkpt>
      <trkpt lat="45.79449" lon="6.40802">
        <ele>1837.4000244141</ele>
        <time>2019-02-17T09:42:33.000Z</time>
      </trkpt>
      <trkpt lat="45.79447" lon="6.40802">
        <ele>1837.8000488281</ele>
        <time>2019-02-17T09:42:36.000Z</time>
      </trkpt>
      <trkpt lat="45.79447" lon="6.40801">
        <ele>1838.1999511719</ele>
        <time>2019-02-17T09:42:39.000Z</time>
      </trkpt>
      <trkpt lat="45.79444" lon="6.40801">
        <ele>1838.8000488281</ele>
        <time>2019-02-17T09:42:44.000Z</time>
      </trkpt>
      <trkpt lat="45.79441" lon="6.40799">
        <ele>1839.1999511719</ele>
        <time>2019-02-17T09:42:49.000Z</time>
      </trkpt>
      <trkpt lat="45.79438" lon="6.40798">
        <ele>1840.1999511719</ele>
        <time>2019-02-17T09:42:53.000Z</time>
      </trkpt>
      <trkpt lat="45.79438" lon="6.40798">
        <ele>1840.4000244141</ele>
        <time>2019-02-17T09:42:54.000Z</time>
      </trkpt>
      <trkpt lat="45.79435" lon="6.40797">
        <ele>1841.4000244141</ele>
        <time>2019-02-17T09:42:59.000Z</time>
      </trkpt>
      <trkpt lat="45.79431" lon="6.40794">
        <ele>1842.1999511719</ele>
        <time>2019-02-17T09:43:05.000Z</time>
      </trkpt>
      <trkpt lat="45.79429" lon="6.40792">
        <ele>1842.4000244141</ele>
        <time>2019-02-17T09:43:07.000Z</time>
      </trkpt>
      <trkpt lat="45.79426" lon="6.4079">
        <ele>1842.8000488281</ele>
        <time>2019-02-17T09:43:11.000Z</time>
      </trkpt>
      <trkpt lat="45.79424" lon="6.40789">
        <ele>1843.5999755859</ele>
        <time>2019-02-17T09:43:15.000Z</time>
      </trkpt>
      <trkpt lat="45.79423" lon="6.40788">
        <ele>1843.8000488281</ele>
        <time>2019-02-17T09:43:16.000Z</time>
      </trkpt>
      <trkpt lat="45.79442" lon="6.40787">
        <ele>1844.5999755859</ele>
        <time>2019-02-17T09:43:20.000Z</time>
      </trkpt>
      <trkpt lat="45.79455" lon="6.40781">
        <ele>1845</ele>
        <time>2019-02-17T09:43:22.000Z</time>
      </trkpt>
      <trkpt lat="45.79466" lon="6.40773">
        <ele>1845.8000488281</ele>
        <time>2019-02-17T09:43:26.000Z</time>
      </trkpt>
      <trkpt lat="45.79474" lon="6.40767">
        <ele>1846.4000244141</ele>
        <time>2019-02-17T09:43:32.000Z</time>
      </trkpt>
      <trkpt lat="45.79473" lon="6.40767">
        <ele>1846.8000488281</ele>
        <time>2019-02-17T09:43:34.000Z</time>
      </trkpt>
      <trkpt lat="45.79473" lon="6.40767">
        <ele>1847.1999511719</ele>
        <time>2019-02-17T09:43:37.000Z</time>
      </trkpt>
      <trkpt lat="45.79477" lon="6.40772">
        <ele>1847.1999511719</ele>
        <time>2019-02-17T09:43:45.000Z</time>
      </trkpt>
      <trkpt lat="45.7948" lon="6.40777">
        <ele>1847.8000488281</ele>
        <time>2019-02-17T09:43:51.000Z</time>
      </trkpt>
      <trkpt lat="45.79481" lon="6.40779">
        <ele>1848.1999511719</ele>
        <time>2019-02-17T09:43:53.000Z</time>
      </trkpt>
      <trkpt lat="45.79483" lon="6.40781">
        <ele>1849</ele>
        <time>2019-02-17T09:43:57.000Z</time>
      </trkpt>
      <trkpt lat="45.79483" lon="6.40783">
        <ele>1849.4000244141</ele>
        <time>2019-02-17T09:44:00.000Z</time>
      </trkpt>
      <trkpt lat="45.79484" lon="6.40786">
        <ele>1850</ele>
        <time>2019-02-17T09:44:03.000Z</time>
      </trkpt>
      <trkpt lat="45.79484" lon="6.4079">
        <ele>1851</ele>
        <time>2019-02-17T09:44:07.000Z</time>
      </trkpt>
      <trkpt lat="45.79484" lon="6.4079">
        <ele>1851</ele>
        <time>2019-02-17T09:44:08.000Z</time>
      </trkpt>
      <trkpt lat="45.79485" lon="6.40795">
        <ele>1851.4000244141</ele>
        <time>2019-02-17T09:44:12.000Z</time>
      </trkpt>
      <trkpt lat="45.79486" lon="6.40801">
        <ele>1852.1999511719</ele>
        <time>2019-02-17T09:44:18.000Z</time>
      </trkpt>
      <trkpt lat="45.79488" lon="6.40807">
        <ele>1853</ele>
        <time>2019-02-17T09:44:23.000Z</time>
      </trkpt>
      <trkpt lat="45.7949" lon="6.40813">
        <ele>1853.4000244141</ele>
        <time>2019-02-17T09:44:27.000Z</time>
      </trkpt>
      <trkpt lat="45.79491" lon="6.40815">
        <ele>1854.1999511719</ele>
        <time>2019-02-17T09:44:30.000Z</time>
      </trkpt>
      <trkpt lat="45.79491" lon="6.40816">
        <ele>1854.4000244141</ele>
        <time>2019-02-17T09:44:31.000Z</time>
      </trkpt>
      <trkpt lat="45.79492" lon="6.4082">
        <ele>1855</ele>
        <time>2019-02-17T09:44:35.000Z</time>
      </trkpt>
      <trkpt lat="45.79491" lon="6.40822">
        <ele>1855.5999755859</ele>
        <time>2019-02-17T09:44:40.000Z</time>
      </trkpt>
      <trkpt lat="45.79499" lon="6.40827">
        <ele>1856</ele>
        <time>2019-02-17T09:44:49.000Z</time>
      </trkpt>
      <trkpt lat="45.79503" lon="6.40832">
        <ele>1856.5999755859</ele>
        <time>2019-02-17T09:44:56.000Z</time>
      </trkpt>
      <trkpt lat="45.79506" lon="6.40837">
        <ele>1857.5999755859</ele>
        <time>2019-02-17T09:45:02.000Z</time>
      </trkpt>
      <trkpt lat="45.79507" lon="6.40837">
        <ele>1857.5999755859</ele>
        <time>2019-02-17T09:45:03.000Z</time>
      </trkpt>
      <trkpt lat="45.79507" lon="6.4084">
        <ele>1858.1999511719</ele>
        <time>2019-02-17T09:45:07.000Z</time>
      </trkpt>
      <trkpt lat="45.79508" lon="6.40842">
        <ele>1858.8000488281</ele>
        <time>2019-02-17T09:45:09.000Z</time>
      </trkpt>
      <trkpt lat="45.7951" lon="6.40844">
        <ele>1859.1999511719</ele>
        <time>2019-02-17T09:45:13.000Z</time>
      </trkpt>
      <trkpt lat="45.79513" lon="6.40848">
        <ele>1859.8000488281</ele>
        <time>2019-02-17T09:45:19.000Z</time>
      </trkpt>
      <trkpt lat="45.79514" lon="6.40849">
        <ele>1860</ele>
        <time>2019-02-17T09:45:20.000Z</time>
      </trkpt>
      <trkpt lat="45.79515" lon="6.40852">
        <ele>1861</ele>
        <time>2019-02-17T09:45:25.000Z</time>
      </trkpt>
      <trkpt lat="45.79517" lon="6.40855">
        <ele>1861.1999511719</ele>
        <time>2019-02-17T09:45:28.000Z</time>
      </trkpt>
      <trkpt lat="45.79518" lon="6.40855">
        <ele>1861.8000488281</ele>
        <time>2019-02-17T09:45:35.000Z</time>
      </trkpt>
      <trkpt lat="45.79518" lon="6.40855">
        <ele>1862</ele>
        <time>2019-02-17T09:45:36.000Z</time>
      </trkpt>
      <trkpt lat="45.79517" lon="6.40854">
        <ele>1862.8000488281</ele>
        <time>2019-02-17T09:45:40.000Z</time>
      </trkpt>
      <trkpt lat="45.79516" lon="6.40855">
        <ele>1863</ele>
        <time>2019-02-17T09:45:41.000Z</time>
      </trkpt>
      <trkpt lat="45.79515" lon="6.40856">
        <ele>1863.5999755859</ele>
        <time>2019-02-17T09:45:45.000Z</time>
      </trkpt>
      <trkpt lat="45.79514" lon="6.40856">
        <ele>1864.1999511719</ele>
        <time>2019-02-17T09:45:47.000Z</time>
      </trkpt>
      <trkpt lat="45.79513" lon="6.40857">
        <ele>1864.5999755859</ele>
        <time>2019-02-17T09:45:50.000Z</time>
      </trkpt>
      <trkpt lat="45.79512" lon="6.40858">
        <ele>1864.5999755859</ele>
        <time>2019-02-17T09:45:51.000Z</time>
      </trkpt>
      <trkpt lat="45.7951" lon="6.40857">
        <ele>1865.1999511719</ele>
        <time>2019-02-17T09:45:54.000Z</time>
      </trkpt>
      <trkpt lat="45.79505" lon="6.40855">
        <ele>1866.1999511719</ele>
        <time>2019-02-17T09:45:59.000Z</time>
      </trkpt>
      <trkpt lat="45.79505" lon="6.40854">
        <ele>1867.5999755859</ele>
        <time>2019-02-17T09:46:05.000Z</time>
      </trkpt>
      <trkpt lat="45.79504" lon="6.40855">
        <ele>1867.8000488281</ele>
        <time>2019-02-17T09:46:06.000Z</time>
      </trkpt>
      <trkpt lat="45.79502" lon="6.40855">
        <ele>1868.5999755859</ele>
        <time>2019-02-17T09:46:10.000Z</time>
      </trkpt>
      <trkpt lat="45.79501" lon="6.40854">
        <ele>1869.1999511719</ele>
        <time>2019-02-17T09:46:14.000Z</time>
      </trkpt>
      <trkpt lat="45.79502" lon="6.40852">
        <ele>1869.8000488281</ele>
        <time>2019-02-17T09:46:16.000Z</time>
      </trkpt>
      <trkpt lat="45.79501" lon="6.40852">
        <ele>1870.5999755859</ele>
        <time>2019-02-17T09:46:21.000Z</time>
      </trkpt>
      <trkpt lat="45.795" lon="6.40853">
        <ele>1871</ele>
        <time>2019-02-17T09:46:24.000Z</time>
      </trkpt>
      <trkpt lat="45.79497" lon="6.40853">
        <ele>1871.5999755859</ele>
        <time>2019-02-17T09:46:27.000Z</time>
      </trkpt>
      <trkpt lat="45.79495" lon="6.40853">
        <ele>1872</ele>
        <time>2019-02-17T09:46:30.000Z</time>
      </trkpt>
      <trkpt lat="45.79493" lon="6.40853">
        <ele>1872.5999755859</ele>
        <time>2019-02-17T09:46:33.000Z</time>
      </trkpt>
      <trkpt lat="45.79493" lon="6.40852">
        <ele>1873.1999511719</ele>
        <time>2019-02-17T09:46:36.000Z</time>
      </trkpt>
      <trkpt lat="45.79493" lon="6.40852">
        <ele>1873.4000244141</ele>
        <time>2019-02-17T09:46:37.000Z</time>
      </trkpt>
      <trkpt lat="45.79491" lon="6.40851">
        <ele>1874.4000244141</ele>
        <time>2019-02-17T09:46:42.000Z</time>
      </trkpt>
      <trkpt lat="45.79491" lon="6.4085">
        <ele>1874.5999755859</ele>
        <time>2019-02-17T09:46:43.000Z</time>
      </trkpt>
      <trkpt lat="45.7949" lon="6.4085">
        <ele>1875.4000244141</ele>
        <time>2019-02-17T09:46:48.000Z</time>
      </trkpt>
      <trkpt lat="45.7949" lon="6.4085">
        <ele>1875.8000488281</ele>
        <time>2019-02-17T09:47:04.000Z</time>
      </trkpt>
      <trkpt lat="45.7949" lon="6.4085">
        <ele>1875.8000488281</ele>
        <time>2019-02-17T09:47:15.000Z</time>
      </trkpt>
      <trkpt lat="45.79488" lon="6.40849">
        <ele>1875.8000488281</ele>
        <time>2019-02-17T09:47:28.000Z</time>
      </trkpt>
      <trkpt lat="45.79485" lon="6.40848">
        <ele>1876.1999511719</ele>
        <time>2019-02-17T09:47:33.000Z</time>
      </trkpt>
      <trkpt lat="45.79483" lon="6.40847">
        <ele>1876.4000244141</ele>
        <time>2019-02-17T09:47:36.000Z</time>
      </trkpt>
      <trkpt lat="45.79483" lon="6.40846">
        <ele>1876.4000244141</ele>
        <time>2019-02-17T09:47:37.000Z</time>
      </trkpt>
      <trkpt lat="45.79482" lon="6.40845">
        <ele>1876.5999755859</ele>
        <time>2019-02-17T09:47:39.000Z</time>
      </trkpt>
      <trkpt lat="45.79479" lon="6.40842">
        <ele>1877.4000244141</ele>
        <time>2019-02-17T09:47:44.000Z</time>
      </trkpt>
      <trkpt lat="45.79479" lon="6.40841">
        <ele>1877.5999755859</ele>
        <time>2019-02-17T09:47:45.000Z</time>
      </trkpt>
      <trkpt lat="45.79476" lon="6.40838">
        <ele>1878.1999511719</ele>
        <time>2019-02-17T09:47:49.000Z</time>
      </trkpt>
      <trkpt lat="45.79474" lon="6.40836">
        <ele>1878.5999755859</ele>
        <time>2019-02-17T09:47:53.000Z</time>
      </trkpt>
      <trkpt lat="45.79473" lon="6.40835">
        <ele>1878.8000488281</ele>
        <time>2019-02-17T09:47:54.000Z</time>
      </trkpt>
      <trkpt lat="45.79472" lon="6.40833">
        <ele>1879.5999755859</ele>
        <time>2019-02-17T09:47:59.000Z</time>
      </trkpt>
      <trkpt lat="45.79471" lon="6.40832">
        <ele>1879.5999755859</ele>
        <time>2019-02-17T09:48:01.000Z</time>
      </trkpt>
      <trkpt lat="45.7947" lon="6.4083">
        <ele>1879.8000488281</ele>
        <time>2019-02-17T09:48:03.000Z</time>
      </trkpt>
      <trkpt lat="45.79469" lon="6.40828">
        <ele>1880.4000244141</ele>
        <time>2019-02-17T09:48:07.000Z</time>
      </trkpt>
      <trkpt lat="45.79469" lon="6.40828">
        <ele>1880.8000488281</ele>
        <time>2019-02-17T09:48:09.000Z</time>
      </trkpt>
      <trkpt lat="45.79469" lon="6.40828">
        <ele>1880.8000488281</ele>
        <time>2019-02-17T09:48:16.000Z</time>
      </trkpt>
      <trkpt lat="45.79469" lon="6.40836">
        <ele>1881</ele>
        <time>2019-02-17T09:48:22.000Z</time>
      </trkpt>
      <trkpt lat="45.7947" lon="6.40842">
        <ele>1881.8000488281</ele>
        <time>2019-02-17T09:48:27.000Z</time>
      </trkpt>
      <trkpt lat="45.7947" lon="6.40844">
        <ele>1882</ele>
        <time>2019-02-17T09:48:29.000Z</time>
      </trkpt>
      <trkpt lat="45.79471" lon="6.40849">
        <ele>1882.8000488281</ele>
        <time>2019-02-17T09:48:33.000Z</time>
      </trkpt>
      <trkpt lat="45.79471" lon="6.40852">
        <ele>1883.4000244141</ele>
        <time>2019-02-17T09:48:35.000Z</time>
      </trkpt>
      <trkpt lat="45.79471" lon="6.40856">
        <ele>1884</ele>
        <time>2019-02-17T09:48:39.000Z</time>
      </trkpt>
      <trkpt lat="45.79472" lon="6.40858">
        <ele>1884.8000488281</ele>
        <time>2019-02-17T09:48:41.000Z</time>
      </trkpt>
      <trkpt lat="45.79471" lon="6.40861">
        <ele>1885.1999511719</ele>
        <time>2019-02-17T09:48:43.000Z</time>
      </trkpt>
      <trkpt lat="45.79471" lon="6.40865">
        <ele>1885.5999755859</ele>
        <time>2019-02-17T09:48:47.000Z</time>
      </trkpt>
      <trkpt lat="45.79471" lon="6.40868">
        <ele>1886.4000244141</ele>
        <time>2019-02-17T09:48:51.000Z</time>
      </trkpt>
      <trkpt lat="45.79471" lon="6.40869">
        <ele>1886.5999755859</ele>
        <time>2019-02-17T09:48:52.000Z</time>
      </trkpt>
      <trkpt lat="45.79472" lon="6.4087">
        <ele>1887.5999755859</ele>
        <time>2019-02-17T09:48:54.000Z</time>
      </trkpt>
      <trkpt lat="45.79473" lon="6.40871">
        <ele>1888</ele>
        <time>2019-02-17T09:48:57.000Z</time>
      </trkpt>
      <trkpt lat="45.79475" lon="6.40876">
        <ele>1888.8000488281</ele>
        <time>2019-02-17T09:49:02.000Z</time>
      </trkpt>
      <trkpt lat="45.79477" lon="6.40878">
        <ele>1889</ele>
        <time>2019-02-17T09:49:04.000Z</time>
      </trkpt>
      <trkpt lat="45.79479" lon="6.40884">
        <ele>1889.4000244141</ele>
        <time>2019-02-17T09:49:10.000Z</time>
      </trkpt>
      <trkpt lat="45.7948" lon="6.40881">
        <ele>1889.8000488281</ele>
        <time>2019-02-17T09:49:17.000Z</time>
      </trkpt>
      <trkpt lat="45.7948" lon="6.4088">
        <ele>1891.1999511719</ele>
        <time>2019-02-17T09:49:19.000Z</time>
      </trkpt>
      <trkpt lat="45.79477" lon="6.40878">
        <ele>1891.4000244141</ele>
        <time>2019-02-17T09:49:23.000Z</time>
      </trkpt>
      <trkpt lat="45.79475" lon="6.40876">
        <ele>1891.4000244141</ele>
        <time>2019-02-17T09:49:27.000Z</time>
      </trkpt>
      <trkpt lat="45.79473" lon="6.40874">
        <ele>1891.5999755859</ele>
        <time>2019-02-17T09:49:29.000Z</time>
      </trkpt>
      <trkpt lat="45.79472" lon="6.40873">
        <ele>1892.4000244141</ele>
        <time>2019-02-17T09:49:32.000Z</time>
      </trkpt>
      <trkpt lat="45.79468" lon="6.40869">
        <ele>1893.4000244141</ele>
        <time>2019-02-17T09:49:39.000Z</time>
      </trkpt>
      <trkpt lat="45.79465" lon="6.40869">
        <ele>1894.5999755859</ele>
        <time>2019-02-17T09:49:44.000Z</time>
      </trkpt>
      <trkpt lat="45.79463" lon="6.40869">
        <ele>1894.8000488281</ele>
        <time>2019-02-17T09:49:45.000Z</time>
      </trkpt>
      <trkpt lat="45.7946" lon="6.40866">
        <ele>1895.5999755859</ele>
        <time>2019-02-17T09:49:50.000Z</time>
      </trkpt>
      <trkpt lat="45.7946" lon="6.40866">
        <ele>1895.8000488281</ele>
        <time>2019-02-17T09:49:51.000Z</time>
      </trkpt>
      <trkpt lat="45.79455" lon="6.40863">
        <ele>1896.5999755859</ele>
        <time>2019-02-17T09:49:57.000Z</time>
      </trkpt>
      <trkpt lat="45.79454" lon="6.40862">
        <ele>1896.5999755859</ele>
        <time>2019-02-17T09:49:59.000Z</time>
      </trkpt>
      <trkpt lat="45.79452" lon="6.40861">
        <ele>1897</ele>
        <time>2019-02-17T09:50:02.000Z</time>
      </trkpt>
      <trkpt lat="45.79451" lon="6.4086">
        <ele>1897.8000488281</ele>
        <time>2019-02-17T09:50:06.000Z</time>
      </trkpt>
      <trkpt lat="45.7945" lon="6.40857">
        <ele>1899</ele>
        <time>2019-02-17T09:50:11.000Z</time>
      </trkpt>
      <trkpt lat="45.79449" lon="6.40856">
        <ele>1899.5999755859</ele>
        <time>2019-02-17T09:50:16.000Z</time>
      </trkpt>
      <trkpt lat="45.79446" lon="6.40852">
        <ele>1900</ele>
        <time>2019-02-17T09:50:21.000Z</time>
      </trkpt>
      <trkpt lat="45.79446" lon="6.40852">
        <ele>1900</ele>
        <time>2019-02-17T09:50:22.000Z</time>
      </trkpt>
      <trkpt lat="45.79443" lon="6.4085">
        <ele>1901.1999511719</ele>
        <time>2019-02-17T09:50:27.000Z</time>
      </trkpt>
      <trkpt lat="45.79441" lon="6.40847">
        <ele>1901.8000488281</ele>
        <time>2019-02-17T09:50:32.000Z</time>
      </trkpt>
      <trkpt lat="45.79441" lon="6.40846">
        <ele>1902.1999511719</ele>
        <time>2019-02-17T09:50:34.000Z</time>
      </trkpt>
      <trkpt lat="45.7944" lon="6.40845">
        <ele>1902.4000244141</ele>
        <time>2019-02-17T09:50:36.000Z</time>
      </trkpt>
      <trkpt lat="45.79438" lon="6.40843">
        <ele>1903.1999511719</ele>
        <time>2019-02-17T09:50:41.000Z</time>
      </trkpt>
      <trkpt lat="45.79436" lon="6.40839">
        <ele>1904</ele>
        <time>2019-02-17T09:50:46.000Z</time>
      </trkpt>
      <trkpt lat="45.79434" lon="6.40837">
        <ele>1904.4000244141</ele>
        <time>2019-02-17T09:50:48.000Z</time>
      </trkpt>
      <trkpt lat="45.79433" lon="6.40837">
        <ele>1904.8000488281</ele>
        <time>2019-02-17T09:50:51.000Z</time>
      </trkpt>
      <trkpt lat="45.7943" lon="6.40834">
        <ele>1905.5999755859</ele>
        <time>2019-02-17T09:50:55.000Z</time>
      </trkpt>
      <trkpt lat="45.7943" lon="6.40833">
        <ele>1905.5999755859</ele>
        <time>2019-02-17T09:50:56.000Z</time>
      </trkpt>
      <trkpt lat="45.79427" lon="6.40829">
        <ele>1906.8000488281</ele>
        <time>2019-02-17T09:51:01.000Z</time>
      </trkpt>
      <trkpt lat="45.79425" lon="6.40827">
        <ele>1907.4000244141</ele>
        <time>2019-02-17T09:51:06.000Z</time>
      </trkpt>
      <trkpt lat="45.79424" lon="6.40826">
        <ele>1907.8000488281</ele>
        <time>2019-02-17T09:51:08.000Z</time>
      </trkpt>
      <trkpt lat="45.79421" lon="6.40822">
        <ele>1908.5999755859</ele>
        <time>2019-02-17T09:51:12.000Z</time>
      </trkpt>
      <trkpt lat="45.79421" lon="6.40822">
        <ele>1908.8000488281</ele>
        <time>2019-02-17T09:51:13.000Z</time>
      </trkpt>
      <trkpt lat="45.7942" lon="6.40821">
        <ele>1909.1999511719</ele>
        <time>2019-02-17T09:51:16.000Z</time>
      </trkpt>
      <trkpt lat="45.79418" lon="6.4082">
        <ele>1910</ele>
        <time>2019-02-17T09:51:20.000Z</time>
      </trkpt>
      <trkpt lat="45.79416" lon="6.40818">
        <ele>1910.8000488281</ele>
        <time>2019-02-17T09:51:26.000Z</time>
      </trkpt>
      <trkpt lat="45.79416" lon="6.40818">
        <ele>1911</ele>
        <time>2019-02-17T09:51:28.000Z</time>
      </trkpt>
      <trkpt lat="45.79416" lon="6.40818">
        <ele>1911.4000244141</ele>
        <time>2019-02-17T09:51:33.000Z</time>
      </trkpt>
      <trkpt lat="45.79416" lon="6.40818">
        <ele>1911.1999511719</ele>
        <time>2019-02-17T09:51:45.000Z</time>
      </trkpt>
      <trkpt lat="45.79415" lon="6.4082">
        <ele>1912</ele>
        <time>2019-02-17T09:51:52.000Z</time>
      </trkpt>
      <trkpt lat="45.79415" lon="6.40822">
        <ele>1912</ele>
        <time>2019-02-17T09:52:00.000Z</time>
      </trkpt>
      <trkpt lat="45.79416" lon="6.40831">
        <ele>1912</ele>
        <time>2019-02-17T09:52:06.000Z</time>
      </trkpt>
      <trkpt lat="45.79417" lon="6.40838">
        <ele>1913.1999511719</ele>
        <time>2019-02-17T09:52:11.000Z</time>
      </trkpt>
      <trkpt lat="45.79417" lon="6.4084">
        <ele>1913.4000244141</ele>
        <time>2019-02-17T09:52:13.000Z</time>
      </trkpt>
      <trkpt lat="45.79418" lon="6.40847">
        <ele>1914.4000244141</ele>
        <time>2019-02-17T09:52:19.000Z</time>
      </trkpt>
      <trkpt lat="45.7942" lon="6.40856">
        <ele>1915.1999511719</ele>
        <time>2019-02-17T09:52:25.000Z</time>
      </trkpt>
      <trkpt lat="45.7942" lon="6.40858">
        <ele>1915.5999755859</ele>
        <time>2019-02-17T09:52:27.000Z</time>
      </trkpt>
      <trkpt lat="45.79422" lon="6.40861">
        <ele>1916.5999755859</ele>
        <time>2019-02-17T09:52:31.000Z</time>
      </trkpt>
      <trkpt lat="45.79423" lon="6.40868">
        <ele>1917.1999511719</ele>
        <time>2019-02-17T09:52:37.000Z</time>
      </trkpt>
      <trkpt lat="45.79422" lon="6.4087">
        <ele>1917.5999755859</ele>
        <time>2019-02-17T09:52:40.000Z</time>
      </trkpt>
      <trkpt lat="45.79422" lon="6.40873">
        <ele>1918.1999511719</ele>
        <time>2019-02-17T09:52:43.000Z</time>
      </trkpt>
      <trkpt lat="45.79421" lon="6.40877">
        <ele>1918.5999755859</ele>
        <time>2019-02-17T09:52:50.000Z</time>
      </trkpt>
      <trkpt lat="45.79419" lon="6.40877">
        <ele>1918.8000488281</ele>
        <time>2019-02-17T09:52:55.000Z</time>
      </trkpt>
      <trkpt lat="45.79419" lon="6.40877">
        <ele>1919.1999511719</ele>
        <time>2019-02-17T09:52:56.000Z</time>
      </trkpt>
      <trkpt lat="45.79419" lon="6.40877">
        <ele>1920</ele>
        <time>2019-02-17T09:52:58.000Z</time>
      </trkpt>
      <trkpt lat="45.79419" lon="6.40875">
        <ele>1920.5999755859</ele>
        <time>2019-02-17T09:53:01.000Z</time>
      </trkpt>
      <trkpt lat="45.79417" lon="6.4087">
        <ele>1920.8000488281</ele>
        <time>2019-02-17T09:53:06.000Z</time>
      </trkpt>
      <trkpt lat="45.79415" lon="6.40866">
        <ele>1921</ele>
        <time>2019-02-17T09:53:11.000Z</time>
      </trkpt>
      <trkpt lat="45.79414" lon="6.40864">
        <ele>1921</ele>
        <time>2019-02-17T09:53:13.000Z</time>
      </trkpt>
      <trkpt lat="45.79413" lon="6.40863">
        <ele>1921.5999755859</ele>
        <time>2019-02-17T09:53:16.000Z</time>
      </trkpt>
      <trkpt lat="45.79413" lon="6.40862">
        <ele>1922.1999511719</ele>
        <time>2019-02-17T09:53:18.000Z</time>
      </trkpt>
      <trkpt lat="45.79411" lon="6.4086">
        <ele>1923.1999511719</ele>
        <time>2019-02-17T09:53:21.000Z</time>
      </trkpt>
      <trkpt lat="45.79411" lon="6.40859">
        <ele>1923.4000244141</ele>
        <time>2019-02-17T09:53:22.000Z</time>
      </trkpt>
      <trkpt lat="45.79408" lon="6.40857">
        <ele>1924.4000244141</ele>
        <time>2019-02-17T09:53:26.000Z</time>
      </trkpt>
      <trkpt lat="45.79407" lon="6.40855">
        <ele>1924.8000488281</ele>
        <time>2019-02-17T09:53:28.000Z</time>
      </trkpt>
      <trkpt lat="45.79406" lon="6.40854">
        <ele>1925.4000244141</ele>
        <time>2019-02-17T09:53:32.000Z</time>
      </trkpt>
      <trkpt lat="45.79405" lon="6.40853">
        <ele>1925.5999755859</ele>
        <time>2019-02-17T09:53:33.000Z</time>
      </trkpt>
      <trkpt lat="45.79403" lon="6.40851">
        <ele>1926.4000244141</ele>
        <time>2019-02-17T09:53:38.000Z</time>
      </trkpt>
      <trkpt lat="45.79403" lon="6.40851">
        <ele>1926.5999755859</ele>
        <time>2019-02-17T09:53:39.000Z</time>
      </trkpt>
      <trkpt lat="45.79399" lon="6.40849">
        <ele>1927.8000488281</ele>
        <time>2019-02-17T09:53:45.000Z</time>
      </trkpt>
      <trkpt lat="45.79397" lon="6.40849">
        <ele>1928.4000244141</ele>
        <time>2019-02-17T09:53:50.000Z</time>
      </trkpt>
      <trkpt lat="45.79395" lon="6.40847">
        <ele>1929</ele>
        <time>2019-02-17T09:53:54.000Z</time>
      </trkpt>
      <trkpt lat="45.79395" lon="6.40846">
        <ele>1929.1999511719</ele>
        <time>2019-02-17T09:53:55.000Z</time>
      </trkpt>
      <trkpt lat="45.79392" lon="6.40842">
        <ele>1929.8000488281</ele>
        <time>2019-02-17T09:54:00.000Z</time>
      </trkpt>
      <trkpt lat="45.79391" lon="6.4084">
        <ele>1930</ele>
        <time>2019-02-17T09:54:02.000Z</time>
      </trkpt>
      <trkpt lat="45.7939" lon="6.40838">
        <ele>1930.4000244141</ele>
        <time>2019-02-17T09:54:05.000Z</time>
      </trkpt>
      <trkpt lat="45.79388" lon="6.40835">
        <ele>1931.1999511719</ele>
        <time>2019-02-17T09:54:10.000Z</time>
      </trkpt>
      <trkpt lat="45.79387" lon="6.40834">
        <ele>1931.1999511719</ele>
        <time>2019-02-17T09:54:11.000Z</time>
      </trkpt>
      <trkpt lat="45.79386" lon="6.40832">
        <ele>1931.5999755859</ele>
        <time>2019-02-17T09:54:14.000Z</time>
      </trkpt>
      <trkpt lat="45.79386" lon="6.40831">
        <ele>1931.8000488281</ele>
        <time>2019-02-17T09:54:16.000Z</time>
      </trkpt>
      <trkpt lat="45.79385" lon="6.40829">
        <ele>1932.1999511719</ele>
        <time>2019-02-17T09:54:19.000Z</time>
      </trkpt>
      <trkpt lat="45.79385" lon="6.40829">
        <ele>1932.4000244141</ele>
        <time>2019-02-17T09:54:21.000Z</time>
      </trkpt>
      <trkpt lat="45.79384" lon="6.40827">
        <ele>1933.1999511719</ele>
        <time>2019-02-17T09:54:25.000Z</time>
      </trkpt>
      <trkpt lat="45.79384" lon="6.40827">
        <ele>1933.5999755859</ele>
        <time>2019-02-17T09:54:27.000Z</time>
      </trkpt>
      <trkpt lat="45.79383" lon="6.40829">
        <ele>1933.4000244141</ele>
        <time>2019-02-17T09:54:38.000Z</time>
      </trkpt>
      <trkpt lat="45.79383" lon="6.40831">
        <ele>1934.1999511719</ele>
        <time>2019-02-17T09:54:44.000Z</time>
      </trkpt>
      <trkpt lat="45.79382" lon="6.40832">
        <ele>1934.4000244141</ele>
        <time>2019-02-17T09:54:45.000Z</time>
      </trkpt>
      <trkpt lat="45.79383" lon="6.40837">
        <ele>1934.5999755859</ele>
        <time>2019-02-17T09:54:51.000Z</time>
      </trkpt>
      <trkpt lat="45.79383" lon="6.40839">
        <ele>1935.4000244141</ele>
        <time>2019-02-17T09:54:55.000Z</time>
      </trkpt>
      <trkpt lat="45.79384" lon="6.40842">
        <ele>1935.5999755859</ele>
        <time>2019-02-17T09:54:57.000Z</time>
      </trkpt>
      <trkpt lat="45.79384" lon="6.40851">
        <ele>1935.5999755859</ele>
        <time>2019-02-17T09:55:04.000Z</time>
      </trkpt>
      <trkpt lat="45.79386" lon="6.40857">
        <ele>1936.5999755859</ele>
        <time>2019-02-17T09:55:10.000Z</time>
      </trkpt>
      <trkpt lat="45.79388" lon="6.40863">
        <ele>1937.4000244141</ele>
        <time>2019-02-17T09:55:16.000Z</time>
      </trkpt>
      <trkpt lat="45.79388" lon="6.40864">
        <ele>1937.5999755859</ele>
        <time>2019-02-17T09:55:17.000Z</time>
      </trkpt>
      <trkpt lat="45.79389" lon="6.40872">
        <ele>1938.4000244141</ele>
        <time>2019-02-17T09:55:23.000Z</time>
      </trkpt>
      <trkpt lat="45.7939" lon="6.40874">
        <ele>1938.8000488281</ele>
        <time>2019-02-17T09:55:25.000Z</time>
      </trkpt>
      <trkpt lat="45.7939" lon="6.40875">
        <ele>1939.5999755859</ele>
        <time>2019-02-17T09:55:29.000Z</time>
      </trkpt>
      <trkpt lat="45.7939" lon="6.40876">
        <ele>1939.8000488281</ele>
        <time>2019-02-17T09:55:30.000Z</time>
      </trkpt>
      <trkpt lat="45.79391" lon="6.40879">
        <ele>1940.1999511719</ele>
        <time>2019-02-17T09:55:34.000Z</time>
      </trkpt>
      <trkpt lat="45.79391" lon="6.40881">
        <ele>1940</ele>
        <time>2019-02-17T09:55:39.000Z</time>
      </trkpt>
      <trkpt lat="45.79391" lon="6.40881">
        <ele>1941.1999511719</ele>
        <time>2019-02-17T09:55:43.000Z</time>
      </trkpt>
      <trkpt lat="45.79391" lon="6.40881">
        <ele>1941.4000244141</ele>
        <time>2019-02-17T09:55:50.000Z</time>
      </trkpt>
      <trkpt lat="45.79391" lon="6.40881">
        <ele>1939.8000488281</ele>
        <time>2019-02-17T09:55:57.000Z</time>
      </trkpt>
      <trkpt lat="45.79391" lon="6.40881">
        <ele>1938.5999755859</ele>
        <time>2019-02-17T09:56:00.000Z</time>
      </trkpt>
      <trkpt lat="45.79391" lon="6.40881">
        <ele>1939.4000244141</ele>
        <time>2019-02-17T09:56:03.000Z</time>
      </trkpt>
      <trkpt lat="45.79391" lon="6.40881">
        <ele>1940.5999755859</ele>
        <time>2019-02-17T09:56:04.000Z</time>
      </trkpt>
      <trkpt lat="45.79391" lon="6.40881">
        <ele>1941.8000488281</ele>
        <time>2019-02-17T09:56:05.000Z</time>
      </trkpt>
      <trkpt lat="45.79391" lon="6.40881">
        <ele>1943.4000244141</ele>
        <time>2019-02-17T09:56:07.000Z</time>
      </trkpt>
      <trkpt lat="45.79391" lon="6.40881">
        <ele>1942.1999511719</ele>
        <time>2019-02-17T09:56:11.000Z</time>
      </trkpt>
      <trkpt lat="45.79391" lon="6.40881">
        <ele>1941.1999511719</ele>
        <time>2019-02-17T09:56:21.000Z</time>
      </trkpt>
      <trkpt lat="45.79391" lon="6.40881">
        <ele>1941</ele>
        <time>2019-02-17T09:56:22.000Z</time>
      </trkpt>
      <trkpt lat="45.79391" lon="6.40882">
        <ele>1940.5999755859</ele>
        <time>2019-02-17T09:56:31.000Z</time>
      </trkpt>
      <trkpt lat="45.79391" lon="6.40882">
        <ele>1941</ele>
        <time>2019-02-17T09:56:42.000Z</time>
      </trkpt>
      <trkpt lat="45.7939" lon="6.40883">
        <ele>1942.1999511719</ele>
        <time>2019-02-17T09:56:53.000Z</time>
      </trkpt>
      <trkpt lat="45.79389" lon="6.40885">
        <ele>1941.8000488281</ele>
        <time>2019-02-17T09:57:01.000Z</time>
      </trkpt>
      <trkpt lat="45.79389" lon="6.40885">
        <ele>1942.4000244141</ele>
        <time>2019-02-17T09:57:13.000Z</time>
      </trkpt>
      <trkpt lat="45.79389" lon="6.40885">
        <ele>1942.5999755859</ele>
        <time>2019-02-17T09:57:22.000Z</time>
      </trkpt>
      <trkpt lat="45.79389" lon="6.40885">
        <ele>1940.5999755859</ele>
        <time>2019-02-17T09:57:29.000Z</time>
      </trkpt>
      <trkpt lat="45.79389" lon="6.40885">
        <ele>1940</ele>
        <time>2019-02-17T09:57:33.000Z</time>
      </trkpt>
      <trkpt lat="45.79389" lon="6.40884">
        <ele>1941.5999755859</ele>
        <time>2019-02-17T09:57:39.000Z</time>
      </trkpt>
      <trkpt lat="45.79389" lon="6.40884">
        <ele>1943</ele>
        <time>2019-02-17T09:57:47.000Z</time>
      </trkpt>
      <trkpt lat="45.79389" lon="6.40882">
        <ele>1942.1999511719</ele>
        <time>2019-02-17T09:57:56.000Z</time>
      </trkpt>
      <trkpt lat="45.79391" lon="6.4088">
        <ele>1942.5999755859</ele>
        <time>2019-02-17T09:58:00.000Z</time>
      </trkpt>
      <trkpt lat="45.79387" lon="6.40874">
        <ele>1943</ele>
        <time>2019-02-17T09:58:05.000Z</time>
      </trkpt>
      <trkpt lat="45.79385" lon="6.40871">
        <ele>1944.1999511719</ele>
        <time>2019-02-17T09:58:09.000Z</time>
      </trkpt>
      <trkpt lat="45.79382" lon="6.40866">
        <ele>1945.1999511719</ele>
        <time>2019-02-17T09:58:14.000Z</time>
      </trkpt>
      <trkpt lat="45.79382" lon="6.40866">
        <ele>1945.4000244141</ele>
        <time>2019-02-17T09:58:15.000Z</time>
      </trkpt>
      <trkpt lat="45.7938" lon="6.40862">
        <ele>1945.8000488281</ele>
        <time>2019-02-17T09:58:18.000Z</time>
      </trkpt>
      <trkpt lat="45.79379" lon="6.4086">
        <ele>1946.4000244141</ele>
        <time>2019-02-17T09:58:20.000Z</time>
      </trkpt>
      <trkpt lat="45.79378" lon="6.40857">
        <ele>1947</ele>
        <time>2019-02-17T09:58:23.000Z</time>
      </trkpt>
      <trkpt lat="45.79376" lon="6.40855">
        <ele>1947.5999755859</ele>
        <time>2019-02-17T09:58:25.000Z</time>
      </trkpt>
      <trkpt lat="45.79374" lon="6.40852">
        <ele>1948</ele>
        <time>2019-02-17T09:58:28.000Z</time>
      </trkpt>
      <trkpt lat="45.79371" lon="6.40851">
        <ele>1948.8000488281</ele>
        <time>2019-02-17T09:58:31.000Z</time>
      </trkpt>
      <trkpt lat="45.79368" lon="6.40849">
        <ele>1949.4000244141</ele>
        <time>2019-02-17T09:58:34.000Z</time>
      </trkpt>
      <trkpt lat="45.79366" lon="6.40846">
        <ele>1950</ele>
        <time>2019-02-17T09:58:38.000Z</time>
      </trkpt>
      <trkpt lat="45.79366" lon="6.40846">
        <ele>1950</ele>
        <time>2019-02-17T09:58:39.000Z</time>
      </trkpt>
      <trkpt lat="45.79366" lon="6.40849">
        <ele>1951</ele>
        <time>2019-02-17T09:58:44.000Z</time>
      </trkpt>
      <trkpt lat="45.79367" lon="6.40857">
        <ele>1951.5999755859</ele>
        <time>2019-02-17T09:58:50.000Z</time>
      </trkpt>
      <trkpt lat="45.79367" lon="6.40862">
        <ele>1952.4000244141</ele>
        <time>2019-02-17T09:58:54.000Z</time>
      </trkpt>
      <trkpt lat="45.79367" lon="6.40863">
        <ele>1953</ele>
        <time>2019-02-17T09:58:55.000Z</time>
      </trkpt>
      <trkpt lat="45.79367" lon="6.40864">
        <ele>1953.4000244141</ele>
        <time>2019-02-17T09:58:57.000Z</time>
      </trkpt>
      <trkpt lat="45.79367" lon="6.40868">
        <ele>1954</ele>
        <time>2019-02-17T09:59:01.000Z</time>
      </trkpt>
      <trkpt lat="45.79368" lon="6.40871">
        <ele>1954.5999755859</ele>
        <time>2019-02-17T09:59:03.000Z</time>
      </trkpt>
      <trkpt lat="45.79367" lon="6.40873">
        <ele>1955.1999511719</ele>
        <time>2019-02-17T09:59:06.000Z</time>
      </trkpt>
      <trkpt lat="45.79367" lon="6.40875">
        <ele>1955.8000488281</ele>
        <time>2019-02-17T09:59:08.000Z</time>
      </trkpt>
      <trkpt lat="45.79369" lon="6.40879">
        <ele>1956.1999511719</ele>
        <time>2019-02-17T09:59:12.000Z</time>
      </trkpt>
      <trkpt lat="45.79368" lon="6.4088">
        <ele>1956.5999755859</ele>
        <time>2019-02-17T09:59:16.000Z</time>
      </trkpt>
      <trkpt lat="45.79368" lon="6.40879">
        <ele>1956.8000488281</ele>
        <time>2019-02-17T09:59:17.000Z</time>
      </trkpt>
      <trkpt lat="45.79368" lon="6.40879">
        <ele>1958.1999511719</ele>
        <time>2019-02-17T09:59:19.000Z</time>
      </trkpt>
      <trkpt lat="45.79367" lon="6.40879">
        <ele>1958.5999755859</ele>
        <time>2019-02-17T09:59:22.000Z</time>
      </trkpt>
      <trkpt lat="45.79366" lon="6.40877">
        <ele>1958.5999755859</ele>
        <time>2019-02-17T09:59:23.000Z</time>
      </trkpt>
      <trkpt lat="45.79363" lon="6.40873">
        <ele>1958.8000488281</ele>
        <time>2019-02-17T09:59:27.000Z</time>
      </trkpt>
      <trkpt lat="45.79362" lon="6.4087">
        <ele>1959.1999511719</ele>
        <time>2019-02-17T09:59:34.000Z</time>
      </trkpt>
      <trkpt lat="45.79361" lon="6.4087">
        <ele>1959.4000244141</ele>
        <time>2019-02-17T09:59:36.000Z</time>
      </trkpt>
      <trkpt lat="45.7936" lon="6.40869">
        <ele>1959.5999755859</ele>
        <time>2019-02-17T09:59:38.000Z</time>
      </trkpt>
      <trkpt lat="45.79358" lon="6.40866">
        <ele>1960</ele>
        <time>2019-02-17T09:59:40.000Z</time>
      </trkpt>
      <trkpt lat="45.79357" lon="6.40864">
        <ele>1960.4000244141</ele>
        <time>2019-02-17T09:59:42.000Z</time>
      </trkpt>
      <trkpt lat="45.79356" lon="6.40863">
        <ele>1961</ele>
        <time>2019-02-17T09:59:44.000Z</time>
      </trkpt>
      <trkpt lat="45.79355" lon="6.40857">
        <ele>1961.4000244141</ele>
        <time>2019-02-17T09:59:49.000Z</time>
      </trkpt>
      <trkpt lat="45.79353" lon="6.40855">
        <ele>1961.5999755859</ele>
        <time>2019-02-17T09:59:53.000Z</time>
      </trkpt>
      <trkpt lat="45.79351" lon="6.40854">
        <ele>1961.8000488281</ele>
        <time>2019-02-17T09:59:54.000Z</time>
      </trkpt>
      <trkpt lat="45.79351" lon="6.40851">
        <ele>1962.5999755859</ele>
        <time>2019-02-17T09:59:57.000Z</time>
      </trkpt>
      <trkpt lat="45.79351" lon="6.4085">
        <ele>1963.5999755859</ele>
        <time>2019-02-17T09:59:59.000Z</time>
      </trkpt>
      <trkpt lat="45.7935" lon="6.40849">
        <ele>1963.8000488281</ele>
        <time>2019-02-17T10:00:00.000Z</time>
      </trkpt>
      <trkpt lat="45.79349" lon="6.40846">
        <ele>1964.8000488281</ele>
        <time>2019-02-17T10:00:04.000Z</time>
      </trkpt>
      <trkpt lat="45.79347" lon="6.40843">
        <ele>1965.1999511719</ele>
        <time>2019-02-17T10:00:07.000Z</time>
      </trkpt>
      <trkpt lat="45.79347" lon="6.40838">
        <ele>1965.4000244141</ele>
        <time>2019-02-17T10:00:10.000Z</time>
      </trkpt>
      <trkpt lat="45.79346" lon="6.40835">
        <ele>1965.5999755859</ele>
        <time>2019-02-17T10:00:13.000Z</time>
      </trkpt>
      <trkpt lat="45.79346" lon="6.40834">
        <ele>1965.5999755859</ele>
        <time>2019-02-17T10:00:15.000Z</time>
      </trkpt>
      <trkpt lat="45.79345" lon="6.4083">
        <ele>1966</ele>
        <time>2019-02-17T10:00:20.000Z</time>
      </trkpt>
      <trkpt lat="45.79344" lon="6.40824">
        <ele>1966.8000488281</ele>
        <time>2019-02-17T10:00:25.000Z</time>
      </trkpt>
      <trkpt lat="45.79343" lon="6.40824">
        <ele>1967.1999511719</ele>
        <time>2019-02-17T10:00:28.000Z</time>
      </trkpt>
      <trkpt lat="45.79343" lon="6.40824">
        <ele>1967.5999755859</ele>
        <time>2019-02-17T10:00:33.000Z</time>
      </trkpt>
      <trkpt lat="45.7934" lon="6.40829">
        <ele>1968</ele>
        <time>2019-02-17T10:00:39.000Z</time>
      </trkpt>
      <trkpt lat="45.7934" lon="6.40829">
        <ele>1968.4000244141</ele>
        <time>2019-02-17T10:00:40.000Z</time>
      </trkpt>
      <trkpt lat="45.79338" lon="6.40835">
        <ele>1969</ele>
        <time>2019-02-17T10:00:45.000Z</time>
      </trkpt>
      <trkpt lat="45.79336" lon="6.4084">
        <ele>1969.4000244141</ele>
        <time>2019-02-17T10:00:49.000Z</time>
      </trkpt>
      <trkpt lat="45.79336" lon="6.40842">
        <ele>1970</ele>
        <time>2019-02-17T10:00:51.000Z</time>
      </trkpt>
      <trkpt lat="45.79333" lon="6.40849">
        <ele>1970.5999755859</ele>
        <time>2019-02-17T10:00:56.000Z</time>
      </trkpt>
      <trkpt lat="45.7933" lon="6.40855">
        <ele>1971.5999755859</ele>
        <time>2019-02-17T10:01:02.000Z</time>
      </trkpt>
      <trkpt lat="45.7933" lon="6.40857">
        <ele>1971.8000488281</ele>
        <time>2019-02-17T10:01:03.000Z</time>
      </trkpt>
      <trkpt lat="45.79329" lon="6.40861">
        <ele>1972.8000488281</ele>
        <time>2019-02-17T10:01:08.000Z</time>
      </trkpt>
      <trkpt lat="45.79329" lon="6.40861">
        <ele>1973</ele>
        <time>2019-02-17T10:01:10.000Z</time>
      </trkpt>
      <trkpt lat="45.79329" lon="6.40858">
        <ele>1973.8000488281</ele>
        <time>2019-02-17T10:01:14.000Z</time>
      </trkpt>
      <trkpt lat="45.7933" lon="6.40857">
        <ele>1974.5999755859</ele>
        <time>2019-02-17T10:01:16.000Z</time>
      </trkpt>
      <trkpt lat="45.7933" lon="6.40855">
        <ele>1975</ele>
        <time>2019-02-17T10:01:18.000Z</time>
      </trkpt>
      <trkpt lat="45.79329" lon="6.40852">
        <ele>1974.8000488281</ele>
        <time>2019-02-17T10:01:21.000Z</time>
      </trkpt>
      <trkpt lat="45.79328" lon="6.40846">
        <ele>1976</ele>
        <time>2019-02-17T10:01:27.000Z</time>
      </trkpt>
      <trkpt lat="45.79327" lon="6.40841">
        <ele>1976.8000488281</ele>
        <time>2019-02-17T10:01:32.000Z</time>
      </trkpt>
      <trkpt lat="45.79327" lon="6.40838">
        <ele>1977</ele>
        <time>2019-02-17T10:01:35.000Z</time>
      </trkpt>
      <trkpt lat="45.79326" lon="6.40834">
        <ele>1977.1999511719</ele>
        <time>2019-02-17T10:01:37.000Z</time>
      </trkpt>
      <trkpt lat="45.79327" lon="6.40832">
        <ele>1978.1999511719</ele>
        <time>2019-02-17T10:01:41.000Z</time>
      </trkpt>
      <trkpt lat="45.79327" lon="6.40832">
        <ele>1978.5999755859</ele>
        <time>2019-02-17T10:01:43.000Z</time>
      </trkpt>
      <trkpt lat="45.79327" lon="6.40834">
        <ele>1978.5999755859</ele>
        <time>2019-02-17T10:01:49.000Z</time>
      </trkpt>
      <trkpt lat="45.79324" lon="6.40839">
        <ele>1979.1999511719</ele>
        <time>2019-02-17T10:01:53.000Z</time>
      </trkpt>
      <trkpt lat="45.79322" lon="6.40841">
        <ele>1979.5999755859</ele>
        <time>2019-02-17T10:01:56.000Z</time>
      </trkpt>
      <trkpt lat="45.79321" lon="6.40845">
        <ele>1980.4000244141</ele>
        <time>2019-02-17T10:01:59.000Z</time>
      </trkpt>
      <trkpt lat="45.79319" lon="6.40849">
        <ele>1981</ele>
        <time>2019-02-17T10:02:02.000Z</time>
      </trkpt>
      <trkpt lat="45.79318" lon="6.40853">
        <ele>1981.4000244141</ele>
        <time>2019-02-17T10:02:04.000Z</time>
      </trkpt>
      <trkpt lat="45.79316" lon="6.40857">
        <ele>1982.8000488281</ele>
        <time>2019-02-17T10:02:07.000Z</time>
      </trkpt>
      <trkpt lat="45.79316" lon="6.40857">
        <ele>1983</ele>
        <time>2019-02-17T10:02:08.000Z</time>
      </trkpt>
      <trkpt lat="45.79317" lon="6.40863">
        <ele>1984</ele>
        <time>2019-02-17T10:02:13.000Z</time>
      </trkpt>
      <trkpt lat="45.79317" lon="6.40864">
        <ele>1984.4000244141</ele>
        <time>2019-02-17T10:02:14.000Z</time>
      </trkpt>
      <trkpt lat="45.79316" lon="6.40865">
        <ele>1984.4000244141</ele>
        <time>2019-02-17T10:02:19.000Z</time>
      </trkpt>
      <trkpt lat="45.79316" lon="6.40864">
        <ele>1985.5999755859</ele>
        <time>2019-02-17T10:02:23.000Z</time>
      </trkpt>
      <trkpt lat="45.79315" lon="6.40862">
        <ele>1986</ele>
        <time>2019-02-17T10:02:24.000Z</time>
      </trkpt>
      <trkpt lat="45.79315" lon="6.40862">
        <ele>1986.1999511719</ele>
        <time>2019-02-17T10:02:25.000Z</time>
      </trkpt>
      <trkpt lat="45.79313" lon="6.40856">
        <ele>1986</ele>
        <time>2019-02-17T10:02:30.000Z</time>
      </trkpt>
      <trkpt lat="45.79312" lon="6.40851">
        <ele>1986.4000244141</ele>
        <time>2019-02-17T10:02:33.000Z</time>
      </trkpt>
      <trkpt lat="45.79312" lon="6.4085">
        <ele>1986.8000488281</ele>
        <time>2019-02-17T10:02:34.000Z</time>
      </trkpt>
      <trkpt lat="45.79312" lon="6.4085">
        <ele>1987</ele>
        <time>2019-02-17T10:02:35.000Z</time>
      </trkpt>
      <trkpt lat="45.79312" lon="6.40848">
        <ele>1987</ele>
        <time>2019-02-17T10:02:36.000Z</time>
      </trkpt>
      <trkpt lat="45.79311" lon="6.40842">
        <ele>1987.4000244141</ele>
        <time>2019-02-17T10:02:40.000Z</time>
      </trkpt>
      <trkpt lat="45.79311" lon="6.40839">
        <ele>1987.8000488281</ele>
        <time>2019-02-17T10:02:43.000Z</time>
      </trkpt>
      <trkpt lat="45.7931" lon="6.40838">
        <ele>1988</ele>
        <time>2019-02-17T10:02:44.000Z</time>
      </trkpt>
      <trkpt lat="45.79309" lon="6.40835">
        <ele>1988.8000488281</ele>
        <time>2019-02-17T10:02:46.000Z</time>
      </trkpt>
      <trkpt lat="45.79308" lon="6.40832">
        <ele>1989.5999755859</ele>
        <time>2019-02-17T10:02:49.000Z</time>
      </trkpt>
      <trkpt lat="45.79307" lon="6.40827">
        <ele>1989.8000488281</ele>
        <time>2019-02-17T10:02:51.000Z</time>
      </trkpt>
      <trkpt lat="45.79307" lon="6.40827">
        <ele>1990</ele>
        <time>2019-02-17T10:02:52.000Z</time>
      </trkpt>
      <trkpt lat="45.79307" lon="6.40825">
        <ele>1990.1999511719</ele>
        <time>2019-02-17T10:02:53.000Z</time>
      </trkpt>
      <trkpt lat="45.79305" lon="6.4082">
        <ele>1991</ele>
        <time>2019-02-17T10:02:58.000Z</time>
      </trkpt>
      <trkpt lat="45.79305" lon="6.40819">
        <ele>1991</ele>
        <time>2019-02-17T10:02:59.000Z</time>
      </trkpt>
      <trkpt lat="45.79305" lon="6.40822">
        <ele>1991.4000244141</ele>
        <time>2019-02-17T10:03:05.000Z</time>
      </trkpt>
      <trkpt lat="45.79304" lon="6.40827">
        <ele>1992.1999511719</ele>
        <time>2019-02-17T10:03:10.000Z</time>
      </trkpt>
      <trkpt lat="45.79302" lon="6.40835">
        <ele>1993</ele>
        <time>2019-02-17T10:03:17.000Z</time>
      </trkpt>
      <trkpt lat="45.79302" lon="6.40837">
        <ele>1993.4000244141</ele>
        <time>2019-02-17T10:03:19.000Z</time>
      </trkpt>
      <trkpt lat="45.793" lon="6.4084">
        <ele>1993.8000488281</ele>
        <time>2019-02-17T10:03:22.000Z</time>
      </trkpt>
      <trkpt lat="45.793" lon="6.40841">
        <ele>1994.4000244141</ele>
        <time>2019-02-17T10:03:23.000Z</time>
      </trkpt>
      <trkpt lat="45.793" lon="6.40848">
        <ele>1995.5999755859</ele>
        <time>2019-02-17T10:03:26.000Z</time>
      </trkpt>
      <trkpt lat="45.79299" lon="6.40852">
        <ele>1996.1999511719</ele>
        <time>2019-02-17T10:03:29.000Z</time>
      </trkpt>
      <trkpt lat="45.79298" lon="6.40857">
        <ele>1996.8000488281</ele>
        <time>2019-02-17T10:03:33.000Z</time>
      </trkpt>
      <trkpt lat="45.79298" lon="6.40859">
        <ele>1997.5999755859</ele>
        <time>2019-02-17T10:03:36.000Z</time>
      </trkpt>
      <trkpt lat="45.79297" lon="6.4086">
        <ele>1998</ele>
        <time>2019-02-17T10:03:40.000Z</time>
      </trkpt>
      <trkpt lat="45.79297" lon="6.4086">
        <ele>1998.4000244141</ele>
        <time>2019-02-17T10:03:42.000Z</time>
      </trkpt>
      <trkpt lat="45.79295" lon="6.40854">
        <ele>1998.8000488281</ele>
        <time>2019-02-17T10:03:47.000Z</time>
      </trkpt>
      <trkpt lat="45.79293" lon="6.40849">
        <ele>1999</ele>
        <time>2019-02-17T10:03:51.000Z</time>
      </trkpt>
      <trkpt lat="45.79293" lon="6.40847">
        <ele>1999.4000244141</ele>
        <time>2019-02-17T10:03:54.000Z</time>
      </trkpt>
      <trkpt lat="45.79292" lon="6.40844">
        <ele>2000.1999511719</ele>
        <time>2019-02-17T10:03:57.000Z</time>
      </trkpt>
      <trkpt lat="45.79292" lon="6.40842">
        <ele>2000.8000488281</ele>
        <time>2019-02-17T10:03:59.000Z</time>
      </trkpt>
      <trkpt lat="45.79291" lon="6.40834">
        <ele>2001.1999511719</ele>
        <time>2019-02-17T10:04:03.000Z</time>
      </trkpt>
      <trkpt lat="45.79291" lon="6.40833">
        <ele>2001.4000244141</ele>
        <time>2019-02-17T10:04:04.000Z</time>
      </trkpt>
      <trkpt lat="45.7929" lon="6.40832">
        <ele>2002.4000244141</ele>
        <time>2019-02-17T10:04:10.000Z</time>
      </trkpt>
      <trkpt lat="45.79289" lon="6.40834">
        <ele>2003</ele>
        <time>2019-02-17T10:04:17.000Z</time>
      </trkpt>
      <trkpt lat="45.79289" lon="6.40838">
        <ele>2003.4000244141</ele>
        <time>2019-02-17T10:04:19.000Z</time>
      </trkpt>
      <trkpt lat="45.79287" lon="6.40843">
        <ele>2004.1999511719</ele>
        <time>2019-02-17T10:04:24.000Z</time>
      </trkpt>
      <trkpt lat="45.79286" lon="6.40844">
        <ele>2004.5999755859</ele>
        <time>2019-02-17T10:04:25.000Z</time>
      </trkpt>
      <trkpt lat="45.79284" lon="6.40852">
        <ele>2005.8000488281</ele>
        <time>2019-02-17T10:04:30.000Z</time>
      </trkpt>
      <trkpt lat="45.79284" lon="6.40853">
        <ele>2006.1999511719</ele>
        <time>2019-02-17T10:04:32.000Z</time>
      </trkpt>
      <trkpt lat="45.79284" lon="6.40855">
        <ele>2006.8000488281</ele>
        <time>2019-02-17T10:04:35.000Z</time>
      </trkpt>
      <trkpt lat="45.79284" lon="6.40855">
        <ele>2007</ele>
        <time>2019-02-17T10:04:38.000Z</time>
      </trkpt>
      <trkpt lat="45.79284" lon="6.40855">
        <ele>2008.1999511719</ele>
        <time>2019-02-17T10:04:42.000Z</time>
      </trkpt>
      <trkpt lat="45.79282" lon="6.40853">
        <ele>2008.4000244141</ele>
        <time>2019-02-17T10:04:46.000Z</time>
      </trkpt>
      <trkpt lat="45.79282" lon="6.40849">
        <ele>2008.8000488281</ele>
        <time>2019-02-17T10:04:53.000Z</time>
      </trkpt>
      <trkpt lat="45.79281" lon="6.40847">
        <ele>2009.4000244141</ele>
        <time>2019-02-17T10:04:57.000Z</time>
      </trkpt>
      <trkpt lat="45.7928" lon="6.40845">
        <ele>2010.4000244141</ele>
        <time>2019-02-17T10:05:00.000Z</time>
      </trkpt>
      <trkpt lat="45.79279" lon="6.40841">
        <ele>2011.5999755859</ele>
        <time>2019-02-17T10:05:03.000Z</time>
      </trkpt>
      <trkpt lat="45.79279" lon="6.40837">
        <ele>2012</ele>
        <time>2019-02-17T10:05:06.000Z</time>
      </trkpt>
      <trkpt lat="45.79279" lon="6.40833">
        <ele>2012.5999755859</ele>
        <time>2019-02-17T10:05:11.000Z</time>
      </trkpt>
      <trkpt lat="45.79277" lon="6.40826">
        <ele>2013</ele>
        <time>2019-02-17T10:05:17.000Z</time>
      </trkpt>
      <trkpt lat="45.79276" lon="6.40825">
        <ele>2013.8000488281</ele>
        <time>2019-02-17T10:05:19.000Z</time>
      </trkpt>
      <trkpt lat="45.79275" lon="6.40821">
        <ele>2014.1999511719</ele>
        <time>2019-02-17T10:05:21.000Z</time>
      </trkpt>
      <trkpt lat="45.79275" lon="6.40819">
        <ele>2014.8000488281</ele>
        <time>2019-02-17T10:05:24.000Z</time>
      </trkpt>
      <trkpt lat="45.79275" lon="6.40819">
        <ele>2015</ele>
        <time>2019-02-17T10:05:25.000Z</time>
      </trkpt>
      <trkpt lat="45.79275" lon="6.40816">
        <ele>2015.4000244141</ele>
        <time>2019-02-17T10:05:31.000Z</time>
      </trkpt>
      <trkpt lat="45.79275" lon="6.40817">
        <ele>2016.1999511719</ele>
        <time>2019-02-17T10:05:36.000Z</time>
      </trkpt>
      <trkpt lat="45.79275" lon="6.40817">
        <ele>2016.4000244141</ele>
        <time>2019-02-17T10:05:37.000Z</time>
      </trkpt>
      <trkpt lat="45.79273" lon="6.40822">
        <ele>2017.1999511719</ele>
        <time>2019-02-17T10:05:41.000Z</time>
      </trkpt>
      <trkpt lat="45.79274" lon="6.40822">
        <ele>2017.1999511719</ele>
        <time>2019-02-17T10:05:42.000Z</time>
      </trkpt>
      <trkpt lat="45.79272" lon="6.4083">
        <ele>2017.8000488281</ele>
        <time>2019-02-17T10:05:46.000Z</time>
      </trkpt>
      <trkpt lat="45.79273" lon="6.40831">
        <ele>2018</ele>
        <time>2019-02-17T10:05:47.000Z</time>
      </trkpt>
      <trkpt lat="45.79273" lon="6.40831">
        <ele>2018.4000244141</ele>
        <time>2019-02-17T10:05:48.000Z</time>
      </trkpt>
      <trkpt lat="45.79272" lon="6.40834">
        <ele>2019.1999511719</ele>
        <time>2019-02-17T10:05:52.000Z</time>
      </trkpt>
      <trkpt lat="45.79272" lon="6.40835">
        <ele>2019.4000244141</ele>
        <time>2019-02-17T10:05:53.000Z</time>
      </trkpt>
      <trkpt lat="45.79272" lon="6.40841">
        <ele>2020.4000244141</ele>
        <time>2019-02-17T10:05:57.000Z</time>
      </trkpt>
      <trkpt lat="45.79273" lon="6.40843">
        <ele>2020.4000244141</ele>
        <time>2019-02-17T10:05:58.000Z</time>
      </trkpt>
      <trkpt lat="45.79275" lon="6.40849">
        <ele>2020.8000488281</ele>
        <time>2019-02-17T10:06:03.000Z</time>
      </trkpt>
      <trkpt lat="45.79272" lon="6.40853">
        <ele>2021.5999755859</ele>
        <time>2019-02-17T10:06:07.000Z</time>
      </trkpt>
      <trkpt lat="45.79272" lon="6.40853">
        <ele>2022</ele>
        <time>2019-02-17T10:06:09.000Z</time>
      </trkpt>
      <trkpt lat="45.79272" lon="6.40853">
        <ele>2022.5999755859</ele>
        <time>2019-02-17T10:06:11.000Z</time>
      </trkpt>
      <trkpt lat="45.79269" lon="6.40852">
        <ele>2023.1999511719</ele>
        <time>2019-02-17T10:06:16.000Z</time>
      </trkpt>
      <trkpt lat="45.79266" lon="6.4085">
        <ele>2023.5999755859</ele>
        <time>2019-02-17T10:06:19.000Z</time>
      </trkpt>
      <trkpt lat="45.79265" lon="6.40846">
        <ele>2024.1999511719</ele>
        <time>2019-02-17T10:06:23.000Z</time>
      </trkpt>
      <trkpt lat="45.79264" lon="6.40843">
        <ele>2024.5999755859</ele>
        <time>2019-02-17T10:06:26.000Z</time>
      </trkpt>
      <trkpt lat="45.79262" lon="6.40839">
        <ele>2025.8000488281</ele>
        <time>2019-02-17T10:06:30.000Z</time>
      </trkpt>
      <trkpt lat="45.79262" lon="6.40831">
        <ele>2027</ele>
        <time>2019-02-17T10:06:35.000Z</time>
      </trkpt>
      <trkpt lat="45.79262" lon="6.4083">
        <ele>2027.1999511719</ele>
        <time>2019-02-17T10:06:38.000Z</time>
      </trkpt>
      <trkpt lat="45.79262" lon="6.40827">
        <ele>2028</ele>
        <time>2019-02-17T10:06:43.000Z</time>
      </trkpt>
      <trkpt lat="45.79262" lon="6.40827">
        <ele>2028.1999511719</ele>
        <time>2019-02-17T10:06:46.000Z</time>
      </trkpt>
      <trkpt lat="45.7926" lon="6.4083">
        <ele>2028.5999755859</ele>
        <time>2019-02-17T10:06:52.000Z</time>
      </trkpt>
      <trkpt lat="45.79259" lon="6.40833">
        <ele>2029.1999511719</ele>
        <time>2019-02-17T10:06:54.000Z</time>
      </trkpt>
      <trkpt lat="45.79257" lon="6.40835">
        <ele>2029.8000488281</ele>
        <time>2019-02-17T10:06:57.000Z</time>
      </trkpt>
      <trkpt lat="45.79257" lon="6.40836">
        <ele>2030.1999511719</ele>
        <time>2019-02-17T10:06:59.000Z</time>
      </trkpt>
      <trkpt lat="45.79257" lon="6.40837">
        <ele>2030.5999755859</ele>
        <time>2019-02-17T10:07:02.000Z</time>
      </trkpt>
      <trkpt lat="45.79257" lon="6.40837">
        <ele>2031.4000244141</ele>
        <time>2019-02-17T10:07:05.000Z</time>
      </trkpt>
      <trkpt lat="45.79257" lon="6.40837">
        <ele>2031.8000488281</ele>
        <time>2019-02-17T10:07:08.000Z</time>
      </trkpt>
      <trkpt lat="45.79255" lon="6.40839">
        <ele>2032.5999755859</ele>
        <time>2019-02-17T10:07:14.000Z</time>
      </trkpt>
      <trkpt lat="45.79254" lon="6.40839">
        <ele>2033</ele>
        <time>2019-02-17T10:07:15.000Z</time>
      </trkpt>
      <trkpt lat="45.7925" lon="6.40835">
        <ele>2033.5999755859</ele>
        <time>2019-02-17T10:07:21.000Z</time>
      </trkpt>
      <trkpt lat="45.7925" lon="6.40835">
        <ele>2033.8000488281</ele>
        <time>2019-02-17T10:07:22.000Z</time>
      </trkpt>
      <trkpt lat="45.79249" lon="6.40831">
        <ele>2034.8000488281</ele>
        <time>2019-02-17T10:07:28.000Z</time>
      </trkpt>
      <trkpt lat="45.79248" lon="6.40832">
        <ele>2035</ele>
        <time>2019-02-17T10:07:35.000Z</time>
      </trkpt>
      <trkpt lat="45.79247" lon="6.40835">
        <ele>2036</ele>
        <time>2019-02-17T10:07:38.000Z</time>
      </trkpt>
      <trkpt lat="45.79246" lon="6.40837">
        <ele>2036.8000488281</ele>
        <time>2019-02-17T10:07:41.000Z</time>
      </trkpt>
      <trkpt lat="45.79246" lon="6.4084">
        <ele>2036.8000488281</ele>
        <time>2019-02-17T10:07:42.000Z</time>
      </trkpt>
      <trkpt lat="45.79247" lon="6.40839">
        <ele>2037.1999511719</ele>
        <time>2019-02-17T10:07:43.000Z</time>
      </trkpt>
      <trkpt lat="45.79246" lon="6.4084">
        <ele>2037.5999755859</ele>
        <time>2019-02-17T10:07:45.000Z</time>
      </trkpt>
      <trkpt lat="45.79247" lon="6.40841">
        <ele>2038</ele>
        <time>2019-02-17T10:07:51.000Z</time>
      </trkpt>
      <trkpt lat="45.79247" lon="6.40841">
        <ele>2038.4000244141</ele>
        <time>2019-02-17T10:07:52.000Z</time>
      </trkpt>
      <trkpt lat="45.79247" lon="6.40841">
        <ele>2039.4000244141</ele>
        <time>2019-02-17T10:07:54.000Z</time>
      </trkpt>
      <trkpt lat="45.79245" lon="6.40837">
        <ele>2039.5999755859</ele>
        <time>2019-02-17T10:07:59.000Z</time>
      </trkpt>
      <trkpt lat="45.79242" lon="6.40832">
        <ele>2040</ele>
        <time>2019-02-17T10:08:05.000Z</time>
      </trkpt>
      <trkpt lat="45.79242" lon="6.40829">
        <ele>2040.4000244141</ele>
        <time>2019-02-17T10:08:07.000Z</time>
      </trkpt>
      <trkpt lat="45.79241" lon="6.40825">
        <ele>2041</ele>
        <time>2019-02-17T10:08:10.000Z</time>
      </trkpt>
      <trkpt lat="45.79242" lon="6.40821">
        <ele>2041.5999755859</ele>
        <time>2019-02-17T10:08:14.000Z</time>
      </trkpt>
      <trkpt lat="45.79242" lon="6.40821">
        <ele>2042.1999511719</ele>
        <time>2019-02-17T10:08:17.000Z</time>
      </trkpt>
      <trkpt lat="45.79241" lon="6.40822">
        <ele>2042.1999511719</ele>
        <time>2019-02-17T10:08:22.000Z</time>
      </trkpt>
      <trkpt lat="45.7924" lon="6.40822">
        <ele>2042.5999755859</ele>
        <time>2019-02-17T10:08:27.000Z</time>
      </trkpt>
      <trkpt lat="45.79239" lon="6.40823">
        <ele>2042.8000488281</ele>
        <time>2019-02-17T10:08:28.000Z</time>
      </trkpt>
      <trkpt lat="45.79238" lon="6.40825">
        <ele>2043.8000488281</ele>
        <time>2019-02-17T10:08:31.000Z</time>
      </trkpt>
      <trkpt lat="45.79237" lon="6.40829">
        <ele>2044.8000488281</ele>
        <time>2019-02-17T10:08:36.000Z</time>
      </trkpt>
      <trkpt lat="45.79238" lon="6.40829">
        <ele>2045</ele>
        <time>2019-02-17T10:08:37.000Z</time>
      </trkpt>
      <trkpt lat="45.79238" lon="6.40829">
        <ele>2045.1999511719</ele>
        <time>2019-02-17T10:08:42.000Z</time>
      </trkpt>
      <trkpt lat="45.79237" lon="6.40829">
        <ele>2046.1999511719</ele>
        <time>2019-02-17T10:08:44.000Z</time>
      </trkpt>
      <trkpt lat="45.79238" lon="6.40828">
        <ele>2046.8000488281</ele>
        <time>2019-02-17T10:08:47.000Z</time>
      </trkpt>
      <trkpt lat="45.79237" lon="6.40826">
        <ele>2047.4000244141</ele>
        <time>2019-02-17T10:08:51.000Z</time>
      </trkpt>
      <trkpt lat="45.79236" lon="6.40825">
        <ele>2047.5999755859</ele>
        <time>2019-02-17T10:08:52.000Z</time>
      </trkpt>
      <trkpt lat="45.79233" lon="6.40823">
        <ele>2048.6000976562</ele>
        <time>2019-02-17T10:08:55.000Z</time>
      </trkpt>
      <trkpt lat="45.79232" lon="6.40822">
        <ele>2049</ele>
        <time>2019-02-17T10:08:57.000Z</time>
      </trkpt>
      <trkpt lat="45.79233" lon="6.40817">
        <ele>2049.8000488281</ele>
        <time>2019-02-17T10:09:00.000Z</time>
      </trkpt>
      <trkpt lat="45.79233" lon="6.40816">
        <ele>2050.1999511719</ele>
        <time>2019-02-17T10:09:01.000Z</time>
      </trkpt>
      <trkpt lat="45.79233" lon="6.40816">
        <ele>2051</ele>
        <time>2019-02-17T10:09:03.000Z</time>
      </trkpt>
      <trkpt lat="45.79233" lon="6.40816">
        <ele>2051.6000976562</ele>
        <time>2019-02-17T10:09:06.000Z</time>
      </trkpt>
      <trkpt lat="45.79233" lon="6.40816">
        <ele>2052</ele>
        <time>2019-02-17T10:09:09.000Z</time>
      </trkpt>
      <trkpt lat="45.79232" lon="6.40817">
        <ele>2052.1999511719</ele>
        <time>2019-02-17T10:09:15.000Z</time>
      </trkpt>
      <trkpt lat="45.79229" lon="6.40818">
        <ele>2052.3999023438</ele>
        <time>2019-02-17T10:09:22.000Z</time>
      </trkpt>
      <trkpt lat="45.79229" lon="6.40818">
        <ele>2052</ele>
        <time>2019-02-17T10:09:30.000Z</time>
      </trkpt>
      <trkpt lat="45.79229" lon="6.40818">
        <ele>2052</ele>
        <time>2019-02-17T10:09:34.000Z</time>
      </trkpt>
      <trkpt lat="45.79229" lon="6.40818">
        <ele>2051.8000488281</ele>
        <time>2019-02-17T10:09:45.000Z</time>
      </trkpt>
      <trkpt lat="45.79229" lon="6.40818">
        <ele>2052.1999511719</ele>
        <time>2019-02-17T10:09:56.000Z</time>
      </trkpt>
      <trkpt lat="45.79229" lon="6.40818">
        <ele>2052</ele>
        <time>2019-02-17T10:10:02.000Z</time>
      </trkpt>
      <trkpt lat="45.79229" lon="6.40818">
        <ele>2052</ele>
        <time>2019-02-17T10:10:10.000Z</time>
      </trkpt>
      <trkpt lat="45.79229" lon="6.40818">
        <ele>2050.6000976562</ele>
        <time>2019-02-17T10:10:18.000Z</time>
      </trkpt>
      <trkpt lat="45.79229" lon="6.40818">
        <ele>2052</ele>
        <time>2019-02-17T10:10:22.000Z</time>
      </trkpt>
      <trkpt lat="45.79229" lon="6.40818">
        <ele>2053</ele>
        <time>2019-02-17T10:10:24.000Z</time>
      </trkpt>
      <trkpt lat="45.79229" lon="6.40818">
        <ele>2053.1999511719</ele>
        <time>2019-02-17T10:10:25.000Z</time>
      </trkpt>
      <trkpt lat="45.79229" lon="6.40818">
        <ele>2052</ele>
        <time>2019-02-17T10:10:28.000Z</time>
      </trkpt>
      <trkpt lat="45.7923" lon="6.40819">
        <ele>2051.8000488281</ele>
        <time>2019-02-17T10:10:38.000Z</time>
      </trkpt>
      <trkpt lat="45.7923" lon="6.40819">
        <ele>2052.1999511719</ele>
        <time>2019-02-17T10:10:55.000Z</time>
      </trkpt>
      <trkpt lat="45.7923" lon="6.40819">
        <ele>2052</ele>
        <time>2019-02-17T10:11:05.000Z</time>
      </trkpt>
      <trkpt lat="45.79231" lon="6.40819">
        <ele>2052.1999511719</ele>
        <time>2019-02-17T10:11:18.000Z</time>
      </trkpt>
      <trkpt lat="45.79231" lon="6.40819">
        <ele>2052</ele>
        <time>2019-02-17T10:11:31.000Z</time>
      </trkpt>
      <trkpt lat="45.7923" lon="6.40819">
        <ele>2051.8000488281</ele>
        <time>2019-02-17T10:11:38.000Z</time>
      </trkpt>
      <trkpt lat="45.7923" lon="6.40819">
        <ele>2052.1999511719</ele>
        <time>2019-02-17T10:11:48.000Z</time>
      </trkpt>
      <trkpt lat="45.7923" lon="6.40819">
        <ele>2052.1999511719</ele>
        <time>2019-02-17T10:11:50.000Z</time>
      </trkpt>
      <trkpt lat="45.7923" lon="6.40819">
        <ele>2051.8000488281</ele>
        <time>2019-02-17T10:11:58.000Z</time>
      </trkpt>
      <trkpt lat="45.7923" lon="6.40819">
        <ele>2052.3999023438</ele>
        <time>2019-02-17T10:12:12.000Z</time>
      </trkpt>
      <trkpt lat="45.7923" lon="6.40819">
        <ele>2052.1999511719</ele>
        <time>2019-02-17T10:12:20.000Z</time>
      </trkpt>
      <trkpt lat="45.7923" lon="6.40819">
        <ele>2051</ele>
        <time>2019-02-17T10:12:28.000Z</time>
      </trkpt>
      <trkpt lat="45.7923" lon="6.40819">
        <ele>2052</ele>
        <time>2019-02-17T10:12:33.000Z</time>
      </trkpt>
      <trkpt lat="45.7923" lon="6.40819">
        <ele>2052.1999511719</ele>
        <time>2019-02-17T10:12:35.000Z</time>
      </trkpt>
      <trkpt lat="45.7923" lon="6.40819">
        <ele>2050.8000488281</ele>
        <time>2019-02-17T10:12:39.000Z</time>
      </trkpt>
      <trkpt lat="45.7923" lon="6.40819">
        <ele>2051</ele>
        <time>2019-02-17T10:12:49.000Z</time>
      </trkpt>
      <trkpt lat="45.7923" lon="6.40819">
        <ele>2052</ele>
        <time>2019-02-17T10:13:03.000Z</time>
      </trkpt>
      <trkpt lat="45.7923" lon="6.40819">
        <ele>2052.6000976562</ele>
        <time>2019-02-17T10:13:07.000Z</time>
      </trkpt>
      <trkpt lat="45.79231" lon="6.4082">
        <ele>2051.6000976562</ele>
        <time>2019-02-17T10:13:20.000Z</time>
      </trkpt>
      <trkpt lat="45.79231" lon="6.4082">
        <ele>2052.1999511719</ele>
        <time>2019-02-17T10:13:32.000Z</time>
      </trkpt>
      <trkpt lat="45.79231" lon="6.4082">
        <ele>2052.1999511719</ele>
        <time>2019-02-17T10:13:45.000Z</time>
      </trkpt>
      <trkpt lat="45.7923" lon="6.4082">
        <ele>2051.3999023438</ele>
        <time>2019-02-17T10:13:57.000Z</time>
      </trkpt>
      <trkpt lat="45.7923" lon="6.4082">
        <ele>2051.6000976562</ele>
        <time>2019-02-17T10:14:10.000Z</time>
      </trkpt>
      <trkpt lat="45.7923" lon="6.4082">
        <ele>2051.6000976562</ele>
        <time>2019-02-17T10:14:12.000Z</time>
      </trkpt>
      <trkpt lat="45.7923" lon="6.4082">
        <ele>2051.8000488281</ele>
        <time>2019-02-17T10:14:27.000Z</time>
      </trkpt>
      <trkpt lat="45.7923" lon="6.4082">
        <ele>2051</ele>
        <time>2019-02-17T10:14:34.000Z</time>
      </trkpt>
      <trkpt lat="45.7923" lon="6.4082">
        <ele>2050.6000976562</ele>
        <time>2019-02-17T10:14:35.000Z</time>
      </trkpt>
      <trkpt lat="45.7923" lon="6.40821">
        <ele>2052.3999023438</ele>
        <time>2019-02-17T10:14:47.000Z</time>
      </trkpt>
      <trkpt lat="45.7923" lon="6.40821">
        <ele>2053</ele>
        <time>2019-02-17T10:14:50.000Z</time>
      </trkpt>
      <trkpt lat="45.7923" lon="6.40821">
        <ele>2051.3999023438</ele>
        <time>2019-02-17T10:15:04.000Z</time>
      </trkpt>
      <trkpt lat="45.7923" lon="6.40821">
        <ele>2051.1999511719</ele>
        <time>2019-02-17T10:15:05.000Z</time>
      </trkpt>
      <trkpt lat="45.7923" lon="6.40821">
        <ele>2052</ele>
        <time>2019-02-17T10:15:16.000Z</time>
      </trkpt>
      <trkpt lat="45.7923" lon="6.40821">
        <ele>2052.3999023438</ele>
        <time>2019-02-17T10:15:19.000Z</time>
      </trkpt>
      <trkpt lat="45.7923" lon="6.40821">
        <ele>2051.1999511719</ele>
        <time>2019-02-17T10:15:25.000Z</time>
      </trkpt>
      <trkpt lat="45.7923" lon="6.40821">
        <ele>2051</ele>
        <time>2019-02-17T10:15:26.000Z</time>
      </trkpt>
      <trkpt lat="45.7923" lon="6.40821">
        <ele>2052.3999023438</ele>
        <time>2019-02-17T10:15:31.000Z</time>
      </trkpt>
      <trkpt lat="45.7923" lon="6.40821">
        <ele>2051.6000976562</ele>
        <time>2019-02-17T10:15:37.000Z</time>
      </trkpt>
      <trkpt lat="45.7923" lon="6.40821">
        <ele>2051.6000976562</ele>
        <time>2019-02-17T10:15:49.000Z</time>
      </trkpt>
      <trkpt lat="45.7923" lon="6.4082">
        <ele>2051.8000488281</ele>
        <time>2019-02-17T10:16:01.000Z</time>
      </trkpt>
      <trkpt lat="45.7923" lon="6.4082">
        <ele>2051.6000976562</ele>
        <time>2019-02-17T10:16:14.000Z</time>
      </trkpt>
      <trkpt lat="45.7923" lon="6.4082">
        <ele>2051.6000976562</ele>
        <time>2019-02-17T10:16:27.000Z</time>
      </trkpt>
      <trkpt lat="45.7923" lon="6.4082">
        <ele>2051.6000976562</ele>
        <time>2019-02-17T10:16:32.000Z</time>
      </trkpt>
      <trkpt lat="45.7923" lon="6.40821">
        <ele>2051.6000976562</ele>
        <time>2019-02-17T10:16:39.000Z</time>
      </trkpt>
      <trkpt lat="45.7923" lon="6.40821">
        <ele>2051.3999023438</ele>
        <time>2019-02-17T10:16:51.000Z</time>
      </trkpt>
      <trkpt lat="45.7923" lon="6.40821">
        <ele>2051.1999511719</ele>
        <time>2019-02-17T10:16:52.000Z</time>
      </trkpt>
      <trkpt lat="45.7923" lon="6.40821">
        <ele>2052.3999023438</ele>
        <time>2019-02-17T10:16:59.000Z</time>
      </trkpt>
      <trkpt lat="45.7923" lon="6.40821">
        <ele>2052</ele>
        <time>2019-02-17T10:17:06.000Z</time>
      </trkpt>
      <trkpt lat="45.7923" lon="6.40821">
        <ele>2051.1999511719</ele>
        <time>2019-02-17T10:17:11.000Z</time>
      </trkpt>
      <trkpt lat="45.7923" lon="6.40821">
        <ele>2052.1999511719</ele>
        <time>2019-02-17T10:17:17.000Z</time>
      </trkpt>
      <trkpt lat="45.7923" lon="6.40821">
        <ele>2052.6000976562</ele>
        <time>2019-02-17T10:17:32.000Z</time>
      </trkpt>
      <trkpt lat="45.7923" lon="6.40821">
        <ele>2052</ele>
        <time>2019-02-17T10:17:44.000Z</time>
      </trkpt>
      <trkpt lat="45.7923" lon="6.40821">
        <ele>2051.3999023438</ele>
        <time>2019-02-17T10:17:57.000Z</time>
      </trkpt>
      <trkpt lat="45.7923" lon="6.40821">
        <ele>2051</ele>
        <time>2019-02-17T10:17:59.000Z</time>
      </trkpt>
      <trkpt lat="45.7923" lon="6.40821">
        <ele>2051</ele>
        <time>2019-02-17T10:18:11.000Z</time>
      </trkpt>
      <trkpt lat="45.7923" lon="6.40821">
        <ele>2052.1999511719</ele>
        <time>2019-02-17T10:18:15.000Z</time>
      </trkpt>
      <trkpt lat="45.7923" lon="6.40821">
        <ele>2051.6000976562</ele>
        <time>2019-02-17T10:18:25.000Z</time>
      </trkpt>
      <trkpt lat="45.7923" lon="6.40821">
        <ele>2051.8000488281</ele>
        <time>2019-02-17T10:18:38.000Z</time>
      </trkpt>
      <trkpt lat="45.7923" lon="6.40821">
        <ele>2051.6000976562</ele>
        <time>2019-02-17T10:18:47.000Z</time>
      </trkpt>
      <trkpt lat="45.7923" lon="6.40821">
        <ele>2052</ele>
        <time>2019-02-17T10:19:01.000Z</time>
      </trkpt>
      <trkpt lat="45.7923" lon="6.40821">
        <ele>2051</ele>
        <time>2019-02-17T10:19:18.000Z</time>
      </trkpt>
      <trkpt lat="45.7923" lon="6.40821">
        <ele>2050.8000488281</ele>
        <time>2019-02-17T10:19:20.000Z</time>
      </trkpt>
      <trkpt lat="45.7923" lon="6.40821">
        <ele>2052.6000976562</ele>
        <time>2019-02-17T10:19:22.000Z</time>
      </trkpt>
      <trkpt lat="45.7923" lon="6.40821">
        <ele>2051.3999023438</ele>
        <time>2019-02-17T10:19:29.000Z</time>
      </trkpt>
      <trkpt lat="45.7923" lon="6.40821">
        <ele>2051.6000976562</ele>
        <time>2019-02-17T10:19:34.000Z</time>
      </trkpt>
      <trkpt lat="45.7923" lon="6.40821">
        <ele>2051.3999023438</ele>
        <time>2019-02-17T10:19:43.000Z</time>
      </trkpt>
      <trkpt lat="45.7923" lon="6.40821">
        <ele>2052</ele>
        <time>2019-02-17T10:19:51.000Z</time>
      </trkpt>
      <trkpt lat="45.7923" lon="6.40821">
        <ele>2051.8000488281</ele>
        <time>2019-02-17T10:20:06.000Z</time>
      </trkpt>
      <trkpt lat="45.7923" lon="6.40821">
        <ele>2051.8000488281</ele>
        <time>2019-02-17T10:20:21.000Z</time>
      </trkpt>
      <trkpt lat="45.7923" lon="6.40821">
        <ele>2052</ele>
        <time>2019-02-17T10:20:31.000Z</time>
      </trkpt>
      <trkpt lat="45.7923" lon="6.40821">
        <ele>2052</ele>
        <time>2019-02-17T10:20:42.000Z</time>
      </trkpt>
      <trkpt lat="45.7923" lon="6.40821">
        <ele>2052.1999511719</ele>
        <time>2019-02-17T10:20:55.000Z</time>
      </trkpt>
      <trkpt lat="45.7923" lon="6.40821">
        <ele>2052.1999511719</ele>
        <time>2019-02-17T10:21:10.000Z</time>
      </trkpt>
      <trkpt lat="45.7923" lon="6.40821">
        <ele>2052</ele>
        <time>2019-02-17T10:21:23.000Z</time>
      </trkpt>
      <trkpt lat="45.7923" lon="6.40821">
        <ele>2052.6000976562</ele>
        <time>2019-02-17T10:21:34.000Z</time>
      </trkpt>
      <trkpt lat="45.7923" lon="6.40821">
        <ele>2052.6000976562</ele>
        <time>2019-02-17T10:21:35.000Z</time>
      </trkpt>
      <trkpt lat="45.7923" lon="6.40821">
        <ele>2052.6000976562</ele>
        <time>2019-02-17T10:21:45.000Z</time>
      </trkpt>
      <trkpt lat="45.7923" lon="6.40821">
        <ele>2052.1999511719</ele>
        <time>2019-02-17T10:21:50.000Z</time>
      </trkpt>
      <trkpt lat="45.7923" lon="6.40821">
        <ele>2052.1999511719</ele>
        <time>2019-02-17T10:21:53.000Z</time>
      </trkpt>
      <trkpt lat="45.7923" lon="6.40822">
        <ele>2052</ele>
        <time>2019-02-17T10:22:11.000Z</time>
      </trkpt>
      <trkpt lat="45.7923" lon="6.40822">
        <ele>2052</ele>
        <time>2019-02-17T10:22:24.000Z</time>
      </trkpt>
      <trkpt lat="45.7923" lon="6.40821">
        <ele>2051.8000488281</ele>
        <time>2019-02-17T10:22:42.000Z</time>
      </trkpt>
      <trkpt lat="45.7923" lon="6.40821">
        <ele>2051.3999023438</ele>
        <time>2019-02-17T10:22:47.000Z</time>
      </trkpt>
      <trkpt lat="45.7923" lon="6.40821">
        <ele>2052.3999023438</ele>
        <time>2019-02-17T10:22:52.000Z</time>
      </trkpt>
      <trkpt lat="45.7923" lon="6.40821">
        <ele>2052.6000976562</ele>
        <time>2019-02-17T10:22:53.000Z</time>
      </trkpt>
      <trkpt lat="45.7923" lon="6.40821">
        <ele>2052</ele>
        <time>2019-02-17T10:23:03.000Z</time>
      </trkpt>
      <trkpt lat="45.7923" lon="6.40821">
        <ele>2052.3999023438</ele>
        <time>2019-02-17T10:23:13.000Z</time>
      </trkpt>
      <trkpt lat="45.7923" lon="6.40821">
        <ele>2052</ele>
        <time>2019-02-17T10:23:23.000Z</time>
      </trkpt>
      <trkpt lat="45.7923" lon="6.40821">
        <ele>2052.3999023438</ele>
        <time>2019-02-17T10:23:34.000Z</time>
      </trkpt>
      <trkpt lat="45.79231" lon="6.40822">
        <ele>2052.1999511719</ele>
        <time>2019-02-17T10:23:58.000Z</time>
      </trkpt>
      <trkpt lat="45.79231" lon="6.40822">
        <ele>2052.6000976562</ele>
        <time>2019-02-17T10:24:10.000Z</time>
      </trkpt>
      <trkpt lat="45.79234" lon="6.40823">
        <ele>2052.6000976562</ele>
        <time>2019-02-17T10:24:20.000Z</time>
      </trkpt>
      <trkpt lat="45.79239" lon="6.40821">
        <ele>2051.3999023438</ele>
        <time>2019-02-17T10:24:24.000Z</time>
      </trkpt>
      <trkpt lat="45.7924" lon="6.40822">
        <ele>2051</ele>
        <time>2019-02-17T10:24:25.000Z</time>
      </trkpt>
      <trkpt lat="45.79242" lon="6.40824">
        <ele>2050.6000976562</ele>
        <time>2019-02-17T10:24:26.000Z</time>
      </trkpt>
      <trkpt lat="45.79244" lon="6.40827">
        <ele>2050</ele>
        <time>2019-02-17T10:24:27.000Z</time>
      </trkpt>
      <trkpt lat="45.79244" lon="6.40834">
        <ele>2048.3999023438</ele>
        <time>2019-02-17T10:24:29.000Z</time>
      </trkpt>
      <trkpt lat="45.79246" lon="6.40841">
        <ele>2046.8000488281</ele>
        <time>2019-02-17T10:24:31.000Z</time>
      </trkpt>
      <trkpt lat="45.79249" lon="6.40847">
        <ele>2043.8000488281</ele>
        <time>2019-02-17T10:24:33.000Z</time>
      </trkpt>
      <trkpt lat="45.7925" lon="6.40848">
        <ele>2042.1999511719</ele>
        <time>2019-02-17T10:24:34.000Z</time>
      </trkpt>
      <trkpt lat="45.79251" lon="6.40847">
        <ele>2040.8000488281</ele>
        <time>2019-02-17T10:24:35.000Z</time>
      </trkpt>
      <trkpt lat="45.79253" lon="6.40847">
        <ele>2040</ele>
        <time>2019-02-17T10:24:36.000Z</time>
      </trkpt>
      <trkpt lat="45.79257" lon="6.40849">
        <ele>2039</ele>
        <time>2019-02-17T10:24:37.000Z</time>
      </trkpt>
      <trkpt lat="45.7926" lon="6.40851">
        <ele>2037.4000244141</ele>
        <time>2019-02-17T10:24:38.000Z</time>
      </trkpt>
      <trkpt lat="45.79264" lon="6.40852">
        <ele>2035.4000244141</ele>
        <time>2019-02-17T10:24:39.000Z</time>
      </trkpt>
      <trkpt lat="45.79266" lon="6.40854">
        <ele>2033.5999755859</ele>
        <time>2019-02-17T10:24:40.000Z</time>
      </trkpt>
      <trkpt lat="45.7928" lon="6.40853">
        <ele>2029.8000488281</ele>
        <time>2019-02-17T10:24:44.000Z</time>
      </trkpt>
      <trkpt lat="45.79283" lon="6.40856">
        <ele>2028.1999511719</ele>
        <time>2019-02-17T10:24:45.000Z</time>
      </trkpt>
      <trkpt lat="45.79286" lon="6.40853">
        <ele>2026</ele>
        <time>2019-02-17T10:24:46.000Z</time>
      </trkpt>
      <trkpt lat="45.79289" lon="6.40849">
        <ele>2024.1999511719</ele>
        <time>2019-02-17T10:24:47.000Z</time>
      </trkpt>
      <trkpt lat="45.79289" lon="6.40846">
        <ele>2022.8000488281</ele>
        <time>2019-02-17T10:24:48.000Z</time>
      </trkpt>
      <trkpt lat="45.79288" lon="6.40846">
        <ele>2021.8000488281</ele>
        <time>2019-02-17T10:24:49.000Z</time>
      </trkpt>
      <trkpt lat="45.79288" lon="6.40846">
        <ele>2020</ele>
        <time>2019-02-17T10:24:51.000Z</time>
      </trkpt>
      <trkpt lat="45.79288" lon="6.40846">
        <ele>2018.8000488281</ele>
        <time>2019-02-17T10:24:52.000Z</time>
      </trkpt>
      <trkpt lat="45.79288" lon="6.40846">
        <ele>2017.5999755859</ele>
        <time>2019-02-17T10:24:53.000Z</time>
      </trkpt>
      <trkpt lat="45.79288" lon="6.40846">
        <ele>2016</ele>
        <time>2019-02-17T10:24:55.000Z</time>
      </trkpt>
      <trkpt lat="45.79288" lon="6.40846">
        <ele>2015.5999755859</ele>
        <time>2019-02-17T10:24:58.000Z</time>
      </trkpt>
      <trkpt lat="45.79288" lon="6.40847">
        <ele>2015.5999755859</ele>
        <time>2019-02-17T10:25:09.000Z</time>
      </trkpt>
      <trkpt lat="45.7929" lon="6.40849">
        <ele>2015.4000244141</ele>
        <time>2019-02-17T10:25:10.000Z</time>
      </trkpt>
      <trkpt lat="45.79292" lon="6.40853">
        <ele>2015</ele>
        <time>2019-02-17T10:25:11.000Z</time>
      </trkpt>
      <trkpt lat="45.79298" lon="6.40851">
        <ele>2013.8000488281</ele>
        <time>2019-02-17T10:25:13.000Z</time>
      </trkpt>
      <trkpt lat="45.79303" lon="6.40843">
        <ele>2012.1999511719</ele>
        <time>2019-02-17T10:25:16.000Z</time>
      </trkpt>
      <trkpt lat="45.79305" lon="6.40845">
        <ele>2011</ele>
        <time>2019-02-17T10:25:17.000Z</time>
      </trkpt>
      <trkpt lat="45.79306" lon="6.40848">
        <ele>2009.5999755859</ele>
        <time>2019-02-17T10:25:18.000Z</time>
      </trkpt>
      <trkpt lat="45.79309" lon="6.40852">
        <ele>2007.8000488281</ele>
        <time>2019-02-17T10:25:19.000Z</time>
      </trkpt>
      <trkpt lat="45.79312" lon="6.40852">
        <ele>2006</ele>
        <time>2019-02-17T10:25:20.000Z</time>
      </trkpt>
      <trkpt lat="45.79315" lon="6.40847">
        <ele>2004.1999511719</ele>
        <time>2019-02-17T10:25:21.000Z</time>
      </trkpt>
      <trkpt lat="45.79318" lon="6.40842">
        <ele>2003.5999755859</ele>
        <time>2019-02-17T10:25:22.000Z</time>
      </trkpt>
      <trkpt lat="45.7932" lon="6.40835">
        <ele>2002.8000488281</ele>
        <time>2019-02-17T10:25:23.000Z</time>
      </trkpt>
      <trkpt lat="45.79321" lon="6.4083">
        <ele>2001.5999755859</ele>
        <time>2019-02-17T10:25:24.000Z</time>
      </trkpt>
      <trkpt lat="45.79322" lon="6.40826">
        <ele>2000</ele>
        <time>2019-02-17T10:25:25.000Z</time>
      </trkpt>
      <trkpt lat="45.79322" lon="6.40824">
        <ele>1998.4000244141</ele>
        <time>2019-02-17T10:25:26.000Z</time>
      </trkpt>
      <trkpt lat="45.79323" lon="6.40824">
        <ele>1996.8000488281</ele>
        <time>2019-02-17T10:25:27.000Z</time>
      </trkpt>
      <trkpt lat="45.79323" lon="6.40823">
        <ele>1995.4000244141</ele>
        <time>2019-02-17T10:25:28.000Z</time>
      </trkpt>
      <trkpt lat="45.79324" lon="6.40826">
        <ele>1993.5999755859</ele>
        <time>2019-02-17T10:25:30.000Z</time>
      </trkpt>
      <trkpt lat="45.79326" lon="6.4083">
        <ele>1992.5999755859</ele>
        <time>2019-02-17T10:25:31.000Z</time>
      </trkpt>
      <trkpt lat="45.79328" lon="6.40832">
        <ele>1991.4000244141</ele>
        <time>2019-02-17T10:25:32.000Z</time>
      </trkpt>
      <trkpt lat="45.7933" lon="6.40831">
        <ele>1990.5999755859</ele>
        <time>2019-02-17T10:25:33.000Z</time>
      </trkpt>
      <trkpt lat="45.7933" lon="6.4083">
        <ele>1990.1999511719</ele>
        <time>2019-02-17T10:25:34.000Z</time>
      </trkpt>
      <trkpt lat="45.7933" lon="6.4083">
        <ele>1989</ele>
        <time>2019-02-17T10:25:36.000Z</time>
      </trkpt>
      <trkpt lat="45.79329" lon="6.4083">
        <ele>1987</ele>
        <time>2019-02-17T10:25:38.000Z</time>
      </trkpt>
      <trkpt lat="45.79328" lon="6.4083">
        <ele>1985.4000244141</ele>
        <time>2019-02-17T10:25:40.000Z</time>
      </trkpt>
      <trkpt lat="45.79331" lon="6.40832">
        <ele>1984.5999755859</ele>
        <time>2019-02-17T10:25:42.000Z</time>
      </trkpt>
      <trkpt lat="45.79334" lon="6.40841">
        <ele>1984.1999511719</ele>
        <time>2019-02-17T10:25:44.000Z</time>
      </trkpt>
      <trkpt lat="45.79336" lon="6.40845">
        <ele>1983</ele>
        <time>2019-02-17T10:25:45.000Z</time>
      </trkpt>
      <trkpt lat="45.79339" lon="6.40851">
        <ele>1981.8000488281</ele>
        <time>2019-02-17T10:25:47.000Z</time>
      </trkpt>
      <trkpt lat="45.79341" lon="6.40855">
        <ele>1980.4000244141</ele>
        <time>2019-02-17T10:25:49.000Z</time>
      </trkpt>
      <trkpt lat="45.79341" lon="6.40854">
        <ele>1979.5999755859</ele>
        <time>2019-02-17T10:25:50.000Z</time>
      </trkpt>
      <trkpt lat="45.79342" lon="6.40852">
        <ele>1978.8000488281</ele>
        <time>2019-02-17T10:25:51.000Z</time>
      </trkpt>
      <trkpt lat="45.79343" lon="6.4085">
        <ele>1978</ele>
        <time>2019-02-17T10:25:52.000Z</time>
      </trkpt>
      <trkpt lat="45.79345" lon="6.40847">
        <ele>1977.5999755859</ele>
        <time>2019-02-17T10:25:53.000Z</time>
      </trkpt>
      <trkpt lat="45.79348" lon="6.40848">
        <ele>1976.1999511719</ele>
        <time>2019-02-17T10:25:55.000Z</time>
      </trkpt>
      <trkpt lat="45.7935" lon="6.40851">
        <ele>1974.8000488281</ele>
        <time>2019-02-17T10:25:56.000Z</time>
      </trkpt>
      <trkpt lat="45.79352" lon="6.40854">
        <ele>1973</ele>
        <time>2019-02-17T10:25:57.000Z</time>
      </trkpt>
      <trkpt lat="45.79355" lon="6.40854">
        <ele>1971.5999755859</ele>
        <time>2019-02-17T10:25:58.000Z</time>
      </trkpt>
      <trkpt lat="45.79358" lon="6.40846">
        <ele>1969.8000488281</ele>
        <time>2019-02-17T10:26:00.000Z</time>
      </trkpt>
      <trkpt lat="45.79359" lon="6.4084">
        <ele>1969.1999511719</ele>
        <time>2019-02-17T10:26:01.000Z</time>
      </trkpt>
      <trkpt lat="45.7936" lon="6.40836">
        <ele>1968.1999511719</ele>
        <time>2019-02-17T10:26:02.000Z</time>
      </trkpt>
      <trkpt lat="45.7936" lon="6.40835">
        <ele>1966.8000488281</ele>
        <time>2019-02-17T10:26:03.000Z</time>
      </trkpt>
      <trkpt lat="45.7936" lon="6.40835">
        <ele>1965</ele>
        <time>2019-02-17T10:26:04.000Z</time>
      </trkpt>
      <trkpt lat="45.7936" lon="6.40835">
        <ele>1962.5999755859</ele>
        <time>2019-02-17T10:26:05.000Z</time>
      </trkpt>
      <trkpt lat="45.7936" lon="6.40835">
        <ele>1960.4000244141</ele>
        <time>2019-02-17T10:26:06.000Z</time>
      </trkpt>
      <trkpt lat="45.7936" lon="6.40835">
        <ele>1958.8000488281</ele>
        <time>2019-02-17T10:26:07.000Z</time>
      </trkpt>
      <trkpt lat="45.7936" lon="6.40835">
        <ele>1957.8000488281</ele>
        <time>2019-02-17T10:26:08.000Z</time>
      </trkpt>
      <trkpt lat="45.7936" lon="6.40835">
        <ele>1956.8000488281</ele>
        <time>2019-02-17T10:26:09.000Z</time>
      </trkpt>
      <trkpt lat="45.7936" lon="6.40835">
        <ele>1956.5999755859</ele>
        <time>2019-02-17T10:26:10.000Z</time>
      </trkpt>
      <trkpt lat="45.7936" lon="6.40835">
        <ele>1956.4000244141</ele>
        <time>2019-02-17T10:26:18.000Z</time>
      </trkpt>
      <trkpt lat="45.79362" lon="6.4083">
        <ele>1955.8000488281</ele>
        <time>2019-02-17T10:26:21.000Z</time>
      </trkpt>
      <trkpt lat="45.79364" lon="6.4083">
        <ele>1955.5999755859</ele>
        <time>2019-02-17T10:26:22.000Z</time>
      </trkpt>
      <trkpt lat="45.79367" lon="6.40831">
        <ele>1954.8000488281</ele>
        <time>2019-02-17T10:26:24.000Z</time>
      </trkpt>
      <trkpt lat="45.79369" lon="6.40833">
        <ele>1953.8000488281</ele>
        <time>2019-02-17T10:26:25.000Z</time>
      </trkpt>
      <trkpt lat="45.79371" lon="6.40835">
        <ele>1952.8000488281</ele>
        <time>2019-02-17T10:26:26.000Z</time>
      </trkpt>
      <trkpt lat="45.79376" lon="6.40839">
        <ele>1951.5999755859</ele>
        <time>2019-02-17T10:26:28.000Z</time>
      </trkpt>
      <trkpt lat="45.79379" lon="6.40834">
        <ele>1950.1999511719</ele>
        <time>2019-02-17T10:26:30.000Z</time>
      </trkpt>
      <trkpt lat="45.79381" lon="6.4083">
        <ele>1949.1999511719</ele>
        <time>2019-02-17T10:26:31.000Z</time>
      </trkpt>
      <trkpt lat="45.79383" lon="6.4083">
        <ele>1948</ele>
        <time>2019-02-17T10:26:32.000Z</time>
      </trkpt>
      <trkpt lat="45.79386" lon="6.40829">
        <ele>1945.1999511719</ele>
        <time>2019-02-17T10:26:33.000Z</time>
      </trkpt>
      <trkpt lat="45.79388" lon="6.40827">
        <ele>1943.4000244141</ele>
        <time>2019-02-17T10:26:34.000Z</time>
      </trkpt>
      <trkpt lat="45.79389" lon="6.40823">
        <ele>1942</ele>
        <time>2019-02-17T10:26:35.000Z</time>
      </trkpt>
      <trkpt lat="45.79391" lon="6.4082">
        <ele>1941</ele>
        <time>2019-02-17T10:26:36.000Z</time>
      </trkpt>
      <trkpt lat="45.79393" lon="6.40818">
        <ele>1939.8000488281</ele>
        <time>2019-02-17T10:26:37.000Z</time>
      </trkpt>
      <trkpt lat="45.79397" lon="6.40816">
        <ele>1938</ele>
        <time>2019-02-17T10:26:38.000Z</time>
      </trkpt>
      <trkpt lat="45.79399" lon="6.40814">
        <ele>1936</ele>
        <time>2019-02-17T10:26:39.000Z</time>
      </trkpt>
      <trkpt lat="45.79402" lon="6.40809">
        <ele>1934.1999511719</ele>
        <time>2019-02-17T10:26:40.000Z</time>
      </trkpt>
      <trkpt lat="45.79404" lon="6.40807">
        <ele>1932.8000488281</ele>
        <time>2019-02-17T10:26:41.000Z</time>
      </trkpt>
      <trkpt lat="45.79408" lon="6.40809">
        <ele>1930.8000488281</ele>
        <time>2019-02-17T10:26:42.000Z</time>
      </trkpt>
      <trkpt lat="45.79412" lon="6.40813">
        <ele>1928</ele>
        <time>2019-02-17T10:26:43.000Z</time>
      </trkpt>
      <trkpt lat="45.79414" lon="6.40814">
        <ele>1925.5999755859</ele>
        <time>2019-02-17T10:26:44.000Z</time>
      </trkpt>
      <trkpt lat="45.79415" lon="6.40813">
        <ele>1923.8000488281</ele>
        <time>2019-02-17T10:26:45.000Z</time>
      </trkpt>
      <trkpt lat="45.79416" lon="6.40809">
        <ele>1922.4000244141</ele>
        <time>2019-02-17T10:26:46.000Z</time>
      </trkpt>
      <trkpt lat="45.79418" lon="6.40805">
        <ele>1921</ele>
        <time>2019-02-17T10:26:47.000Z</time>
      </trkpt>
      <trkpt lat="45.7942" lon="6.40803">
        <ele>1919.4000244141</ele>
        <time>2019-02-17T10:26:48.000Z</time>
      </trkpt>
      <trkpt lat="45.79421" lon="6.40799">
        <ele>1917.1999511719</ele>
        <time>2019-02-17T10:26:49.000Z</time>
      </trkpt>
      <trkpt lat="45.79423" lon="6.40796">
        <ele>1915</ele>
        <time>2019-02-17T10:26:50.000Z</time>
      </trkpt>
      <trkpt lat="45.79424" lon="6.40793">
        <ele>1913.1999511719</ele>
        <time>2019-02-17T10:26:51.000Z</time>
      </trkpt>
      <trkpt lat="45.79426" lon="6.4079">
        <ele>1912.4000244141</ele>
        <time>2019-02-17T10:26:52.000Z</time>
      </trkpt>
      <trkpt lat="45.79426" lon="6.40788">
        <ele>1911.5999755859</ele>
        <time>2019-02-17T10:26:53.000Z</time>
      </trkpt>
      <trkpt lat="45.79426" lon="6.40786">
        <ele>1910.4000244141</ele>
        <time>2019-02-17T10:26:54.000Z</time>
      </trkpt>
      <trkpt lat="45.79426" lon="6.40786">
        <ele>1909.1999511719</ele>
        <time>2019-02-17T10:26:55.000Z</time>
      </trkpt>
      <trkpt lat="45.79426" lon="6.40786">
        <ele>1907.8000488281</ele>
        <time>2019-02-17T10:26:56.000Z</time>
      </trkpt>
      <trkpt lat="45.79426" lon="6.40786">
        <ele>1906</ele>
        <time>2019-02-17T10:26:57.000Z</time>
      </trkpt>
      <trkpt lat="45.79426" lon="6.40786">
        <ele>1905.1999511719</ele>
        <time>2019-02-17T10:27:08.000Z</time>
      </trkpt>
      <trkpt lat="45.79426" lon="6.40786">
        <ele>1905.1999511719</ele>
        <time>2019-02-17T10:27:19.000Z</time>
      </trkpt>
      <trkpt lat="45.79426" lon="6.40786">
        <ele>1905</ele>
        <time>2019-02-17T10:27:30.000Z</time>
      </trkpt>
      <trkpt lat="45.79426" lon="6.40786">
        <ele>1905</ele>
        <time>2019-02-17T10:27:33.000Z</time>
      </trkpt>
      <trkpt lat="45.79424" lon="6.40785">
        <ele>1905.4000244141</ele>
        <time>2019-02-17T10:27:41.000Z</time>
      </trkpt>
      <trkpt lat="45.79424" lon="6.40785">
        <ele>1905</ele>
        <time>2019-02-17T10:27:54.000Z</time>
      </trkpt>
      <trkpt lat="45.79424" lon="6.40785">
        <ele>1904.8000488281</ele>
        <time>2019-02-17T10:28:04.000Z</time>
      </trkpt>
      <trkpt lat="45.79424" lon="6.40785">
        <ele>1905.4000244141</ele>
        <time>2019-02-17T10:28:16.000Z</time>
      </trkpt>
      <trkpt lat="45.79424" lon="6.40785">
        <ele>1906.1999511719</ele>
        <time>2019-02-17T10:28:20.000Z</time>
      </trkpt>
      <trkpt lat="45.79424" lon="6.40785">
        <ele>1906.4000244141</ele>
        <time>2019-02-17T10:28:24.000Z</time>
      </trkpt>
      <trkpt lat="45.79424" lon="6.40786">
        <ele>1905.5999755859</ele>
        <time>2019-02-17T10:28:33.000Z</time>
      </trkpt>
      <trkpt lat="45.79424" lon="6.40786">
        <ele>1905.5999755859</ele>
        <time>2019-02-17T10:28:47.000Z</time>
      </trkpt>
      <trkpt lat="45.79424" lon="6.40786">
        <ele>1905.5999755859</ele>
        <time>2019-02-17T10:29:00.000Z</time>
      </trkpt>
      <trkpt lat="45.79423" lon="6.40786">
        <ele>1905.5999755859</ele>
        <time>2019-02-17T10:29:12.000Z</time>
      </trkpt>
      <trkpt lat="45.79424" lon="6.40784">
        <ele>1905.5999755859</ele>
        <time>2019-02-17T10:29:14.000Z</time>
      </trkpt>
      <trkpt lat="45.79428" lon="6.4079">
        <ele>1905.5999755859</ele>
        <time>2019-02-17T10:29:16.000Z</time>
      </trkpt>
      <trkpt lat="45.7943" lon="6.40791">
        <ele>1905</ele>
        <time>2019-02-17T10:29:17.000Z</time>
      </trkpt>
      <trkpt lat="45.79432" lon="6.40788">
        <ele>1904.4000244141</ele>
        <time>2019-02-17T10:29:18.000Z</time>
      </trkpt>
      <trkpt lat="45.79432" lon="6.40784">
        <ele>1903.8000488281</ele>
        <time>2019-02-17T10:29:19.000Z</time>
      </trkpt>
      <trkpt lat="45.79433" lon="6.4078">
        <ele>1902</ele>
        <time>2019-02-17T10:29:21.000Z</time>
      </trkpt>
      <trkpt lat="45.79435" lon="6.40779">
        <ele>1900.5999755859</ele>
        <time>2019-02-17T10:29:22.000Z</time>
      </trkpt>
      <trkpt lat="45.79439" lon="6.40775">
        <ele>1899.1999511719</ele>
        <time>2019-02-17T10:29:23.000Z</time>
      </trkpt>
      <trkpt lat="45.79441" lon="6.40772">
        <ele>1897.8000488281</ele>
        <time>2019-02-17T10:29:24.000Z</time>
      </trkpt>
      <trkpt lat="45.79443" lon="6.40769">
        <ele>1896</ele>
        <time>2019-02-17T10:29:26.000Z</time>
      </trkpt>
      <trkpt lat="45.79442" lon="6.40768">
        <ele>1894.5999755859</ele>
        <time>2019-02-17T10:29:27.000Z</time>
      </trkpt>
      <trkpt lat="45.79441" lon="6.40768">
        <ele>1892.8000488281</ele>
        <time>2019-02-17T10:29:28.000Z</time>
      </trkpt>
      <trkpt lat="45.79441" lon="6.40768">
        <ele>1891</ele>
        <time>2019-02-17T10:29:29.000Z</time>
      </trkpt>
      <trkpt lat="45.79441" lon="6.40768">
        <ele>1890</ele>
        <time>2019-02-17T10:29:30.000Z</time>
      </trkpt>
      <trkpt lat="45.79441" lon="6.40768">
        <ele>1888.8000488281</ele>
        <time>2019-02-17T10:29:33.000Z</time>
      </trkpt>
      <trkpt lat="45.79441" lon="6.40768">
        <ele>1888.5999755859</ele>
        <time>2019-02-17T10:29:35.000Z</time>
      </trkpt>
      <trkpt lat="45.79441" lon="6.40766">
        <ele>1888.5999755859</ele>
        <time>2019-02-17T10:29:36.000Z</time>
      </trkpt>
      <trkpt lat="45.79443" lon="6.40759">
        <ele>1888.4000244141</ele>
        <time>2019-02-17T10:29:39.000Z</time>
      </trkpt>
      <trkpt lat="45.79448" lon="6.4076">
        <ele>1887.1999511719</ele>
        <time>2019-02-17T10:29:42.000Z</time>
      </trkpt>
      <trkpt lat="45.79451" lon="6.40753">
        <ele>1885.8000488281</ele>
        <time>2019-02-17T10:29:44.000Z</time>
      </trkpt>
      <trkpt lat="45.79452" lon="6.40752">
        <ele>1885.1999511719</ele>
        <time>2019-02-17T10:29:45.000Z</time>
      </trkpt>
      <trkpt lat="45.79454" lon="6.40752">
        <ele>1883</ele>
        <time>2019-02-17T10:29:46.000Z</time>
      </trkpt>
      <trkpt lat="45.79457" lon="6.40751">
        <ele>1880.8000488281</ele>
        <time>2019-02-17T10:29:47.000Z</time>
      </trkpt>
      <trkpt lat="45.79459" lon="6.40748">
        <ele>1878.8000488281</ele>
        <time>2019-02-17T10:29:48.000Z</time>
      </trkpt>
      <trkpt lat="45.79459" lon="6.40744">
        <ele>1877.5999755859</ele>
        <time>2019-02-17T10:29:49.000Z</time>
      </trkpt>
      <trkpt lat="45.79458" lon="6.40734">
        <ele>1875.4000244141</ele>
        <time>2019-02-17T10:29:51.000Z</time>
      </trkpt>
      <trkpt lat="45.79458" lon="6.4073">
        <ele>1873.5999755859</ele>
        <time>2019-02-17T10:29:52.000Z</time>
      </trkpt>
      <trkpt lat="45.79457" lon="6.40728">
        <ele>1871.5999755859</ele>
        <time>2019-02-17T10:29:53.000Z</time>
      </trkpt>
      <trkpt lat="45.79456" lon="6.40724">
        <ele>1869.4000244141</ele>
        <time>2019-02-17T10:29:54.000Z</time>
      </trkpt>
      <trkpt lat="45.79458" lon="6.4072">
        <ele>1867.4000244141</ele>
        <time>2019-02-17T10:29:55.000Z</time>
      </trkpt>
      <trkpt lat="45.79457" lon="6.40715">
        <ele>1866</ele>
        <time>2019-02-17T10:29:56.000Z</time>
      </trkpt>
      <trkpt lat="45.79458" lon="6.40707">
        <ele>1864.4000244141</ele>
        <time>2019-02-17T10:29:58.000Z</time>
      </trkpt>
      <trkpt lat="45.79458" lon="6.40705">
        <ele>1863</ele>
        <time>2019-02-17T10:29:59.000Z</time>
      </trkpt>
      <trkpt lat="45.79459" lon="6.40704">
        <ele>1861.1999511719</ele>
        <time>2019-02-17T10:30:00.000Z</time>
      </trkpt>
      <trkpt lat="45.79459" lon="6.40702">
        <ele>1859.5999755859</ele>
        <time>2019-02-17T10:30:01.000Z</time>
      </trkpt>
      <trkpt lat="45.79459" lon="6.40698">
        <ele>1858.4000244141</ele>
        <time>2019-02-17T10:30:02.000Z</time>
      </trkpt>
      <trkpt lat="45.79459" lon="6.40691">
        <ele>1857.5999755859</ele>
        <time>2019-02-17T10:30:03.000Z</time>
      </trkpt>
      <trkpt lat="45.7946" lon="6.40681">
        <ele>1857</ele>
        <time>2019-02-17T10:30:04.000Z</time>
      </trkpt>
      <trkpt lat="45.79462" lon="6.40666">
        <ele>1855.8000488281</ele>
        <time>2019-02-17T10:30:06.000Z</time>
      </trkpt>
      <trkpt lat="45.79462" lon="6.40662">
        <ele>1854.8000488281</ele>
        <time>2019-02-17T10:30:07.000Z</time>
      </trkpt>
      <trkpt lat="45.79463" lon="6.40659">
        <ele>1853.5999755859</ele>
        <time>2019-02-17T10:30:08.000Z</time>
      </trkpt>
      <trkpt lat="45.79464" lon="6.40657">
        <ele>1852.4000244141</ele>
        <time>2019-02-17T10:30:09.000Z</time>
      </trkpt>
      <trkpt lat="45.79466" lon="6.40656">
        <ele>1850.5999755859</ele>
        <time>2019-02-17T10:30:10.000Z</time>
      </trkpt>
      <trkpt lat="45.7947" lon="6.40649">
        <ele>1849.4000244141</ele>
        <time>2019-02-17T10:30:14.000Z</time>
      </trkpt>
      <trkpt lat="45.79471" lon="6.40645">
        <ele>1849.1999511719</ele>
        <time>2019-02-17T10:30:15.000Z</time>
      </trkpt>
      <trkpt lat="45.79472" lon="6.40634">
        <ele>1848.1999511719</ele>
        <time>2019-02-17T10:30:19.000Z</time>
      </trkpt>
      <trkpt lat="45.79473" lon="6.40632">
        <ele>1847.8000488281</ele>
        <time>2019-02-17T10:30:20.000Z</time>
      </trkpt>
      <trkpt lat="45.79476" lon="6.40623">
        <ele>1847</ele>
        <time>2019-02-17T10:30:25.000Z</time>
      </trkpt>
      <trkpt lat="45.79476" lon="6.4062">
        <ele>1847</ele>
        <time>2019-02-17T10:30:26.000Z</time>
      </trkpt>
      <trkpt lat="45.79477" lon="6.40604">
        <ele>1846</ele>
        <time>2019-02-17T10:30:31.000Z</time>
      </trkpt>
      <trkpt lat="45.79478" lon="6.40596">
        <ele>1845.5999755859</ele>
        <time>2019-02-17T10:30:33.000Z</time>
      </trkpt>
      <trkpt lat="45.7948" lon="6.40592">
        <ele>1845</ele>
        <time>2019-02-17T10:30:34.000Z</time>
      </trkpt>
      <trkpt lat="45.79483" lon="6.4059">
        <ele>1844.8000488281</ele>
        <time>2019-02-17T10:30:35.000Z</time>
      </trkpt>
      <trkpt lat="45.79485" lon="6.40589">
        <ele>1844.1999511719</ele>
        <time>2019-02-17T10:30:36.000Z</time>
      </trkpt>
      <trkpt lat="45.79487" lon="6.40584">
        <ele>1843.1999511719</ele>
        <time>2019-02-17T10:30:37.000Z</time>
      </trkpt>
      <trkpt lat="45.7949" lon="6.40581">
        <ele>1842</ele>
        <time>2019-02-17T10:30:38.000Z</time>
      </trkpt>
      <trkpt lat="45.79495" lon="6.40581">
        <ele>1840.4000244141</ele>
        <time>2019-02-17T10:30:40.000Z</time>
      </trkpt>
      <trkpt lat="45.79498" lon="6.4058">
        <ele>1838.8000488281</ele>
        <time>2019-02-17T10:30:41.000Z</time>
      </trkpt>
      <trkpt lat="45.79502" lon="6.40578">
        <ele>1836.8000488281</ele>
        <time>2019-02-17T10:30:42.000Z</time>
      </trkpt>
      <trkpt lat="45.79504" lon="6.40577">
        <ele>1835</ele>
        <time>2019-02-17T10:30:43.000Z</time>
      </trkpt>
      <trkpt lat="45.79507" lon="6.40577">
        <ele>1833.8000488281</ele>
        <time>2019-02-17T10:30:44.000Z</time>
      </trkpt>
      <trkpt lat="45.79512" lon="6.40576">
        <ele>1831.8000488281</ele>
        <time>2019-02-17T10:30:45.000Z</time>
      </trkpt>
      <trkpt lat="45.79516" lon="6.40569">
        <ele>1829</ele>
        <time>2019-02-17T10:30:46.000Z</time>
      </trkpt>
      <trkpt lat="45.7952" lon="6.40562">
        <ele>1826.5999755859</ele>
        <time>2019-02-17T10:30:47.000Z</time>
      </trkpt>
      <trkpt lat="45.79523" lon="6.40557">
        <ele>1825</ele>
        <time>2019-02-17T10:30:48.000Z</time>
      </trkpt>
      <trkpt lat="45.79527" lon="6.40555">
        <ele>1823.1999511719</ele>
        <time>2019-02-17T10:30:49.000Z</time>
      </trkpt>
      <trkpt lat="45.79532" lon="6.40551">
        <ele>1820.4000244141</ele>
        <time>2019-02-17T10:30:50.000Z</time>
      </trkpt>
      <trkpt lat="45.79539" lon="6.40543">
        <ele>1817.1999511719</ele>
        <time>2019-02-17T10:30:51.000Z</time>
      </trkpt>
      <trkpt lat="45.79543" lon="6.40534">
        <ele>1814.5999755859</ele>
        <time>2019-02-17T10:30:52.000Z</time>
      </trkpt>
      <trkpt lat="45.79545" lon="6.40523">
        <ele>1812.4000244141</ele>
        <time>2019-02-17T10:30:53.000Z</time>
      </trkpt>
      <trkpt lat="45.79547" lon="6.40511">
        <ele>1810.1999511719</ele>
        <time>2019-02-17T10:30:54.000Z</time>
      </trkpt>
      <trkpt lat="45.79549" lon="6.405">
        <ele>1807.4000244141</ele>
        <time>2019-02-17T10:30:55.000Z</time>
      </trkpt>
      <trkpt lat="45.7955" lon="6.40489">
        <ele>1804.1999511719</ele>
        <time>2019-02-17T10:30:56.000Z</time>
      </trkpt>
      <trkpt lat="45.79549" lon="6.4048">
        <ele>1801.5999755859</ele>
        <time>2019-02-17T10:30:57.000Z</time>
      </trkpt>
      <trkpt lat="45.79547" lon="6.40472">
        <ele>1797.8000488281</ele>
        <time>2019-02-17T10:30:58.000Z</time>
      </trkpt>
      <trkpt lat="45.79546" lon="6.40466">
        <ele>1796.4000244141</ele>
        <time>2019-02-17T10:30:59.000Z</time>
      </trkpt>
      <trkpt lat="45.79543" lon="6.40462">
        <ele>1795</ele>
        <time>2019-02-17T10:31:00.000Z</time>
      </trkpt>
      <trkpt lat="45.79542" lon="6.4046">
        <ele>1793.5999755859</ele>
        <time>2019-02-17T10:31:01.000Z</time>
      </trkpt>
      <trkpt lat="45.79541" lon="6.40457">
        <ele>1792.5999755859</ele>
        <time>2019-02-17T10:31:02.000Z</time>
      </trkpt>
      <trkpt lat="45.79538" lon="6.40448">
        <ele>1791.1999511719</ele>
        <time>2019-02-17T10:31:04.000Z</time>
      </trkpt>
      <trkpt lat="45.7954" lon="6.40447">
        <ele>1789.8000488281</ele>
        <time>2019-02-17T10:31:05.000Z</time>
      </trkpt>
      <trkpt lat="45.79546" lon="6.40444">
        <ele>1787.1999511719</ele>
        <time>2019-02-17T10:31:06.000Z</time>
      </trkpt>
      <trkpt lat="45.79553" lon="6.40439">
        <ele>1784.4000244141</ele>
        <time>2019-02-17T10:31:07.000Z</time>
      </trkpt>
      <trkpt lat="45.79558" lon="6.40431">
        <ele>1782</ele>
        <time>2019-02-17T10:31:08.000Z</time>
      </trkpt>
      <trkpt lat="45.79562" lon="6.40423">
        <ele>1780</ele>
        <time>2019-02-17T10:31:09.000Z</time>
      </trkpt>
      <trkpt lat="45.79566" lon="6.40415">
        <ele>1777.4000244141</ele>
        <time>2019-02-17T10:31:10.000Z</time>
      </trkpt>
      <trkpt lat="45.79573" lon="6.4041">
        <ele>1774.4000244141</ele>
        <time>2019-02-17T10:31:11.000Z</time>
      </trkpt>
      <trkpt lat="45.79579" lon="6.40405">
        <ele>1771.8000488281</ele>
        <time>2019-02-17T10:31:12.000Z</time>
      </trkpt>
      <trkpt lat="45.79584" lon="6.404">
        <ele>1769.5999755859</ele>
        <time>2019-02-17T10:31:13.000Z</time>
      </trkpt>
      <trkpt lat="45.79588" lon="6.40395">
        <ele>1768</ele>
        <time>2019-02-17T10:31:14.000Z</time>
      </trkpt>
      <trkpt lat="45.79592" lon="6.4039">
        <ele>1766.8000488281</ele>
        <time>2019-02-17T10:31:15.000Z</time>
      </trkpt>
      <trkpt lat="45.79596" lon="6.40385">
        <ele>1766</ele>
        <time>2019-02-17T10:31:16.000Z</time>
      </trkpt>
      <trkpt lat="45.796" lon="6.4038">
        <ele>1765.4000244141</ele>
        <time>2019-02-17T10:31:17.000Z</time>
      </trkpt>
      <trkpt lat="45.79607" lon="6.40368">
        <ele>1764.1999511719</ele>
        <time>2019-02-17T10:31:19.000Z</time>
      </trkpt>
      <trkpt lat="45.79611" lon="6.40355">
        <ele>1763.1999511719</ele>
        <time>2019-02-17T10:31:21.000Z</time>
      </trkpt>
      <trkpt lat="45.79613" lon="6.4035">
        <ele>1762</ele>
        <time>2019-02-17T10:31:22.000Z</time>
      </trkpt>
      <trkpt lat="45.79618" lon="6.4034">
        <ele>1760.8000488281</ele>
        <time>2019-02-17T10:31:24.000Z</time>
      </trkpt>
      <trkpt lat="45.79622" lon="6.40327">
        <ele>1759.4000244141</ele>
        <time>2019-02-17T10:31:27.000Z</time>
      </trkpt>
      <trkpt lat="45.79626" lon="6.40311">
        <ele>1758.4000244141</ele>
        <time>2019-02-17T10:31:30.000Z</time>
      </trkpt>
      <trkpt lat="45.79629" lon="6.40289">
        <ele>1757.1999511719</ele>
        <time>2019-02-17T10:31:33.000Z</time>
      </trkpt>
      <trkpt lat="45.79629" lon="6.40282">
        <ele>1756.8000488281</ele>
        <time>2019-02-17T10:31:34.000Z</time>
      </trkpt>
      <trkpt lat="45.79628" lon="6.40276">
        <ele>1756</ele>
        <time>2019-02-17T10:31:35.000Z</time>
      </trkpt>
      <trkpt lat="45.79627" lon="6.40265">
        <ele>1754.4000244141</ele>
        <time>2019-02-17T10:31:37.000Z</time>
      </trkpt>
      <trkpt lat="45.79626" lon="6.4026">
        <ele>1753</ele>
        <time>2019-02-17T10:31:39.000Z</time>
      </trkpt>
      <trkpt lat="45.79623" lon="6.40258">
        <ele>1750.8000488281</ele>
        <time>2019-02-17T10:31:41.000Z</time>
      </trkpt>
      <trkpt lat="45.79623" lon="6.40257">
        <ele>1749.4000244141</ele>
        <time>2019-02-17T10:31:42.000Z</time>
      </trkpt>
      <trkpt lat="45.79623" lon="6.40256">
        <ele>1747.5999755859</ele>
        <time>2019-02-17T10:31:44.000Z</time>
      </trkpt>
      <trkpt lat="45.79624" lon="6.40258">
        <ele>1744.8000488281</ele>
        <time>2019-02-17T10:31:46.000Z</time>
      </trkpt>
      <trkpt lat="45.79624" lon="6.40258">
        <ele>1743.5999755859</ele>
        <time>2019-02-17T10:31:47.000Z</time>
      </trkpt>
      <trkpt lat="45.79624" lon="6.40258">
        <ele>1742.1999511719</ele>
        <time>2019-02-17T10:31:49.000Z</time>
      </trkpt>
      <trkpt lat="45.79624" lon="6.40258">
        <ele>1741.5999755859</ele>
        <time>2019-02-17T10:32:06.000Z</time>
      </trkpt>
      <trkpt lat="45.79626" lon="6.40257">
        <ele>1741.5999755859</ele>
        <time>2019-02-17T10:32:08.000Z</time>
      </trkpt>
      <trkpt lat="45.7963" lon="6.40251">
        <ele>1741.5999755859</ele>
        <time>2019-02-17T10:32:10.000Z</time>
      </trkpt>
      <trkpt lat="45.79631" lon="6.40251">
        <ele>1741.4000244141</ele>
        <time>2019-02-17T10:32:11.000Z</time>
      </trkpt>
      <trkpt lat="45.79633" lon="6.40257">
        <ele>1740.8000488281</ele>
        <time>2019-02-17T10:32:12.000Z</time>
      </trkpt>
      <trkpt lat="45.79636" lon="6.4026">
        <ele>1739.8000488281</ele>
        <time>2019-02-17T10:32:13.000Z</time>
      </trkpt>
      <trkpt lat="45.79639" lon="6.40261">
        <ele>1738.5999755859</ele>
        <time>2019-02-17T10:32:14.000Z</time>
      </trkpt>
      <trkpt lat="45.79643" lon="6.40259">
        <ele>1737.8000488281</ele>
        <time>2019-02-17T10:32:15.000Z</time>
      </trkpt>
      <trkpt lat="45.79648" lon="6.4026">
        <ele>1737.1999511719</ele>
        <time>2019-02-17T10:32:16.000Z</time>
      </trkpt>
      <trkpt lat="45.79651" lon="6.40259">
        <ele>1735.8000488281</ele>
        <time>2019-02-17T10:32:17.000Z</time>
      </trkpt>
      <trkpt lat="45.79656" lon="6.40258">
        <ele>1733.4000244141</ele>
        <time>2019-02-17T10:32:18.000Z</time>
      </trkpt>
      <trkpt lat="45.7966" lon="6.40254">
        <ele>1730.8000488281</ele>
        <time>2019-02-17T10:32:19.000Z</time>
      </trkpt>
      <trkpt lat="45.79663" lon="6.40248">
        <ele>1728.8000488281</ele>
        <time>2019-02-17T10:32:20.000Z</time>
      </trkpt>
      <trkpt lat="45.79667" lon="6.40244">
        <ele>1727</ele>
        <time>2019-02-17T10:32:21.000Z</time>
      </trkpt>
      <trkpt lat="45.79673" lon="6.40242">
        <ele>1724.5999755859</ele>
        <time>2019-02-17T10:32:22.000Z</time>
      </trkpt>
      <trkpt lat="45.79678" lon="6.40238">
        <ele>1721.4000244141</ele>
        <time>2019-02-17T10:32:23.000Z</time>
      </trkpt>
      <trkpt lat="45.79682" lon="6.40231">
        <ele>1718.4000244141</ele>
        <time>2019-02-17T10:32:24.000Z</time>
      </trkpt>
      <trkpt lat="45.79685" lon="6.40225">
        <ele>1716.1999511719</ele>
        <time>2019-02-17T10:32:25.000Z</time>
      </trkpt>
      <trkpt lat="45.79686" lon="6.40219">
        <ele>1714.1999511719</ele>
        <time>2019-02-17T10:32:26.000Z</time>
      </trkpt>
      <trkpt lat="45.79686" lon="6.40212">
        <ele>1711.5999755859</ele>
        <time>2019-02-17T10:32:27.000Z</time>
      </trkpt>
      <trkpt lat="45.79686" lon="6.40205">
        <ele>1708.5999755859</ele>
        <time>2019-02-17T10:32:28.000Z</time>
      </trkpt>
      <trkpt lat="45.79683" lon="6.40196">
        <ele>1706</ele>
        <time>2019-02-17T10:32:29.000Z</time>
      </trkpt>
      <trkpt lat="45.7968" lon="6.40183">
        <ele>1703.8000488281</ele>
        <time>2019-02-17T10:32:30.000Z</time>
      </trkpt>
      <trkpt lat="45.79677" lon="6.4017">
        <ele>1702.1999511719</ele>
        <time>2019-02-17T10:32:31.000Z</time>
      </trkpt>
      <trkpt lat="45.79679" lon="6.40158">
        <ele>1700.8000488281</ele>
        <time>2019-02-17T10:32:32.000Z</time>
      </trkpt>
      <trkpt lat="45.79679" lon="6.40147">
        <ele>1699.8000488281</ele>
        <time>2019-02-17T10:32:33.000Z</time>
      </trkpt>
      <trkpt lat="45.79676" lon="6.40137">
        <ele>1697</ele>
        <time>2019-02-17T10:32:34.000Z</time>
      </trkpt>
      <trkpt lat="45.79674" lon="6.40125">
        <ele>1694.8000488281</ele>
        <time>2019-02-17T10:32:35.000Z</time>
      </trkpt>
      <trkpt lat="45.79674" lon="6.40114">
        <ele>1692.5999755859</ele>
        <time>2019-02-17T10:32:36.000Z</time>
      </trkpt>
      <trkpt lat="45.79677" lon="6.40104">
        <ele>1690.8000488281</ele>
        <time>2019-02-17T10:32:37.000Z</time>
      </trkpt>
      <trkpt lat="45.79678" lon="6.40095">
        <ele>1689.4000244141</ele>
        <time>2019-02-17T10:32:38.000Z</time>
      </trkpt>
      <trkpt lat="45.79678" lon="6.40088">
        <ele>1687.8000488281</ele>
        <time>2019-02-17T10:32:39.000Z</time>
      </trkpt>
      <trkpt lat="45.79677" lon="6.40081">
        <ele>1686</ele>
        <time>2019-02-17T10:32:40.000Z</time>
      </trkpt>
      <trkpt lat="45.79676" lon="6.40073">
        <ele>1684.4000244141</ele>
        <time>2019-02-17T10:32:41.000Z</time>
      </trkpt>
      <trkpt lat="45.79675" lon="6.40061">
        <ele>1683</ele>
        <time>2019-02-17T10:32:42.000Z</time>
      </trkpt>
      <trkpt lat="45.79676" lon="6.40047">
        <ele>1681.8000488281</ele>
        <time>2019-02-17T10:32:43.000Z</time>
      </trkpt>
      <trkpt lat="45.79677" lon="6.40035">
        <ele>1680.8000488281</ele>
        <time>2019-02-17T10:32:44.000Z</time>
      </trkpt>
      <trkpt lat="45.79678" lon="6.40023">
        <ele>1679.1999511719</ele>
        <time>2019-02-17T10:32:45.000Z</time>
      </trkpt>
      <trkpt lat="45.79678" lon="6.40012">
        <ele>1676.5999755859</ele>
        <time>2019-02-17T10:32:46.000Z</time>
      </trkpt>
      <trkpt lat="45.79679" lon="6.40003">
        <ele>1673.8000488281</ele>
        <time>2019-02-17T10:32:47.000Z</time>
      </trkpt>
      <trkpt lat="45.79679" lon="6.39995">
        <ele>1671.1999511719</ele>
        <time>2019-02-17T10:32:48.000Z</time>
      </trkpt>
      <trkpt lat="45.79678" lon="6.3999">
        <ele>1669.1999511719</ele>
        <time>2019-02-17T10:32:49.000Z</time>
      </trkpt>
      <trkpt lat="45.79677" lon="6.39987">
        <ele>1667.8000488281</ele>
        <time>2019-02-17T10:32:50.000Z</time>
      </trkpt>
      <trkpt lat="45.79679" lon="6.39982">
        <ele>1666</ele>
        <time>2019-02-17T10:32:52.000Z</time>
      </trkpt>
      <trkpt lat="45.79686" lon="6.39962">
        <ele>1664</ele>
        <time>2019-02-17T10:32:54.000Z</time>
      </trkpt>
      <trkpt lat="45.79686" lon="6.39949">
        <ele>1662</ele>
        <time>2019-02-17T10:32:55.000Z</time>
      </trkpt>
      <trkpt lat="45.79684" lon="6.39938">
        <ele>1659</ele>
        <time>2019-02-17T10:32:56.000Z</time>
      </trkpt>
      <trkpt lat="45.79681" lon="6.39926">
        <ele>1655.4000244141</ele>
        <time>2019-02-17T10:32:57.000Z</time>
      </trkpt>
      <trkpt lat="45.79676" lon="6.39906">
        <ele>1647.4000244141</ele>
        <time>2019-02-17T10:32:59.000Z</time>
      </trkpt>
      <trkpt lat="45.79678" lon="6.39894">
        <ele>1646</ele>
        <time>2019-02-17T10:33:00.000Z</time>
      </trkpt>
      <trkpt lat="45.79679" lon="6.39884">
        <ele>1645</ele>
        <time>2019-02-17T10:33:01.000Z</time>
      </trkpt>
      <trkpt lat="45.79679" lon="6.39878">
        <ele>1644</ele>
        <time>2019-02-17T10:33:02.000Z</time>
      </trkpt>
      <trkpt lat="45.79679" lon="6.39876">
        <ele>1642.4000244141</ele>
        <time>2019-02-17T10:33:03.000Z</time>
      </trkpt>
      <trkpt lat="45.7968" lon="6.39874">
        <ele>1640.1999511719</ele>
        <time>2019-02-17T10:33:04.000Z</time>
      </trkpt>
      <trkpt lat="45.79683" lon="6.39874">
        <ele>1637.8000488281</ele>
        <time>2019-02-17T10:33:05.000Z</time>
      </trkpt>
      <trkpt lat="45.79684" lon="6.39873">
        <ele>1636</ele>
        <time>2019-02-17T10:33:06.000Z</time>
      </trkpt>
      <trkpt lat="45.79687" lon="6.39873">
        <ele>1634.8000488281</ele>
        <time>2019-02-17T10:33:07.000Z</time>
      </trkpt>
      <trkpt lat="45.79687" lon="6.39873">
        <ele>1633.5999755859</ele>
        <time>2019-02-17T10:33:10.000Z</time>
      </trkpt>
      <trkpt lat="45.79687" lon="6.39873">
        <ele>1633.4000244141</ele>
        <time>2019-02-17T10:33:13.000Z</time>
      </trkpt>
      <trkpt lat="45.79687" lon="6.39873">
        <ele>1633.4000244141</ele>
        <time>2019-02-17T10:33:28.000Z</time>
      </trkpt>
      <trkpt lat="45.79687" lon="6.39873">
        <ele>1633.4000244141</ele>
        <time>2019-02-17T10:33:41.000Z</time>
      </trkpt>
      <trkpt lat="45.79687" lon="6.39873">
        <ele>1633.4000244141</ele>
        <time>2019-02-17T10:33:43.000Z</time>
      </trkpt>
      <trkpt lat="45.79687" lon="6.39871">
        <ele>1633.4000244141</ele>
        <time>2019-02-17T10:33:45.000Z</time>
      </trkpt>
      <trkpt lat="45.79697" lon="6.39864">
        <ele>1633.1999511719</ele>
        <time>2019-02-17T10:33:47.000Z</time>
      </trkpt>
      <trkpt lat="45.79702" lon="6.39852">
        <ele>1632.5999755859</ele>
        <time>2019-02-17T10:33:49.000Z</time>
      </trkpt>
      <trkpt lat="45.79705" lon="6.39843">
        <ele>1631.5999755859</ele>
        <time>2019-02-17T10:33:51.000Z</time>
      </trkpt>
      <trkpt lat="45.79709" lon="6.39838">
        <ele>1630.1999511719</ele>
        <time>2019-02-17T10:33:53.000Z</time>
      </trkpt>
      <trkpt lat="45.79711" lon="6.39838">
        <ele>1629.4000244141</ele>
        <time>2019-02-17T10:33:54.000Z</time>
      </trkpt>
      <trkpt lat="45.79714" lon="6.39835">
        <ele>1628.1999511719</ele>
        <time>2019-02-17T10:33:55.000Z</time>
      </trkpt>
      <trkpt lat="45.79718" lon="6.39831">
        <ele>1627</ele>
        <time>2019-02-17T10:33:56.000Z</time>
      </trkpt>
      <trkpt lat="45.79721" lon="6.39827">
        <ele>1626</ele>
        <time>2019-02-17T10:33:57.000Z</time>
      </trkpt>
      <trkpt lat="45.79724" lon="6.39823">
        <ele>1625.4000244141</ele>
        <time>2019-02-17T10:33:58.000Z</time>
      </trkpt>
      <trkpt lat="45.79726" lon="6.39822">
        <ele>1624.4000244141</ele>
        <time>2019-02-17T10:33:59.000Z</time>
      </trkpt>
      <trkpt lat="45.79727" lon="6.39817">
        <ele>1622.1999511719</ele>
        <time>2019-02-17T10:34:00.000Z</time>
      </trkpt>
      <trkpt lat="45.79729" lon="6.39812">
        <ele>1619.1999511719</ele>
        <time>2019-02-17T10:34:01.000Z</time>
      </trkpt>
      <trkpt lat="45.79731" lon="6.39804">
        <ele>1616.5999755859</ele>
        <time>2019-02-17T10:34:02.000Z</time>
      </trkpt>
      <trkpt lat="45.79731" lon="6.39796">
        <ele>1614.8000488281</ele>
        <time>2019-02-17T10:34:03.000Z</time>
      </trkpt>
      <trkpt lat="45.79731" lon="6.39787">
        <ele>1613.1999511719</ele>
        <time>2019-02-17T10:34:04.000Z</time>
      </trkpt>
      <trkpt lat="45.79731" lon="6.39778">
        <ele>1610.8000488281</ele>
        <time>2019-02-17T10:34:05.000Z</time>
      </trkpt>
      <trkpt lat="45.7973" lon="6.39771">
        <ele>1607.5999755859</ele>
        <time>2019-02-17T10:34:06.000Z</time>
      </trkpt>
      <trkpt lat="45.79732" lon="6.39768">
        <ele>1604.4000244141</ele>
        <time>2019-02-17T10:34:07.000Z</time>
      </trkpt>
      <trkpt lat="45.79735" lon="6.39762">
        <ele>1601.4000244141</ele>
        <time>2019-02-17T10:34:08.000Z</time>
      </trkpt>
      <trkpt lat="45.79738" lon="6.39757">
        <ele>1598.8000488281</ele>
        <time>2019-02-17T10:34:09.000Z</time>
      </trkpt>
      <trkpt lat="45.79738" lon="6.39751">
        <ele>1594.5999755859</ele>
        <time>2019-02-17T10:34:10.000Z</time>
      </trkpt>
      <trkpt lat="45.79736" lon="6.39744">
        <ele>1592.4000244141</ele>
        <time>2019-02-17T10:34:11.000Z</time>
      </trkpt>
      <trkpt lat="45.79735" lon="6.39736">
        <ele>1590.1999511719</ele>
        <time>2019-02-17T10:34:12.000Z</time>
      </trkpt>
      <trkpt lat="45.79737" lon="6.39725">
        <ele>1587.8000488281</ele>
        <time>2019-02-17T10:34:13.000Z</time>
      </trkpt>
      <trkpt lat="45.79737" lon="6.39715">
        <ele>1586</ele>
        <time>2019-02-17T10:34:14.000Z</time>
      </trkpt>
      <trkpt lat="45.79738" lon="6.3971">
        <ele>1584.4000244141</ele>
        <time>2019-02-17T10:34:15.000Z</time>
      </trkpt>
      <trkpt lat="45.7974" lon="6.39704">
        <ele>1582.8000488281</ele>
        <time>2019-02-17T10:34:16.000Z</time>
      </trkpt>
      <trkpt lat="45.79738" lon="6.39697">
        <ele>1581</ele>
        <time>2019-02-17T10:34:17.000Z</time>
      </trkpt>
      <trkpt lat="45.79738" lon="6.39688">
        <ele>1579</ele>
        <time>2019-02-17T10:34:18.000Z</time>
      </trkpt>
      <trkpt lat="45.79737" lon="6.39681">
        <ele>1577.4000244141</ele>
        <time>2019-02-17T10:34:20.000Z</time>
      </trkpt>
      <trkpt lat="45.79737" lon="6.39674">
        <ele>1576</ele>
        <time>2019-02-17T10:34:21.000Z</time>
      </trkpt>
      <trkpt lat="45.79734" lon="6.39668">
        <ele>1574.8000488281</ele>
        <time>2019-02-17T10:34:22.000Z</time>
      </trkpt>
      <trkpt lat="45.79732" lon="6.39664">
        <ele>1573.5999755859</ele>
        <time>2019-02-17T10:34:23.000Z</time>
      </trkpt>
      <trkpt lat="45.79732" lon="6.39661">
        <ele>1572.1999511719</ele>
        <time>2019-02-17T10:34:24.000Z</time>
      </trkpt>
      <trkpt lat="45.79731" lon="6.39658">
        <ele>1570.5999755859</ele>
        <time>2019-02-17T10:34:25.000Z</time>
      </trkpt>
      <trkpt lat="45.7973" lon="6.39656">
        <ele>1569.5999755859</ele>
        <time>2019-02-17T10:34:26.000Z</time>
      </trkpt>
      <trkpt lat="45.79729" lon="6.3965">
        <ele>1568.4000244141</ele>
        <time>2019-02-17T10:34:28.000Z</time>
      </trkpt>
      <trkpt lat="45.7973" lon="6.39647">
        <ele>1568.1999511719</ele>
        <time>2019-02-17T10:34:29.000Z</time>
      </trkpt>
      <trkpt lat="45.79734" lon="6.39629">
        <ele>1567.8000488281</ele>
        <time>2019-02-17T10:34:32.000Z</time>
      </trkpt>
      <trkpt lat="45.79729" lon="6.39616">
        <ele>1566.8000488281</ele>
        <time>2019-02-17T10:34:34.000Z</time>
      </trkpt>
      <trkpt lat="45.79726" lon="6.3961">
        <ele>1564</ele>
        <time>2019-02-17T10:34:35.000Z</time>
      </trkpt>
      <trkpt lat="45.79724" lon="6.39604">
        <ele>1562.1999511719</ele>
        <time>2019-02-17T10:34:36.000Z</time>
      </trkpt>
      <trkpt lat="45.79721" lon="6.39599">
        <ele>1560.8000488281</ele>
        <time>2019-02-17T10:34:37.000Z</time>
      </trkpt>
      <trkpt lat="45.79718" lon="6.39593">
        <ele>1559.8000488281</ele>
        <time>2019-02-17T10:34:38.000Z</time>
      </trkpt>
      <trkpt lat="45.79714" lon="6.39588">
        <ele>1559</ele>
        <time>2019-02-17T10:34:39.000Z</time>
      </trkpt>
      <trkpt lat="45.7971" lon="6.39583">
        <ele>1558.1999511719</ele>
        <time>2019-02-17T10:34:40.000Z</time>
      </trkpt>
      <trkpt lat="45.79707" lon="6.39578">
        <ele>1557.4000244141</ele>
        <time>2019-02-17T10:34:41.000Z</time>
      </trkpt>
      <trkpt lat="45.79704" lon="6.39571">
        <ele>1556.4000244141</ele>
        <time>2019-02-17T10:34:42.000Z</time>
      </trkpt>
      <trkpt lat="45.79702" lon="6.39564">
        <ele>1555.4000244141</ele>
        <time>2019-02-17T10:34:43.000Z</time>
      </trkpt>
      <trkpt lat="45.797" lon="6.39558">
        <ele>1554.5999755859</ele>
        <time>2019-02-17T10:34:44.000Z</time>
      </trkpt>
      <trkpt lat="45.79699" lon="6.3955">
        <ele>1553.5999755859</ele>
        <time>2019-02-17T10:34:45.000Z</time>
      </trkpt>
      <trkpt lat="45.79698" lon="6.39543">
        <ele>1552.8000488281</ele>
        <time>2019-02-17T10:34:46.000Z</time>
      </trkpt>
      <trkpt lat="45.79696" lon="6.39537">
        <ele>1551.8000488281</ele>
        <time>2019-02-17T10:34:47.000Z</time>
      </trkpt>
      <trkpt lat="45.79696" lon="6.39531">
        <ele>1550.8000488281</ele>
        <time>2019-02-17T10:34:48.000Z</time>
      </trkpt>
      <trkpt lat="45.79696" lon="6.39525">
        <ele>1549.5999755859</ele>
        <time>2019-02-17T10:34:49.000Z</time>
      </trkpt>
      <trkpt lat="45.79696" lon="6.39516">
        <ele>1548.1999511719</ele>
        <time>2019-02-17T10:34:50.000Z</time>
      </trkpt>
      <trkpt lat="45.79695" lon="6.39506">
        <ele>1547</ele>
        <time>2019-02-17T10:34:51.000Z</time>
      </trkpt>
      <trkpt lat="45.79693" lon="6.39497">
        <ele>1545.5999755859</ele>
        <time>2019-02-17T10:34:52.000Z</time>
      </trkpt>
      <trkpt lat="45.79691" lon="6.39491">
        <ele>1544.4000244141</ele>
        <time>2019-02-17T10:34:53.000Z</time>
      </trkpt>
      <trkpt lat="45.79689" lon="6.39484">
        <ele>1543</ele>
        <time>2019-02-17T10:34:54.000Z</time>
      </trkpt>
      <trkpt lat="45.79687" lon="6.39477">
        <ele>1541.4000244141</ele>
        <time>2019-02-17T10:34:55.000Z</time>
      </trkpt>
      <trkpt lat="45.79686" lon="6.39471">
        <ele>1540.1999511719</ele>
        <time>2019-02-17T10:34:56.000Z</time>
      </trkpt>
      <trkpt lat="45.79683" lon="6.39461">
        <ele>1538.4000244141</ele>
        <time>2019-02-17T10:34:58.000Z</time>
      </trkpt>
      <trkpt lat="45.79681" lon="6.39454">
        <ele>1536.5999755859</ele>
        <time>2019-02-17T10:34:59.000Z</time>
      </trkpt>
      <trkpt lat="45.79676" lon="6.39441">
        <ele>1535</ele>
        <time>2019-02-17T10:35:01.000Z</time>
      </trkpt>
      <trkpt lat="45.79673" lon="6.39433">
        <ele>1534.1999511719</ele>
        <time>2019-02-17T10:35:02.000Z</time>
      </trkpt>
      <trkpt lat="45.79669" lon="6.39426">
        <ele>1533</ele>
        <time>2019-02-17T10:35:03.000Z</time>
      </trkpt>
      <trkpt lat="45.79665" lon="6.39418">
        <ele>1531.8000488281</ele>
        <time>2019-02-17T10:35:04.000Z</time>
      </trkpt>
      <trkpt lat="45.79661" lon="6.39411">
        <ele>1530.4000244141</ele>
        <time>2019-02-17T10:35:05.000Z</time>
      </trkpt>
      <trkpt lat="45.79657" lon="6.39403">
        <ele>1529.1999511719</ele>
        <time>2019-02-17T10:35:06.000Z</time>
      </trkpt>
      <trkpt lat="45.79653" lon="6.39395">
        <ele>1528</ele>
        <time>2019-02-17T10:35:07.000Z</time>
      </trkpt>
      <trkpt lat="45.79649" lon="6.39387">
        <ele>1526.5999755859</ele>
        <time>2019-02-17T10:35:08.000Z</time>
      </trkpt>
      <trkpt lat="45.79646" lon="6.39378">
        <ele>1525.4000244141</ele>
        <time>2019-02-17T10:35:09.000Z</time>
      </trkpt>
      <trkpt lat="45.79643" lon="6.39371">
        <ele>1524.4000244141</ele>
        <time>2019-02-17T10:35:10.000Z</time>
      </trkpt>
      <trkpt lat="45.79639" lon="6.39357">
        <ele>1522.5999755859</ele>
        <time>2019-02-17T10:35:12.000Z</time>
      </trkpt>
      <trkpt lat="45.79636" lon="6.39342">
        <ele>1521.4000244141</ele>
        <time>2019-02-17T10:35:14.000Z</time>
      </trkpt>
      <trkpt lat="45.79633" lon="6.39334">
        <ele>1520.8000488281</ele>
        <time>2019-02-17T10:35:15.000Z</time>
      </trkpt>
      <trkpt lat="45.79629" lon="6.39327">
        <ele>1520.1999511719</ele>
        <time>2019-02-17T10:35:16.000Z</time>
      </trkpt>
      <trkpt lat="45.79624" lon="6.39319">
        <ele>1518.5999755859</ele>
        <time>2019-02-17T10:35:18.000Z</time>
      </trkpt>
      <trkpt lat="45.79623" lon="6.39317">
        <ele>1517.8000488281</ele>
        <time>2019-02-17T10:35:19.000Z</time>
      </trkpt>
      <trkpt lat="45.79614" lon="6.39309">
        <ele>1517.1999511719</ele>
        <time>2019-02-17T10:35:20.000Z</time>
      </trkpt>
      <trkpt lat="45.79596" lon="6.39313">
        <ele>1516</ele>
        <time>2019-02-17T10:35:22.000Z</time>
      </trkpt>
      <trkpt lat="45.796" lon="6.39362">
        <ele>1515.4000244141</ele>
        <time>2019-02-17T10:35:24.000Z</time>
      </trkpt>
      <trkpt lat="45.79594" lon="6.39385">
        <ele>1515.1999511719</ele>
        <time>2019-02-17T10:35:34.000Z</time>
      </trkpt>
      <trkpt lat="45.79594" lon="6.39384">
        <ele>1515.1999511719</ele>
        <time>2019-02-17T10:35:35.000Z</time>
      </trkpt>
      <trkpt lat="45.79588" lon="6.39378">
        <ele>1515.1999511719</ele>
        <time>2019-02-17T10:35:38.000Z</time>
      </trkpt>
      <trkpt lat="45.79585" lon="6.39375">
        <ele>1515</ele>
        <time>2019-02-17T10:35:39.000Z</time>
      </trkpt>
      <trkpt lat="45.7958" lon="6.39368">
        <ele>1513.8000488281</ele>
        <time>2019-02-17T10:35:41.000Z</time>
      </trkpt>
      <trkpt lat="45.79573" lon="6.39363">
        <ele>1512.1999511719</ele>
        <time>2019-02-17T10:35:43.000Z</time>
      </trkpt>
      <trkpt lat="45.79569" lon="6.3936">
        <ele>1510.8000488281</ele>
        <time>2019-02-17T10:35:45.000Z</time>
      </trkpt>
      <trkpt lat="45.79568" lon="6.39361">
        <ele>1509.5999755859</ele>
        <time>2019-02-17T10:35:47.000Z</time>
      </trkpt>
      <trkpt lat="45.79564" lon="6.39359">
        <ele>1509.4000244141</ele>
        <time>2019-02-17T10:36:04.000Z</time>
      </trkpt>
      <trkpt lat="45.79557" lon="6.39352">
        <ele>1509.1999511719</ele>
        <time>2019-02-17T10:36:08.000Z</time>
      </trkpt>
      <trkpt lat="45.79554" lon="6.39349">
        <ele>1509.1999511719</ele>
        <time>2019-02-17T10:36:09.000Z</time>
      </trkpt>
      <trkpt lat="45.79548" lon="6.39342">
        <ele>1508.4000244141</ele>
        <time>2019-02-17T10:36:11.000Z</time>
      </trkpt>
      <trkpt lat="45.79545" lon="6.3934">
        <ele>1508</ele>
        <time>2019-02-17T10:36:12.000Z</time>
      </trkpt>
      <trkpt lat="45.7954" lon="6.39333">
        <ele>1506.8000488281</ele>
        <time>2019-02-17T10:36:14.000Z</time>
      </trkpt>
      <trkpt lat="45.79534" lon="6.39327">
        <ele>1505.4000244141</ele>
        <time>2019-02-17T10:36:16.000Z</time>
      </trkpt>
      <trkpt lat="45.79531" lon="6.39322">
        <ele>1504.5999755859</ele>
        <time>2019-02-17T10:36:17.000Z</time>
      </trkpt>
      <trkpt lat="45.79527" lon="6.39317">
        <ele>1503.8000488281</ele>
        <time>2019-02-17T10:36:18.000Z</time>
      </trkpt>
      <trkpt lat="45.79521" lon="6.39309">
        <ele>1502.1999511719</ele>
        <time>2019-02-17T10:36:20.000Z</time>
      </trkpt>
      <trkpt lat="45.79518" lon="6.39307">
        <ele>1501.4000244141</ele>
        <time>2019-02-17T10:36:21.000Z</time>
      </trkpt>
      <trkpt lat="45.79517" lon="6.39306">
        <ele>1500.5999755859</ele>
        <time>2019-02-17T10:36:22.000Z</time>
      </trkpt>
      <trkpt lat="45.79516" lon="6.39306">
        <ele>1499</ele>
        <time>2019-02-17T10:36:24.000Z</time>
      </trkpt>
      <trkpt lat="45.79513" lon="6.39307">
        <ele>1498.1999511719</ele>
        <time>2019-02-17T10:36:31.000Z</time>
      </trkpt>
      <trkpt lat="45.7951" lon="6.39304">
        <ele>1497.8000488281</ele>
        <time>2019-02-17T10:36:34.000Z</time>
      </trkpt>
      <trkpt lat="45.79508" lon="6.39302">
        <ele>1496.5999755859</ele>
        <time>2019-02-17T10:36:36.000Z</time>
      </trkpt>
      <trkpt lat="45.79505" lon="6.393">
        <ele>1495.8000488281</ele>
        <time>2019-02-17T10:36:38.000Z</time>
      </trkpt>
      <trkpt lat="45.79503" lon="6.39298">
        <ele>1495.4000244141</ele>
        <time>2019-02-17T10:36:39.000Z</time>
      </trkpt>
      <trkpt lat="45.79502" lon="6.39297">
        <ele>1494.8000488281</ele>
        <time>2019-02-17T10:36:40.000Z</time>
      </trkpt>
      <trkpt lat="45.795" lon="6.39295">
        <ele>1494</ele>
        <time>2019-02-17T10:36:41.000Z</time>
      </trkpt>
      <trkpt lat="45.79494" lon="6.3929">
        <ele>1492.4000244141</ele>
        <time>2019-02-17T10:36:43.000Z</time>
      </trkpt>
      <trkpt lat="45.79492" lon="6.39288">
        <ele>1491.4000244141</ele>
        <time>2019-02-17T10:36:44.000Z</time>
      </trkpt>
      <trkpt lat="45.79489" lon="6.39286">
        <ele>1490.5999755859</ele>
        <time>2019-02-17T10:36:45.000Z</time>
      </trkpt>
      <trkpt lat="45.79482" lon="6.39281">
        <ele>1489.1999511719</ele>
        <time>2019-02-17T10:36:47.000Z</time>
      </trkpt>
      <trkpt lat="45.7948" lon="6.39278">
        <ele>1488.8000488281</ele>
        <time>2019-02-17T10:36:48.000Z</time>
      </trkpt>
      <trkpt lat="45.79475" lon="6.39274">
        <ele>1487.8000488281</ele>
        <time>2019-02-17T10:36:50.000Z</time>
      </trkpt>
      <trkpt lat="45.79471" lon="6.39272">
        <ele>1486.8000488281</ele>
        <time>2019-02-17T10:36:52.000Z</time>
      </trkpt>
      <trkpt lat="45.79471" lon="6.39271">
        <ele>1486.1999511719</ele>
        <time>2019-02-17T10:36:53.000Z</time>
      </trkpt>
      <trkpt lat="45.79469" lon="6.39268">
        <ele>1485.5999755859</ele>
        <time>2019-02-17T10:36:55.000Z</time>
      </trkpt>
      <trkpt lat="45.79465" lon="6.39262">
        <ele>1485.4000244141</ele>
        <time>2019-02-17T10:37:00.000Z</time>
      </trkpt>
      <trkpt lat="45.79462" lon="6.39258">
        <ele>1485.1999511719</ele>
        <time>2019-02-17T10:37:06.000Z</time>
      </trkpt>
      <trkpt lat="45.79462" lon="6.39258">
        <ele>1485.5999755859</ele>
        <time>2019-02-17T10:37:18.000Z</time>
      </trkpt>
      <trkpt lat="45.79462" lon="6.39258">
        <ele>1485.1999511719</ele>
        <time>2019-02-17T10:37:24.000Z</time>
      </trkpt>
      <trkpt lat="45.79462" lon="6.39258">
        <ele>1485</ele>
        <time>2019-02-17T10:37:36.000Z</time>
      </trkpt>
      <trkpt lat="45.79462" lon="6.39257">
        <ele>1485</ele>
        <time>2019-02-17T10:37:47.000Z</time>
      </trkpt>
      <trkpt lat="45.79462" lon="6.39257">
        <ele>1485</ele>
        <time>2019-02-17T10:38:02.000Z</time>
      </trkpt>
      <trkpt lat="45.79462" lon="6.39257">
        <ele>1484.8000488281</ele>
        <time>2019-02-17T10:38:14.000Z</time>
      </trkpt>
      <trkpt lat="45.79462" lon="6.39257">
        <ele>1485.8000488281</ele>
        <time>2019-02-17T10:38:24.000Z</time>
      </trkpt>
      <trkpt lat="45.79463" lon="6.39257">
        <ele>1485.1999511719</ele>
        <time>2019-02-17T10:38:36.000Z</time>
      </trkpt>
      <trkpt lat="45.79463" lon="6.39257">
        <ele>1485.1999511719</ele>
        <time>2019-02-17T10:38:51.000Z</time>
      </trkpt>
      <trkpt lat="45.79463" lon="6.39257">
        <ele>1485.1999511719</ele>
        <time>2019-02-17T10:39:02.000Z</time>
      </trkpt>
      <trkpt lat="45.79462" lon="6.39257">
        <ele>1485.1999511719</ele>
        <time>2019-02-17T10:39:18.000Z</time>
      </trkpt>
      <trkpt lat="45.79462" lon="6.39257">
        <ele>1485.1999511719</ele>
        <time>2019-02-17T10:39:34.000Z</time>
      </trkpt>
      <trkpt lat="45.79463" lon="6.39256">
        <ele>1485.5999755859</ele>
        <time>2019-02-17T10:39:46.000Z</time>
      </trkpt>
      <trkpt lat="45.79463" lon="6.39256">
        <ele>1485.4000244141</ele>
        <time>2019-02-17T10:39:53.000Z</time>
      </trkpt>
      <trkpt lat="45.79463" lon="6.39256">
        <ele>1485.1999511719</ele>
        <time>2019-02-17T10:40:05.000Z</time>
      </trkpt>
      <trkpt lat="45.79463" lon="6.39256">
        <ele>1485.1999511719</ele>
        <time>2019-02-17T10:40:19.000Z</time>
      </trkpt>
      <trkpt lat="45.79462" lon="6.39256">
        <ele>1485.4000244141</ele>
        <time>2019-02-17T10:40:32.000Z</time>
      </trkpt>
      <trkpt lat="45.79462" lon="6.39256">
        <ele>1485.4000244141</ele>
        <time>2019-02-17T10:40:51.000Z</time>
      </trkpt>
      <trkpt lat="45.79462" lon="6.39256">
        <ele>1485.4000244141</ele>
        <time>2019-02-17T10:41:04.000Z</time>
      </trkpt>
      <trkpt lat="45.79462" lon="6.39256">
        <ele>1485.4000244141</ele>
        <time>2019-02-17T10:41:18.000Z</time>
      </trkpt>
      <trkpt lat="45.79462" lon="6.39256">
        <ele>1485.4000244141</ele>
        <time>2019-02-17T10:41:34.000Z</time>
      </trkpt>
      <trkpt lat="45.79462" lon="6.39256">
        <ele>1485.4000244141</ele>
        <time>2019-02-17T10:41:48.000Z</time>
      </trkpt>
      <trkpt lat="45.79462" lon="6.39256">
        <ele>1485.1999511719</ele>
        <time>2019-02-17T10:42:02.000Z</time>
      </trkpt>
      <trkpt lat="45.79462" lon="6.39256">
        <ele>1485.1999511719</ele>
        <time>2019-02-17T10:42:16.000Z</time>
      </trkpt>
      <trkpt lat="45.79462" lon="6.39256">
        <ele>1485.1999511719</ele>
        <time>2019-02-17T10:42:27.000Z</time>
      </trkpt>
      <trkpt lat="45.79462" lon="6.39256">
        <ele>1485.1999511719</ele>
        <time>2019-02-17T10:42:42.000Z</time>
      </trkpt>
      <trkpt lat="45.79462" lon="6.39256">
        <ele>1485.4000244141</ele>
        <time>2019-02-17T10:42:54.000Z</time>
      </trkpt>
      <trkpt lat="45.79462" lon="6.39256">
        <ele>1485.4000244141</ele>
        <time>2019-02-17T10:43:07.000Z</time>
      </trkpt>
      <trkpt lat="45.79462" lon="6.39256">
        <ele>1485.4000244141</ele>
        <time>2019-02-17T10:43:20.000Z</time>
      </trkpt>
      <trkpt lat="45.79461" lon="6.39256">
        <ele>1484.1999511719</ele>
        <time>2019-02-17T10:43:25.000Z</time>
      </trkpt>
      <trkpt lat="45.79461" lon="6.39256">
        <ele>1485.5999755859</ele>
        <time>2019-02-17T10:43:31.000Z</time>
      </trkpt>
      <trkpt lat="45.79461" lon="6.39256">
        <ele>1485.8000488281</ele>
        <time>2019-02-17T10:43:36.000Z</time>
      </trkpt>
      <trkpt lat="45.79461" lon="6.39256">
        <ele>1485.8000488281</ele>
        <time>2019-02-17T10:43:45.000Z</time>
      </trkpt>
      <trkpt lat="45.79461" lon="6.39256">
        <ele>1485</ele>
        <time>2019-02-17T10:43:57.000Z</time>
      </trkpt>
      <trkpt lat="45.79461" lon="6.39256">
        <ele>1485.4000244141</ele>
        <time>2019-02-17T10:44:10.000Z</time>
      </trkpt>
      <trkpt lat="45.79461" lon="6.39254">
        <ele>1485.1999511719</ele>
        <time>2019-02-17T10:44:13.000Z</time>
      </trkpt>
      <trkpt lat="45.79461" lon="6.39252">
        <ele>1485.4000244141</ele>
        <time>2019-02-17T10:44:15.000Z</time>
      </trkpt>
      <trkpt lat="45.79461" lon="6.39251">
        <ele>1485</ele>
        <time>2019-02-17T10:44:23.000Z</time>
      </trkpt>
      <trkpt lat="45.79461" lon="6.39251">
        <ele>1484.4000244141</ele>
        <time>2019-02-17T10:44:32.000Z</time>
      </trkpt>
      <trkpt lat="45.79461" lon="6.39251">
        <ele>1485.1999511719</ele>
        <time>2019-02-17T10:44:38.000Z</time>
      </trkpt>
      <trkpt lat="45.79461" lon="6.39251">
        <ele>1485.4000244141</ele>
        <time>2019-02-17T10:44:39.000Z</time>
      </trkpt>
      <trkpt lat="45.79462" lon="6.39254">
        <ele>1484.8000488281</ele>
        <time>2019-02-17T10:44:47.000Z</time>
      </trkpt>
      <trkpt lat="45.79462" lon="6.39255">
        <ele>1485.4000244141</ele>
        <time>2019-02-17T10:44:54.000Z</time>
      </trkpt>
      <trkpt lat="45.79462" lon="6.39255">
        <ele>1485.1999511719</ele>
        <time>2019-02-17T10:45:04.000Z</time>
      </trkpt>
      <trkpt lat="45.79462" lon="6.39255">
        <ele>1485.1999511719</ele>
        <time>2019-02-17T10:45:10.000Z</time>
      </trkpt>
      <trkpt lat="45.79462" lon="6.39255">
        <ele>1485.8000488281</ele>
        <time>2019-02-17T10:45:25.000Z</time>
      </trkpt>
      <trkpt lat="45.79462" lon="6.39255">
        <ele>1484.1999511719</ele>
        <time>2019-02-17T10:45:35.000Z</time>
      </trkpt>
      <trkpt lat="45.79462" lon="6.39255">
        <ele>1483.1999511719</ele>
        <time>2019-02-17T10:45:37.000Z</time>
      </trkpt>
      <trkpt lat="45.79462" lon="6.39255">
        <ele>1483.1999511719</ele>
        <time>2019-02-17T10:45:38.000Z</time>
      </trkpt>
      <trkpt lat="45.79462" lon="6.39255">
        <ele>1484.5999755859</ele>
        <time>2019-02-17T10:45:42.000Z</time>
      </trkpt>
      <trkpt lat="45.79462" lon="6.39254">
        <ele>1485</ele>
        <time>2019-02-17T10:45:53.000Z</time>
      </trkpt>
      <trkpt lat="45.79462" lon="6.39254">
        <ele>1485.8000488281</ele>
        <time>2019-02-17T10:45:58.000Z</time>
      </trkpt>
      <trkpt lat="45.79462" lon="6.39254">
        <ele>1486.1999511719</ele>
        <time>2019-02-17T10:46:07.000Z</time>
      </trkpt>
      <trkpt lat="45.79462" lon="6.39254">
        <ele>1485.8000488281</ele>
        <time>2019-02-17T10:46:19.000Z</time>
      </trkpt>
      <trkpt lat="45.79463" lon="6.39254">
        <ele>1485.5999755859</ele>
        <time>2019-02-17T10:46:31.000Z</time>
      </trkpt>
      <trkpt lat="45.79463" lon="6.39254">
        <ele>1485.5999755859</ele>
        <time>2019-02-17T10:46:44.000Z</time>
      </trkpt>
      <trkpt lat="45.79463" lon="6.39254">
        <ele>1485.5999755859</ele>
        <time>2019-02-17T10:47:02.000Z</time>
      </trkpt>
      <trkpt lat="45.79462" lon="6.39254">
        <ele>1485.5999755859</ele>
        <time>2019-02-17T10:47:17.000Z</time>
      </trkpt>
      <trkpt lat="45.79462" lon="6.39254">
        <ele>1485.5999755859</ele>
        <time>2019-02-17T10:47:31.000Z</time>
      </trkpt>
      <trkpt lat="45.79463" lon="6.39255">
        <ele>1486</ele>
        <time>2019-02-17T10:47:36.000Z</time>
      </trkpt>
      <trkpt lat="45.79463" lon="6.39255">
        <ele>1485.5999755859</ele>
        <time>2019-02-17T10:47:51.000Z</time>
      </trkpt>
      <trkpt lat="45.79463" lon="6.39255">
        <ele>1485.5999755859</ele>
        <time>2019-02-17T10:48:06.000Z</time>
      </trkpt>
      <trkpt lat="45.79462" lon="6.39256">
        <ele>1486.4000244141</ele>
        <time>2019-02-17T10:48:22.000Z</time>
      </trkpt>
      <trkpt lat="45.79462" lon="6.39256">
        <ele>1485.8000488281</ele>
        <time>2019-02-17T10:48:34.000Z</time>
      </trkpt>
      <trkpt lat="45.79462" lon="6.39256">
        <ele>1485.8000488281</ele>
        <time>2019-02-17T10:48:52.000Z</time>
      </trkpt>
      <trkpt lat="45.79462" lon="6.39256">
        <ele>1485.5999755859</ele>
        <time>2019-02-17T10:49:11.000Z</time>
      </trkpt>
      <trkpt lat="45.79461" lon="6.39255">
        <ele>1485.8000488281</ele>
        <time>2019-02-17T10:49:21.000Z</time>
      </trkpt>
      <trkpt lat="45.79461" lon="6.39254">
        <ele>1485.5999755859</ele>
        <time>2019-02-17T10:49:33.000Z</time>
      </trkpt>
      <trkpt lat="45.7946" lon="6.39253">
        <ele>1486.4000244141</ele>
        <time>2019-02-17T10:49:39.000Z</time>
      </trkpt>
      <trkpt lat="45.79458" lon="6.39252">
        <ele>1486.1999511719</ele>
        <time>2019-02-17T10:49:44.000Z</time>
      </trkpt>
      <trkpt lat="45.79457" lon="6.39248">
        <ele>1487.4000244141</ele>
        <time>2019-02-17T10:49:48.000Z</time>
      </trkpt>
      <trkpt lat="45.79457" lon="6.39247">
        <ele>1488</ele>
        <time>2019-02-17T10:49:50.000Z</time>
      </trkpt>
      <trkpt lat="45.79456" lon="6.39243">
        <ele>1488.4000244141</ele>
        <time>2019-02-17T10:49:54.000Z</time>
      </trkpt>
      <trkpt lat="45.79456" lon="6.39243">
        <ele>1488.4000244141</ele>
        <time>2019-02-17T10:49:56.000Z</time>
      </trkpt>
      <trkpt lat="45.79453" lon="6.39238">
        <ele>1488.5999755859</ele>
        <time>2019-02-17T10:50:00.000Z</time>
      </trkpt>
      <trkpt lat="45.79452" lon="6.39236">
        <ele>1488.5999755859</ele>
        <time>2019-02-17T10:50:02.000Z</time>
      </trkpt>
      <trkpt lat="45.79451" lon="6.39233">
        <ele>1489.1999511719</ele>
        <time>2019-02-17T10:50:07.000Z</time>
      </trkpt>
      <trkpt lat="45.7945" lon="6.39232">
        <ele>1489.4000244141</ele>
        <time>2019-02-17T10:50:08.000Z</time>
      </trkpt>
      <trkpt lat="45.79449" lon="6.39226">
        <ele>1490.1999511719</ele>
        <time>2019-02-17T10:50:13.000Z</time>
      </trkpt>
      <trkpt lat="45.79447" lon="6.39221">
        <ele>1490.4000244141</ele>
        <time>2019-02-17T10:50:18.000Z</time>
      </trkpt>
      <trkpt lat="45.79447" lon="6.39219">
        <ele>1490.5999755859</ele>
        <time>2019-02-17T10:50:19.000Z</time>
      </trkpt>
      <trkpt lat="45.79445" lon="6.39215">
        <ele>1491.4000244141</ele>
        <time>2019-02-17T10:50:22.000Z</time>
      </trkpt>
      <trkpt lat="45.79444" lon="6.39212">
        <ele>1491.5999755859</ele>
        <time>2019-02-17T10:50:27.000Z</time>
      </trkpt>
      <trkpt lat="45.79442" lon="6.39211">
        <ele>1491.5999755859</ele>
        <time>2019-02-17T10:50:28.000Z</time>
      </trkpt>
      <trkpt lat="45.79442" lon="6.39211">
        <ele>1491.8000488281</ele>
        <time>2019-02-17T10:50:30.000Z</time>
      </trkpt>
      <trkpt lat="45.79442" lon="6.39211">
        <ele>1492.4000244141</ele>
        <time>2019-02-17T10:50:32.000Z</time>
      </trkpt>
      <trkpt lat="45.7944" lon="6.39211">
        <ele>1492</ele>
        <time>2019-02-17T10:50:43.000Z</time>
      </trkpt>
      <trkpt lat="45.7944" lon="6.39211">
        <ele>1492.8000488281</ele>
        <time>2019-02-17T10:50:48.000Z</time>
      </trkpt>
      <trkpt lat="45.7944" lon="6.39211">
        <ele>1492.5999755859</ele>
        <time>2019-02-17T10:51:00.000Z</time>
      </trkpt>
      <trkpt lat="45.7944" lon="6.39211">
        <ele>1492.5999755859</ele>
        <time>2019-02-17T10:51:14.000Z</time>
      </trkpt>
      <trkpt lat="45.7944" lon="6.39213">
        <ele>1492.5999755859</ele>
        <time>2019-02-17T10:51:29.000Z</time>
      </trkpt>
      <trkpt lat="45.79438" lon="6.39219">
        <ele>1491.8000488281</ele>
        <time>2019-02-17T10:51:34.000Z</time>
      </trkpt>
      <trkpt lat="45.79436" lon="6.39224">
        <ele>1493</ele>
        <time>2019-02-17T10:51:37.000Z</time>
      </trkpt>
      <trkpt lat="45.79435" lon="6.39226">
        <ele>1493.5999755859</ele>
        <time>2019-02-17T10:51:40.000Z</time>
      </trkpt>
      <trkpt lat="45.79434" lon="6.39228">
        <ele>1494.4000244141</ele>
        <time>2019-02-17T10:51:43.000Z</time>
      </trkpt>
      <trkpt lat="45.79434" lon="6.39231">
        <ele>1495</ele>
        <time>2019-02-17T10:51:45.000Z</time>
      </trkpt>
      <trkpt lat="45.79433" lon="6.39234">
        <ele>1495.4000244141</ele>
        <time>2019-02-17T10:51:47.000Z</time>
      </trkpt>
      <trkpt lat="45.79434" lon="6.39236">
        <ele>1496.1999511719</ele>
        <time>2019-02-17T10:51:50.000Z</time>
      </trkpt>
      <trkpt lat="45.79434" lon="6.39239">
        <ele>1496.5999755859</ele>
        <time>2019-02-17T10:51:54.000Z</time>
      </trkpt>
      <trkpt lat="45.79434" lon="6.3924">
        <ele>1497.8000488281</ele>
        <time>2019-02-17T10:51:57.000Z</time>
      </trkpt>
      <trkpt lat="45.79434" lon="6.3924">
        <ele>1498</ele>
        <time>2019-02-17T10:51:59.000Z</time>
      </trkpt>
      <trkpt lat="45.79432" lon="6.39239">
        <ele>1499</ele>
        <time>2019-02-17T10:52:02.000Z</time>
      </trkpt>
      <trkpt lat="45.7943" lon="6.39238">
        <ele>1499.8000488281</ele>
        <time>2019-02-17T10:52:05.000Z</time>
      </trkpt>
      <trkpt lat="45.79429" lon="6.39238">
        <ele>1500.1999511719</ele>
        <time>2019-02-17T10:52:06.000Z</time>
      </trkpt>
      <trkpt lat="45.79424" lon="6.39236">
        <ele>1500.1999511719</ele>
        <time>2019-02-17T10:52:12.000Z</time>
      </trkpt>
      <trkpt lat="45.7942" lon="6.39235">
        <ele>1501.4000244141</ele>
        <time>2019-02-17T10:52:19.000Z</time>
      </trkpt>
      <trkpt lat="45.7942" lon="6.39235">
        <ele>1501.5999755859</ele>
        <time>2019-02-17T10:52:20.000Z</time>
      </trkpt>
      <trkpt lat="45.79419" lon="6.39235">
        <ele>1502.8000488281</ele>
        <time>2019-02-17T10:52:23.000Z</time>
      </trkpt>
      <trkpt lat="45.79418" lon="6.39235">
        <ele>1503</ele>
        <time>2019-02-17T10:52:24.000Z</time>
      </trkpt>
      <trkpt lat="45.79417" lon="6.39235">
        <ele>1503.8000488281</ele>
        <time>2019-02-17T10:52:26.000Z</time>
      </trkpt>
      <trkpt lat="45.79416" lon="6.39235">
        <ele>1504.4000244141</ele>
        <time>2019-02-17T10:52:29.000Z</time>
      </trkpt>
      <trkpt lat="45.79416" lon="6.39234">
        <ele>1505</ele>
        <time>2019-02-17T10:52:36.000Z</time>
      </trkpt>
      <trkpt lat="45.79416" lon="6.39234">
        <ele>1505.1999511719</ele>
        <time>2019-02-17T10:52:46.000Z</time>
      </trkpt>
      <trkpt lat="45.79412" lon="6.39236">
        <ele>1505.5999755859</ele>
        <time>2019-02-17T10:52:53.000Z</time>
      </trkpt>
      <trkpt lat="45.7941" lon="6.39236">
        <ele>1505.8000488281</ele>
        <time>2019-02-17T10:52:57.000Z</time>
      </trkpt>
      <trkpt lat="45.79408" lon="6.39237">
        <ele>1506</ele>
        <time>2019-02-17T10:52:59.000Z</time>
      </trkpt>
      <trkpt lat="45.79408" lon="6.39237">
        <ele>1507</ele>
        <time>2019-02-17T10:53:02.000Z</time>
      </trkpt>
      <trkpt lat="45.79411" lon="6.39242">
        <ele>1506.8000488281</ele>
        <time>2019-02-17T10:53:09.000Z</time>
      </trkpt>
      <trkpt lat="45.7941" lon="6.39244">
        <ele>1506.5999755859</ele>
        <time>2019-02-17T10:53:11.000Z</time>
      </trkpt>
      <trkpt lat="45.79411" lon="6.39246">
        <ele>1507.4000244141</ele>
        <time>2019-02-17T10:53:13.000Z</time>
      </trkpt>
      <trkpt lat="45.79411" lon="6.39248">
        <ele>1508.4000244141</ele>
        <time>2019-02-17T10:53:16.000Z</time>
      </trkpt>
      <trkpt lat="45.79412" lon="6.39249">
        <ele>1508.8000488281</ele>
        <time>2019-02-17T10:53:18.000Z</time>
      </trkpt>
      <trkpt lat="45.79415" lon="6.39252">
        <ele>1509.5999755859</ele>
        <time>2019-02-17T10:53:22.000Z</time>
      </trkpt>
      <trkpt lat="45.79416" lon="6.39254">
        <ele>1510.8000488281</ele>
        <time>2019-02-17T10:53:25.000Z</time>
      </trkpt>
      <trkpt lat="45.79417" lon="6.39256">
        <ele>1512</ele>
        <time>2019-02-17T10:53:30.000Z</time>
      </trkpt>
      <trkpt lat="45.79417" lon="6.39259">
        <ele>1513</ele>
        <time>2019-02-17T10:53:34.000Z</time>
      </trkpt>
      <trkpt lat="45.79417" lon="6.39261">
        <ele>1513.1999511719</ele>
        <time>2019-02-17T10:53:36.000Z</time>
      </trkpt>
      <trkpt lat="45.79415" lon="6.39263">
        <ele>1513.4000244141</ele>
        <time>2019-02-17T10:53:41.000Z</time>
      </trkpt>
      <trkpt lat="45.79413" lon="6.39262">
        <ele>1514.1999511719</ele>
        <time>2019-02-17T10:53:44.000Z</time>
      </trkpt>
      <trkpt lat="45.79412" lon="6.39262">
        <ele>1514.5999755859</ele>
        <time>2019-02-17T10:53:46.000Z</time>
      </trkpt>
      <trkpt lat="45.7941" lon="6.39262">
        <ele>1515.1999511719</ele>
        <time>2019-02-17T10:53:51.000Z</time>
      </trkpt>
      <trkpt lat="45.79408" lon="6.39262">
        <ele>1515.5999755859</ele>
        <time>2019-02-17T10:53:53.000Z</time>
      </trkpt>
      <trkpt lat="45.79406" lon="6.39263">
        <ele>1516.4000244141</ele>
        <time>2019-02-17T10:53:57.000Z</time>
      </trkpt>
      <trkpt lat="45.79406" lon="6.39263">
        <ele>1516.5999755859</ele>
        <time>2019-02-17T10:53:59.000Z</time>
      </trkpt>
      <trkpt lat="45.79406" lon="6.39263">
        <ele>1517.4000244141</ele>
        <time>2019-02-17T10:54:02.000Z</time>
      </trkpt>
      <trkpt lat="45.79405" lon="6.39263">
        <ele>1517.4000244141</ele>
        <time>2019-02-17T10:54:07.000Z</time>
      </trkpt>
      <trkpt lat="45.79405" lon="6.39263">
        <ele>1517.8000488281</ele>
        <time>2019-02-17T10:54:16.000Z</time>
      </trkpt>
      <trkpt lat="45.79404" lon="6.39262">
        <ele>1518.1999511719</ele>
        <time>2019-02-17T10:54:29.000Z</time>
      </trkpt>
      <trkpt lat="45.79401" lon="6.3926">
        <ele>1518.4000244141</ele>
        <time>2019-02-17T10:54:34.000Z</time>
      </trkpt>
      <trkpt lat="45.794" lon="6.3926">
        <ele>1518.4000244141</ele>
        <time>2019-02-17T10:54:35.000Z</time>
      </trkpt>
      <trkpt lat="45.79399" lon="6.39259">
        <ele>1518.5999755859</ele>
        <time>2019-02-17T10:54:36.000Z</time>
      </trkpt>
      <trkpt lat="45.79396" lon="6.39259">
        <ele>1518.8000488281</ele>
        <time>2019-02-17T10:54:40.000Z</time>
      </trkpt>
      <trkpt lat="45.79393" lon="6.39256">
        <ele>1519.5999755859</ele>
        <time>2019-02-17T10:54:44.000Z</time>
      </trkpt>
      <trkpt lat="45.79392" lon="6.39255">
        <ele>1519.5999755859</ele>
        <time>2019-02-17T10:54:45.000Z</time>
      </trkpt>
      <trkpt lat="45.79392" lon="6.39255">
        <ele>1520.1999511719</ele>
        <time>2019-02-17T10:54:51.000Z</time>
      </trkpt>
      <trkpt lat="45.79392" lon="6.39255">
        <ele>1520.1999511719</ele>
        <time>2019-02-17T10:54:59.000Z</time>
      </trkpt>
      <trkpt lat="45.79392" lon="6.39255">
        <ele>1520.1999511719</ele>
        <time>2019-02-17T10:55:11.000Z</time>
      </trkpt>
      <trkpt lat="45.79392" lon="6.39255">
        <ele>1520</ele>
        <time>2019-02-17T10:55:20.000Z</time>
      </trkpt>
      <trkpt lat="45.79392" lon="6.39256">
        <ele>1519.8000488281</ele>
        <time>2019-02-17T10:55:32.000Z</time>
      </trkpt>
      <trkpt lat="45.79393" lon="6.3926">
        <ele>1519.8000488281</ele>
        <time>2019-02-17T10:55:39.000Z</time>
      </trkpt>
      <trkpt lat="45.79393" lon="6.39261">
        <ele>1520.8000488281</ele>
        <time>2019-02-17T10:55:41.000Z</time>
      </trkpt>
      <trkpt lat="45.79394" lon="6.39264">
        <ele>1521.8000488281</ele>
        <time>2019-02-17T10:55:44.000Z</time>
      </trkpt>
      <trkpt lat="45.79394" lon="6.39266">
        <ele>1521.8000488281</ele>
        <time>2019-02-17T10:55:45.000Z</time>
      </trkpt>
      <trkpt lat="45.79395" lon="6.39267">
        <ele>1522.4000244141</ele>
        <time>2019-02-17T10:55:48.000Z</time>
      </trkpt>
      <trkpt lat="45.79395" lon="6.39268">
        <ele>1522.5999755859</ele>
        <time>2019-02-17T10:55:49.000Z</time>
      </trkpt>
      <trkpt lat="45.79395" lon="6.39269">
        <ele>1522.5999755859</ele>
        <time>2019-02-17T10:55:52.000Z</time>
      </trkpt>
      <trkpt lat="45.79396" lon="6.39273">
        <ele>1523.1999511719</ele>
        <time>2019-02-17T10:55:59.000Z</time>
      </trkpt>
      <trkpt lat="45.79397" lon="6.39278">
        <ele>1524.4000244141</ele>
        <time>2019-02-17T10:56:02.000Z</time>
      </trkpt>
      <trkpt lat="45.79398" lon="6.39279">
        <ele>1524.1999511719</ele>
        <time>2019-02-17T10:56:04.000Z</time>
      </trkpt>
      <trkpt lat="45.79398" lon="6.39279">
        <ele>1524.4000244141</ele>
        <time>2019-02-17T10:56:09.000Z</time>
      </trkpt>
      <trkpt lat="45.79397" lon="6.39279">
        <ele>1525.4000244141</ele>
        <time>2019-02-17T10:56:13.000Z</time>
      </trkpt>
      <trkpt lat="45.79397" lon="6.39279">
        <ele>1525.5999755859</ele>
        <time>2019-02-17T10:56:14.000Z</time>
      </trkpt>
      <trkpt lat="45.79396" lon="6.39278">
        <ele>1526</ele>
        <time>2019-02-17T10:56:17.000Z</time>
      </trkpt>
      <trkpt lat="45.79395" lon="6.39277">
        <ele>1525.8000488281</ele>
        <time>2019-02-17T10:56:19.000Z</time>
      </trkpt>
      <trkpt lat="45.79395" lon="6.39276">
        <ele>1526.4000244141</ele>
        <time>2019-02-17T10:56:21.000Z</time>
      </trkpt>
      <trkpt lat="45.79394" lon="6.39276">
        <ele>1527.1999511719</ele>
        <time>2019-02-17T10:56:24.000Z</time>
      </trkpt>
      <trkpt lat="45.79393" lon="6.39275">
        <ele>1527.4000244141</ele>
        <time>2019-02-17T10:56:28.000Z</time>
      </trkpt>
      <trkpt lat="45.79391" lon="6.39275">
        <ele>1527.5999755859</ele>
        <time>2019-02-17T10:56:29.000Z</time>
      </trkpt>
      <trkpt lat="45.79389" lon="6.39273">
        <ele>1528.5999755859</ele>
        <time>2019-02-17T10:56:33.000Z</time>
      </trkpt>
      <trkpt lat="45.79389" lon="6.39273">
        <ele>1528.8000488281</ele>
        <time>2019-02-17T10:56:34.000Z</time>
      </trkpt>
      <trkpt lat="45.79386" lon="6.39273">
        <ele>1529.5999755859</ele>
        <time>2019-02-17T10:56:40.000Z</time>
      </trkpt>
      <trkpt lat="45.79384" lon="6.39272">
        <ele>1530.5999755859</ele>
        <time>2019-02-17T10:56:46.000Z</time>
      </trkpt>
      <trkpt lat="45.79384" lon="6.39272">
        <ele>1530.5999755859</ele>
        <time>2019-02-17T10:56:47.000Z</time>
      </trkpt>
      <trkpt lat="45.7938" lon="6.3927">
        <ele>1532</ele>
        <time>2019-02-17T10:56:52.000Z</time>
      </trkpt>
      <trkpt lat="45.7938" lon="6.3927">
        <ele>1532.4000244141</ele>
        <time>2019-02-17T10:56:54.000Z</time>
      </trkpt>
      <trkpt lat="45.7938" lon="6.39272">
        <ele>1532.1999511719</ele>
        <time>2019-02-17T10:57:01.000Z</time>
      </trkpt>
      <trkpt lat="45.79381" lon="6.39275">
        <ele>1532.1999511719</ele>
        <time>2019-02-17T10:57:02.000Z</time>
      </trkpt>
      <trkpt lat="45.79382" lon="6.39276">
        <ele>1533.1999511719</ele>
        <time>2019-02-17T10:57:05.000Z</time>
      </trkpt>
      <trkpt lat="45.79384" lon="6.39283">
        <ele>1534.4000244141</ele>
        <time>2019-02-17T10:57:10.000Z</time>
      </trkpt>
      <trkpt lat="45.79383" lon="6.39285">
        <ele>1534.8000488281</ele>
        <time>2019-02-17T10:57:13.000Z</time>
      </trkpt>
      <trkpt lat="45.79384" lon="6.39289">
        <ele>1535.4000244141</ele>
        <time>2019-02-17T10:57:19.000Z</time>
      </trkpt>
      <trkpt lat="45.79384" lon="6.39289">
        <ele>1535.5999755859</ele>
        <time>2019-02-17T10:57:20.000Z</time>
      </trkpt>
      <trkpt lat="45.79384" lon="6.39291">
        <ele>1535.8000488281</ele>
        <time>2019-02-17T10:57:24.000Z</time>
      </trkpt>
      <trkpt lat="45.79384" lon="6.39293">
        <ele>1536.5999755859</ele>
        <time>2019-02-17T10:57:27.000Z</time>
      </trkpt>
      <trkpt lat="45.79385" lon="6.39295">
        <ele>1536.5999755859</ele>
        <time>2019-02-17T10:57:29.000Z</time>
      </trkpt>
      <trkpt lat="45.79388" lon="6.39298">
        <ele>1537.4000244141</ele>
        <time>2019-02-17T10:57:34.000Z</time>
      </trkpt>
      <trkpt lat="45.79387" lon="6.39298">
        <ele>1537.1999511719</ele>
        <time>2019-02-17T10:57:39.000Z</time>
      </trkpt>
      <trkpt lat="45.79387" lon="6.39298">
        <ele>1538</ele>
        <time>2019-02-17T10:57:41.000Z</time>
      </trkpt>
      <trkpt lat="45.79384" lon="6.39298">
        <ele>1539</ele>
        <time>2019-02-17T10:57:44.000Z</time>
      </trkpt>
      <trkpt lat="45.79382" lon="6.39298">
        <ele>1540</ele>
        <time>2019-02-17T10:57:49.000Z</time>
      </trkpt>
      <trkpt lat="45.79378" lon="6.39295">
        <ele>1541.1999511719</ele>
        <time>2019-02-17T10:57:57.000Z</time>
      </trkpt>
      <trkpt lat="45.79376" lon="6.39292">
        <ele>1541.5999755859</ele>
        <time>2019-02-17T10:58:02.000Z</time>
      </trkpt>
      <trkpt lat="45.79375" lon="6.39292">
        <ele>1542.4000244141</ele>
        <time>2019-02-17T10:58:04.000Z</time>
      </trkpt>
      <trkpt lat="45.79374" lon="6.39292">
        <ele>1543.1999511719</ele>
        <time>2019-02-17T10:58:08.000Z</time>
      </trkpt>
      <trkpt lat="45.79373" lon="6.39292">
        <ele>1543.5999755859</ele>
        <time>2019-02-17T10:58:11.000Z</time>
      </trkpt>
      <trkpt lat="45.79373" lon="6.39292">
        <ele>1544.5999755859</ele>
        <time>2019-02-17T10:58:16.000Z</time>
      </trkpt>
      <trkpt lat="45.79373" lon="6.39292">
        <ele>1544.5999755859</ele>
        <time>2019-02-17T10:58:19.000Z</time>
      </trkpt>
      <trkpt lat="45.79373" lon="6.39292">
        <ele>1544.8000488281</ele>
        <time>2019-02-17T10:58:27.000Z</time>
      </trkpt>
      <trkpt lat="45.79373" lon="6.39292">
        <ele>1544.5999755859</ele>
        <time>2019-02-17T10:58:38.000Z</time>
      </trkpt>
      <trkpt lat="45.79371" lon="6.39292">
        <ele>1544.5999755859</ele>
        <time>2019-02-17T10:58:50.000Z</time>
      </trkpt>
      <trkpt lat="45.7937" lon="6.39293">
        <ele>1545.8000488281</ele>
        <time>2019-02-17T10:58:56.000Z</time>
      </trkpt>
      <trkpt lat="45.79366" lon="6.39294">
        <ele>1546</ele>
        <time>2019-02-17T10:59:03.000Z</time>
      </trkpt>
      <trkpt lat="45.79364" lon="6.39296">
        <ele>1546.8000488281</ele>
        <time>2019-02-17T10:59:05.000Z</time>
      </trkpt>
      <trkpt lat="45.79363" lon="6.39297">
        <ele>1548</ele>
        <time>2019-02-17T10:59:08.000Z</time>
      </trkpt>
      <trkpt lat="45.79363" lon="6.39297">
        <ele>1548.4000244141</ele>
        <time>2019-02-17T10:59:21.000Z</time>
      </trkpt>
      <trkpt lat="45.79363" lon="6.39299">
        <ele>1548.4000244141</ele>
        <time>2019-02-17T10:59:30.000Z</time>
      </trkpt>
      <trkpt lat="45.79366" lon="6.39302">
        <ele>1548.8000488281</ele>
        <time>2019-02-17T10:59:34.000Z</time>
      </trkpt>
      <trkpt lat="45.79367" lon="6.39304">
        <ele>1549.4000244141</ele>
        <time>2019-02-17T10:59:35.000Z</time>
      </trkpt>
      <trkpt lat="45.79368" lon="6.39307">
        <ele>1550.4000244141</ele>
        <time>2019-02-17T10:59:39.000Z</time>
      </trkpt>
      <trkpt lat="45.79368" lon="6.39308">
        <ele>1550.5999755859</ele>
        <time>2019-02-17T10:59:40.000Z</time>
      </trkpt>
      <trkpt lat="45.79369" lon="6.39312">
        <ele>1551.4000244141</ele>
        <time>2019-02-17T10:59:44.000Z</time>
      </trkpt>
      <trkpt lat="45.7937" lon="6.39313">
        <ele>1551.8000488281</ele>
        <time>2019-02-17T10:59:46.000Z</time>
      </trkpt>
      <trkpt lat="45.79371" lon="6.3932">
        <ele>1551.5999755859</ele>
        <time>2019-02-17T10:59:54.000Z</time>
      </trkpt>
      <trkpt lat="45.79372" lon="6.39322">
        <ele>1552.5999755859</ele>
        <time>2019-02-17T10:59:58.000Z</time>
      </trkpt>
      <trkpt lat="45.79372" lon="6.39322">
        <ele>1553.1999511719</ele>
        <time>2019-02-17T11:00:00.000Z</time>
      </trkpt>
      <trkpt lat="45.79372" lon="6.39323">
        <ele>1553.5999755859</ele>
        <time>2019-02-17T11:00:01.000Z</time>
      </trkpt>
      <trkpt lat="45.79373" lon="6.39326">
        <ele>1553.8000488281</ele>
        <time>2019-02-17T11:00:05.000Z</time>
      </trkpt>
      <trkpt lat="45.79374" lon="6.39331">
        <ele>1554.8000488281</ele>
        <time>2019-02-17T11:00:11.000Z</time>
      </trkpt>
      <trkpt lat="45.79376" lon="6.39335">
        <ele>1555.5999755859</ele>
        <time>2019-02-17T11:00:16.000Z</time>
      </trkpt>
      <trkpt lat="45.79377" lon="6.39338">
        <ele>1556</ele>
        <time>2019-02-17T11:00:21.000Z</time>
      </trkpt>
      <trkpt lat="45.79377" lon="6.39338">
        <ele>1557</ele>
        <time>2019-02-17T11:00:23.000Z</time>
      </trkpt>
      <trkpt lat="45.79377" lon="6.39339">
        <ele>1557.1999511719</ele>
        <time>2019-02-17T11:00:24.000Z</time>
      </trkpt>
      <trkpt lat="45.79377" lon="6.39339">
        <ele>1557.4000244141</ele>
        <time>2019-02-17T11:00:32.000Z</time>
      </trkpt>
      <trkpt lat="45.79378" lon="6.39341">
        <ele>1558.5999755859</ele>
        <time>2019-02-17T11:00:37.000Z</time>
      </trkpt>
      <trkpt lat="45.79378" lon="6.39341">
        <ele>1558.4000244141</ele>
        <time>2019-02-17T11:00:39.000Z</time>
      </trkpt>
      <trkpt lat="45.79377" lon="6.39341">
        <ele>1558.8000488281</ele>
        <time>2019-02-17T11:00:46.000Z</time>
      </trkpt>
      <trkpt lat="45.79373" lon="6.39341">
        <ele>1559.4000244141</ele>
        <time>2019-02-17T11:00:53.000Z</time>
      </trkpt>
      <trkpt lat="45.79373" lon="6.39341">
        <ele>1559.5999755859</ele>
        <time>2019-02-17T11:00:54.000Z</time>
      </trkpt>
      <trkpt lat="45.79372" lon="6.39338">
        <ele>1560</ele>
        <time>2019-02-17T11:00:59.000Z</time>
      </trkpt>
      <trkpt lat="45.79372" lon="6.39338">
        <ele>1560.5999755859</ele>
        <time>2019-02-17T11:01:02.000Z</time>
      </trkpt>
      <trkpt lat="45.79372" lon="6.39338">
        <ele>1560.5999755859</ele>
        <time>2019-02-17T11:01:07.000Z</time>
      </trkpt>
      <trkpt lat="45.79371" lon="6.39337">
        <ele>1561.1999511719</ele>
        <time>2019-02-17T11:01:16.000Z</time>
      </trkpt>
      <trkpt lat="45.79371" lon="6.39337">
        <ele>1561.8000488281</ele>
        <time>2019-02-17T11:01:25.000Z</time>
      </trkpt>
      <trkpt lat="45.79371" lon="6.39337">
        <ele>1562</ele>
        <time>2019-02-17T11:01:29.000Z</time>
      </trkpt>
      <trkpt lat="45.79371" lon="6.39337">
        <ele>1560.8000488281</ele>
        <time>2019-02-17T11:01:34.000Z</time>
      </trkpt>
      <trkpt lat="45.79371" lon="6.39337">
        <ele>1561</ele>
        <time>2019-02-17T11:01:48.000Z</time>
      </trkpt>
      <trkpt lat="45.79372" lon="6.39337">
        <ele>1559.8000488281</ele>
        <time>2019-02-17T11:01:54.000Z</time>
      </trkpt>
      <trkpt lat="45.79372" lon="6.39337">
        <ele>1560.8000488281</ele>
        <time>2019-02-17T11:02:02.000Z</time>
      </trkpt>
      <trkpt lat="45.79372" lon="6.39337">
        <ele>1560.8000488281</ele>
        <time>2019-02-17T11:02:04.000Z</time>
      </trkpt>
      <trkpt lat="45.79372" lon="6.39337">
        <ele>1560.5999755859</ele>
        <time>2019-02-17T11:02:17.000Z</time>
      </trkpt>
      <trkpt lat="45.79372" lon="6.39337">
        <ele>1561.5999755859</ele>
        <time>2019-02-17T11:02:24.000Z</time>
      </trkpt>
      <trkpt lat="45.79372" lon="6.39337">
        <ele>1560.4000244141</ele>
        <time>2019-02-17T11:02:36.000Z</time>
      </trkpt>
      <trkpt lat="45.79371" lon="6.39338">
        <ele>1561</ele>
        <time>2019-02-17T11:02:45.000Z</time>
      </trkpt>
      <trkpt lat="45.79371" lon="6.39338">
        <ele>1561</ele>
        <time>2019-02-17T11:02:57.000Z</time>
      </trkpt>
      <trkpt lat="45.79371" lon="6.39338">
        <ele>1561</ele>
        <time>2019-02-17T11:03:02.000Z</time>
      </trkpt>
      <trkpt lat="45.79371" lon="6.39338">
        <ele>1561</ele>
        <time>2019-02-17T11:03:04.000Z</time>
      </trkpt>
      <trkpt lat="45.79371" lon="6.39338">
        <ele>1561</ele>
        <time>2019-02-17T11:03:14.000Z</time>
      </trkpt>
      <trkpt lat="45.7937" lon="6.39338">
        <ele>1561.1999511719</ele>
        <time>2019-02-17T11:03:20.000Z</time>
      </trkpt>
      <trkpt lat="45.7937" lon="6.39338">
        <ele>1561.4000244141</ele>
        <time>2019-02-17T11:03:34.000Z</time>
      </trkpt>
      <trkpt lat="45.7937" lon="6.39338">
        <ele>1561.4000244141</ele>
        <time>2019-02-17T11:03:48.000Z</time>
      </trkpt>
      <trkpt lat="45.7937" lon="6.39338">
        <ele>1561.4000244141</ele>
        <time>2019-02-17T11:04:04.000Z</time>
      </trkpt>
      <trkpt lat="45.7937" lon="6.39338">
        <ele>1561.1999511719</ele>
        <time>2019-02-17T11:04:21.000Z</time>
      </trkpt>
      <trkpt lat="45.79371" lon="6.39338">
        <ele>1561.4000244141</ele>
        <time>2019-02-17T11:04:42.000Z</time>
      </trkpt>
      <trkpt lat="45.7937" lon="6.39337">
        <ele>1561.4000244141</ele>
        <time>2019-02-17T11:04:51.000Z</time>
      </trkpt>
      <trkpt lat="45.79367" lon="6.39334">
        <ele>1561.5999755859</ele>
        <time>2019-02-17T11:04:56.000Z</time>
      </trkpt>
      <trkpt lat="45.79367" lon="6.39334">
        <ele>1561.5999755859</ele>
        <time>2019-02-17T11:04:57.000Z</time>
      </trkpt>
      <trkpt lat="45.79365" lon="6.39333">
        <ele>1561.8000488281</ele>
        <time>2019-02-17T11:04:59.000Z</time>
      </trkpt>
      <trkpt lat="45.79364" lon="6.39332">
        <ele>1562.5999755859</ele>
        <time>2019-02-17T11:05:01.000Z</time>
      </trkpt>
      <trkpt lat="45.79362" lon="6.3933">
        <ele>1562.8000488281</ele>
        <time>2019-02-17T11:05:03.000Z</time>
      </trkpt>
      <trkpt lat="45.7936" lon="6.39329">
        <ele>1562.8000488281</ele>
        <time>2019-02-17T11:05:06.000Z</time>
      </trkpt>
      <trkpt lat="45.79358" lon="6.39325">
        <ele>1562.8000488281</ele>
        <time>2019-02-17T11:05:12.000Z</time>
      </trkpt>
      <trkpt lat="45.79357" lon="6.39325">
        <ele>1563.4000244141</ele>
        <time>2019-02-17T11:05:19.000Z</time>
      </trkpt>
      <trkpt lat="45.79355" lon="6.39324">
        <ele>1563.4000244141</ele>
        <time>2019-02-17T11:05:27.000Z</time>
      </trkpt>
      <trkpt lat="45.79355" lon="6.39324">
        <ele>1564</ele>
        <time>2019-02-17T11:05:32.000Z</time>
      </trkpt>
      <trkpt lat="45.79355" lon="6.39324">
        <ele>1564</ele>
        <time>2019-02-17T11:05:36.000Z</time>
      </trkpt>
      <trkpt lat="45.79355" lon="6.39326">
        <ele>1563.8000488281</ele>
        <time>2019-02-17T11:05:43.000Z</time>
      </trkpt>
      <trkpt lat="45.79356" lon="6.39331">
        <ele>1564.8000488281</ele>
        <time>2019-02-17T11:05:49.000Z</time>
      </trkpt>
      <trkpt lat="45.79357" lon="6.39332">
        <ele>1565</ele>
        <time>2019-02-17T11:05:50.000Z</time>
      </trkpt>
      <trkpt lat="45.79357" lon="6.39334">
        <ele>1565.1999511719</ele>
        <time>2019-02-17T11:05:52.000Z</time>
      </trkpt>
      <trkpt lat="45.79357" lon="6.39335">
        <ele>1566</ele>
        <time>2019-02-17T11:05:54.000Z</time>
      </trkpt>
      <trkpt lat="45.79358" lon="6.39336">
        <ele>1567</ele>
        <time>2019-02-17T11:05:59.000Z</time>
      </trkpt>
      <trkpt lat="45.79358" lon="6.39336">
        <ele>1567</ele>
        <time>2019-02-17T11:06:07.000Z</time>
      </trkpt>
      <trkpt lat="45.79358" lon="6.39336">
        <ele>1567.4000244141</ele>
        <time>2019-02-17T11:06:13.000Z</time>
      </trkpt>
      <trkpt lat="45.79358" lon="6.39336">
        <ele>1568.1999511719</ele>
        <time>2019-02-17T11:06:17.000Z</time>
      </trkpt>
      <trkpt lat="45.79358" lon="6.39337">
        <ele>1567.4000244141</ele>
        <time>2019-02-17T11:06:22.000Z</time>
      </trkpt>
      <trkpt lat="45.79358" lon="6.39337">
        <ele>1567.1999511719</ele>
        <time>2019-02-17T11:06:27.000Z</time>
      </trkpt>
      <trkpt lat="45.79358" lon="6.39337">
        <ele>1566.5999755859</ele>
        <time>2019-02-17T11:06:29.000Z</time>
      </trkpt>
      <trkpt lat="45.79358" lon="6.39337">
        <ele>1567</ele>
        <time>2019-02-17T11:06:46.000Z</time>
      </trkpt>
      <trkpt lat="45.79358" lon="6.39337">
        <ele>1568.5999755859</ele>
        <time>2019-02-17T11:06:53.000Z</time>
      </trkpt>
      <trkpt lat="45.79358" lon="6.39337">
        <ele>1569.4000244141</ele>
        <time>2019-02-17T11:06:57.000Z</time>
      </trkpt>
      <trkpt lat="45.79357" lon="6.39337">
        <ele>1567.5999755859</ele>
        <time>2019-02-17T11:07:06.000Z</time>
      </trkpt>
      <trkpt lat="45.79357" lon="6.39338">
        <ele>1568.1999511719</ele>
        <time>2019-02-17T11:07:14.000Z</time>
      </trkpt>
      <trkpt lat="45.79357" lon="6.39338">
        <ele>1568.5999755859</ele>
        <time>2019-02-17T11:07:19.000Z</time>
      </trkpt>
      <trkpt lat="45.79357" lon="6.39338">
        <ele>1568.5999755859</ele>
        <time>2019-02-17T11:07:23.000Z</time>
      </trkpt>
      <trkpt lat="45.79357" lon="6.39338">
        <ele>1569</ele>
        <time>2019-02-17T11:07:32.000Z</time>
      </trkpt>
      <trkpt lat="45.79357" lon="6.39338">
        <ele>1568.4000244141</ele>
        <time>2019-02-17T11:07:43.000Z</time>
      </trkpt>
      <trkpt lat="45.79357" lon="6.39338">
        <ele>1567.5999755859</ele>
        <time>2019-02-17T11:07:52.000Z</time>
      </trkpt>
      <trkpt lat="45.79357" lon="6.39338">
        <ele>1567.5999755859</ele>
        <time>2019-02-17T11:07:53.000Z</time>
      </trkpt>
      <trkpt lat="45.79357" lon="6.39338">
        <ele>1569</ele>
        <time>2019-02-17T11:07:55.000Z</time>
      </trkpt>
      <trkpt lat="45.79357" lon="6.39338">
        <ele>1569.5999755859</ele>
        <time>2019-02-17T11:07:58.000Z</time>
      </trkpt>
      <trkpt lat="45.79357" lon="6.39338">
        <ele>1569</ele>
        <time>2019-02-17T11:08:04.000Z</time>
      </trkpt>
      <trkpt lat="45.79357" lon="6.39338">
        <ele>1569.1999511719</ele>
        <time>2019-02-17T11:08:13.000Z</time>
      </trkpt>
      <trkpt lat="45.79356" lon="6.39339">
        <ele>1569.5999755859</ele>
        <time>2019-02-17T11:08:21.000Z</time>
      </trkpt>
      <trkpt lat="45.79356" lon="6.39339">
        <ele>1570.1999511719</ele>
        <time>2019-02-17T11:08:28.000Z</time>
      </trkpt>
      <trkpt lat="45.79356" lon="6.39339">
        <ele>1571.1999511719</ele>
        <time>2019-02-17T11:08:34.000Z</time>
      </trkpt>
      <trkpt lat="45.79356" lon="6.39339">
        <ele>1570.1999511719</ele>
        <time>2019-02-17T11:08:42.000Z</time>
      </trkpt>
      <trkpt lat="45.79356" lon="6.39339">
        <ele>1571.4000244141</ele>
        <time>2019-02-17T11:08:45.000Z</time>
      </trkpt>
      <trkpt lat="45.79356" lon="6.39339">
        <ele>1571.5999755859</ele>
        <time>2019-02-17T11:08:48.000Z</time>
      </trkpt>
      <trkpt lat="45.79356" lon="6.39339">
        <ele>1571</ele>
        <time>2019-02-17T11:09:08.000Z</time>
      </trkpt>
      <trkpt lat="45.79356" lon="6.39339">
        <ele>1570.8000488281</ele>
        <time>2019-02-17T11:09:26.000Z</time>
      </trkpt>
      <trkpt lat="45.79356" lon="6.39339">
        <ele>1569.8000488281</ele>
        <time>2019-02-17T11:09:28.000Z</time>
      </trkpt>
      <trkpt lat="45.79356" lon="6.39339">
        <ele>1571</ele>
        <time>2019-02-17T11:09:32.000Z</time>
      </trkpt>
      <trkpt lat="45.79356" lon="6.39339">
        <ele>1572.1999511719</ele>
        <time>2019-02-17T11:09:33.000Z</time>
      </trkpt>
      <trkpt lat="45.79356" lon="6.39339">
        <ele>1573.1999511719</ele>
        <time>2019-02-17T11:09:35.000Z</time>
      </trkpt>
      <trkpt lat="45.79356" lon="6.39339">
        <ele>1571.4000244141</ele>
        <time>2019-02-17T11:09:37.000Z</time>
      </trkpt>
      <trkpt lat="45.79356" lon="6.39339">
        <ele>1570.1999511719</ele>
        <time>2019-02-17T11:09:39.000Z</time>
      </trkpt>
      <trkpt lat="45.79356" lon="6.39339">
        <ele>1569.8000488281</ele>
        <time>2019-02-17T11:09:41.000Z</time>
      </trkpt>
      <trkpt lat="45.79356" lon="6.39339">
        <ele>1571</ele>
        <time>2019-02-17T11:09:53.000Z</time>
      </trkpt>
      <trkpt lat="45.79356" lon="6.39339">
        <ele>1571.1999511719</ele>
        <time>2019-02-17T11:10:03.000Z</time>
      </trkpt>
      <trkpt lat="45.79356" lon="6.39339">
        <ele>1571.5999755859</ele>
        <time>2019-02-17T11:10:06.000Z</time>
      </trkpt>
      <trkpt lat="45.79356" lon="6.3934">
        <ele>1570.8000488281</ele>
        <time>2019-02-17T11:10:24.000Z</time>
      </trkpt>
      <trkpt lat="45.79356" lon="6.3934">
        <ele>1570.5999755859</ele>
        <time>2019-02-17T11:10:33.000Z</time>
      </trkpt>
      <trkpt lat="45.79357" lon="6.39339">
        <ele>1570</ele>
        <time>2019-02-17T11:10:36.000Z</time>
      </trkpt>
      <trkpt lat="45.79357" lon="6.39338">
        <ele>1569</ele>
        <time>2019-02-17T11:10:39.000Z</time>
      </trkpt>
      <trkpt lat="45.79357" lon="6.39338">
        <ele>1568.8000488281</ele>
        <time>2019-02-17T11:10:40.000Z</time>
      </trkpt>
      <trkpt lat="45.79357" lon="6.39337">
        <ele>1567.8000488281</ele>
        <time>2019-02-17T11:10:45.000Z</time>
      </trkpt>
      <trkpt lat="45.79357" lon="6.39337">
        <ele>1567.5999755859</ele>
        <time>2019-02-17T11:10:47.000Z</time>
      </trkpt>
      <trkpt lat="45.79357" lon="6.39336">
        <ele>1566.5999755859</ele>
        <time>2019-02-17T11:10:50.000Z</time>
      </trkpt>
      <trkpt lat="45.79358" lon="6.39336">
        <ele>1565.5999755859</ele>
        <time>2019-02-17T11:10:56.000Z</time>
      </trkpt>
      <trkpt lat="45.79358" lon="6.39334">
        <ele>1564.1999511719</ele>
        <time>2019-02-17T11:11:01.000Z</time>
      </trkpt>
      <trkpt lat="45.79359" lon="6.39334">
        <ele>1563.8000488281</ele>
        <time>2019-02-17T11:11:03.000Z</time>
      </trkpt>
      <trkpt lat="45.7936" lon="6.39332">
        <ele>1562.8000488281</ele>
        <time>2019-02-17T11:11:07.000Z</time>
      </trkpt>
      <trkpt lat="45.7936" lon="6.39332">
        <ele>1562.1999511719</ele>
        <time>2019-02-17T11:11:10.000Z</time>
      </trkpt>
      <trkpt lat="45.7936" lon="6.39332">
        <ele>1561.8000488281</ele>
        <time>2019-02-17T11:11:12.000Z</time>
      </trkpt>
      <trkpt lat="45.79363" lon="6.39328">
        <ele>1561</ele>
        <time>2019-02-17T11:11:17.000Z</time>
      </trkpt>
      <trkpt lat="45.79363" lon="6.39327">
        <ele>1560.5999755859</ele>
        <time>2019-02-17T11:11:19.000Z</time>
      </trkpt>
      <trkpt lat="45.79364" lon="6.39325">
        <ele>1559.5999755859</ele>
        <time>2019-02-17T11:11:23.000Z</time>
      </trkpt>
      <trkpt lat="45.79365" lon="6.39323">
        <ele>1558.5999755859</ele>
        <time>2019-02-17T11:11:25.000Z</time>
      </trkpt>
      <trkpt lat="45.79365" lon="6.39323">
        <ele>1557.5999755859</ele>
        <time>2019-02-17T11:11:28.000Z</time>
      </trkpt>
      <trkpt lat="45.79365" lon="6.39323">
        <ele>1557</ele>
        <time>2019-02-17T11:11:30.000Z</time>
      </trkpt>
      <trkpt lat="45.79365" lon="6.39323">
        <ele>1556.8000488281</ele>
        <time>2019-02-17T11:11:31.000Z</time>
      </trkpt>
      <trkpt lat="45.79365" lon="6.39324">
        <ele>1556.4000244141</ele>
        <time>2019-02-17T11:11:32.000Z</time>
      </trkpt>
      <trkpt lat="45.79365" lon="6.39325">
        <ele>1556.8000488281</ele>
        <time>2019-02-17T11:11:38.000Z</time>
      </trkpt>
      <trkpt lat="45.79364" lon="6.39326">
        <ele>1557.8000488281</ele>
        <time>2019-02-17T11:11:42.000Z</time>
      </trkpt>
      <trkpt lat="45.79364" lon="6.39326">
        <ele>1558.5999755859</ele>
        <time>2019-02-17T11:11:44.000Z</time>
      </trkpt>
      <trkpt lat="45.79364" lon="6.39327">
        <ele>1558.8000488281</ele>
        <time>2019-02-17T11:11:45.000Z</time>
      </trkpt>
      <trkpt lat="45.79363" lon="6.39327">
        <ele>1560</ele>
        <time>2019-02-17T11:11:49.000Z</time>
      </trkpt>
      <trkpt lat="45.79363" lon="6.39327">
        <ele>1559.8000488281</ele>
        <time>2019-02-17T11:11:50.000Z</time>
      </trkpt>
      <trkpt lat="45.79363" lon="6.39328">
        <ele>1561</ele>
        <time>2019-02-17T11:11:54.000Z</time>
      </trkpt>
      <trkpt lat="45.79363" lon="6.39329">
        <ele>1561</ele>
        <time>2019-02-17T11:11:56.000Z</time>
      </trkpt>
      <trkpt lat="45.79363" lon="6.39329">
        <ele>1562.1999511719</ele>
        <time>2019-02-17T11:12:03.000Z</time>
      </trkpt>
      <trkpt lat="45.79363" lon="6.39329">
        <ele>1563</ele>
        <time>2019-02-17T11:12:06.000Z</time>
      </trkpt>
      <trkpt lat="45.79362" lon="6.3933">
        <ele>1563.1999511719</ele>
        <time>2019-02-17T11:12:13.000Z</time>
      </trkpt>
      <trkpt lat="45.79361" lon="6.39331">
        <ele>1564.1999511719</ele>
        <time>2019-02-17T11:12:18.000Z</time>
      </trkpt>
      <trkpt lat="45.79361" lon="6.39331">
        <ele>1564.4000244141</ele>
        <time>2019-02-17T11:12:23.000Z</time>
      </trkpt>
      <trkpt lat="45.7936" lon="6.39332">
        <ele>1565.8000488281</ele>
        <time>2019-02-17T11:12:27.000Z</time>
      </trkpt>
      <trkpt lat="45.79359" lon="6.39333">
        <ele>1566.8000488281</ele>
        <time>2019-02-17T11:12:31.000Z</time>
      </trkpt>
      <trkpt lat="45.79359" lon="6.39334">
        <ele>1566.8000488281</ele>
        <time>2019-02-17T11:12:33.000Z</time>
      </trkpt>
      <trkpt lat="45.79359" lon="6.39335">
        <ele>1567.8000488281</ele>
        <time>2019-02-17T11:12:38.000Z</time>
      </trkpt>
      <trkpt lat="45.79359" lon="6.39335">
        <ele>1567.8000488281</ele>
        <time>2019-02-17T11:12:39.000Z</time>
      </trkpt>
      <trkpt lat="45.79359" lon="6.39336">
        <ele>1568.8000488281</ele>
        <time>2019-02-17T11:12:43.000Z</time>
      </trkpt>
      <trkpt lat="45.79358" lon="6.39336">
        <ele>1569.4000244141</ele>
        <time>2019-02-17T11:12:45.000Z</time>
      </trkpt>
      <trkpt lat="45.79358" lon="6.39337">
        <ele>1570</ele>
        <time>2019-02-17T11:12:48.000Z</time>
      </trkpt>
      <trkpt lat="45.79357" lon="6.39338">
        <ele>1570</ele>
        <time>2019-02-17T11:12:51.000Z</time>
      </trkpt>
      <trkpt lat="45.79357" lon="6.39338">
        <ele>1571.1999511719</ele>
        <time>2019-02-17T11:12:56.000Z</time>
      </trkpt>
      <trkpt lat="45.79357" lon="6.39338">
        <ele>1571.5999755859</ele>
        <time>2019-02-17T11:12:59.000Z</time>
      </trkpt>
      <trkpt lat="45.79357" lon="6.39338">
        <ele>1571.4000244141</ele>
        <time>2019-02-17T11:13:19.000Z</time>
      </trkpt>
      <trkpt lat="45.79357" lon="6.39338">
        <ele>1571.4000244141</ele>
        <time>2019-02-17T11:13:33.000Z</time>
      </trkpt>
      <trkpt lat="45.79357" lon="6.39338">
        <ele>1571.5999755859</ele>
        <time>2019-02-17T11:13:52.000Z</time>
      </trkpt>
      <trkpt lat="45.79357" lon="6.39338">
        <ele>1571.4000244141</ele>
        <time>2019-02-17T11:14:08.000Z</time>
      </trkpt>
      <trkpt lat="45.79357" lon="6.39339">
        <ele>1572.1999511719</ele>
        <time>2019-02-17T11:14:14.000Z</time>
      </trkpt>
      <trkpt lat="45.79357" lon="6.39339">
        <ele>1572.5999755859</ele>
        <time>2019-02-17T11:14:16.000Z</time>
      </trkpt>
      <trkpt lat="45.79357" lon="6.39339">
        <ele>1573.4000244141</ele>
        <time>2019-02-17T11:14:19.000Z</time>
      </trkpt>
      <trkpt lat="45.79356" lon="6.39339">
        <ele>1574.5999755859</ele>
        <time>2019-02-17T11:14:22.000Z</time>
      </trkpt>
      <trkpt lat="45.79355" lon="6.39339">
        <ele>1574.8000488281</ele>
        <time>2019-02-17T11:14:23.000Z</time>
      </trkpt>
      <trkpt lat="45.79353" lon="6.39341">
        <ele>1574.5999755859</ele>
        <time>2019-02-17T11:14:30.000Z</time>
      </trkpt>
      <trkpt lat="45.79353" lon="6.39342">
        <ele>1575.5999755859</ele>
        <time>2019-02-17T11:14:36.000Z</time>
      </trkpt>
      <trkpt lat="45.79353" lon="6.39342">
        <ele>1576.8000488281</ele>
        <time>2019-02-17T11:14:39.000Z</time>
      </trkpt>
      <trkpt lat="45.79353" lon="6.39342">
        <ele>1577.1999511719</ele>
        <time>2019-02-17T11:14:46.000Z</time>
      </trkpt>
      <trkpt lat="45.79353" lon="6.39342">
        <ele>1578</ele>
        <time>2019-02-17T11:14:51.000Z</time>
      </trkpt>
      <trkpt lat="45.79353" lon="6.39342">
        <ele>1579</ele>
        <time>2019-02-17T11:14:54.000Z</time>
      </trkpt>
      <trkpt lat="45.79353" lon="6.39342">
        <ele>1579.1999511719</ele>
        <time>2019-02-17T11:14:55.000Z</time>
      </trkpt>
      <trkpt lat="45.79353" lon="6.39342">
        <ele>1580.1999511719</ele>
        <time>2019-02-17T11:15:02.000Z</time>
      </trkpt>
      <trkpt lat="45.79353" lon="6.39342">
        <ele>1580.1999511719</ele>
        <time>2019-02-17T11:15:09.000Z</time>
      </trkpt>
      <trkpt lat="45.79353" lon="6.39342">
        <ele>1580.5999755859</ele>
        <time>2019-02-17T11:15:17.000Z</time>
      </trkpt>
      <trkpt lat="45.79352" lon="6.39343">
        <ele>1580.5999755859</ele>
        <time>2019-02-17T11:15:26.000Z</time>
      </trkpt>
      <trkpt lat="45.79352" lon="6.39344">
        <ele>1581.4000244141</ele>
        <time>2019-02-17T11:15:28.000Z</time>
      </trkpt>
      <trkpt lat="45.79352" lon="6.39344">
        <ele>1582.4000244141</ele>
        <time>2019-02-17T11:15:33.000Z</time>
      </trkpt>
      <trkpt lat="45.79352" lon="6.39344">
        <ele>1582.4000244141</ele>
        <time>2019-02-17T11:15:34.000Z</time>
      </trkpt>
      <trkpt lat="45.79352" lon="6.39344">
        <ele>1583.5999755859</ele>
        <time>2019-02-17T11:15:38.000Z</time>
      </trkpt>
      <trkpt lat="45.79351" lon="6.39345">
        <ele>1583.8000488281</ele>
        <time>2019-02-17T11:15:41.000Z</time>
      </trkpt>
      <trkpt lat="45.79351" lon="6.39347">
        <ele>1584</ele>
        <time>2019-02-17T11:15:48.000Z</time>
      </trkpt>
      <trkpt lat="45.79351" lon="6.39347">
        <ele>1585</ele>
        <time>2019-02-17T11:15:50.000Z</time>
      </trkpt>
      <trkpt lat="45.7935" lon="6.39348">
        <ele>1585.5999755859</ele>
        <time>2019-02-17T11:15:56.000Z</time>
      </trkpt>
      <trkpt lat="45.7935" lon="6.39348">
        <ele>1586.1999511719</ele>
        <time>2019-02-17T11:16:01.000Z</time>
      </trkpt>
      <trkpt lat="45.7935" lon="6.39348">
        <ele>1587</ele>
        <time>2019-02-17T11:16:04.000Z</time>
      </trkpt>
      <trkpt lat="45.79348" lon="6.3935">
        <ele>1587</ele>
        <time>2019-02-17T11:16:11.000Z</time>
      </trkpt>
      <trkpt lat="45.79348" lon="6.3935">
        <ele>1587.4000244141</ele>
        <time>2019-02-17T11:16:13.000Z</time>
      </trkpt>
      <trkpt lat="45.79348" lon="6.39351">
        <ele>1588.5999755859</ele>
        <time>2019-02-17T11:16:20.000Z</time>
      </trkpt>
      <trkpt lat="45.79347" lon="6.39353">
        <ele>1589.5999755859</ele>
        <time>2019-02-17T11:16:27.000Z</time>
      </trkpt>
      <trkpt lat="45.79347" lon="6.39353">
        <ele>1589.8000488281</ele>
        <time>2019-02-17T11:16:28.000Z</time>
      </trkpt>
      <trkpt lat="45.79345" lon="6.39354">
        <ele>1590.8000488281</ele>
        <time>2019-02-17T11:16:34.000Z</time>
      </trkpt>
      <trkpt lat="45.79345" lon="6.39354">
        <ele>1591</ele>
        <time>2019-02-17T11:16:42.000Z</time>
      </trkpt>
      <trkpt lat="45.79345" lon="6.39354">
        <ele>1592</ele>
        <time>2019-02-17T11:16:44.000Z</time>
      </trkpt>
      <trkpt lat="45.79345" lon="6.39354">
        <ele>1593</ele>
        <time>2019-02-17T11:16:49.000Z</time>
      </trkpt>
      <trkpt lat="45.79345" lon="6.39354">
        <ele>1593</ele>
        <time>2019-02-17T11:16:50.000Z</time>
      </trkpt>
      <trkpt lat="45.79343" lon="6.39358">
        <ele>1594.1999511719</ele>
        <time>2019-02-17T11:16:58.000Z</time>
      </trkpt>
      <trkpt lat="45.79342" lon="6.39359">
        <ele>1595.4000244141</ele>
        <time>2019-02-17T11:17:02.000Z</time>
      </trkpt>
      <trkpt lat="45.79342" lon="6.39359">
        <ele>1596</ele>
        <time>2019-02-17T11:17:06.000Z</time>
      </trkpt>
      <trkpt lat="45.79342" lon="6.39359">
        <ele>1596.5999755859</ele>
        <time>2019-02-17T11:17:08.000Z</time>
      </trkpt>
      <trkpt lat="45.79341" lon="6.3936">
        <ele>1596.8000488281</ele>
        <time>2019-02-17T11:17:15.000Z</time>
      </trkpt>
      <trkpt lat="45.79341" lon="6.3936">
        <ele>1597.5999755859</ele>
        <time>2019-02-17T11:17:21.000Z</time>
      </trkpt>
      <trkpt lat="45.7934" lon="6.39361">
        <ele>1597.8000488281</ele>
        <time>2019-02-17T11:17:24.000Z</time>
      </trkpt>
      <trkpt lat="45.79339" lon="6.39362">
        <ele>1599</ele>
        <time>2019-02-17T11:17:26.000Z</time>
      </trkpt>
      <trkpt lat="45.79339" lon="6.39363">
        <ele>1599.5999755859</ele>
        <time>2019-02-17T11:17:31.000Z</time>
      </trkpt>
      <trkpt lat="45.79339" lon="6.39363">
        <ele>1600.1999511719</ele>
        <time>2019-02-17T11:17:33.000Z</time>
      </trkpt>
      <trkpt lat="45.79338" lon="6.39364">
        <ele>1601</ele>
        <time>2019-02-17T11:17:38.000Z</time>
      </trkpt>
      <trkpt lat="45.79337" lon="6.39366">
        <ele>1601.4000244141</ele>
        <time>2019-02-17T11:17:41.000Z</time>
      </trkpt>
      <trkpt lat="45.79336" lon="6.39367">
        <ele>1602</ele>
        <time>2019-02-17T11:17:44.000Z</time>
      </trkpt>
      <trkpt lat="45.79336" lon="6.39367">
        <ele>1602.5999755859</ele>
        <time>2019-02-17T11:17:50.000Z</time>
      </trkpt>
      <trkpt lat="45.79336" lon="6.39367">
        <ele>1603.4000244141</ele>
        <time>2019-02-17T11:17:57.000Z</time>
      </trkpt>
      <trkpt lat="45.79336" lon="6.39369">
        <ele>1603.4000244141</ele>
        <time>2019-02-17T11:18:03.000Z</time>
      </trkpt>
      <trkpt lat="45.79336" lon="6.3937">
        <ele>1603.5999755859</ele>
        <time>2019-02-17T11:18:07.000Z</time>
      </trkpt>
      <trkpt lat="45.79336" lon="6.3937">
        <ele>1604.1999511719</ele>
        <time>2019-02-17T11:18:13.000Z</time>
      </trkpt>
      <trkpt lat="45.79336" lon="6.3937">
        <ele>1604.5999755859</ele>
        <time>2019-02-17T11:18:27.000Z</time>
      </trkpt>
      <trkpt lat="45.79336" lon="6.3937">
        <ele>1604.4000244141</ele>
        <time>2019-02-17T11:18:38.000Z</time>
      </trkpt>
      <trkpt lat="45.79336" lon="6.3937">
        <ele>1603.1999511719</ele>
        <time>2019-02-17T11:18:49.000Z</time>
      </trkpt>
      <trkpt lat="45.79336" lon="6.3937">
        <ele>1604.1999511719</ele>
        <time>2019-02-17T11:18:54.000Z</time>
      </trkpt>
      <trkpt lat="45.79336" lon="6.3937">
        <ele>1604.5999755859</ele>
        <time>2019-02-17T11:18:55.000Z</time>
      </trkpt>
      <trkpt lat="45.79336" lon="6.3937">
        <ele>1604.1999511719</ele>
        <time>2019-02-17T11:19:04.000Z</time>
      </trkpt>
      <trkpt lat="45.79336" lon="6.3937">
        <ele>1605</ele>
        <time>2019-02-17T11:19:09.000Z</time>
      </trkpt>
      <trkpt lat="45.79336" lon="6.3937">
        <ele>1603.4000244141</ele>
        <time>2019-02-17T11:19:15.000Z</time>
      </trkpt>
      <trkpt lat="45.79336" lon="6.3937">
        <ele>1602.8000488281</ele>
        <time>2019-02-17T11:19:17.000Z</time>
      </trkpt>
      <trkpt lat="45.79336" lon="6.3937">
        <ele>1604.4000244141</ele>
        <time>2019-02-17T11:19:24.000Z</time>
      </trkpt>
      <trkpt lat="45.79336" lon="6.3937">
        <ele>1604.4000244141</ele>
        <time>2019-02-17T11:19:32.000Z</time>
      </trkpt>
      <trkpt lat="45.79336" lon="6.3937">
        <ele>1605.8000488281</ele>
        <time>2019-02-17T11:19:39.000Z</time>
      </trkpt>
      <trkpt lat="45.79336" lon="6.3937">
        <ele>1604.8000488281</ele>
        <time>2019-02-17T11:19:43.000Z</time>
      </trkpt>
      <trkpt lat="45.79336" lon="6.3937">
        <ele>1604</ele>
        <time>2019-02-17T11:19:46.000Z</time>
      </trkpt>
      <trkpt lat="45.79336" lon="6.3937">
        <ele>1604</ele>
        <time>2019-02-17T11:19:59.000Z</time>
      </trkpt>
      <trkpt lat="45.79335" lon="6.39372">
        <ele>1604.4000244141</ele>
        <time>2019-02-17T11:20:09.000Z</time>
      </trkpt>
      <trkpt lat="45.79335" lon="6.39372">
        <ele>1603.8000488281</ele>
        <time>2019-02-17T11:20:13.000Z</time>
      </trkpt>
      <trkpt lat="45.79335" lon="6.39372">
        <ele>1604.8000488281</ele>
        <time>2019-02-17T11:20:19.000Z</time>
      </trkpt>
      <trkpt lat="45.79335" lon="6.39372">
        <ele>1605.1999511719</ele>
        <time>2019-02-17T11:20:23.000Z</time>
      </trkpt>
      <trkpt lat="45.79335" lon="6.39372">
        <ele>1604.8000488281</ele>
        <time>2019-02-17T11:20:33.000Z</time>
      </trkpt>
      <trkpt lat="45.79335" lon="6.39372">
        <ele>1604.1999511719</ele>
        <time>2019-02-17T11:20:42.000Z</time>
      </trkpt>
      <trkpt lat="45.79335" lon="6.39373">
        <ele>1604.8000488281</ele>
        <time>2019-02-17T11:20:57.000Z</time>
      </trkpt>
      <trkpt lat="45.79335" lon="6.39373">
        <ele>1605</ele>
        <time>2019-02-17T11:21:10.000Z</time>
      </trkpt>
      <trkpt lat="45.79334" lon="6.39374">
        <ele>1604.5999755859</ele>
        <time>2019-02-17T11:21:25.000Z</time>
      </trkpt>
      <trkpt lat="45.79333" lon="6.39374">
        <ele>1604.5999755859</ele>
        <time>2019-02-17T11:21:27.000Z</time>
      </trkpt>
      <trkpt lat="45.7933" lon="6.39375">
        <ele>1604.5999755859</ele>
        <time>2019-02-17T11:21:30.000Z</time>
      </trkpt>
      <trkpt lat="45.79325" lon="6.39375">
        <ele>1605.4000244141</ele>
        <time>2019-02-17T11:21:36.000Z</time>
      </trkpt>
      <trkpt lat="45.79324" lon="6.39375">
        <ele>1606</ele>
        <time>2019-02-17T11:21:38.000Z</time>
      </trkpt>
      <trkpt lat="45.79322" lon="6.39375">
        <ele>1607</ele>
        <time>2019-02-17T11:21:42.000Z</time>
      </trkpt>
      <trkpt lat="45.79322" lon="6.39374">
        <ele>1607.1999511719</ele>
        <time>2019-02-17T11:21:43.000Z</time>
      </trkpt>
      <trkpt lat="45.79318" lon="6.39374">
        <ele>1607.5999755859</ele>
        <time>2019-02-17T11:21:48.000Z</time>
      </trkpt>
      <trkpt lat="45.79315" lon="6.39373">
        <ele>1608.1999511719</ele>
        <time>2019-02-17T11:21:51.000Z</time>
      </trkpt>
      <trkpt lat="45.79315" lon="6.39373">
        <ele>1608.8000488281</ele>
        <time>2019-02-17T11:21:53.000Z</time>
      </trkpt>
      <trkpt lat="45.79315" lon="6.39373">
        <ele>1609.4000244141</ele>
        <time>2019-02-17T11:21:56.000Z</time>
      </trkpt>
      <trkpt lat="45.79315" lon="6.39373">
        <ele>1609.5999755859</ele>
        <time>2019-02-17T11:22:03.000Z</time>
      </trkpt>
      <trkpt lat="45.79316" lon="6.39375">
        <ele>1609.4000244141</ele>
        <time>2019-02-17T11:22:09.000Z</time>
      </trkpt>
      <trkpt lat="45.79317" lon="6.39379">
        <ele>1610.4000244141</ele>
        <time>2019-02-17T11:22:13.000Z</time>
      </trkpt>
      <trkpt lat="45.79319" lon="6.3938">
        <ele>1611.4000244141</ele>
        <time>2019-02-17T11:22:15.000Z</time>
      </trkpt>
      <trkpt lat="45.79319" lon="6.3938">
        <ele>1611.5999755859</ele>
        <time>2019-02-17T11:22:16.000Z</time>
      </trkpt>
      <trkpt lat="45.79319" lon="6.39383">
        <ele>1612</ele>
        <time>2019-02-17T11:22:21.000Z</time>
      </trkpt>
      <trkpt lat="45.7932" lon="6.39387">
        <ele>1612.5999755859</ele>
        <time>2019-02-17T11:22:26.000Z</time>
      </trkpt>
      <trkpt lat="45.7932" lon="6.3939">
        <ele>1613.5999755859</ele>
        <time>2019-02-17T11:22:30.000Z</time>
      </trkpt>
      <trkpt lat="45.79321" lon="6.39391">
        <ele>1614.5999755859</ele>
        <time>2019-02-17T11:22:34.000Z</time>
      </trkpt>
      <trkpt lat="45.79322" lon="6.39391">
        <ele>1614.8000488281</ele>
        <time>2019-02-17T11:22:37.000Z</time>
      </trkpt>
      <trkpt lat="45.79322" lon="6.39391">
        <ele>1615</ele>
        <time>2019-02-17T11:22:43.000Z</time>
      </trkpt>
      <trkpt lat="45.79322" lon="6.39391">
        <ele>1616</ele>
        <time>2019-02-17T11:22:50.000Z</time>
      </trkpt>
      <trkpt lat="45.79322" lon="6.39391">
        <ele>1615.1999511719</ele>
        <time>2019-02-17T11:22:57.000Z</time>
      </trkpt>
      <trkpt lat="45.79322" lon="6.39391">
        <ele>1615.5999755859</ele>
        <time>2019-02-17T11:23:22.000Z</time>
      </trkpt>
      <trkpt lat="45.79322" lon="6.39391">
        <ele>1615.4000244141</ele>
        <time>2019-02-17T11:23:40.000Z</time>
      </trkpt>
      <trkpt lat="45.79323" lon="6.39393">
        <ele>1615.4000244141</ele>
        <time>2019-02-17T11:23:49.000Z</time>
      </trkpt>
      <trkpt lat="45.79325" lon="6.39398">
        <ele>1616.8000488281</ele>
        <time>2019-02-17T11:23:55.000Z</time>
      </trkpt>
      <trkpt lat="45.79326" lon="6.39401">
        <ele>1616.8000488281</ele>
        <time>2019-02-17T11:23:59.000Z</time>
      </trkpt>
      <trkpt lat="45.79327" lon="6.39403">
        <ele>1617.1999511719</ele>
        <time>2019-02-17T11:24:01.000Z</time>
      </trkpt>
      <trkpt lat="45.79328" lon="6.39404">
        <ele>1617.5999755859</ele>
        <time>2019-02-17T11:24:05.000Z</time>
      </trkpt>
      <trkpt lat="45.79327" lon="6.39404">
        <ele>1618.4000244141</ele>
        <time>2019-02-17T11:24:11.000Z</time>
      </trkpt>
      <trkpt lat="45.79327" lon="6.39404">
        <ele>1619.1999511719</ele>
        <time>2019-02-17T11:24:12.000Z</time>
      </trkpt>
      <trkpt lat="45.79326" lon="6.39404">
        <ele>1619.8000488281</ele>
        <time>2019-02-17T11:24:13.000Z</time>
      </trkpt>
      <trkpt lat="45.79323" lon="6.39404">
        <ele>1620.1999511719</ele>
        <time>2019-02-17T11:24:17.000Z</time>
      </trkpt>
      <trkpt lat="45.79319" lon="6.39403">
        <ele>1620.8000488281</ele>
        <time>2019-02-17T11:24:23.000Z</time>
      </trkpt>
      <trkpt lat="45.79317" lon="6.39403">
        <ele>1621.5999755859</ele>
        <time>2019-02-17T11:24:28.000Z</time>
      </trkpt>
      <trkpt lat="45.79317" lon="6.39402">
        <ele>1621.8000488281</ele>
        <time>2019-02-17T11:24:29.000Z</time>
      </trkpt>
      <trkpt lat="45.79314" lon="6.39402">
        <ele>1622.8000488281</ele>
        <time>2019-02-17T11:24:34.000Z</time>
      </trkpt>
      <trkpt lat="45.79313" lon="6.39402">
        <ele>1623</ele>
        <time>2019-02-17T11:24:35.000Z</time>
      </trkpt>
      <trkpt lat="45.79311" lon="6.39401">
        <ele>1623.5999755859</ele>
        <time>2019-02-17T11:24:39.000Z</time>
      </trkpt>
      <trkpt lat="45.7931" lon="6.39401">
        <ele>1624.1999511719</ele>
        <time>2019-02-17T11:24:41.000Z</time>
      </trkpt>
      <trkpt lat="45.79307" lon="6.394">
        <ele>1625</ele>
        <time>2019-02-17T11:24:46.000Z</time>
      </trkpt>
      <trkpt lat="45.79306" lon="6.394">
        <ele>1625.1999511719</ele>
        <time>2019-02-17T11:24:48.000Z</time>
      </trkpt>
      <trkpt lat="45.79305" lon="6.394">
        <ele>1625.8000488281</ele>
        <time>2019-02-17T11:24:52.000Z</time>
      </trkpt>
      <trkpt lat="45.79303" lon="6.394">
        <ele>1626.4000244141</ele>
        <time>2019-02-17T11:24:54.000Z</time>
      </trkpt>
      <trkpt lat="45.79301" lon="6.39399">
        <ele>1627</ele>
        <time>2019-02-17T11:24:57.000Z</time>
      </trkpt>
      <trkpt lat="45.79299" lon="6.39398">
        <ele>1628</ele>
        <time>2019-02-17T11:25:03.000Z</time>
      </trkpt>
      <trkpt lat="45.79298" lon="6.39397">
        <ele>1628.1999511719</ele>
        <time>2019-02-17T11:25:14.000Z</time>
      </trkpt>
      <trkpt lat="45.79296" lon="6.39398">
        <ele>1629</ele>
        <time>2019-02-17T11:25:18.000Z</time>
      </trkpt>
      <trkpt lat="45.79294" lon="6.39397">
        <ele>1630.1999511719</ele>
        <time>2019-02-17T11:25:25.000Z</time>
      </trkpt>
      <trkpt lat="45.79294" lon="6.39397">
        <ele>1630.1999511719</ele>
        <time>2019-02-17T11:25:36.000Z</time>
      </trkpt>
      <trkpt lat="45.79291" lon="6.39397">
        <ele>1630.1999511719</ele>
        <time>2019-02-17T11:25:43.000Z</time>
      </trkpt>
      <trkpt lat="45.79288" lon="6.39396">
        <ele>1631.1999511719</ele>
        <time>2019-02-17T11:25:48.000Z</time>
      </trkpt>
      <trkpt lat="45.79286" lon="6.39395">
        <ele>1632</ele>
        <time>2019-02-17T11:25:51.000Z</time>
      </trkpt>
      <trkpt lat="45.79286" lon="6.39395">
        <ele>1632.4000244141</ele>
        <time>2019-02-17T11:25:53.000Z</time>
      </trkpt>
      <trkpt lat="45.79285" lon="6.39394">
        <ele>1632.5999755859</ele>
        <time>2019-02-17T11:25:54.000Z</time>
      </trkpt>
      <trkpt lat="45.79282" lon="6.39393">
        <ele>1633.4000244141</ele>
        <time>2019-02-17T11:26:00.000Z</time>
      </trkpt>
      <trkpt lat="45.79282" lon="6.39392">
        <ele>1633.5999755859</ele>
        <time>2019-02-17T11:26:01.000Z</time>
      </trkpt>
      <trkpt lat="45.79279" lon="6.3939">
        <ele>1634.4000244141</ele>
        <time>2019-02-17T11:26:05.000Z</time>
      </trkpt>
      <trkpt lat="45.79278" lon="6.39389">
        <ele>1634.8000488281</ele>
        <time>2019-02-17T11:26:07.000Z</time>
      </trkpt>
      <trkpt lat="45.79276" lon="6.39388">
        <ele>1635.1999511719</ele>
        <time>2019-02-17T11:26:10.000Z</time>
      </trkpt>
      <trkpt lat="45.79275" lon="6.39385">
        <ele>1635.8000488281</ele>
        <time>2019-02-17T11:26:13.000Z</time>
      </trkpt>
      <trkpt lat="45.79274" lon="6.39384">
        <ele>1636.8000488281</ele>
        <time>2019-02-17T11:26:15.000Z</time>
      </trkpt>
      <trkpt lat="45.79273" lon="6.39385">
        <ele>1637.1999511719</ele>
        <time>2019-02-17T11:26:16.000Z</time>
      </trkpt>
      <trkpt lat="45.79272" lon="6.39385">
        <ele>1637.8000488281</ele>
        <time>2019-02-17T11:26:21.000Z</time>
      </trkpt>
      <trkpt lat="45.79272" lon="6.39385">
        <ele>1637.8000488281</ele>
        <time>2019-02-17T11:26:36.000Z</time>
      </trkpt>
      <trkpt lat="45.79272" lon="6.39385">
        <ele>1637.5999755859</ele>
        <time>2019-02-17T11:26:51.000Z</time>
      </trkpt>
      <trkpt lat="45.79272" lon="6.39385">
        <ele>1638.1999511719</ele>
        <time>2019-02-17T11:27:11.000Z</time>
      </trkpt>
      <trkpt lat="45.79272" lon="6.39385">
        <ele>1638.4000244141</ele>
        <time>2019-02-17T11:27:13.000Z</time>
      </trkpt>
      <trkpt lat="45.79272" lon="6.39385">
        <ele>1638.4000244141</ele>
        <time>2019-02-17T11:27:27.000Z</time>
      </trkpt>
      <trkpt lat="45.79273" lon="6.39386">
        <ele>1638.1999511719</ele>
        <time>2019-02-17T11:27:46.000Z</time>
      </trkpt>
      <trkpt lat="45.79273" lon="6.39386">
        <ele>1638.1999511719</ele>
        <time>2019-02-17T11:27:57.000Z</time>
      </trkpt>
      <trkpt lat="45.79273" lon="6.39386">
        <ele>1638.4000244141</ele>
        <time>2019-02-17T11:28:12.000Z</time>
      </trkpt>
      <trkpt lat="45.79273" lon="6.39386">
        <ele>1638.4000244141</ele>
        <time>2019-02-17T11:28:27.000Z</time>
      </trkpt>
      <trkpt lat="45.79273" lon="6.39386">
        <ele>1638.5999755859</ele>
        <time>2019-02-17T11:28:41.000Z</time>
      </trkpt>
      <trkpt lat="45.79273" lon="6.39386">
        <ele>1638.5999755859</ele>
        <time>2019-02-17T11:28:57.000Z</time>
      </trkpt>
      <trkpt lat="45.79272" lon="6.39386">
        <ele>1638</ele>
        <time>2019-02-17T11:29:15.000Z</time>
      </trkpt>
      <trkpt lat="45.79272" lon="6.39386">
        <ele>1638</ele>
        <time>2019-02-17T11:29:25.000Z</time>
      </trkpt>
      <trkpt lat="45.79273" lon="6.39386">
        <ele>1638.1999511719</ele>
        <time>2019-02-17T11:29:40.000Z</time>
      </trkpt>
      <trkpt lat="45.79273" lon="6.39386">
        <ele>1638.1999511719</ele>
        <time>2019-02-17T11:29:57.000Z</time>
      </trkpt>
      <trkpt lat="45.79273" lon="6.39386">
        <ele>1638.5999755859</ele>
        <time>2019-02-17T11:30:11.000Z</time>
      </trkpt>
      <trkpt lat="45.79273" lon="6.39386">
        <ele>1638.1999511719</ele>
        <time>2019-02-17T11:30:28.000Z</time>
      </trkpt>
      <trkpt lat="45.79273" lon="6.39386">
        <ele>1638.4000244141</ele>
        <time>2019-02-17T11:30:44.000Z</time>
      </trkpt>
      <trkpt lat="45.79273" lon="6.39386">
        <ele>1639</ele>
        <time>2019-02-17T11:30:55.000Z</time>
      </trkpt>
      <trkpt lat="45.79273" lon="6.39386">
        <ele>1639</ele>
        <time>2019-02-17T11:31:12.000Z</time>
      </trkpt>
      <trkpt lat="45.79273" lon="6.39386">
        <ele>1638.8000488281</ele>
        <time>2019-02-17T11:31:35.000Z</time>
      </trkpt>
      <trkpt lat="45.79272" lon="6.39386">
        <ele>1639</ele>
        <time>2019-02-17T11:31:57.000Z</time>
      </trkpt>
      <trkpt lat="45.79272" lon="6.39386">
        <ele>1638.8000488281</ele>
        <time>2019-02-17T11:32:13.000Z</time>
      </trkpt>
      <trkpt lat="45.79271" lon="6.39387">
        <ele>1639.5999755859</ele>
        <time>2019-02-17T11:32:17.000Z</time>
      </trkpt>
      <trkpt lat="45.7927" lon="6.39387">
        <ele>1640</ele>
        <time>2019-02-17T11:32:18.000Z</time>
      </trkpt>
      <trkpt lat="45.79267" lon="6.39389">
        <ele>1640.5999755859</ele>
        <time>2019-02-17T11:32:21.000Z</time>
      </trkpt>
      <trkpt lat="45.79264" lon="6.39391">
        <ele>1641.1999511719</ele>
        <time>2019-02-17T11:32:24.000Z</time>
      </trkpt>
      <trkpt lat="45.79262" lon="6.39392">
        <ele>1641.8000488281</ele>
        <time>2019-02-17T11:32:28.000Z</time>
      </trkpt>
      <trkpt lat="45.79261" lon="6.39392">
        <ele>1642.1999511719</ele>
        <time>2019-02-17T11:32:30.000Z</time>
      </trkpt>
      <trkpt lat="45.79258" lon="6.39393">
        <ele>1643</ele>
        <time>2019-02-17T11:32:35.000Z</time>
      </trkpt>
      <trkpt lat="45.79256" lon="6.39398">
        <ele>1643.8000488281</ele>
        <time>2019-02-17T11:32:41.000Z</time>
      </trkpt>
      <trkpt lat="45.79257" lon="6.394">
        <ele>1644</ele>
        <time>2019-02-17T11:32:43.000Z</time>
      </trkpt>
      <trkpt lat="45.79257" lon="6.39401">
        <ele>1644.1999511719</ele>
        <time>2019-02-17T11:32:44.000Z</time>
      </trkpt>
      <trkpt lat="45.79257" lon="6.39401">
        <ele>1644.8000488281</ele>
        <time>2019-02-17T11:32:46.000Z</time>
      </trkpt>
      <trkpt lat="45.79257" lon="6.39402">
        <ele>1645.5999755859</ele>
        <time>2019-02-17T11:32:48.000Z</time>
      </trkpt>
      <trkpt lat="45.79257" lon="6.39404">
        <ele>1646.1999511719</ele>
        <time>2019-02-17T11:32:51.000Z</time>
      </trkpt>
      <trkpt lat="45.79257" lon="6.39404">
        <ele>1646.8000488281</ele>
        <time>2019-02-17T11:32:53.000Z</time>
      </trkpt>
      <trkpt lat="45.79258" lon="6.39407">
        <ele>1647</ele>
        <time>2019-02-17T11:33:00.000Z</time>
      </trkpt>
      <trkpt lat="45.79261" lon="6.39414">
        <ele>1647.5999755859</ele>
        <time>2019-02-17T11:33:06.000Z</time>
      </trkpt>
      <trkpt lat="45.79262" lon="6.39416">
        <ele>1647.8000488281</ele>
        <time>2019-02-17T11:33:09.000Z</time>
      </trkpt>
      <trkpt lat="45.79262" lon="6.39416">
        <ele>1648.1999511719</ele>
        <time>2019-02-17T11:33:10.000Z</time>
      </trkpt>
      <trkpt lat="45.79262" lon="6.39416">
        <ele>1648.8000488281</ele>
        <time>2019-02-17T11:33:13.000Z</time>
      </trkpt>
      <trkpt lat="45.79263" lon="6.39418">
        <ele>1649</ele>
        <time>2019-02-17T11:33:22.000Z</time>
      </trkpt>
      <trkpt lat="45.79264" lon="6.39424">
        <ele>1649.1999511719</ele>
        <time>2019-02-17T11:33:28.000Z</time>
      </trkpt>
      <trkpt lat="45.79266" lon="6.39427">
        <ele>1650</ele>
        <time>2019-02-17T11:33:31.000Z</time>
      </trkpt>
      <trkpt lat="45.79268" lon="6.39429">
        <ele>1650.1999511719</ele>
        <time>2019-02-17T11:33:33.000Z</time>
      </trkpt>
      <trkpt lat="45.79271" lon="6.39435">
        <ele>1651.1999511719</ele>
        <time>2019-02-17T11:33:38.000Z</time>
      </trkpt>
      <trkpt lat="45.79272" lon="6.39438">
        <ele>1651.4000244141</ele>
        <time>2019-02-17T11:33:40.000Z</time>
      </trkpt>
      <trkpt lat="45.79272" lon="6.3944">
        <ele>1652.1999511719</ele>
        <time>2019-02-17T11:33:44.000Z</time>
      </trkpt>
      <trkpt lat="45.79273" lon="6.39443">
        <ele>1652.4000244141</ele>
        <time>2019-02-17T11:33:47.000Z</time>
      </trkpt>
      <trkpt lat="45.79275" lon="6.39447">
        <ele>1653.1999511719</ele>
        <time>2019-02-17T11:33:51.000Z</time>
      </trkpt>
      <trkpt lat="45.79276" lon="6.3945">
        <ele>1653.8000488281</ele>
        <time>2019-02-17T11:33:54.000Z</time>
      </trkpt>
      <trkpt lat="45.79278" lon="6.39454">
        <ele>1654.4000244141</ele>
        <time>2019-02-17T11:33:57.000Z</time>
      </trkpt>
      <trkpt lat="45.79279" lon="6.39457">
        <ele>1655</ele>
        <time>2019-02-17T11:34:01.000Z</time>
      </trkpt>
      <trkpt lat="45.79281" lon="6.39459">
        <ele>1655.5999755859</ele>
        <time>2019-02-17T11:34:04.000Z</time>
      </trkpt>
      <trkpt lat="45.79281" lon="6.3946">
        <ele>1656.1999511719</ele>
        <time>2019-02-17T11:34:07.000Z</time>
      </trkpt>
      <trkpt lat="45.79282" lon="6.39462">
        <ele>1656.5999755859</ele>
        <time>2019-02-17T11:34:09.000Z</time>
      </trkpt>
      <trkpt lat="45.79284" lon="6.39464">
        <ele>1657</ele>
        <time>2019-02-17T11:34:12.000Z</time>
      </trkpt>
      <trkpt lat="45.79285" lon="6.39466">
        <ele>1657.8000488281</ele>
        <time>2019-02-17T11:34:16.000Z</time>
      </trkpt>
      <trkpt lat="45.79286" lon="6.39467">
        <ele>1658.1999511719</ele>
        <time>2019-02-17T11:34:18.000Z</time>
      </trkpt>
      <trkpt lat="45.79288" lon="6.39471">
        <ele>1659</ele>
        <time>2019-02-17T11:34:22.000Z</time>
      </trkpt>
      <trkpt lat="45.79289" lon="6.39472">
        <ele>1659.4000244141</ele>
        <time>2019-02-17T11:34:25.000Z</time>
      </trkpt>
      <trkpt lat="45.79292" lon="6.39475">
        <ele>1659.8000488281</ele>
        <time>2019-02-17T11:34:31.000Z</time>
      </trkpt>
      <trkpt lat="45.79292" lon="6.39476">
        <ele>1660.1999511719</ele>
        <time>2019-02-17T11:34:32.000Z</time>
      </trkpt>
      <trkpt lat="45.79295" lon="6.3948">
        <ele>1661.1999511719</ele>
        <time>2019-02-17T11:34:36.000Z</time>
      </trkpt>
      <trkpt lat="45.79295" lon="6.39481">
        <ele>1661.5999755859</ele>
        <time>2019-02-17T11:34:38.000Z</time>
      </trkpt>
      <trkpt lat="45.79299" lon="6.39481">
        <ele>1662.1999511719</ele>
        <time>2019-02-17T11:34:43.000Z</time>
      </trkpt>
      <trkpt lat="45.793" lon="6.39481">
        <ele>1662.8000488281</ele>
        <time>2019-02-17T11:34:45.000Z</time>
      </trkpt>
      <trkpt lat="45.79302" lon="6.39482">
        <ele>1663.4000244141</ele>
        <time>2019-02-17T11:34:47.000Z</time>
      </trkpt>
      <trkpt lat="45.79304" lon="6.39482">
        <ele>1664</ele>
        <time>2019-02-17T11:34:51.000Z</time>
      </trkpt>
      <trkpt lat="45.79306" lon="6.39483">
        <ele>1664.4000244141</ele>
        <time>2019-02-17T11:34:56.000Z</time>
      </trkpt>
      <trkpt lat="45.79309" lon="6.39488">
        <ele>1665.5999755859</ele>
        <time>2019-02-17T11:35:02.000Z</time>
      </trkpt>
      <trkpt lat="45.79309" lon="6.39488">
        <ele>1665.8000488281</ele>
        <time>2019-02-17T11:35:03.000Z</time>
      </trkpt>
      <trkpt lat="45.79311" lon="6.39491">
        <ele>1666.8000488281</ele>
        <time>2019-02-17T11:35:07.000Z</time>
      </trkpt>
      <trkpt lat="45.79311" lon="6.39492">
        <ele>1667.1999511719</ele>
        <time>2019-02-17T11:35:12.000Z</time>
      </trkpt>
      <trkpt lat="45.7931" lon="6.39492">
        <ele>1667.8000488281</ele>
        <time>2019-02-17T11:35:14.000Z</time>
      </trkpt>
      <trkpt lat="45.79308" lon="6.39494">
        <ele>1669</ele>
        <time>2019-02-17T11:35:17.000Z</time>
      </trkpt>
      <trkpt lat="45.79308" lon="6.39494">
        <ele>1669.1999511719</ele>
        <time>2019-02-17T11:35:18.000Z</time>
      </trkpt>
      <trkpt lat="45.79305" lon="6.39497">
        <ele>1670</ele>
        <time>2019-02-17T11:35:23.000Z</time>
      </trkpt>
      <trkpt lat="45.79304" lon="6.39498">
        <ele>1670.1999511719</ele>
        <time>2019-02-17T11:35:24.000Z</time>
      </trkpt>
      <trkpt lat="45.79302" lon="6.39502">
        <ele>1671.1999511719</ele>
        <time>2019-02-17T11:35:29.000Z</time>
      </trkpt>
      <trkpt lat="45.79302" lon="6.39503">
        <ele>1671.1999511719</ele>
        <time>2019-02-17T11:35:30.000Z</time>
      </trkpt>
      <trkpt lat="45.79304" lon="6.39507">
        <ele>1672</ele>
        <time>2019-02-17T11:35:36.000Z</time>
      </trkpt>
      <trkpt lat="45.79305" lon="6.39507">
        <ele>1672.1999511719</ele>
        <time>2019-02-17T11:35:37.000Z</time>
      </trkpt>
      <trkpt lat="45.79307" lon="6.39508">
        <ele>1673.5999755859</ele>
        <time>2019-02-17T11:35:41.000Z</time>
      </trkpt>
      <trkpt lat="45.79309" lon="6.39509">
        <ele>1674</ele>
        <time>2019-02-17T11:35:43.000Z</time>
      </trkpt>
      <trkpt lat="45.7931" lon="6.3951">
        <ele>1674.8000488281</ele>
        <time>2019-02-17T11:35:46.000Z</time>
      </trkpt>
      <trkpt lat="45.79311" lon="6.39511">
        <ele>1675</ele>
        <time>2019-02-17T11:35:48.000Z</time>
      </trkpt>
      <trkpt lat="45.79314" lon="6.39513">
        <ele>1675.8000488281</ele>
        <time>2019-02-17T11:35:52.000Z</time>
      </trkpt>
      <trkpt lat="45.79315" lon="6.39515">
        <ele>1676.1999511719</ele>
        <time>2019-02-17T11:35:54.000Z</time>
      </trkpt>
      <trkpt lat="45.79316" lon="6.39516">
        <ele>1677</ele>
        <time>2019-02-17T11:35:58.000Z</time>
      </trkpt>
      <trkpt lat="45.79317" lon="6.39517">
        <ele>1677.1999511719</ele>
        <time>2019-02-17T11:36:00.000Z</time>
      </trkpt>
      <trkpt lat="45.7932" lon="6.39519">
        <ele>1678</ele>
        <time>2019-02-17T11:36:04.000Z</time>
      </trkpt>
      <trkpt lat="45.79322" lon="6.39522">
        <ele>1679.4000244141</ele>
        <time>2019-02-17T11:36:08.000Z</time>
      </trkpt>
      <trkpt lat="45.79324" lon="6.39527">
        <ele>1680.4000244141</ele>
        <time>2019-02-17T11:36:14.000Z</time>
      </trkpt>
      <trkpt lat="45.79324" lon="6.39528">
        <ele>1681</ele>
        <time>2019-02-17T11:36:17.000Z</time>
      </trkpt>
      <trkpt lat="45.79325" lon="6.3953">
        <ele>1681.4000244141</ele>
        <time>2019-02-17T11:36:21.000Z</time>
      </trkpt>
      <trkpt lat="45.79325" lon="6.3953">
        <ele>1681.8000488281</ele>
        <time>2019-02-17T11:36:23.000Z</time>
      </trkpt>
      <trkpt lat="45.79328" lon="6.39535">
        <ele>1682.5999755859</ele>
        <time>2019-02-17T11:36:27.000Z</time>
      </trkpt>
      <trkpt lat="45.79328" lon="6.39535">
        <ele>1682.8000488281</ele>
        <time>2019-02-17T11:36:28.000Z</time>
      </trkpt>
      <trkpt lat="45.79329" lon="6.39538">
        <ele>1683.5999755859</ele>
        <time>2019-02-17T11:36:32.000Z</time>
      </trkpt>
      <trkpt lat="45.7933" lon="6.3954">
        <ele>1684.5999755859</ele>
        <time>2019-02-17T11:36:37.000Z</time>
      </trkpt>
      <trkpt lat="45.7933" lon="6.3954">
        <ele>1684.8000488281</ele>
        <time>2019-02-17T11:36:38.000Z</time>
      </trkpt>
      <trkpt lat="45.79331" lon="6.39542">
        <ele>1685.8000488281</ele>
        <time>2019-02-17T11:36:42.000Z</time>
      </trkpt>
      <trkpt lat="45.79332" lon="6.39542">
        <ele>1685.8000488281</ele>
        <time>2019-02-17T11:36:43.000Z</time>
      </trkpt>
      <trkpt lat="45.79333" lon="6.39545">
        <ele>1686.1999511719</ele>
        <time>2019-02-17T11:36:47.000Z</time>
      </trkpt>
      <trkpt lat="45.79334" lon="6.39547">
        <ele>1687</ele>
        <time>2019-02-17T11:36:51.000Z</time>
      </trkpt>
      <trkpt lat="45.79335" lon="6.39548">
        <ele>1687.1999511719</ele>
        <time>2019-02-17T11:36:53.000Z</time>
      </trkpt>
      <trkpt lat="45.79337" lon="6.39552">
        <ele>1688</ele>
        <time>2019-02-17T11:36:58.000Z</time>
      </trkpt>
      <trkpt lat="45.7934" lon="6.39555">
        <ele>1688.8000488281</ele>
        <time>2019-02-17T11:37:04.000Z</time>
      </trkpt>
      <trkpt lat="45.79341" lon="6.39556">
        <ele>1689</ele>
        <time>2019-02-17T11:37:05.000Z</time>
      </trkpt>
      <trkpt lat="45.79342" lon="6.39559">
        <ele>1690.1999511719</ele>
        <time>2019-02-17T11:37:09.000Z</time>
      </trkpt>
      <trkpt lat="45.79343" lon="6.39561">
        <ele>1691</ele>
        <time>2019-02-17T11:37:12.000Z</time>
      </trkpt>
      <trkpt lat="45.79343" lon="6.39562">
        <ele>1691.4000244141</ele>
        <time>2019-02-17T11:37:13.000Z</time>
      </trkpt>
      <trkpt lat="45.79344" lon="6.39564">
        <ele>1692.1999511719</ele>
        <time>2019-02-17T11:37:17.000Z</time>
      </trkpt>
      <trkpt lat="45.79345" lon="6.39566">
        <ele>1692.4000244141</ele>
        <time>2019-02-17T11:37:19.000Z</time>
      </trkpt>
      <trkpt lat="45.79345" lon="6.39568">
        <ele>1692.8000488281</ele>
        <time>2019-02-17T11:37:21.000Z</time>
      </trkpt>
      <trkpt lat="45.79347" lon="6.39572">
        <ele>1693.5999755859</ele>
        <time>2019-02-17T11:37:26.000Z</time>
      </trkpt>
      <trkpt lat="45.79348" lon="6.39572">
        <ele>1694.4000244141</ele>
        <time>2019-02-17T11:37:28.000Z</time>
      </trkpt>
      <trkpt lat="45.79348" lon="6.39573">
        <ele>1694.8000488281</ele>
        <time>2019-02-17T11:37:30.000Z</time>
      </trkpt>
      <trkpt lat="45.79349" lon="6.39577">
        <ele>1695.5999755859</ele>
        <time>2019-02-17T11:37:35.000Z</time>
      </trkpt>
      <trkpt lat="45.7935" lon="6.39577">
        <ele>1695.8000488281</ele>
        <time>2019-02-17T11:37:36.000Z</time>
      </trkpt>
      <trkpt lat="45.79352" lon="6.3958">
        <ele>1697</ele>
        <time>2019-02-17T11:37:41.000Z</time>
      </trkpt>
      <trkpt lat="45.79352" lon="6.39581">
        <ele>1697.1999511719</ele>
        <time>2019-02-17T11:37:48.000Z</time>
      </trkpt>
      <trkpt lat="45.79352" lon="6.39581">
        <ele>1698.4000244141</ele>
        <time>2019-02-17T11:37:53.000Z</time>
      </trkpt>
      <trkpt lat="45.79354" lon="6.39583">
        <ele>1699.1999511719</ele>
        <time>2019-02-17T11:37:56.000Z</time>
      </trkpt>
      <trkpt lat="45.79354" lon="6.39583">
        <ele>1699.4000244141</ele>
        <time>2019-02-17T11:37:57.000Z</time>
      </trkpt>
      <trkpt lat="45.79355" lon="6.39586">
        <ele>1699.4000244141</ele>
        <time>2019-02-17T11:38:01.000Z</time>
      </trkpt>
      <trkpt lat="45.79357" lon="6.3959">
        <ele>1700.4000244141</ele>
        <time>2019-02-17T11:38:05.000Z</time>
      </trkpt>
      <trkpt lat="45.79358" lon="6.39592">
        <ele>1700.5999755859</ele>
        <time>2019-02-17T11:38:06.000Z</time>
      </trkpt>
      <trkpt lat="45.79361" lon="6.39594">
        <ele>1701.1999511719</ele>
        <time>2019-02-17T11:38:11.000Z</time>
      </trkpt>
      <trkpt lat="45.79363" lon="6.39593">
        <ele>1701.4000244141</ele>
        <time>2019-02-17T11:38:15.000Z</time>
      </trkpt>
      <trkpt lat="45.79366" lon="6.39594">
        <ele>1702</ele>
        <time>2019-02-17T11:38:18.000Z</time>
      </trkpt>
      <trkpt lat="45.79368" lon="6.39594">
        <ele>1702.5999755859</ele>
        <time>2019-02-17T11:38:20.000Z</time>
      </trkpt>
      <trkpt lat="45.79371" lon="6.39595">
        <ele>1703.5999755859</ele>
        <time>2019-02-17T11:38:25.000Z</time>
      </trkpt>
      <trkpt lat="45.79373" lon="6.39596">
        <ele>1704.5999755859</ele>
        <time>2019-02-17T11:38:29.000Z</time>
      </trkpt>
      <trkpt lat="45.79377" lon="6.39597">
        <ele>1705.5999755859</ele>
        <time>2019-02-17T11:38:33.000Z</time>
      </trkpt>
      <trkpt lat="45.7938" lon="6.39599">
        <ele>1706.5999755859</ele>
        <time>2019-02-17T11:38:39.000Z</time>
      </trkpt>
      <trkpt lat="45.79381" lon="6.39599">
        <ele>1706.8000488281</ele>
        <time>2019-02-17T11:38:40.000Z</time>
      </trkpt>
      <trkpt lat="45.79383" lon="6.39601">
        <ele>1707.4000244141</ele>
        <time>2019-02-17T11:38:45.000Z</time>
      </trkpt>
      <trkpt lat="45.79384" lon="6.39602">
        <ele>1708.1999511719</ele>
        <time>2019-02-17T11:38:48.000Z</time>
      </trkpt>
      <trkpt lat="45.79385" lon="6.39602">
        <ele>1708.5999755859</ele>
        <time>2019-02-17T11:38:50.000Z</time>
      </trkpt>
      <trkpt lat="45.79388" lon="6.39603">
        <ele>1709.1999511719</ele>
        <time>2019-02-17T11:38:52.000Z</time>
      </trkpt>
      <trkpt lat="45.79389" lon="6.39605">
        <ele>1710.1999511719</ele>
        <time>2019-02-17T11:38:55.000Z</time>
      </trkpt>
      <trkpt lat="45.79389" lon="6.39605">
        <ele>1710.1999511719</ele>
        <time>2019-02-17T11:38:56.000Z</time>
      </trkpt>
      <trkpt lat="45.79392" lon="6.39605">
        <ele>1710.8000488281</ele>
        <time>2019-02-17T11:39:01.000Z</time>
      </trkpt>
      <trkpt lat="45.79394" lon="6.39605">
        <ele>1711.5999755859</ele>
        <time>2019-02-17T11:39:04.000Z</time>
      </trkpt>
      <trkpt lat="45.79396" lon="6.39607">
        <ele>1712</ele>
        <time>2019-02-17T11:39:07.000Z</time>
      </trkpt>
      <trkpt lat="45.79398" lon="6.39608">
        <ele>1712.8000488281</ele>
        <time>2019-02-17T11:39:10.000Z</time>
      </trkpt>
      <trkpt lat="45.79398" lon="6.39609">
        <ele>1713</ele>
        <time>2019-02-17T11:39:13.000Z</time>
      </trkpt>
      <trkpt lat="45.79399" lon="6.39609">
        <ele>1713.8000488281</ele>
        <time>2019-02-17T11:39:20.000Z</time>
      </trkpt>
      <trkpt lat="45.79399" lon="6.39609">
        <ele>1715</ele>
        <time>2019-02-17T11:39:22.000Z</time>
      </trkpt>
      <trkpt lat="45.79396" lon="6.3961">
        <ele>1715</ele>
        <time>2019-02-17T11:39:31.000Z</time>
      </trkpt>
      <trkpt lat="45.79391" lon="6.39614">
        <ele>1716.1999511719</ele>
        <time>2019-02-17T11:39:37.000Z</time>
      </trkpt>
      <trkpt lat="45.79388" lon="6.39617">
        <ele>1717</ele>
        <time>2019-02-17T11:39:43.000Z</time>
      </trkpt>
      <trkpt lat="45.79388" lon="6.39618">
        <ele>1717.1999511719</ele>
        <time>2019-02-17T11:39:44.000Z</time>
      </trkpt>
      <trkpt lat="45.79387" lon="6.39618">
        <ele>1718</ele>
        <time>2019-02-17T11:39:49.000Z</time>
      </trkpt>
      <trkpt lat="45.79387" lon="6.39618">
        <ele>1718</ele>
        <time>2019-02-17T11:40:07.000Z</time>
      </trkpt>
      <trkpt lat="45.79384" lon="6.39621">
        <ele>1718.1999511719</ele>
        <time>2019-02-17T11:40:13.000Z</time>
      </trkpt>
      <trkpt lat="45.79384" lon="6.39621">
        <ele>1718.4000244141</ele>
        <time>2019-02-17T11:40:14.000Z</time>
      </trkpt>
      <trkpt lat="45.79379" lon="6.39625">
        <ele>1719.1999511719</ele>
        <time>2019-02-17T11:40:18.000Z</time>
      </trkpt>
      <trkpt lat="45.79379" lon="6.39626">
        <ele>1719.4000244141</ele>
        <time>2019-02-17T11:40:19.000Z</time>
      </trkpt>
      <trkpt lat="45.79376" lon="6.39629">
        <ele>1720.1999511719</ele>
        <time>2019-02-17T11:40:23.000Z</time>
      </trkpt>
      <trkpt lat="45.79376" lon="6.39629">
        <ele>1720.4000244141</ele>
        <time>2019-02-17T11:40:24.000Z</time>
      </trkpt>
      <trkpt lat="45.79373" lon="6.39634">
        <ele>1721.1999511719</ele>
        <time>2019-02-17T11:40:29.000Z</time>
      </trkpt>
      <trkpt lat="45.79372" lon="6.39636">
        <ele>1721.4000244141</ele>
        <time>2019-02-17T11:40:30.000Z</time>
      </trkpt>
      <trkpt lat="45.7937" lon="6.39638">
        <ele>1722.4000244141</ele>
        <time>2019-02-17T11:40:34.000Z</time>
      </trkpt>
      <trkpt lat="45.79369" lon="6.39639">
        <ele>1722.5999755859</ele>
        <time>2019-02-17T11:40:35.000Z</time>
      </trkpt>
      <trkpt lat="45.79366" lon="6.39641">
        <ele>1723.4000244141</ele>
        <time>2019-02-17T11:40:41.000Z</time>
      </trkpt>
      <trkpt lat="45.79364" lon="6.39643">
        <ele>1724.5999755859</ele>
        <time>2019-02-17T11:40:46.000Z</time>
      </trkpt>
      <trkpt lat="45.79363" lon="6.39643">
        <ele>1724.8000488281</ele>
        <time>2019-02-17T11:40:48.000Z</time>
      </trkpt>
      <trkpt lat="45.79359" lon="6.39645">
        <ele>1725.8000488281</ele>
        <time>2019-02-17T11:40:54.000Z</time>
      </trkpt>
      <trkpt lat="45.79357" lon="6.39646">
        <ele>1726</ele>
        <time>2019-02-17T11:40:56.000Z</time>
      </trkpt>
      <trkpt lat="45.79355" lon="6.39648">
        <ele>1726.8000488281</ele>
        <time>2019-02-17T11:41:00.000Z</time>
      </trkpt>
      <trkpt lat="45.79355" lon="6.39648">
        <ele>1727</ele>
        <time>2019-02-17T11:41:01.000Z</time>
      </trkpt>
      <trkpt lat="45.79356" lon="6.3965">
        <ele>1727.5999755859</ele>
        <time>2019-02-17T11:41:08.000Z</time>
      </trkpt>
      <trkpt lat="45.79359" lon="6.39652">
        <ele>1728</ele>
        <time>2019-02-17T11:41:11.000Z</time>
      </trkpt>
      <trkpt lat="45.7936" lon="6.39652">
        <ele>1728.5999755859</ele>
        <time>2019-02-17T11:41:13.000Z</time>
      </trkpt>
      <trkpt lat="45.79361" lon="6.39653">
        <ele>1729</ele>
        <time>2019-02-17T11:41:15.000Z</time>
      </trkpt>
      <trkpt lat="45.79363" lon="6.39653">
        <ele>1730.1999511719</ele>
        <time>2019-02-17T11:41:20.000Z</time>
      </trkpt>
      <trkpt lat="45.79363" lon="6.39653">
        <ele>1730.4000244141</ele>
        <time>2019-02-17T11:41:21.000Z</time>
      </trkpt>
      <trkpt lat="45.79367" lon="6.39655">
        <ele>1730</ele>
        <time>2019-02-17T11:41:27.000Z</time>
      </trkpt>
      <trkpt lat="45.79371" lon="6.39659">
        <ele>1731.5999755859</ele>
        <time>2019-02-17T11:41:34.000Z</time>
      </trkpt>
      <trkpt lat="45.79371" lon="6.3966">
        <ele>1731.8000488281</ele>
        <time>2019-02-17T11:41:35.000Z</time>
      </trkpt>
      <trkpt lat="45.79373" lon="6.39661">
        <ele>1732.5999755859</ele>
        <time>2019-02-17T11:41:38.000Z</time>
      </trkpt>
      <trkpt lat="45.79374" lon="6.39662">
        <ele>1733.4000244141</ele>
        <time>2019-02-17T11:41:40.000Z</time>
      </trkpt>
      <trkpt lat="45.79375" lon="6.39663">
        <ele>1733.8000488281</ele>
        <time>2019-02-17T11:41:41.000Z</time>
      </trkpt>
      <trkpt lat="45.79377" lon="6.39665">
        <ele>1734.8000488281</ele>
        <time>2019-02-17T11:41:46.000Z</time>
      </trkpt>
      <trkpt lat="45.7938" lon="6.39667">
        <ele>1736</ele>
        <time>2019-02-17T11:41:51.000Z</time>
      </trkpt>
      <trkpt lat="45.7938" lon="6.39667">
        <ele>1736</ele>
        <time>2019-02-17T11:41:52.000Z</time>
      </trkpt>
      <trkpt lat="45.79382" lon="6.39671">
        <ele>1736.4000244141</ele>
        <time>2019-02-17T11:41:55.000Z</time>
      </trkpt>
      <trkpt lat="45.79382" lon="6.3967">
        <ele>1736.5999755859</ele>
        <time>2019-02-17T11:41:56.000Z</time>
      </trkpt>
      <trkpt lat="45.79385" lon="6.39673">
        <ele>1737</ele>
        <time>2019-02-17T11:41:59.000Z</time>
      </trkpt>
      <trkpt lat="45.79386" lon="6.39675">
        <ele>1737.4000244141</ele>
        <time>2019-02-17T11:42:01.000Z</time>
      </trkpt>
      <trkpt lat="45.79388" lon="6.39677">
        <ele>1738</ele>
        <time>2019-02-17T11:42:05.000Z</time>
      </trkpt>
      <trkpt lat="45.7939" lon="6.3968">
        <ele>1738.8000488281</ele>
        <time>2019-02-17T11:42:08.000Z</time>
      </trkpt>
      <trkpt lat="45.79391" lon="6.3968">
        <ele>1739.1999511719</ele>
        <time>2019-02-17T11:42:09.000Z</time>
      </trkpt>
      <trkpt lat="45.79393" lon="6.39683">
        <ele>1740.5999755859</ele>
        <time>2019-02-17T11:42:13.000Z</time>
      </trkpt>
      <trkpt lat="45.79394" lon="6.39685">
        <ele>1741.4000244141</ele>
        <time>2019-02-17T11:42:16.000Z</time>
      </trkpt>
      <trkpt lat="45.79395" lon="6.39685">
        <ele>1741.8000488281</ele>
        <time>2019-02-17T11:42:17.000Z</time>
      </trkpt>
      <trkpt lat="45.79399" lon="6.39687">
        <ele>1741.8000488281</ele>
        <time>2019-02-17T11:42:23.000Z</time>
      </trkpt>
      <trkpt lat="45.79399" lon="6.39686">
        <ele>1742.4000244141</ele>
        <time>2019-02-17T11:42:29.000Z</time>
      </trkpt>
      <trkpt lat="45.79399" lon="6.39686">
        <ele>1743</ele>
        <time>2019-02-17T11:42:32.000Z</time>
      </trkpt>
      <trkpt lat="45.79399" lon="6.39686">
        <ele>1744.1999511719</ele>
        <time>2019-02-17T11:42:39.000Z</time>
      </trkpt>
      <trkpt lat="45.79397" lon="6.39687">
        <ele>1744</ele>
        <time>2019-02-17T11:42:49.000Z</time>
      </trkpt>
      <trkpt lat="45.79392" lon="6.39689">
        <ele>1744.1999511719</ele>
        <time>2019-02-17T11:42:55.000Z</time>
      </trkpt>
      <trkpt lat="45.79389" lon="6.39692">
        <ele>1745.4000244141</ele>
        <time>2019-02-17T11:42:59.000Z</time>
      </trkpt>
      <trkpt lat="45.79387" lon="6.39694">
        <ele>1746</ele>
        <time>2019-02-17T11:43:02.000Z</time>
      </trkpt>
      <trkpt lat="45.79386" lon="6.39695">
        <ele>1746.5999755859</ele>
        <time>2019-02-17T11:43:05.000Z</time>
      </trkpt>
      <trkpt lat="45.79385" lon="6.39696">
        <ele>1747</ele>
        <time>2019-02-17T11:43:07.000Z</time>
      </trkpt>
      <trkpt lat="45.79384" lon="6.39698">
        <ele>1747.8000488281</ele>
        <time>2019-02-17T11:43:11.000Z</time>
      </trkpt>
      <trkpt lat="45.79383" lon="6.397">
        <ele>1748</ele>
        <time>2019-02-17T11:43:13.000Z</time>
      </trkpt>
      <trkpt lat="45.79381" lon="6.39701">
        <ele>1748.8000488281</ele>
        <time>2019-02-17T11:43:18.000Z</time>
      </trkpt>
      <trkpt lat="45.79378" lon="6.39705">
        <ele>1749.8000488281</ele>
        <time>2019-02-17T11:43:24.000Z</time>
      </trkpt>
      <trkpt lat="45.79377" lon="6.39705">
        <ele>1750</ele>
        <time>2019-02-17T11:43:25.000Z</time>
      </trkpt>
      <trkpt lat="45.79375" lon="6.39707">
        <ele>1750.8000488281</ele>
        <time>2019-02-17T11:43:29.000Z</time>
      </trkpt>
      <trkpt lat="45.79374" lon="6.39709">
        <ele>1751</ele>
        <time>2019-02-17T11:43:31.000Z</time>
      </trkpt>
      <trkpt lat="45.79371" lon="6.39711">
        <ele>1752</ele>
        <time>2019-02-17T11:43:36.000Z</time>
      </trkpt>
      <trkpt lat="45.79371" lon="6.39712">
        <ele>1752.4000244141</ele>
        <time>2019-02-17T11:43:38.000Z</time>
      </trkpt>
      <trkpt lat="45.79369" lon="6.39713">
        <ele>1752.8000488281</ele>
        <time>2019-02-17T11:43:40.000Z</time>
      </trkpt>
      <trkpt lat="45.79369" lon="6.39713">
        <ele>1753</ele>
        <time>2019-02-17T11:43:41.000Z</time>
      </trkpt>
      <trkpt lat="45.79368" lon="6.39714">
        <ele>1753.5999755859</ele>
        <time>2019-02-17T11:43:44.000Z</time>
      </trkpt>
      <trkpt lat="45.79366" lon="6.39715">
        <ele>1754.1999511719</ele>
        <time>2019-02-17T11:43:47.000Z</time>
      </trkpt>
      <trkpt lat="45.79364" lon="6.39716">
        <ele>1754.5999755859</ele>
        <time>2019-02-17T11:43:50.000Z</time>
      </trkpt>
      <trkpt lat="45.79363" lon="6.39717">
        <ele>1755.4000244141</ele>
        <time>2019-02-17T11:43:53.000Z</time>
      </trkpt>
      <trkpt lat="45.79361" lon="6.39718">
        <ele>1756.4000244141</ele>
        <time>2019-02-17T11:43:59.000Z</time>
      </trkpt>
      <trkpt lat="45.79361" lon="6.39718">
        <ele>1756.5999755859</ele>
        <time>2019-02-17T11:44:00.000Z</time>
      </trkpt>
      <trkpt lat="45.79359" lon="6.39718">
        <ele>1757.4000244141</ele>
        <time>2019-02-17T11:44:06.000Z</time>
      </trkpt>
      <trkpt lat="45.79356" lon="6.39718">
        <ele>1757.8000488281</ele>
        <time>2019-02-17T11:44:10.000Z</time>
      </trkpt>
      <trkpt lat="45.79352" lon="6.39719">
        <ele>1758.4000244141</ele>
        <time>2019-02-17T11:44:13.000Z</time>
      </trkpt>
      <trkpt lat="45.79351" lon="6.3972">
        <ele>1758.8000488281</ele>
        <time>2019-02-17T11:44:16.000Z</time>
      </trkpt>
      <trkpt lat="45.7935" lon="6.3972">
        <ele>1759.8000488281</ele>
        <time>2019-02-17T11:44:20.000Z</time>
      </trkpt>
      <trkpt lat="45.79346" lon="6.39721">
        <ele>1760.8000488281</ele>
        <time>2019-02-17T11:44:25.000Z</time>
      </trkpt>
      <trkpt lat="45.79346" lon="6.39721">
        <ele>1761</ele>
        <time>2019-02-17T11:44:26.000Z</time>
      </trkpt>
      <trkpt lat="45.79345" lon="6.39721">
        <ele>1761.8000488281</ele>
        <time>2019-02-17T11:44:30.000Z</time>
      </trkpt>
      <trkpt lat="45.79346" lon="6.39723">
        <ele>1761.8000488281</ele>
        <time>2019-02-17T11:44:38.000Z</time>
      </trkpt>
      <trkpt lat="45.79346" lon="6.39724">
        <ele>1762.1999511719</ele>
        <time>2019-02-17T11:44:40.000Z</time>
      </trkpt>
      <trkpt lat="45.79347" lon="6.39726">
        <ele>1763.4000244141</ele>
        <time>2019-02-17T11:44:42.000Z</time>
      </trkpt>
      <trkpt lat="45.79348" lon="6.39729">
        <ele>1763.5999755859</ele>
        <time>2019-02-17T11:44:46.000Z</time>
      </trkpt>
      <trkpt lat="45.79349" lon="6.39731">
        <ele>1764.5999755859</ele>
        <time>2019-02-17T11:44:50.000Z</time>
      </trkpt>
      <trkpt lat="45.7935" lon="6.39733">
        <ele>1765</ele>
        <time>2019-02-17T11:44:52.000Z</time>
      </trkpt>
      <trkpt lat="45.79351" lon="6.39734">
        <ele>1765.5999755859</ele>
        <time>2019-02-17T11:44:55.000Z</time>
      </trkpt>
      <trkpt lat="45.79352" lon="6.39737">
        <ele>1766.1999511719</ele>
        <time>2019-02-17T11:44:59.000Z</time>
      </trkpt>
      <trkpt lat="45.79354" lon="6.39741">
        <ele>1766.8000488281</ele>
        <time>2019-02-17T11:45:03.000Z</time>
      </trkpt>
      <trkpt lat="45.79355" lon="6.39743">
        <ele>1766.8000488281</ele>
        <time>2019-02-17T11:45:04.000Z</time>
      </trkpt>
      <trkpt lat="45.79356" lon="6.39745">
        <ele>1767.8000488281</ele>
        <time>2019-02-17T11:45:08.000Z</time>
      </trkpt>
      <trkpt lat="45.79358" lon="6.39746">
        <ele>1768.8000488281</ele>
        <time>2019-02-17T11:45:14.000Z</time>
      </trkpt>
      <trkpt lat="45.79359" lon="6.39747">
        <ele>1769</ele>
        <time>2019-02-17T11:45:15.000Z</time>
      </trkpt>
      <trkpt lat="45.79362" lon="6.3975">
        <ele>1770</ele>
        <time>2019-02-17T11:45:21.000Z</time>
      </trkpt>
      <trkpt lat="45.79363" lon="6.3975">
        <ele>1770.1999511719</ele>
        <time>2019-02-17T11:45:22.000Z</time>
      </trkpt>
      <trkpt lat="45.79365" lon="6.39752">
        <ele>1771</ele>
        <time>2019-02-17T11:45:29.000Z</time>
      </trkpt>
      <trkpt lat="45.79365" lon="6.39752">
        <ele>1771.4000244141</ele>
        <time>2019-02-17T11:45:30.000Z</time>
      </trkpt>
      <trkpt lat="45.79367" lon="6.39754">
        <ele>1772.4000244141</ele>
        <time>2019-02-17T11:45:33.000Z</time>
      </trkpt>
      <trkpt lat="45.79367" lon="6.39755">
        <ele>1772.5999755859</ele>
        <time>2019-02-17T11:45:34.000Z</time>
      </trkpt>
      <trkpt lat="45.79369" lon="6.39757">
        <ele>1772.5999755859</ele>
        <time>2019-02-17T11:45:39.000Z</time>
      </trkpt>
      <trkpt lat="45.79372" lon="6.39759">
        <ele>1773.5999755859</ele>
        <time>2019-02-17T11:45:44.000Z</time>
      </trkpt>
      <trkpt lat="45.79372" lon="6.3976">
        <ele>1774.4000244141</ele>
        <time>2019-02-17T11:45:46.000Z</time>
      </trkpt>
      <trkpt lat="45.79373" lon="6.3976">
        <ele>1774.5999755859</ele>
        <time>2019-02-17T11:45:47.000Z</time>
      </trkpt>
      <trkpt lat="45.79377" lon="6.39763">
        <ele>1775.1999511719</ele>
        <time>2019-02-17T11:45:52.000Z</time>
      </trkpt>
      <trkpt lat="45.79378" lon="6.39764">
        <ele>1775.8000488281</ele>
        <time>2019-02-17T11:45:55.000Z</time>
      </trkpt>
      <trkpt lat="45.7938" lon="6.39766">
        <ele>1776.4000244141</ele>
        <time>2019-02-17T11:45:59.000Z</time>
      </trkpt>
      <trkpt lat="45.7938" lon="6.39766">
        <ele>1777</ele>
        <time>2019-02-17T11:46:01.000Z</time>
      </trkpt>
      <trkpt lat="45.79382" lon="6.39767">
        <ele>1778.1999511719</ele>
        <time>2019-02-17T11:46:05.000Z</time>
      </trkpt>
      <trkpt lat="45.79383" lon="6.39767">
        <ele>1778.1999511719</ele>
        <time>2019-02-17T11:46:06.000Z</time>
      </trkpt>
      <trkpt lat="45.79384" lon="6.39769">
        <ele>1779</ele>
        <time>2019-02-17T11:46:12.000Z</time>
      </trkpt>
      <trkpt lat="45.79385" lon="6.3977">
        <ele>1779.1999511719</ele>
        <time>2019-02-17T11:46:14.000Z</time>
      </trkpt>
      <trkpt lat="45.79386" lon="6.39771">
        <ele>1780.4000244141</ele>
        <time>2019-02-17T11:46:19.000Z</time>
      </trkpt>
      <trkpt lat="45.79386" lon="6.39771">
        <ele>1780.4000244141</ele>
        <time>2019-02-17T11:46:20.000Z</time>
      </trkpt>
      <trkpt lat="45.79388" lon="6.39772">
        <ele>1781.4000244141</ele>
        <time>2019-02-17T11:46:28.000Z</time>
      </trkpt>
      <trkpt lat="45.79389" lon="6.39774">
        <ele>1781.5999755859</ele>
        <time>2019-02-17T11:46:29.000Z</time>
      </trkpt>
      <trkpt lat="45.79392" lon="6.39778">
        <ele>1782.4000244141</ele>
        <time>2019-02-17T11:46:33.000Z</time>
      </trkpt>
      <trkpt lat="45.79392" lon="6.39778">
        <ele>1782.8000488281</ele>
        <time>2019-02-17T11:46:35.000Z</time>
      </trkpt>
      <trkpt lat="45.79393" lon="6.3978">
        <ele>1783.8000488281</ele>
        <time>2019-02-17T11:46:38.000Z</time>
      </trkpt>
      <trkpt lat="45.79393" lon="6.39781">
        <ele>1784.8000488281</ele>
        <time>2019-02-17T11:46:41.000Z</time>
      </trkpt>
      <trkpt lat="45.79394" lon="6.39781">
        <ele>1785</ele>
        <time>2019-02-17T11:46:42.000Z</time>
      </trkpt>
      <trkpt lat="45.79397" lon="6.39784">
        <ele>1785.5999755859</ele>
        <time>2019-02-17T11:46:46.000Z</time>
      </trkpt>
      <trkpt lat="45.79398" lon="6.39785">
        <ele>1785.8000488281</ele>
        <time>2019-02-17T11:46:48.000Z</time>
      </trkpt>
      <trkpt lat="45.794" lon="6.39787">
        <ele>1786</ele>
        <time>2019-02-17T11:46:52.000Z</time>
      </trkpt>
      <trkpt lat="45.79401" lon="6.3979">
        <ele>1786.4000244141</ele>
        <time>2019-02-17T11:46:56.000Z</time>
      </trkpt>
      <trkpt lat="45.79402" lon="6.39791">
        <ele>1787</ele>
        <time>2019-02-17T11:46:58.000Z</time>
      </trkpt>
      <trkpt lat="45.79403" lon="6.39792">
        <ele>1787.8000488281</ele>
        <time>2019-02-17T11:47:00.000Z</time>
      </trkpt>
      <trkpt lat="45.79404" lon="6.39793">
        <ele>1788.1999511719</ele>
        <time>2019-02-17T11:47:01.000Z</time>
      </trkpt>
      <trkpt lat="45.79405" lon="6.39795">
        <ele>1789</ele>
        <time>2019-02-17T11:47:04.000Z</time>
      </trkpt>
      <trkpt lat="45.79405" lon="6.39794">
        <ele>1789.4000244141</ele>
        <time>2019-02-17T11:47:05.000Z</time>
      </trkpt>
      <trkpt lat="45.79406" lon="6.39796">
        <ele>1790.1999511719</ele>
        <time>2019-02-17T11:47:10.000Z</time>
      </trkpt>
      <trkpt lat="45.79408" lon="6.39797">
        <ele>1790.4000244141</ele>
        <time>2019-02-17T11:47:16.000Z</time>
      </trkpt>
      <trkpt lat="45.79409" lon="6.39798">
        <ele>1790.8000488281</ele>
        <time>2019-02-17T11:47:17.000Z</time>
      </trkpt>
      <trkpt lat="45.79411" lon="6.39799">
        <ele>1791.8000488281</ele>
        <time>2019-02-17T11:47:22.000Z</time>
      </trkpt>
      <trkpt lat="45.79412" lon="6.398">
        <ele>1791.5999755859</ele>
        <time>2019-02-17T11:47:23.000Z</time>
      </trkpt>
      <trkpt lat="45.79414" lon="6.39803">
        <ele>1792.5999755859</ele>
        <time>2019-02-17T11:47:29.000Z</time>
      </trkpt>
      <trkpt lat="45.79415" lon="6.39804">
        <ele>1793</ele>
        <time>2019-02-17T11:47:32.000Z</time>
      </trkpt>
      <trkpt lat="45.79415" lon="6.39804">
        <ele>1793.5999755859</ele>
        <time>2019-02-17T11:47:36.000Z</time>
      </trkpt>
      <trkpt lat="45.79415" lon="6.39804">
        <ele>1794</ele>
        <time>2019-02-17T11:47:38.000Z</time>
      </trkpt>
      <trkpt lat="45.79415" lon="6.39804">
        <ele>1794.1999511719</ele>
        <time>2019-02-17T11:47:41.000Z</time>
      </trkpt>
      <trkpt lat="45.79415" lon="6.39804">
        <ele>1795</ele>
        <time>2019-02-17T11:47:46.000Z</time>
      </trkpt>
      <trkpt lat="45.79415" lon="6.39804">
        <ele>1794.5999755859</ele>
        <time>2019-02-17T11:47:49.000Z</time>
      </trkpt>
      <trkpt lat="45.79415" lon="6.39804">
        <ele>1794.1999511719</ele>
        <time>2019-02-17T11:48:05.000Z</time>
      </trkpt>
      <trkpt lat="45.79415" lon="6.39805">
        <ele>1794.1999511719</ele>
        <time>2019-02-17T11:48:18.000Z</time>
      </trkpt>
      <trkpt lat="45.79417" lon="6.39809">
        <ele>1794.1999511719</ele>
        <time>2019-02-17T11:48:22.000Z</time>
      </trkpt>
      <trkpt lat="45.79418" lon="6.39811">
        <ele>1795.1999511719</ele>
        <time>2019-02-17T11:48:26.000Z</time>
      </trkpt>
      <trkpt lat="45.7942" lon="6.39816">
        <ele>1796</ele>
        <time>2019-02-17T11:48:30.000Z</time>
      </trkpt>
      <trkpt lat="45.79421" lon="6.39819">
        <ele>1796.4000244141</ele>
        <time>2019-02-17T11:48:34.000Z</time>
      </trkpt>
      <trkpt lat="45.79423" lon="6.39823">
        <ele>1797.1999511719</ele>
        <time>2019-02-17T11:48:38.000Z</time>
      </trkpt>
      <trkpt lat="45.79423" lon="6.39824">
        <ele>1797.4000244141</ele>
        <time>2019-02-17T11:48:39.000Z</time>
      </trkpt>
      <trkpt lat="45.79424" lon="6.39827">
        <ele>1798.5999755859</ele>
        <time>2019-02-17T11:48:41.000Z</time>
      </trkpt>
      <trkpt lat="45.79425" lon="6.39829">
        <ele>1799.8000488281</ele>
        <time>2019-02-17T11:48:45.000Z</time>
      </trkpt>
      <trkpt lat="45.79425" lon="6.39829">
        <ele>1800</ele>
        <time>2019-02-17T11:48:46.000Z</time>
      </trkpt>
      <trkpt lat="45.79427" lon="6.3983">
        <ele>1801</ele>
        <time>2019-02-17T11:48:51.000Z</time>
      </trkpt>
      <trkpt lat="45.79428" lon="6.39831">
        <ele>1801</ele>
        <time>2019-02-17T11:48:52.000Z</time>
      </trkpt>
      <trkpt lat="45.79429" lon="6.39835">
        <ele>1801.5999755859</ele>
        <time>2019-02-17T11:48:58.000Z</time>
      </trkpt>
      <trkpt lat="45.7943" lon="6.39837">
        <ele>1802.1999511719</ele>
        <time>2019-02-17T11:49:02.000Z</time>
      </trkpt>
      <trkpt lat="45.79431" lon="6.39838">
        <ele>1802.8000488281</ele>
        <time>2019-02-17T11:49:04.000Z</time>
      </trkpt>
      <trkpt lat="45.79431" lon="6.39839">
        <ele>1803.5999755859</ele>
        <time>2019-02-17T11:49:05.000Z</time>
      </trkpt>
      <trkpt lat="45.79433" lon="6.39842">
        <ele>1804.4000244141</ele>
        <time>2019-02-17T11:49:09.000Z</time>
      </trkpt>
      <trkpt lat="45.79433" lon="6.39842">
        <ele>1804.5999755859</ele>
        <time>2019-02-17T11:49:12.000Z</time>
      </trkpt>
      <trkpt lat="45.79433" lon="6.39842">
        <ele>1805.1999511719</ele>
        <time>2019-02-17T11:49:19.000Z</time>
      </trkpt>
      <trkpt lat="45.79435" lon="6.39845">
        <ele>1804.8000488281</ele>
        <time>2019-02-17T11:49:25.000Z</time>
      </trkpt>
      <trkpt lat="45.79434" lon="6.39845">
        <ele>1805.4000244141</ele>
        <time>2019-02-17T11:49:32.000Z</time>
      </trkpt>
      <trkpt lat="45.79434" lon="6.39845">
        <ele>1805.5999755859</ele>
        <time>2019-02-17T11:49:33.000Z</time>
      </trkpt>
      <trkpt lat="45.79433" lon="6.39845">
        <ele>1806.5999755859</ele>
        <time>2019-02-17T11:49:38.000Z</time>
      </trkpt>
      <trkpt lat="45.79431" lon="6.39846">
        <ele>1806.8000488281</ele>
        <time>2019-02-17T11:49:41.000Z</time>
      </trkpt>
      <trkpt lat="45.79428" lon="6.39846">
        <ele>1807.1999511719</ele>
        <time>2019-02-17T11:49:44.000Z</time>
      </trkpt>
      <trkpt lat="45.79426" lon="6.39847">
        <ele>1807.8000488281</ele>
        <time>2019-02-17T11:49:49.000Z</time>
      </trkpt>
      <trkpt lat="45.79426" lon="6.39846">
        <ele>1808</ele>
        <time>2019-02-17T11:49:50.000Z</time>
      </trkpt>
      <trkpt lat="45.79424" lon="6.39846">
        <ele>1809</ele>
        <time>2019-02-17T11:49:54.000Z</time>
      </trkpt>
      <trkpt lat="45.79424" lon="6.39846">
        <ele>1809</ele>
        <time>2019-02-17T11:49:55.000Z</time>
      </trkpt>
      <trkpt lat="45.79421" lon="6.39847">
        <ele>1809.8000488281</ele>
        <time>2019-02-17T11:50:00.000Z</time>
      </trkpt>
      <trkpt lat="45.79418" lon="6.39848">
        <ele>1810</ele>
        <time>2019-02-17T11:50:04.000Z</time>
      </trkpt>
      <trkpt lat="45.79416" lon="6.39848">
        <ele>1810.4000244141</ele>
        <time>2019-02-17T11:50:06.000Z</time>
      </trkpt>
      <trkpt lat="45.79413" lon="6.39849">
        <ele>1811.1999511719</ele>
        <time>2019-02-17T11:50:11.000Z</time>
      </trkpt>
      <trkpt lat="45.79412" lon="6.39849">
        <ele>1811.1999511719</ele>
        <time>2019-02-17T11:50:12.000Z</time>
      </trkpt>
      <trkpt lat="45.79411" lon="6.3985">
        <ele>1812.4000244141</ele>
        <time>2019-02-17T11:50:17.000Z</time>
      </trkpt>
      <trkpt lat="45.79411" lon="6.3985">
        <ele>1812.5999755859</ele>
        <time>2019-02-17T11:50:18.000Z</time>
      </trkpt>
      <trkpt lat="45.79408" lon="6.3985">
        <ele>1812.4000244141</ele>
        <time>2019-02-17T11:50:29.000Z</time>
      </trkpt>
      <trkpt lat="45.79404" lon="6.3985">
        <ele>1812.5999755859</ele>
        <time>2019-02-17T11:50:33.000Z</time>
      </trkpt>
      <trkpt lat="45.79399" lon="6.39852">
        <ele>1813.5999755859</ele>
        <time>2019-02-17T11:50:39.000Z</time>
      </trkpt>
      <trkpt lat="45.79397" lon="6.39853">
        <ele>1814.5999755859</ele>
        <time>2019-02-17T11:50:42.000Z</time>
      </trkpt>
      <trkpt lat="45.79392" lon="6.39854">
        <ele>1815.5999755859</ele>
        <time>2019-02-17T11:50:49.000Z</time>
      </trkpt>
      <trkpt lat="45.79392" lon="6.39854">
        <ele>1815.8000488281</ele>
        <time>2019-02-17T11:50:50.000Z</time>
      </trkpt>
      <trkpt lat="45.7939" lon="6.39856">
        <ele>1816.5999755859</ele>
        <time>2019-02-17T11:50:54.000Z</time>
      </trkpt>
      <trkpt lat="45.79389" lon="6.39856">
        <ele>1817.1999511719</ele>
        <time>2019-02-17T11:50:56.000Z</time>
      </trkpt>
      <trkpt lat="45.79388" lon="6.39857">
        <ele>1817.8000488281</ele>
        <time>2019-02-17T11:50:58.000Z</time>
      </trkpt>
      <trkpt lat="45.79384" lon="6.39858">
        <ele>1818.4000244141</ele>
        <time>2019-02-17T11:51:03.000Z</time>
      </trkpt>
      <trkpt lat="45.79382" lon="6.39858">
        <ele>1819</ele>
        <time>2019-02-17T11:51:06.000Z</time>
      </trkpt>
      <trkpt lat="45.7938" lon="6.39858">
        <ele>1819.5999755859</ele>
        <time>2019-02-17T11:51:10.000Z</time>
      </trkpt>
      <trkpt lat="45.79379" lon="6.39858">
        <ele>1820</ele>
        <time>2019-02-17T11:51:12.000Z</time>
      </trkpt>
      <trkpt lat="45.79377" lon="6.39858">
        <ele>1820.8000488281</ele>
        <time>2019-02-17T11:51:16.000Z</time>
      </trkpt>
      <trkpt lat="45.79375" lon="6.39858">
        <ele>1821.1999511719</ele>
        <time>2019-02-17T11:51:21.000Z</time>
      </trkpt>
      <trkpt lat="45.79375" lon="6.39858">
        <ele>1821.1999511719</ele>
        <time>2019-02-17T11:51:29.000Z</time>
      </trkpt>
      <trkpt lat="45.79375" lon="6.39858">
        <ele>1821.1999511719</ele>
        <time>2019-02-17T11:51:34.000Z</time>
      </trkpt>
      <trkpt lat="45.79375" lon="6.39858">
        <ele>1820.1999511719</ele>
        <time>2019-02-17T11:51:47.000Z</time>
      </trkpt>
      <trkpt lat="45.79375" lon="6.39858">
        <ele>1819.8000488281</ele>
        <time>2019-02-17T11:51:48.000Z</time>
      </trkpt>
      <trkpt lat="45.79375" lon="6.39858">
        <ele>1818.8000488281</ele>
        <time>2019-02-17T11:51:51.000Z</time>
      </trkpt>
      <trkpt lat="45.79375" lon="6.39858">
        <ele>1820.4000244141</ele>
        <time>2019-02-17T11:51:54.000Z</time>
      </trkpt>
      <trkpt lat="45.79375" lon="6.39858">
        <ele>1820.4000244141</ele>
        <time>2019-02-17T11:52:02.000Z</time>
      </trkpt>
      <trkpt lat="45.79375" lon="6.39858">
        <ele>1820.8000488281</ele>
        <time>2019-02-17T11:52:17.000Z</time>
      </trkpt>
      <trkpt lat="45.79375" lon="6.39858">
        <ele>1821</ele>
        <time>2019-02-17T11:52:35.000Z</time>
      </trkpt>
      <trkpt lat="45.79375" lon="6.39858">
        <ele>1821.4000244141</ele>
        <time>2019-02-17T11:52:47.000Z</time>
      </trkpt>
      <trkpt lat="45.79375" lon="6.39858">
        <ele>1820.8000488281</ele>
        <time>2019-02-17T11:53:01.000Z</time>
      </trkpt>
      <trkpt lat="45.79375" lon="6.39858">
        <ele>1820.8000488281</ele>
        <time>2019-02-17T11:53:14.000Z</time>
      </trkpt>
      <trkpt lat="45.79375" lon="6.39858">
        <ele>1820.8000488281</ele>
        <time>2019-02-17T11:53:15.000Z</time>
      </trkpt>
      <trkpt lat="45.79375" lon="6.39858">
        <ele>1820.8000488281</ele>
        <time>2019-02-17T11:53:31.000Z</time>
      </trkpt>
      <trkpt lat="45.79375" lon="6.39858">
        <ele>1820</ele>
        <time>2019-02-17T11:53:51.000Z</time>
      </trkpt>
      <trkpt lat="45.79375" lon="6.39858">
        <ele>1820.4000244141</ele>
        <time>2019-02-17T11:53:54.000Z</time>
      </trkpt>
      <trkpt lat="45.79375" lon="6.39858">
        <ele>1820.8000488281</ele>
        <time>2019-02-17T11:54:09.000Z</time>
      </trkpt>
      <trkpt lat="45.79375" lon="6.39858">
        <ele>1821.1999511719</ele>
        <time>2019-02-17T11:54:15.000Z</time>
      </trkpt>
      <trkpt lat="45.79375" lon="6.39858">
        <ele>1821</ele>
        <time>2019-02-17T11:54:29.000Z</time>
      </trkpt>
      <trkpt lat="45.79375" lon="6.39859">
        <ele>1820.8000488281</ele>
        <time>2019-02-17T11:54:44.000Z</time>
      </trkpt>
      <trkpt lat="45.79375" lon="6.39859">
        <ele>1820.8000488281</ele>
        <time>2019-02-17T11:55:05.000Z</time>
      </trkpt>
      <trkpt lat="45.79375" lon="6.39859">
        <ele>1820.8000488281</ele>
        <time>2019-02-17T11:55:06.000Z</time>
      </trkpt>
      <trkpt lat="45.79375" lon="6.39859">
        <ele>1820.1999511719</ele>
        <time>2019-02-17T11:55:27.000Z</time>
      </trkpt>
      <trkpt lat="45.79375" lon="6.39859">
        <ele>1820.8000488281</ele>
        <time>2019-02-17T11:55:45.000Z</time>
      </trkpt>
      <trkpt lat="45.79375" lon="6.39858">
        <ele>1820.8000488281</ele>
        <time>2019-02-17T11:56:02.000Z</time>
      </trkpt>
      <trkpt lat="45.79375" lon="6.39858">
        <ele>1820.1999511719</ele>
        <time>2019-02-17T11:56:14.000Z</time>
      </trkpt>
      <trkpt lat="45.79375" lon="6.39858">
        <ele>1820.5999755859</ele>
        <time>2019-02-17T11:56:30.000Z</time>
      </trkpt>
      <trkpt lat="45.79375" lon="6.39858">
        <ele>1820.5999755859</ele>
        <time>2019-02-17T11:56:53.000Z</time>
      </trkpt>
      <trkpt lat="45.79375" lon="6.39858">
        <ele>1820.5999755859</ele>
        <time>2019-02-17T11:56:55.000Z</time>
      </trkpt>
      <trkpt lat="45.79375" lon="6.39858">
        <ele>1820.5999755859</ele>
        <time>2019-02-17T11:57:16.000Z</time>
      </trkpt>
      <trkpt lat="45.79375" lon="6.39858">
        <ele>1820.5999755859</ele>
        <time>2019-02-17T11:57:28.000Z</time>
      </trkpt>
      <trkpt lat="45.79375" lon="6.39858">
        <ele>1820.5999755859</ele>
        <time>2019-02-17T11:57:51.000Z</time>
      </trkpt>
      <trkpt lat="45.79375" lon="6.39858">
        <ele>1820.5999755859</ele>
        <time>2019-02-17T11:58:14.000Z</time>
      </trkpt>
      <trkpt lat="45.79375" lon="6.39858">
        <ele>1820.5999755859</ele>
        <time>2019-02-17T11:58:38.000Z</time>
      </trkpt>
      <trkpt lat="45.79375" lon="6.39859">
        <ele>1820.4000244141</ele>
        <time>2019-02-17T11:58:48.000Z</time>
      </trkpt>
      <trkpt lat="45.79375" lon="6.39859">
        <ele>1820.8000488281</ele>
        <time>2019-02-17T11:58:54.000Z</time>
      </trkpt>
      <trkpt lat="45.79375" lon="6.39859">
        <ele>1820.4000244141</ele>
        <time>2019-02-17T11:59:09.000Z</time>
      </trkpt>
      <trkpt lat="45.79375" lon="6.39859">
        <ele>1820.5999755859</ele>
        <time>2019-02-17T11:59:22.000Z</time>
      </trkpt>
      <trkpt lat="45.79375" lon="6.39859">
        <ele>1822.1999511719</ele>
        <time>2019-02-17T11:59:26.000Z</time>
      </trkpt>
      <trkpt lat="45.79375" lon="6.39859">
        <ele>1821</ele>
        <time>2019-02-17T11:59:30.000Z</time>
      </trkpt>
      <trkpt lat="45.79375" lon="6.39859">
        <ele>1820.8000488281</ele>
        <time>2019-02-17T11:59:33.000Z</time>
      </trkpt>
      <trkpt lat="45.79375" lon="6.39859">
        <ele>1820.5999755859</ele>
        <time>2019-02-17T11:59:49.000Z</time>
      </trkpt>
      <trkpt lat="45.79375" lon="6.39859">
        <ele>1820.5999755859</ele>
        <time>2019-02-17T12:00:04.000Z</time>
      </trkpt>
      <trkpt lat="45.79375" lon="6.39859">
        <ele>1820.5999755859</ele>
        <time>2019-02-17T12:00:24.000Z</time>
      </trkpt>
      <trkpt lat="45.79375" lon="6.39859">
        <ele>1820.5999755859</ele>
        <time>2019-02-17T12:00:39.000Z</time>
      </trkpt>
      <trkpt lat="45.79375" lon="6.39859">
        <ele>1821</ele>
        <time>2019-02-17T12:00:54.000Z</time>
      </trkpt>
      <trkpt lat="45.79375" lon="6.39859">
        <ele>1821</ele>
        <time>2019-02-17T12:01:07.000Z</time>
      </trkpt>
      <trkpt lat="45.79375" lon="6.39859">
        <ele>1819.8000488281</ele>
        <time>2019-02-17T12:01:17.000Z</time>
      </trkpt>
      <trkpt lat="45.79375" lon="6.39859">
        <ele>1819.1999511719</ele>
        <time>2019-02-17T12:01:19.000Z</time>
      </trkpt>
      <trkpt lat="45.79375" lon="6.39859">
        <ele>1821.1999511719</ele>
        <time>2019-02-17T12:01:23.000Z</time>
      </trkpt>
      <trkpt lat="45.79375" lon="6.39859">
        <ele>1821.8000488281</ele>
        <time>2019-02-17T12:01:27.000Z</time>
      </trkpt>
      <trkpt lat="45.79375" lon="6.39859">
        <ele>1821.4000244141</ele>
        <time>2019-02-17T12:01:33.000Z</time>
      </trkpt>
      <trkpt lat="45.79375" lon="6.39859">
        <ele>1821.5999755859</ele>
        <time>2019-02-17T12:01:48.000Z</time>
      </trkpt>
      <trkpt lat="45.79372" lon="6.39859">
        <ele>1822</ele>
        <time>2019-02-17T12:01:54.000Z</time>
      </trkpt>
      <trkpt lat="45.7937" lon="6.39861">
        <ele>1822.1999511719</ele>
        <time>2019-02-17T12:01:57.000Z</time>
      </trkpt>
      <trkpt lat="45.79368" lon="6.39863">
        <ele>1822.8000488281</ele>
        <time>2019-02-17T12:01:59.000Z</time>
      </trkpt>
      <trkpt lat="45.79364" lon="6.39864">
        <ele>1823.4000244141</ele>
        <time>2019-02-17T12:02:02.000Z</time>
      </trkpt>
      <trkpt lat="45.79363" lon="6.39865">
        <ele>1823.5999755859</ele>
        <time>2019-02-17T12:02:04.000Z</time>
      </trkpt>
      <trkpt lat="45.79358" lon="6.39867">
        <ele>1824.5999755859</ele>
        <time>2019-02-17T12:02:09.000Z</time>
      </trkpt>
      <trkpt lat="45.79353" lon="6.39868">
        <ele>1825.1999511719</ele>
        <time>2019-02-17T12:02:15.000Z</time>
      </trkpt>
      <trkpt lat="45.79352" lon="6.39869">
        <ele>1826</ele>
        <time>2019-02-17T12:02:18.000Z</time>
      </trkpt>
      <trkpt lat="45.79352" lon="6.39869">
        <ele>1826.1999511719</ele>
        <time>2019-02-17T12:02:20.000Z</time>
      </trkpt>
      <trkpt lat="45.79352" lon="6.39869">
        <ele>1827</ele>
        <time>2019-02-17T12:02:25.000Z</time>
      </trkpt>
      <trkpt lat="45.79352" lon="6.39869">
        <ele>1827.1999511719</ele>
        <time>2019-02-17T12:02:26.000Z</time>
      </trkpt>
      <trkpt lat="45.79351" lon="6.39869">
        <ele>1827.8000488281</ele>
        <time>2019-02-17T12:02:31.000Z</time>
      </trkpt>
      <trkpt lat="45.79351" lon="6.39869">
        <ele>1828</ele>
        <time>2019-02-17T12:02:33.000Z</time>
      </trkpt>
      <trkpt lat="45.79351" lon="6.39869">
        <ele>1828.8000488281</ele>
        <time>2019-02-17T12:02:37.000Z</time>
      </trkpt>
      <trkpt lat="45.79351" lon="6.39869">
        <ele>1829</ele>
        <time>2019-02-17T12:02:38.000Z</time>
      </trkpt>
      <trkpt lat="45.79348" lon="6.3987">
        <ele>1829.8000488281</ele>
        <time>2019-02-17T12:02:42.000Z</time>
      </trkpt>
      <trkpt lat="45.79347" lon="6.39871">
        <ele>1830.1999511719</ele>
        <time>2019-02-17T12:02:44.000Z</time>
      </trkpt>
      <trkpt lat="45.79343" lon="6.39872">
        <ele>1830.8000488281</ele>
        <time>2019-02-17T12:02:47.000Z</time>
      </trkpt>
      <trkpt lat="45.79342" lon="6.39872">
        <ele>1831.1999511719</ele>
        <time>2019-02-17T12:02:49.000Z</time>
      </trkpt>
      <trkpt lat="45.79342" lon="6.39872">
        <ele>1831.8000488281</ele>
        <time>2019-02-17T12:02:55.000Z</time>
      </trkpt>
      <trkpt lat="45.79342" lon="6.39872">
        <ele>1832.4000244141</ele>
        <time>2019-02-17T12:02:59.000Z</time>
      </trkpt>
      <trkpt lat="45.79342" lon="6.39872">
        <ele>1832.5999755859</ele>
        <time>2019-02-17T12:03:00.000Z</time>
      </trkpt>
      <trkpt lat="45.79337" lon="6.39874">
        <ele>1833.1999511719</ele>
        <time>2019-02-17T12:03:05.000Z</time>
      </trkpt>
      <trkpt lat="45.79336" lon="6.39874">
        <ele>1833.4000244141</ele>
        <time>2019-02-17T12:03:06.000Z</time>
      </trkpt>
      <trkpt lat="45.79331" lon="6.39877">
        <ele>1834.5999755859</ele>
        <time>2019-02-17T12:03:11.000Z</time>
      </trkpt>
      <trkpt lat="45.79329" lon="6.39878">
        <ele>1835.5999755859</ele>
        <time>2019-02-17T12:03:17.000Z</time>
      </trkpt>
      <trkpt lat="45.79329" lon="6.39878">
        <ele>1835.8000488281</ele>
        <time>2019-02-17T12:03:18.000Z</time>
      </trkpt>
      <trkpt lat="45.79329" lon="6.39878">
        <ele>1835.8000488281</ele>
        <time>2019-02-17T12:03:26.000Z</time>
      </trkpt>
      <trkpt lat="45.79331" lon="6.39881">
        <ele>1836.5999755859</ele>
        <time>2019-02-17T12:03:31.000Z</time>
      </trkpt>
      <trkpt lat="45.79331" lon="6.39882">
        <ele>1836.8000488281</ele>
        <time>2019-02-17T12:03:32.000Z</time>
      </trkpt>
      <trkpt lat="45.79333" lon="6.39885">
        <ele>1837.8000488281</ele>
        <time>2019-02-17T12:03:39.000Z</time>
      </trkpt>
      <trkpt lat="45.79335" lon="6.39887">
        <ele>1838.4000244141</ele>
        <time>2019-02-17T12:03:43.000Z</time>
      </trkpt>
      <trkpt lat="45.79336" lon="6.39889">
        <ele>1838.8000488281</ele>
        <time>2019-02-17T12:03:47.000Z</time>
      </trkpt>
      <trkpt lat="45.79336" lon="6.3989">
        <ele>1840</ele>
        <time>2019-02-17T12:03:50.000Z</time>
      </trkpt>
      <trkpt lat="45.79337" lon="6.39891">
        <ele>1840.8000488281</ele>
        <time>2019-02-17T12:03:52.000Z</time>
      </trkpt>
      <trkpt lat="45.79337" lon="6.39891">
        <ele>1841</ele>
        <time>2019-02-17T12:03:53.000Z</time>
      </trkpt>
      <trkpt lat="45.79337" lon="6.39891">
        <ele>1841.4000244141</ele>
        <time>2019-02-17T12:03:58.000Z</time>
      </trkpt>
      <trkpt lat="45.79337" lon="6.39891">
        <ele>1842</ele>
        <time>2019-02-17T12:04:01.000Z</time>
      </trkpt>
      <trkpt lat="45.79337" lon="6.39891">
        <ele>1843.1999511719</ele>
        <time>2019-02-17T12:04:04.000Z</time>
      </trkpt>
      <trkpt lat="45.79337" lon="6.39891">
        <ele>1843.4000244141</ele>
        <time>2019-02-17T12:04:06.000Z</time>
      </trkpt>
      <trkpt lat="45.79337" lon="6.39891">
        <ele>1844</ele>
        <time>2019-02-17T12:04:14.000Z</time>
      </trkpt>
      <trkpt lat="45.79337" lon="6.39891">
        <ele>1844.1999511719</ele>
        <time>2019-02-17T12:04:16.000Z</time>
      </trkpt>
      <trkpt lat="45.79337" lon="6.39891">
        <ele>1845.4000244141</ele>
        <time>2019-02-17T12:04:19.000Z</time>
      </trkpt>
      <trkpt lat="45.79337" lon="6.39891">
        <ele>1846</ele>
        <time>2019-02-17T12:04:21.000Z</time>
      </trkpt>
      <trkpt lat="45.79337" lon="6.39891">
        <ele>1846.4000244141</ele>
        <time>2019-02-17T12:04:28.000Z</time>
      </trkpt>
      <trkpt lat="45.79337" lon="6.39892">
        <ele>1846.5999755859</ele>
        <time>2019-02-17T12:04:32.000Z</time>
      </trkpt>
      <trkpt lat="45.79337" lon="6.39892">
        <ele>1847</ele>
        <time>2019-02-17T12:04:37.000Z</time>
      </trkpt>
      <trkpt lat="45.79337" lon="6.39892">
        <ele>1848.4000244141</ele>
        <time>2019-02-17T12:04:48.000Z</time>
      </trkpt>
      <trkpt lat="45.79337" lon="6.39892">
        <ele>1849</ele>
        <time>2019-02-17T12:04:50.000Z</time>
      </trkpt>
      <trkpt lat="45.79337" lon="6.39892">
        <ele>1848.4000244141</ele>
        <time>2019-02-17T12:04:56.000Z</time>
      </trkpt>
      <trkpt lat="45.79337" lon="6.39892">
        <ele>1849.5999755859</ele>
        <time>2019-02-17T12:05:04.000Z</time>
      </trkpt>
      <trkpt lat="45.79337" lon="6.39892">
        <ele>1850</ele>
        <time>2019-02-17T12:05:06.000Z</time>
      </trkpt>
      <trkpt lat="45.79337" lon="6.39892">
        <ele>1850.5999755859</ele>
        <time>2019-02-17T12:05:08.000Z</time>
      </trkpt>
      <trkpt lat="45.79339" lon="6.39893">
        <ele>1851</ele>
        <time>2019-02-17T12:05:13.000Z</time>
      </trkpt>
      <trkpt lat="45.7934" lon="6.39894">
        <ele>1851.5999755859</ele>
        <time>2019-02-17T12:05:16.000Z</time>
      </trkpt>
      <trkpt lat="45.7934" lon="6.39894">
        <ele>1851.8000488281</ele>
        <time>2019-02-17T12:05:18.000Z</time>
      </trkpt>
      <trkpt lat="45.7934" lon="6.39894">
        <ele>1852.8000488281</ele>
        <time>2019-02-17T12:05:26.000Z</time>
      </trkpt>
      <trkpt lat="45.7934" lon="6.39894">
        <ele>1853</ele>
        <time>2019-02-17T12:05:27.000Z</time>
      </trkpt>
      <trkpt lat="45.7934" lon="6.39894">
        <ele>1853.4000244141</ele>
        <time>2019-02-17T12:05:34.000Z</time>
      </trkpt>
      <trkpt lat="45.7934" lon="6.39894">
        <ele>1853.8000488281</ele>
        <time>2019-02-17T12:05:40.000Z</time>
      </trkpt>
      <trkpt lat="45.7934" lon="6.39894">
        <ele>1854.4000244141</ele>
        <time>2019-02-17T12:05:45.000Z</time>
      </trkpt>
      <trkpt lat="45.7934" lon="6.39894">
        <ele>1855</ele>
        <time>2019-02-17T12:05:48.000Z</time>
      </trkpt>
      <trkpt lat="45.79344" lon="6.39894">
        <ele>1854.5999755859</ele>
        <time>2019-02-17T12:05:56.000Z</time>
      </trkpt>
      <trkpt lat="45.79344" lon="6.39894">
        <ele>1854.8000488281</ele>
        <time>2019-02-17T12:06:03.000Z</time>
      </trkpt>
      <trkpt lat="45.79344" lon="6.39894">
        <ele>1855.8000488281</ele>
        <time>2019-02-17T12:06:09.000Z</time>
      </trkpt>
      <trkpt lat="45.79344" lon="6.39894">
        <ele>1856</ele>
        <time>2019-02-17T12:06:10.000Z</time>
      </trkpt>
      <trkpt lat="45.79344" lon="6.39894">
        <ele>1857.1999511719</ele>
        <time>2019-02-17T12:06:14.000Z</time>
      </trkpt>
      <trkpt lat="45.79344" lon="6.39894">
        <ele>1858.1999511719</ele>
        <time>2019-02-17T12:06:23.000Z</time>
      </trkpt>
      <trkpt lat="45.79344" lon="6.39894">
        <ele>1858.1999511719</ele>
        <time>2019-02-17T12:06:27.000Z</time>
      </trkpt>
      <trkpt lat="45.79344" lon="6.39894">
        <ele>1858.5999755859</ele>
        <time>2019-02-17T12:06:30.000Z</time>
      </trkpt>
      <trkpt lat="45.79344" lon="6.39895">
        <ele>1859.1999511719</ele>
        <time>2019-02-17T12:06:37.000Z</time>
      </trkpt>
      <trkpt lat="45.79344" lon="6.39895">
        <ele>1859.4000244141</ele>
        <time>2019-02-17T12:06:50.000Z</time>
      </trkpt>
      <trkpt lat="45.79344" lon="6.39895">
        <ele>1859.8000488281</ele>
        <time>2019-02-17T12:06:55.000Z</time>
      </trkpt>
      <trkpt lat="45.79344" lon="6.39895">
        <ele>1860.4000244141</ele>
        <time>2019-02-17T12:07:01.000Z</time>
      </trkpt>
      <trkpt lat="45.79344" lon="6.39895">
        <ele>1860.8000488281</ele>
        <time>2019-02-17T12:07:06.000Z</time>
      </trkpt>
      <trkpt lat="45.79344" lon="6.39895">
        <ele>1861.4000244141</ele>
        <time>2019-02-17T12:07:10.000Z</time>
      </trkpt>
      <trkpt lat="45.79344" lon="6.39895">
        <ele>1862</ele>
        <time>2019-02-17T12:07:13.000Z</time>
      </trkpt>
      <trkpt lat="45.79343" lon="6.39896">
        <ele>1861.8000488281</ele>
        <time>2019-02-17T12:07:26.000Z</time>
      </trkpt>
      <trkpt lat="45.79343" lon="6.39896">
        <ele>1862.1999511719</ele>
        <time>2019-02-17T12:07:38.000Z</time>
      </trkpt>
      <trkpt lat="45.79344" lon="6.39899">
        <ele>1861.4000244141</ele>
        <time>2019-02-17T12:07:43.000Z</time>
      </trkpt>
      <trkpt lat="45.79344" lon="6.39899">
        <ele>1862.8000488281</ele>
        <time>2019-02-17T12:07:49.000Z</time>
      </trkpt>
      <trkpt lat="45.79344" lon="6.39899">
        <ele>1863.4000244141</ele>
        <time>2019-02-17T12:07:51.000Z</time>
      </trkpt>
      <trkpt lat="45.79345" lon="6.39902">
        <ele>1864</ele>
        <time>2019-02-17T12:07:58.000Z</time>
      </trkpt>
      <trkpt lat="45.79345" lon="6.39902">
        <ele>1864</ele>
        <time>2019-02-17T12:07:59.000Z</time>
      </trkpt>
      <trkpt lat="45.79345" lon="6.39902">
        <ele>1864.4000244141</ele>
        <time>2019-02-17T12:08:11.000Z</time>
      </trkpt>
      <trkpt lat="45.79347" lon="6.39905">
        <ele>1865</ele>
        <time>2019-02-17T12:08:19.000Z</time>
      </trkpt>
      <trkpt lat="45.79347" lon="6.39905">
        <ele>1865</ele>
        <time>2019-02-17T12:08:20.000Z</time>
      </trkpt>
      <trkpt lat="45.79348" lon="6.39908">
        <ele>1865.4000244141</ele>
        <time>2019-02-17T12:08:24.000Z</time>
      </trkpt>
      <trkpt lat="45.79349" lon="6.3991">
        <ele>1866.1999511719</ele>
        <time>2019-02-17T12:08:29.000Z</time>
      </trkpt>
      <trkpt lat="45.7935" lon="6.39912">
        <ele>1866.1999511719</ele>
        <time>2019-02-17T12:08:30.000Z</time>
      </trkpt>
      <trkpt lat="45.79351" lon="6.39913">
        <ele>1866.5999755859</ele>
        <time>2019-02-17T12:08:40.000Z</time>
      </trkpt>
      <trkpt lat="45.79352" lon="6.39916">
        <ele>1867.1999511719</ele>
        <time>2019-02-17T12:08:44.000Z</time>
      </trkpt>
      <trkpt lat="45.79353" lon="6.39919">
        <ele>1867.1999511719</ele>
        <time>2019-02-17T12:08:47.000Z</time>
      </trkpt>
      <trkpt lat="45.79355" lon="6.39926">
        <ele>1867.1999511719</ele>
        <time>2019-02-17T12:08:52.000Z</time>
      </trkpt>
      <trkpt lat="45.79357" lon="6.39933">
        <ele>1867.1999511719</ele>
        <time>2019-02-17T12:08:57.000Z</time>
      </trkpt>
      <trkpt lat="45.79359" lon="6.39937">
        <ele>1868</ele>
        <time>2019-02-17T12:09:02.000Z</time>
      </trkpt>
      <trkpt lat="45.7936" lon="6.3994">
        <ele>1868</ele>
        <time>2019-02-17T12:09:07.000Z</time>
      </trkpt>
      <trkpt lat="45.7936" lon="6.3994">
        <ele>1868.4000244141</ele>
        <time>2019-02-17T12:09:14.000Z</time>
      </trkpt>
      <trkpt lat="45.7936" lon="6.3994">
        <ele>1869.4000244141</ele>
        <time>2019-02-17T12:09:19.000Z</time>
      </trkpt>
      <trkpt lat="45.7936" lon="6.3994">
        <ele>1869.4000244141</ele>
        <time>2019-02-17T12:09:20.000Z</time>
      </trkpt>
      <trkpt lat="45.7936" lon="6.3994">
        <ele>1870.1999511719</ele>
        <time>2019-02-17T12:09:26.000Z</time>
      </trkpt>
      <trkpt lat="45.7936" lon="6.3994">
        <ele>1869.4000244141</ele>
        <time>2019-02-17T12:09:36.000Z</time>
      </trkpt>
      <trkpt lat="45.79359" lon="6.39941">
        <ele>1869.5999755859</ele>
        <time>2019-02-17T12:09:42.000Z</time>
      </trkpt>
      <trkpt lat="45.79359" lon="6.39942">
        <ele>1870.4000244141</ele>
        <time>2019-02-17T12:09:47.000Z</time>
      </trkpt>
      <trkpt lat="45.79359" lon="6.39942">
        <ele>1870.5999755859</ele>
        <time>2019-02-17T12:09:48.000Z</time>
      </trkpt>
      <trkpt lat="45.79358" lon="6.39943">
        <ele>1871.1999511719</ele>
        <time>2019-02-17T12:09:55.000Z</time>
      </trkpt>
      <trkpt lat="45.79357" lon="6.39944">
        <ele>1871.5999755859</ele>
        <time>2019-02-17T12:10:00.000Z</time>
      </trkpt>
      <trkpt lat="45.79357" lon="6.39944">
        <ele>1871.5999755859</ele>
        <time>2019-02-17T12:10:02.000Z</time>
      </trkpt>
      <trkpt lat="45.79357" lon="6.39944">
        <ele>1871.4000244141</ele>
        <time>2019-02-17T12:10:14.000Z</time>
      </trkpt>
      <trkpt lat="45.79357" lon="6.39944">
        <ele>1872.1999511719</ele>
        <time>2019-02-17T12:10:24.000Z</time>
      </trkpt>
      <trkpt lat="45.79357" lon="6.39945">
        <ele>1870.4000244141</ele>
        <time>2019-02-17T12:10:30.000Z</time>
      </trkpt>
      <trkpt lat="45.79357" lon="6.39945">
        <ele>1871.5999755859</ele>
        <time>2019-02-17T12:10:35.000Z</time>
      </trkpt>
      <trkpt lat="45.79357" lon="6.39945">
        <ele>1872.1999511719</ele>
        <time>2019-02-17T12:10:41.000Z</time>
      </trkpt>
      <trkpt lat="45.79357" lon="6.39945">
        <ele>1872.4000244141</ele>
        <time>2019-02-17T12:10:58.000Z</time>
      </trkpt>
      <trkpt lat="45.79357" lon="6.39945">
        <ele>1872.8000488281</ele>
        <time>2019-02-17T12:11:01.000Z</time>
      </trkpt>
      <trkpt lat="45.79357" lon="6.39946">
        <ele>1872.8000488281</ele>
        <time>2019-02-17T12:11:08.000Z</time>
      </trkpt>
      <trkpt lat="45.79357" lon="6.39948">
        <ele>1872.4000244141</ele>
        <time>2019-02-17T12:11:13.000Z</time>
      </trkpt>
      <trkpt lat="45.79357" lon="6.39949">
        <ele>1872.5999755859</ele>
        <time>2019-02-17T12:11:16.000Z</time>
      </trkpt>
      <trkpt lat="45.79357" lon="6.39949">
        <ele>1873.1999511719</ele>
        <time>2019-02-17T12:11:21.000Z</time>
      </trkpt>
      <trkpt lat="45.7936" lon="6.39952">
        <ele>1873.4000244141</ele>
        <time>2019-02-17T12:11:27.000Z</time>
      </trkpt>
      <trkpt lat="45.79361" lon="6.39953">
        <ele>1873.8000488281</ele>
        <time>2019-02-17T12:11:31.000Z</time>
      </trkpt>
      <trkpt lat="45.79361" lon="6.39954">
        <ele>1874</ele>
        <time>2019-02-17T12:11:32.000Z</time>
      </trkpt>
      <trkpt lat="45.79363" lon="6.39955">
        <ele>1874.5999755859</ele>
        <time>2019-02-17T12:11:37.000Z</time>
      </trkpt>
      <trkpt lat="45.79363" lon="6.39955">
        <ele>1875</ele>
        <time>2019-02-17T12:11:43.000Z</time>
      </trkpt>
      <trkpt lat="45.79365" lon="6.39958">
        <ele>1875.4000244141</ele>
        <time>2019-02-17T12:11:49.000Z</time>
      </trkpt>
      <trkpt lat="45.79367" lon="6.39958">
        <ele>1876</ele>
        <time>2019-02-17T12:11:52.000Z</time>
      </trkpt>
      <trkpt lat="45.79368" lon="6.39959">
        <ele>1876</ele>
        <time>2019-02-17T12:11:53.000Z</time>
      </trkpt>
      <trkpt lat="45.79371" lon="6.3996">
        <ele>1876</ele>
        <time>2019-02-17T12:11:57.000Z</time>
      </trkpt>
      <trkpt lat="45.79373" lon="6.39963">
        <ele>1877</ele>
        <time>2019-02-17T12:12:01.000Z</time>
      </trkpt>
      <trkpt lat="45.79373" lon="6.39963">
        <ele>1877.4000244141</ele>
        <time>2019-02-17T12:12:02.000Z</time>
      </trkpt>
      <trkpt lat="45.79374" lon="6.39963">
        <ele>1877.8000488281</ele>
        <time>2019-02-17T12:12:10.000Z</time>
      </trkpt>
      <trkpt lat="45.79374" lon="6.39963">
        <ele>1878.1999511719</ele>
        <time>2019-02-17T12:12:11.000Z</time>
      </trkpt>
      <trkpt lat="45.79375" lon="6.39965">
        <ele>1879</ele>
        <time>2019-02-17T12:12:17.000Z</time>
      </trkpt>
      <trkpt lat="45.79375" lon="6.39965">
        <ele>1879.1999511719</ele>
        <time>2019-02-17T12:12:29.000Z</time>
      </trkpt>
      <trkpt lat="45.79375" lon="6.39965">
        <ele>1879.1999511719</ele>
        <time>2019-02-17T12:12:30.000Z</time>
      </trkpt>
      <trkpt lat="45.79375" lon="6.39965">
        <ele>1878.4000244141</ele>
        <time>2019-02-17T12:12:41.000Z</time>
      </trkpt>
      <trkpt lat="45.79375" lon="6.39965">
        <ele>1879.4000244141</ele>
        <time>2019-02-17T12:12:52.000Z</time>
      </trkpt>
      <trkpt lat="45.79374" lon="6.39965">
        <ele>1878.8000488281</ele>
        <time>2019-02-17T12:13:03.000Z</time>
      </trkpt>
      <trkpt lat="45.79374" lon="6.39965">
        <ele>1879.1999511719</ele>
        <time>2019-02-17T12:13:09.000Z</time>
      </trkpt>
      <trkpt lat="45.79374" lon="6.39965">
        <ele>1879.4000244141</ele>
        <time>2019-02-17T12:13:27.000Z</time>
      </trkpt>
      <trkpt lat="45.79372" lon="6.39965">
        <ele>1879.1999511719</ele>
        <time>2019-02-17T12:13:34.000Z</time>
      </trkpt>
      <trkpt lat="45.79369" lon="6.39966">
        <ele>1880.1999511719</ele>
        <time>2019-02-17T12:13:40.000Z</time>
      </trkpt>
      <trkpt lat="45.79368" lon="6.39966">
        <ele>1880.4000244141</ele>
        <time>2019-02-17T12:13:41.000Z</time>
      </trkpt>
      <trkpt lat="45.79364" lon="6.39967">
        <ele>1881</ele>
        <time>2019-02-17T12:13:48.000Z</time>
      </trkpt>
      <trkpt lat="45.79362" lon="6.39967">
        <ele>1881.1999511719</ele>
        <time>2019-02-17T12:13:51.000Z</time>
      </trkpt>
      <trkpt lat="45.79361" lon="6.39967">
        <ele>1881.5999755859</ele>
        <time>2019-02-17T12:13:53.000Z</time>
      </trkpt>
      <trkpt lat="45.79361" lon="6.39967">
        <ele>1882.1999511719</ele>
        <time>2019-02-17T12:13:57.000Z</time>
      </trkpt>
      <trkpt lat="45.79361" lon="6.39967">
        <ele>1882.4000244141</ele>
        <time>2019-02-17T12:14:00.000Z</time>
      </trkpt>
      <trkpt lat="45.79361" lon="6.39967">
        <ele>1882.1999511719</ele>
        <time>2019-02-17T12:14:10.000Z</time>
      </trkpt>
      <trkpt lat="45.79361" lon="6.39967">
        <ele>1882.8000488281</ele>
        <time>2019-02-17T12:14:18.000Z</time>
      </trkpt>
      <trkpt lat="45.7936" lon="6.39967">
        <ele>1883.4000244141</ele>
        <time>2019-02-17T12:14:28.000Z</time>
      </trkpt>
      <trkpt lat="45.79361" lon="6.39968">
        <ele>1884.1999511719</ele>
        <time>2019-02-17T12:14:34.000Z</time>
      </trkpt>
      <trkpt lat="45.79363" lon="6.39971">
        <ele>1883.4000244141</ele>
        <time>2019-02-17T12:14:40.000Z</time>
      </trkpt>
      <trkpt lat="45.79365" lon="6.39973">
        <ele>1884.5999755859</ele>
        <time>2019-02-17T12:14:46.000Z</time>
      </trkpt>
      <trkpt lat="45.79366" lon="6.39974">
        <ele>1885.1999511719</ele>
        <time>2019-02-17T12:14:49.000Z</time>
      </trkpt>
      <trkpt lat="45.79366" lon="6.39974">
        <ele>1885.5999755859</ele>
        <time>2019-02-17T12:14:51.000Z</time>
      </trkpt>
      <trkpt lat="45.79367" lon="6.39975">
        <ele>1885.8000488281</ele>
        <time>2019-02-17T12:14:54.000Z</time>
      </trkpt>
      <trkpt lat="45.79369" lon="6.39977">
        <ele>1886.4000244141</ele>
        <time>2019-02-17T12:15:02.000Z</time>
      </trkpt>
      <trkpt lat="45.79369" lon="6.39977">
        <ele>1886.8000488281</ele>
        <time>2019-02-17T12:15:07.000Z</time>
      </trkpt>
      <trkpt lat="45.79369" lon="6.39977">
        <ele>1887.5999755859</ele>
        <time>2019-02-17T12:15:10.000Z</time>
      </trkpt>
      <trkpt lat="45.7937" lon="6.39977">
        <ele>1888</ele>
        <time>2019-02-17T12:15:11.000Z</time>
      </trkpt>
      <trkpt lat="45.79371" lon="6.39979">
        <ele>1888.5999755859</ele>
        <time>2019-02-17T12:15:15.000Z</time>
      </trkpt>
      <trkpt lat="45.79372" lon="6.39981">
        <ele>1888.5999755859</ele>
        <time>2019-02-17T12:15:19.000Z</time>
      </trkpt>
      <trkpt lat="45.79373" lon="6.39982">
        <ele>1889</ele>
        <time>2019-02-17T12:15:21.000Z</time>
      </trkpt>
      <trkpt lat="45.79373" lon="6.39983">
        <ele>1889.1999511719</ele>
        <time>2019-02-17T12:15:24.000Z</time>
      </trkpt>
      <trkpt lat="45.79373" lon="6.39982">
        <ele>1890</ele>
        <time>2019-02-17T12:15:33.000Z</time>
      </trkpt>
      <trkpt lat="45.79373" lon="6.39982">
        <ele>1890</ele>
        <time>2019-02-17T12:15:34.000Z</time>
      </trkpt>
      <trkpt lat="45.79372" lon="6.39982">
        <ele>1890.1999511719</ele>
        <time>2019-02-17T12:15:44.000Z</time>
      </trkpt>
      <trkpt lat="45.79371" lon="6.39982">
        <ele>1890.8000488281</ele>
        <time>2019-02-17T12:15:49.000Z</time>
      </trkpt>
      <trkpt lat="45.7937" lon="6.39983">
        <ele>1891</ele>
        <time>2019-02-17T12:15:54.000Z</time>
      </trkpt>
      <trkpt lat="45.79369" lon="6.39984">
        <ele>1891.1999511719</ele>
        <time>2019-02-17T12:15:56.000Z</time>
      </trkpt>
      <trkpt lat="45.79367" lon="6.39985">
        <ele>1892</ele>
        <time>2019-02-17T12:16:00.000Z</time>
      </trkpt>
      <trkpt lat="45.79366" lon="6.39985">
        <ele>1892.1999511719</ele>
        <time>2019-02-17T12:16:01.000Z</time>
      </trkpt>
      <trkpt lat="45.79363" lon="6.39986">
        <ele>1892.8000488281</ele>
        <time>2019-02-17T12:16:07.000Z</time>
      </trkpt>
      <trkpt lat="45.79362" lon="6.39986">
        <ele>1893.1999511719</ele>
        <time>2019-02-17T12:16:09.000Z</time>
      </trkpt>
      <trkpt lat="45.79361" lon="6.39985">
        <ele>1894</ele>
        <time>2019-02-17T12:16:13.000Z</time>
      </trkpt>
      <trkpt lat="45.7936" lon="6.39985">
        <ele>1894.4000244141</ele>
        <time>2019-02-17T12:16:15.000Z</time>
      </trkpt>
      <trkpt lat="45.79358" lon="6.39986">
        <ele>1894.8000488281</ele>
        <time>2019-02-17T12:16:18.000Z</time>
      </trkpt>
      <trkpt lat="45.79357" lon="6.39986">
        <ele>1895.4000244141</ele>
        <time>2019-02-17T12:16:23.000Z</time>
      </trkpt>
      <trkpt lat="45.79357" lon="6.39986">
        <ele>1895.4000244141</ele>
        <time>2019-02-17T12:16:24.000Z</time>
      </trkpt>
      <trkpt lat="45.79356" lon="6.39986">
        <ele>1896.4000244141</ele>
        <time>2019-02-17T12:16:29.000Z</time>
      </trkpt>
      <trkpt lat="45.79353" lon="6.39986">
        <ele>1896.1999511719</ele>
        <time>2019-02-17T12:16:34.000Z</time>
      </trkpt>
      <trkpt lat="45.7935" lon="6.39987">
        <ele>1896.5999755859</ele>
        <time>2019-02-17T12:16:39.000Z</time>
      </trkpt>
      <trkpt lat="45.79348" lon="6.39986">
        <ele>1897.1999511719</ele>
        <time>2019-02-17T12:16:41.000Z</time>
      </trkpt>
      <trkpt lat="45.79347" lon="6.39986">
        <ele>1897.8000488281</ele>
        <time>2019-02-17T12:16:43.000Z</time>
      </trkpt>
      <trkpt lat="45.79345" lon="6.39987">
        <ele>1898.5999755859</ele>
        <time>2019-02-17T12:16:47.000Z</time>
      </trkpt>
      <trkpt lat="45.79345" lon="6.39987">
        <ele>1898.8000488281</ele>
        <time>2019-02-17T12:16:50.000Z</time>
      </trkpt>
      <trkpt lat="45.79343" lon="6.39987">
        <ele>1899</ele>
        <time>2019-02-17T12:16:55.000Z</time>
      </trkpt>
      <trkpt lat="45.79341" lon="6.39987">
        <ele>1899.4000244141</ele>
        <time>2019-02-17T12:17:01.000Z</time>
      </trkpt>
      <trkpt lat="45.7934" lon="6.39987">
        <ele>1899.8000488281</ele>
        <time>2019-02-17T12:17:03.000Z</time>
      </trkpt>
      <trkpt lat="45.7934" lon="6.39987">
        <ele>1900.4000244141</ele>
        <time>2019-02-17T12:17:11.000Z</time>
      </trkpt>
      <trkpt lat="45.7934" lon="6.39987">
        <ele>1900.5999755859</ele>
        <time>2019-02-17T12:17:27.000Z</time>
      </trkpt>
      <trkpt lat="45.7934" lon="6.39987">
        <ele>1900.5999755859</ele>
        <time>2019-02-17T12:17:44.000Z</time>
      </trkpt>
      <trkpt lat="45.7934" lon="6.39987">
        <ele>1900.4000244141</ele>
        <time>2019-02-17T12:17:57.000Z</time>
      </trkpt>
      <trkpt lat="45.7934" lon="6.39987">
        <ele>1900.8000488281</ele>
        <time>2019-02-17T12:18:14.000Z</time>
      </trkpt>
      <trkpt lat="45.79341" lon="6.39988">
        <ele>1901</ele>
        <time>2019-02-17T12:18:22.000Z</time>
      </trkpt>
      <trkpt lat="45.79342" lon="6.3999">
        <ele>1901.5999755859</ele>
        <time>2019-02-17T12:18:26.000Z</time>
      </trkpt>
      <trkpt lat="45.79342" lon="6.39991">
        <ele>1902.1999511719</ele>
        <time>2019-02-17T12:18:30.000Z</time>
      </trkpt>
      <trkpt lat="45.79342" lon="6.39992">
        <ele>1902.5999755859</ele>
        <time>2019-02-17T12:18:32.000Z</time>
      </trkpt>
      <trkpt lat="45.79343" lon="6.39993">
        <ele>1903.4000244141</ele>
        <time>2019-02-17T12:18:36.000Z</time>
      </trkpt>
      <trkpt lat="45.79343" lon="6.39994">
        <ele>1903.4000244141</ele>
        <time>2019-02-17T12:18:37.000Z</time>
      </trkpt>
      <trkpt lat="45.79346" lon="6.39998">
        <ele>1903.5999755859</ele>
        <time>2019-02-17T12:18:42.000Z</time>
      </trkpt>
      <trkpt lat="45.79347" lon="6.39999">
        <ele>1904.5999755859</ele>
        <time>2019-02-17T12:18:46.000Z</time>
      </trkpt>
      <trkpt lat="45.7935" lon="6.40002">
        <ele>1905.1999511719</ele>
        <time>2019-02-17T12:18:50.000Z</time>
      </trkpt>
      <trkpt lat="45.79352" lon="6.40004">
        <ele>1905.5999755859</ele>
        <time>2019-02-17T12:18:55.000Z</time>
      </trkpt>
      <trkpt lat="45.79353" lon="6.40005">
        <ele>1906</ele>
        <time>2019-02-17T12:18:56.000Z</time>
      </trkpt>
      <trkpt lat="45.79355" lon="6.40007">
        <ele>1906.8000488281</ele>
        <time>2019-02-17T12:19:00.000Z</time>
      </trkpt>
      <trkpt lat="45.79357" lon="6.40008">
        <ele>1907</ele>
        <time>2019-02-17T12:19:04.000Z</time>
      </trkpt>
      <trkpt lat="45.79358" lon="6.40009">
        <ele>1907.4000244141</ele>
        <time>2019-02-17T12:19:07.000Z</time>
      </trkpt>
      <trkpt lat="45.79359" lon="6.4001">
        <ele>1908</ele>
        <time>2019-02-17T12:19:12.000Z</time>
      </trkpt>
      <trkpt lat="45.7936" lon="6.40011">
        <ele>1908</ele>
        <time>2019-02-17T12:19:14.000Z</time>
      </trkpt>
      <trkpt lat="45.79361" lon="6.40013">
        <ele>1908.5999755859</ele>
        <time>2019-02-17T12:19:18.000Z</time>
      </trkpt>
      <trkpt lat="45.79362" lon="6.40013">
        <ele>1909</ele>
        <time>2019-02-17T12:19:29.000Z</time>
      </trkpt>
      <trkpt lat="45.79362" lon="6.40013">
        <ele>1909</ele>
        <time>2019-02-17T12:19:30.000Z</time>
      </trkpt>
      <trkpt lat="45.79364" lon="6.40015">
        <ele>1910</ele>
        <time>2019-02-17T12:19:38.000Z</time>
      </trkpt>
      <trkpt lat="45.79366" lon="6.40017">
        <ele>1910</ele>
        <time>2019-02-17T12:19:44.000Z</time>
      </trkpt>
      <trkpt lat="45.79368" lon="6.40019">
        <ele>1910.1999511719</ele>
        <time>2019-02-17T12:19:47.000Z</time>
      </trkpt>
      <trkpt lat="45.79371" lon="6.40022">
        <ele>1910.4000244141</ele>
        <time>2019-02-17T12:19:54.000Z</time>
      </trkpt>
      <trkpt lat="45.79372" lon="6.40024">
        <ele>1911.1999511719</ele>
        <time>2019-02-17T12:19:58.000Z</time>
      </trkpt>
      <trkpt lat="45.79375" lon="6.40026">
        <ele>1912</ele>
        <time>2019-02-17T12:20:02.000Z</time>
      </trkpt>
      <trkpt lat="45.79375" lon="6.40027">
        <ele>1912.1999511719</ele>
        <time>2019-02-17T12:20:04.000Z</time>
      </trkpt>
      <trkpt lat="45.79377" lon="6.4003">
        <ele>1912</ele>
        <time>2019-02-17T12:20:09.000Z</time>
      </trkpt>
      <trkpt lat="45.79378" lon="6.40032">
        <ele>1912.8000488281</ele>
        <time>2019-02-17T12:20:14.000Z</time>
      </trkpt>
      <trkpt lat="45.79379" lon="6.40033">
        <ele>1913</ele>
        <time>2019-02-17T12:20:23.000Z</time>
      </trkpt>
      <trkpt lat="45.79379" lon="6.40033">
        <ele>1913.1999511719</ele>
        <time>2019-02-17T12:20:24.000Z</time>
      </trkpt>
      <trkpt lat="45.79379" lon="6.40033">
        <ele>1913.5999755859</ele>
        <time>2019-02-17T12:20:48.000Z</time>
      </trkpt>
      <trkpt lat="45.7938" lon="6.40034">
        <ele>1913.8000488281</ele>
        <time>2019-02-17T12:20:54.000Z</time>
      </trkpt>
      <trkpt lat="45.79382" lon="6.40038">
        <ele>1914.1999511719</ele>
        <time>2019-02-17T12:21:01.000Z</time>
      </trkpt>
      <trkpt lat="45.79382" lon="6.40039">
        <ele>1914.1999511719</ele>
        <time>2019-02-17T12:21:03.000Z</time>
      </trkpt>
      <trkpt lat="45.79384" lon="6.40042">
        <ele>1914.5999755859</ele>
        <time>2019-02-17T12:21:06.000Z</time>
      </trkpt>
      <trkpt lat="45.79387" lon="6.40045">
        <ele>1915.1999511719</ele>
        <time>2019-02-17T12:21:10.000Z</time>
      </trkpt>
      <trkpt lat="45.79387" lon="6.40047">
        <ele>1915.4000244141</ele>
        <time>2019-02-17T12:21:13.000Z</time>
      </trkpt>
      <trkpt lat="45.79387" lon="6.40047">
        <ele>1915.4000244141</ele>
        <time>2019-02-17T12:21:14.000Z</time>
      </trkpt>
      <trkpt lat="45.79387" lon="6.40047">
        <ele>1915.8000488281</ele>
        <time>2019-02-17T12:21:16.000Z</time>
      </trkpt>
      <trkpt lat="45.79387" lon="6.40047">
        <ele>1915.5999755859</ele>
        <time>2019-02-17T12:21:24.000Z</time>
      </trkpt>
      <trkpt lat="45.79387" lon="6.40047">
        <ele>1916.5999755859</ele>
        <time>2019-02-17T12:21:27.000Z</time>
      </trkpt>
      <trkpt lat="45.79387" lon="6.40047">
        <ele>1916.4000244141</ele>
        <time>2019-02-17T12:21:35.000Z</time>
      </trkpt>
      <trkpt lat="45.79385" lon="6.40046">
        <ele>1916</ele>
        <time>2019-02-17T12:21:44.000Z</time>
      </trkpt>
      <trkpt lat="45.79381" lon="6.40045">
        <ele>1916.8000488281</ele>
        <time>2019-02-17T12:21:51.000Z</time>
      </trkpt>
      <trkpt lat="45.79378" lon="6.40045">
        <ele>1917.1999511719</ele>
        <time>2019-02-17T12:21:56.000Z</time>
      </trkpt>
      <trkpt lat="45.79377" lon="6.40046">
        <ele>1917.5999755859</ele>
        <time>2019-02-17T12:21:58.000Z</time>
      </trkpt>
      <trkpt lat="45.79374" lon="6.40044">
        <ele>1918.4000244141</ele>
        <time>2019-02-17T12:22:03.000Z</time>
      </trkpt>
      <trkpt lat="45.79375" lon="6.40045">
        <ele>1918.5999755859</ele>
        <time>2019-02-17T12:22:04.000Z</time>
      </trkpt>
      <trkpt lat="45.79373" lon="6.40044">
        <ele>1919.1999511719</ele>
        <time>2019-02-17T12:22:08.000Z</time>
      </trkpt>
      <trkpt lat="45.7937" lon="6.40043">
        <ele>1919.5999755859</ele>
        <time>2019-02-17T12:22:13.000Z</time>
      </trkpt>
      <trkpt lat="45.79369" lon="6.40043">
        <ele>1919.8000488281</ele>
        <time>2019-02-17T12:22:15.000Z</time>
      </trkpt>
      <trkpt lat="45.79368" lon="6.40043">
        <ele>1920.1999511719</ele>
        <time>2019-02-17T12:22:18.000Z</time>
      </trkpt>
      <trkpt lat="45.79366" lon="6.40042">
        <ele>1921</ele>
        <time>2019-02-17T12:22:22.000Z</time>
      </trkpt>
      <trkpt lat="45.79363" lon="6.40041">
        <ele>1921.8000488281</ele>
        <time>2019-02-17T12:22:26.000Z</time>
      </trkpt>
      <trkpt lat="45.79362" lon="6.4004">
        <ele>1922</ele>
        <time>2019-02-17T12:22:29.000Z</time>
      </trkpt>
      <trkpt lat="45.79361" lon="6.4004">
        <ele>1922.5999755859</ele>
        <time>2019-02-17T12:22:34.000Z</time>
      </trkpt>
      <trkpt lat="45.79358" lon="6.40039">
        <ele>1923</ele>
        <time>2019-02-17T12:22:41.000Z</time>
      </trkpt>
      <trkpt lat="45.79358" lon="6.40039">
        <ele>1923</ele>
        <time>2019-02-17T12:22:42.000Z</time>
      </trkpt>
      <trkpt lat="45.79355" lon="6.40039">
        <ele>1923.8000488281</ele>
        <time>2019-02-17T12:22:47.000Z</time>
      </trkpt>
      <trkpt lat="45.79354" lon="6.40039">
        <ele>1924</ele>
        <time>2019-02-17T12:22:49.000Z</time>
      </trkpt>
      <trkpt lat="45.79353" lon="6.40038">
        <ele>1924.5999755859</ele>
        <time>2019-02-17T12:22:53.000Z</time>
      </trkpt>
      <trkpt lat="45.79349" lon="6.40038">
        <ele>1924.8000488281</ele>
        <time>2019-02-17T12:22:59.000Z</time>
      </trkpt>
      <trkpt lat="45.79347" lon="6.40038">
        <ele>1925.1999511719</ele>
        <time>2019-02-17T12:23:01.000Z</time>
      </trkpt>
      <trkpt lat="45.79345" lon="6.40037">
        <ele>1925.5999755859</ele>
        <time>2019-02-17T12:23:05.000Z</time>
      </trkpt>
      <trkpt lat="45.79341" lon="6.40036">
        <ele>1926</ele>
        <time>2019-02-17T12:23:12.000Z</time>
      </trkpt>
      <trkpt lat="45.7934" lon="6.40036">
        <ele>1926.1999511719</ele>
        <time>2019-02-17T12:23:13.000Z</time>
      </trkpt>
      <trkpt lat="45.79337" lon="6.40036">
        <ele>1927.1999511719</ele>
        <time>2019-02-17T12:23:17.000Z</time>
      </trkpt>
      <trkpt lat="45.79336" lon="6.40035">
        <ele>1927.4000244141</ele>
        <time>2019-02-17T12:23:18.000Z</time>
      </trkpt>
      <trkpt lat="45.79334" lon="6.40035">
        <ele>1927.8000488281</ele>
        <time>2019-02-17T12:23:23.000Z</time>
      </trkpt>
      <trkpt lat="45.79331" lon="6.40035">
        <ele>1928</ele>
        <time>2019-02-17T12:23:29.000Z</time>
      </trkpt>
      <trkpt lat="45.79331" lon="6.40035">
        <ele>1928.1999511719</ele>
        <time>2019-02-17T12:23:30.000Z</time>
      </trkpt>
      <trkpt lat="45.79331" lon="6.40035">
        <ele>1928.4000244141</ele>
        <time>2019-02-17T12:23:44.000Z</time>
      </trkpt>
      <trkpt lat="45.79331" lon="6.40035">
        <ele>1928.4000244141</ele>
        <time>2019-02-17T12:24:00.000Z</time>
      </trkpt>
      <trkpt lat="45.79332" lon="6.40035">
        <ele>1928.1999511719</ele>
        <time>2019-02-17T12:24:11.000Z</time>
      </trkpt>
      <trkpt lat="45.79334" lon="6.40037">
        <ele>1929</ele>
        <time>2019-02-17T12:24:17.000Z</time>
      </trkpt>
      <trkpt lat="45.79336" lon="6.40039">
        <ele>1929.5999755859</ele>
        <time>2019-02-17T12:24:21.000Z</time>
      </trkpt>
      <trkpt lat="45.79337" lon="6.4004">
        <ele>1930</ele>
        <time>2019-02-17T12:24:23.000Z</time>
      </trkpt>
      <trkpt lat="45.79339" lon="6.40042">
        <ele>1930.4000244141</ele>
        <time>2019-02-17T12:24:29.000Z</time>
      </trkpt>
      <trkpt lat="45.79341" lon="6.40043">
        <ele>1930.8000488281</ele>
        <time>2019-02-17T12:24:32.000Z</time>
      </trkpt>
      <trkpt lat="45.79342" lon="6.40045">
        <ele>1931</ele>
        <time>2019-02-17T12:24:35.000Z</time>
      </trkpt>
      <trkpt lat="45.79344" lon="6.40047">
        <ele>1931.4000244141</ele>
        <time>2019-02-17T12:24:40.000Z</time>
      </trkpt>
      <trkpt lat="45.79345" lon="6.40048">
        <ele>1932</ele>
        <time>2019-02-17T12:24:42.000Z</time>
      </trkpt>
      <trkpt lat="45.79347" lon="6.40051">
        <ele>1933</ele>
        <time>2019-02-17T12:24:45.000Z</time>
      </trkpt>
      <trkpt lat="45.79349" lon="6.40052">
        <ele>1933.1999511719</ele>
        <time>2019-02-17T12:24:50.000Z</time>
      </trkpt>
      <trkpt lat="45.7935" lon="6.40054">
        <ele>1933.4000244141</ele>
        <time>2019-02-17T12:24:54.000Z</time>
      </trkpt>
      <trkpt lat="45.79351" lon="6.40054">
        <ele>1934.1999511719</ele>
        <time>2019-02-17T12:24:59.000Z</time>
      </trkpt>
      <trkpt lat="45.79351" lon="6.40054">
        <ele>1934.1999511719</ele>
        <time>2019-02-17T12:25:03.000Z</time>
      </trkpt>
      <trkpt lat="45.79353" lon="6.40056">
        <ele>1934.4000244141</ele>
        <time>2019-02-17T12:25:11.000Z</time>
      </trkpt>
      <trkpt lat="45.79354" lon="6.40056">
        <ele>1933</ele>
        <time>2019-02-17T12:25:16.000Z</time>
      </trkpt>
      <trkpt lat="45.79354" lon="6.40056">
        <ele>1933.5999755859</ele>
        <time>2019-02-17T12:25:21.000Z</time>
      </trkpt>
      <trkpt lat="45.79354" lon="6.40056">
        <ele>1934.5999755859</ele>
        <time>2019-02-17T12:25:22.000Z</time>
      </trkpt>
      <trkpt lat="45.79354" lon="6.40056">
        <ele>1935.8000488281</ele>
        <time>2019-02-17T12:25:25.000Z</time>
      </trkpt>
      <trkpt lat="45.79354" lon="6.40056">
        <ele>1935.8000488281</ele>
        <time>2019-02-17T12:25:28.000Z</time>
      </trkpt>
      <trkpt lat="45.79352" lon="6.40056">
        <ele>1935</ele>
        <time>2019-02-17T12:25:36.000Z</time>
      </trkpt>
      <trkpt lat="45.7935" lon="6.40055">
        <ele>1935</ele>
        <time>2019-02-17T12:25:38.000Z</time>
      </trkpt>
      <trkpt lat="45.79349" lon="6.40056">
        <ele>1935.1999511719</ele>
        <time>2019-02-17T12:25:41.000Z</time>
      </trkpt>
      <trkpt lat="45.79344" lon="6.40055">
        <ele>1936</ele>
        <time>2019-02-17T12:25:47.000Z</time>
      </trkpt>
      <trkpt lat="45.79342" lon="6.40055">
        <ele>1936.5999755859</ele>
        <time>2019-02-17T12:25:52.000Z</time>
      </trkpt>
      <trkpt lat="45.7934" lon="6.40055">
        <ele>1937</ele>
        <time>2019-02-17T12:25:55.000Z</time>
      </trkpt>
      <trkpt lat="45.79337" lon="6.40054">
        <ele>1937.1999511719</ele>
        <time>2019-02-17T12:25:58.000Z</time>
      </trkpt>
      <trkpt lat="45.79336" lon="6.40054">
        <ele>1937.1999511719</ele>
        <time>2019-02-17T12:26:03.000Z</time>
      </trkpt>
      <trkpt lat="45.79331" lon="6.40054">
        <ele>1937.8000488281</ele>
        <time>2019-02-17T12:26:09.000Z</time>
      </trkpt>
      <trkpt lat="45.79327" lon="6.40054">
        <ele>1938.1999511719</ele>
        <time>2019-02-17T12:26:15.000Z</time>
      </trkpt>
      <trkpt lat="45.79324" lon="6.40056">
        <ele>1939.5999755859</ele>
        <time>2019-02-17T12:26:21.000Z</time>
      </trkpt>
      <trkpt lat="45.79324" lon="6.40056">
        <ele>1940</ele>
        <time>2019-02-17T12:26:23.000Z</time>
      </trkpt>
      <trkpt lat="45.79324" lon="6.40057">
        <ele>1940.4000244141</ele>
        <time>2019-02-17T12:26:37.000Z</time>
      </trkpt>
      <trkpt lat="45.79325" lon="6.40058">
        <ele>1940.8000488281</ele>
        <time>2019-02-17T12:26:42.000Z</time>
      </trkpt>
      <trkpt lat="45.79325" lon="6.40058">
        <ele>1941.4000244141</ele>
        <time>2019-02-17T12:26:43.000Z</time>
      </trkpt>
      <trkpt lat="45.79328" lon="6.40061">
        <ele>1941.8000488281</ele>
        <time>2019-02-17T12:26:49.000Z</time>
      </trkpt>
      <trkpt lat="45.79329" lon="6.40061">
        <ele>1942</ele>
        <time>2019-02-17T12:26:50.000Z</time>
      </trkpt>
      <trkpt lat="45.79331" lon="6.40062">
        <ele>1942.4000244141</ele>
        <time>2019-02-17T12:26:54.000Z</time>
      </trkpt>
      <trkpt lat="45.79333" lon="6.40063">
        <ele>1943</ele>
        <time>2019-02-17T12:26:57.000Z</time>
      </trkpt>
      <trkpt lat="45.79335" lon="6.40065">
        <ele>1943.5999755859</ele>
        <time>2019-02-17T12:27:01.000Z</time>
      </trkpt>
      <trkpt lat="45.79336" lon="6.40066">
        <ele>1944</ele>
        <time>2019-02-17T12:27:03.000Z</time>
      </trkpt>
      <trkpt lat="45.79338" lon="6.40068">
        <ele>1944.5999755859</ele>
        <time>2019-02-17T12:27:07.000Z</time>
      </trkpt>
      <trkpt lat="45.7934" lon="6.4007">
        <ele>1945</ele>
        <time>2019-02-17T12:27:11.000Z</time>
      </trkpt>
      <trkpt lat="45.79341" lon="6.40071">
        <ele>1945.8000488281</ele>
        <time>2019-02-17T12:27:14.000Z</time>
      </trkpt>
      <trkpt lat="45.79342" lon="6.40071">
        <ele>1946.1999511719</ele>
        <time>2019-02-17T12:27:17.000Z</time>
      </trkpt>
      <trkpt lat="45.79345" lon="6.40074">
        <ele>1946.5999755859</ele>
        <time>2019-02-17T12:27:23.000Z</time>
      </trkpt>
      <trkpt lat="45.79347" lon="6.40077">
        <ele>1947.4000244141</ele>
        <time>2019-02-17T12:27:29.000Z</time>
      </trkpt>
      <trkpt lat="45.79349" lon="6.40079">
        <ele>1947.4000244141</ele>
        <time>2019-02-17T12:27:36.000Z</time>
      </trkpt>
      <trkpt lat="45.79349" lon="6.40079">
        <ele>1946.4000244141</ele>
        <time>2019-02-17T12:27:39.000Z</time>
      </trkpt>
      <trkpt lat="45.79348" lon="6.40079">
        <ele>1946.4000244141</ele>
        <time>2019-02-17T12:27:43.000Z</time>
      </trkpt>
      <trkpt lat="45.79348" lon="6.40079">
        <ele>1947.5999755859</ele>
        <time>2019-02-17T12:27:45.000Z</time>
      </trkpt>
      <trkpt lat="45.79348" lon="6.40079">
        <ele>1948.5999755859</ele>
        <time>2019-02-17T12:27:47.000Z</time>
      </trkpt>
      <trkpt lat="45.79345" lon="6.40078">
        <ele>1948.1999511719</ele>
        <time>2019-02-17T12:27:53.000Z</time>
      </trkpt>
      <trkpt lat="45.79342" lon="6.40078">
        <ele>1948.4000244141</ele>
        <time>2019-02-17T12:27:59.000Z</time>
      </trkpt>
      <trkpt lat="45.79337" lon="6.40078">
        <ele>1949.5999755859</ele>
        <time>2019-02-17T12:28:05.000Z</time>
      </trkpt>
      <trkpt lat="45.79337" lon="6.40078">
        <ele>1949.8000488281</ele>
        <time>2019-02-17T12:28:06.000Z</time>
      </trkpt>
      <trkpt lat="45.79335" lon="6.40078">
        <ele>1950</ele>
        <time>2019-02-17T12:28:11.000Z</time>
      </trkpt>
      <trkpt lat="45.79331" lon="6.40078">
        <ele>1950.8000488281</ele>
        <time>2019-02-17T12:28:18.000Z</time>
      </trkpt>
      <trkpt lat="45.7933" lon="6.40078">
        <ele>1950.8000488281</ele>
        <time>2019-02-17T12:28:19.000Z</time>
      </trkpt>
      <trkpt lat="45.79328" lon="6.40077">
        <ele>1951</ele>
        <time>2019-02-17T12:28:24.000Z</time>
      </trkpt>
      <trkpt lat="45.79328" lon="6.40077">
        <ele>1951.8000488281</ele>
        <time>2019-02-17T12:28:31.000Z</time>
      </trkpt>
      <trkpt lat="45.79328" lon="6.40077">
        <ele>1952</ele>
        <time>2019-02-17T12:28:47.000Z</time>
      </trkpt>
      <trkpt lat="45.79328" lon="6.40077">
        <ele>1951.5999755859</ele>
        <time>2019-02-17T12:28:59.000Z</time>
      </trkpt>
      <trkpt lat="45.79325" lon="6.40077">
        <ele>1952.4000244141</ele>
        <time>2019-02-17T12:29:06.000Z</time>
      </trkpt>
      <trkpt lat="45.79325" lon="6.40078">
        <ele>1952.8000488281</ele>
        <time>2019-02-17T12:29:18.000Z</time>
      </trkpt>
      <trkpt lat="45.79325" lon="6.40078">
        <ele>1952.8000488281</ele>
        <time>2019-02-17T12:29:19.000Z</time>
      </trkpt>
      <trkpt lat="45.79325" lon="6.4008">
        <ele>1953.1999511719</ele>
        <time>2019-02-17T12:29:26.000Z</time>
      </trkpt>
      <trkpt lat="45.79326" lon="6.40081">
        <ele>1954</ele>
        <time>2019-02-17T12:29:29.000Z</time>
      </trkpt>
      <trkpt lat="45.79327" lon="6.40081">
        <ele>1954</ele>
        <time>2019-02-17T12:29:32.000Z</time>
      </trkpt>
      <trkpt lat="45.7933" lon="6.40084">
        <ele>1954.5999755859</ele>
        <time>2019-02-17T12:29:36.000Z</time>
      </trkpt>
      <trkpt lat="45.79331" lon="6.40085">
        <ele>1955</ele>
        <time>2019-02-17T12:29:39.000Z</time>
      </trkpt>
      <trkpt lat="45.79332" lon="6.40086">
        <ele>1955</ele>
        <time>2019-02-17T12:29:40.000Z</time>
      </trkpt>
      <trkpt lat="45.79333" lon="6.40088">
        <ele>1955.5999755859</ele>
        <time>2019-02-17T12:29:45.000Z</time>
      </trkpt>
      <trkpt lat="45.79336" lon="6.4009">
        <ele>1956</ele>
        <time>2019-02-17T12:29:49.000Z</time>
      </trkpt>
      <trkpt lat="45.79337" lon="6.4009">
        <ele>1956.4000244141</ele>
        <time>2019-02-17T12:29:51.000Z</time>
      </trkpt>
      <trkpt lat="45.79338" lon="6.40091">
        <ele>1957</ele>
        <time>2019-02-17T12:29:54.000Z</time>
      </trkpt>
      <trkpt lat="45.79338" lon="6.40091">
        <ele>1956</ele>
        <time>2019-02-17T12:30:00.000Z</time>
      </trkpt>
      <trkpt lat="45.79338" lon="6.40091">
        <ele>1958.1999511719</ele>
        <time>2019-02-17T12:30:05.000Z</time>
      </trkpt>
      <trkpt lat="45.79337" lon="6.40091">
        <ele>1958.4000244141</ele>
        <time>2019-02-17T12:30:10.000Z</time>
      </trkpt>
      <trkpt lat="45.79333" lon="6.4009">
        <ele>1957.1999511719</ele>
        <time>2019-02-17T12:30:16.000Z</time>
      </trkpt>
      <trkpt lat="45.7933" lon="6.4009">
        <ele>1958.4000244141</ele>
        <time>2019-02-17T12:30:24.000Z</time>
      </trkpt>
      <trkpt lat="45.79329" lon="6.4009">
        <ele>1958.5999755859</ele>
        <time>2019-02-17T12:30:26.000Z</time>
      </trkpt>
      <trkpt lat="45.79329" lon="6.40091">
        <ele>1959</ele>
        <time>2019-02-17T12:30:39.000Z</time>
      </trkpt>
      <trkpt lat="45.79325" lon="6.40089">
        <ele>1958.8000488281</ele>
        <time>2019-02-17T12:30:44.000Z</time>
      </trkpt>
      <trkpt lat="45.79324" lon="6.40089">
        <ele>1959.4000244141</ele>
        <time>2019-02-17T12:30:46.000Z</time>
      </trkpt>
      <trkpt lat="45.79322" lon="6.4009">
        <ele>1960.4000244141</ele>
        <time>2019-02-17T12:30:50.000Z</time>
      </trkpt>
      <trkpt lat="45.7932" lon="6.40091">
        <ele>1960.8000488281</ele>
        <time>2019-02-17T12:30:55.000Z</time>
      </trkpt>
      <trkpt lat="45.7932" lon="6.40091">
        <ele>1961</ele>
        <time>2019-02-17T12:31:04.000Z</time>
      </trkpt>
      <trkpt lat="45.79321" lon="6.40092">
        <ele>1961.5999755859</ele>
        <time>2019-02-17T12:31:10.000Z</time>
      </trkpt>
      <trkpt lat="45.79322" lon="6.40093">
        <ele>1962</ele>
        <time>2019-02-17T12:31:11.000Z</time>
      </trkpt>
      <trkpt lat="45.79323" lon="6.40094">
        <ele>1962.5999755859</ele>
        <time>2019-02-17T12:31:14.000Z</time>
      </trkpt>
      <trkpt lat="45.79324" lon="6.40094">
        <ele>1962.8000488281</ele>
        <time>2019-02-17T12:31:15.000Z</time>
      </trkpt>
      <trkpt lat="45.79326" lon="6.40096">
        <ele>1962.5999755859</ele>
        <time>2019-02-17T12:31:20.000Z</time>
      </trkpt>
      <trkpt lat="45.79329" lon="6.40098">
        <ele>1963.4000244141</ele>
        <time>2019-02-17T12:31:27.000Z</time>
      </trkpt>
      <trkpt lat="45.79329" lon="6.40099">
        <ele>1963.5999755859</ele>
        <time>2019-02-17T12:31:29.000Z</time>
      </trkpt>
      <trkpt lat="45.7933" lon="6.40101">
        <ele>1964</ele>
        <time>2019-02-17T12:31:32.000Z</time>
      </trkpt>
      <trkpt lat="45.7933" lon="6.40101">
        <ele>1964.5999755859</ele>
        <time>2019-02-17T12:31:34.000Z</time>
      </trkpt>
      <trkpt lat="45.79331" lon="6.40103">
        <ele>1965.4000244141</ele>
        <time>2019-02-17T12:31:37.000Z</time>
      </trkpt>
      <trkpt lat="45.79335" lon="6.40106">
        <ele>1965.4000244141</ele>
        <time>2019-02-17T12:31:44.000Z</time>
      </trkpt>
      <trkpt lat="45.79336" lon="6.40109">
        <ele>1965.8000488281</ele>
        <time>2019-02-17T12:31:47.000Z</time>
      </trkpt>
      <trkpt lat="45.79336" lon="6.40109">
        <ele>1965.8000488281</ele>
        <time>2019-02-17T12:31:50.000Z</time>
      </trkpt>
      <trkpt lat="45.79338" lon="6.40111">
        <ele>1967</ele>
        <time>2019-02-17T12:31:55.000Z</time>
      </trkpt>
      <trkpt lat="45.79338" lon="6.40111">
        <ele>1967.1999511719</ele>
        <time>2019-02-17T12:31:56.000Z</time>
      </trkpt>
      <trkpt lat="45.79338" lon="6.40111">
        <ele>1967.1999511719</ele>
        <time>2019-02-17T12:32:03.000Z</time>
      </trkpt>
      <trkpt lat="45.79338" lon="6.40111">
        <ele>1968.1999511719</ele>
        <time>2019-02-17T12:32:19.000Z</time>
      </trkpt>
      <trkpt lat="45.79339" lon="6.40111">
        <ele>1968.1999511719</ele>
        <time>2019-02-17T12:32:20.000Z</time>
      </trkpt>
      <trkpt lat="45.7934" lon="6.40113">
        <ele>1967.1999511719</ele>
        <time>2019-02-17T12:32:26.000Z</time>
      </trkpt>
      <trkpt lat="45.7934" lon="6.40113">
        <ele>1966.8000488281</ele>
        <time>2019-02-17T12:32:30.000Z</time>
      </trkpt>
      <trkpt lat="45.7934" lon="6.40113">
        <ele>1968</ele>
        <time>2019-02-17T12:32:42.000Z</time>
      </trkpt>
      <trkpt lat="45.7934" lon="6.40113">
        <ele>1968.1999511719</ele>
        <time>2019-02-17T12:32:44.000Z</time>
      </trkpt>
      <trkpt lat="45.7934" lon="6.40113">
        <ele>1968.4000244141</ele>
        <time>2019-02-17T12:32:54.000Z</time>
      </trkpt>
      <trkpt lat="45.7934" lon="6.40113">
        <ele>1969.4000244141</ele>
        <time>2019-02-17T12:32:59.000Z</time>
      </trkpt>
      <trkpt lat="45.79341" lon="6.40113">
        <ele>1968.4000244141</ele>
        <time>2019-02-17T12:33:08.000Z</time>
      </trkpt>
      <trkpt lat="45.79342" lon="6.40115">
        <ele>1969</ele>
        <time>2019-02-17T12:33:16.000Z</time>
      </trkpt>
      <trkpt lat="45.79345" lon="6.40121">
        <ele>1969.4000244141</ele>
        <time>2019-02-17T12:33:22.000Z</time>
      </trkpt>
      <trkpt lat="45.79347" lon="6.40124">
        <ele>1970.4000244141</ele>
        <time>2019-02-17T12:33:28.000Z</time>
      </trkpt>
      <trkpt lat="45.7935" lon="6.40128">
        <ele>1970.8000488281</ele>
        <time>2019-02-17T12:33:36.000Z</time>
      </trkpt>
      <trkpt lat="45.79353" lon="6.40132">
        <ele>1971.5999755859</ele>
        <time>2019-02-17T12:33:41.000Z</time>
      </trkpt>
      <trkpt lat="45.79353" lon="6.40132">
        <ele>1971.5999755859</ele>
        <time>2019-02-17T12:33:42.000Z</time>
      </trkpt>
      <trkpt lat="45.79353" lon="6.40132">
        <ele>1971</ele>
        <time>2019-02-17T12:33:50.000Z</time>
      </trkpt>
      <trkpt lat="45.79353" lon="6.40132">
        <ele>1972.8000488281</ele>
        <time>2019-02-17T12:33:52.000Z</time>
      </trkpt>
      <trkpt lat="45.79353" lon="6.40132">
        <ele>1973.8000488281</ele>
        <time>2019-02-17T12:33:54.000Z</time>
      </trkpt>
      <trkpt lat="45.79352" lon="6.40132">
        <ele>1974</ele>
        <time>2019-02-17T12:33:55.000Z</time>
      </trkpt>
      <trkpt lat="45.79349" lon="6.40131">
        <ele>1972.8000488281</ele>
        <time>2019-02-17T12:33:59.000Z</time>
      </trkpt>
      <trkpt lat="45.79349" lon="6.40131">
        <ele>1972.8000488281</ele>
        <time>2019-02-17T12:34:00.000Z</time>
      </trkpt>
      <trkpt lat="45.79346" lon="6.40129">
        <ele>1972.8000488281</ele>
        <time>2019-02-17T12:34:05.000Z</time>
      </trkpt>
      <trkpt lat="45.79344" lon="6.40127">
        <ele>1973.4000244141</ele>
        <time>2019-02-17T12:34:10.000Z</time>
      </trkpt>
      <trkpt lat="45.79342" lon="6.40125">
        <ele>1973.5999755859</ele>
        <time>2019-02-17T12:34:15.000Z</time>
      </trkpt>
      <trkpt lat="45.79341" lon="6.40124">
        <ele>1974</ele>
        <time>2019-02-17T12:34:19.000Z</time>
      </trkpt>
      <trkpt lat="45.7934" lon="6.40124">
        <ele>1974</ele>
        <time>2019-02-17T12:34:22.000Z</time>
      </trkpt>
      <trkpt lat="45.79338" lon="6.40122">
        <ele>1974</ele>
        <time>2019-02-17T12:34:28.000Z</time>
      </trkpt>
      <trkpt lat="45.79336" lon="6.40121">
        <ele>1974.4000244141</ele>
        <time>2019-02-17T12:34:34.000Z</time>
      </trkpt>
      <trkpt lat="45.79334" lon="6.4012">
        <ele>1974.1999511719</ele>
        <time>2019-02-17T12:34:40.000Z</time>
      </trkpt>
      <trkpt lat="45.7933" lon="6.40117">
        <ele>1974.1999511719</ele>
        <time>2019-02-17T12:34:45.000Z</time>
      </trkpt>
      <trkpt lat="45.79326" lon="6.40116">
        <ele>1974.4000244141</ele>
        <time>2019-02-17T12:34:51.000Z</time>
      </trkpt>
      <trkpt lat="45.79323" lon="6.40116">
        <ele>1975</ele>
        <time>2019-02-17T12:34:55.000Z</time>
      </trkpt>
      <trkpt lat="45.79322" lon="6.40116">
        <ele>1975</ele>
        <time>2019-02-17T12:34:56.000Z</time>
      </trkpt>
      <trkpt lat="45.79318" lon="6.40116">
        <ele>1975.8000488281</ele>
        <time>2019-02-17T12:35:02.000Z</time>
      </trkpt>
      <trkpt lat="45.79317" lon="6.40117">
        <ele>1976</ele>
        <time>2019-02-17T12:35:03.000Z</time>
      </trkpt>
      <trkpt lat="45.79316" lon="6.40116">
        <ele>1976.5999755859</ele>
        <time>2019-02-17T12:35:09.000Z</time>
      </trkpt>
      <trkpt lat="45.79315" lon="6.40116">
        <ele>1976.5999755859</ele>
        <time>2019-02-17T12:35:16.000Z</time>
      </trkpt>
      <trkpt lat="45.79315" lon="6.40116">
        <ele>1977</ele>
        <time>2019-02-17T12:35:21.000Z</time>
      </trkpt>
      <trkpt lat="45.79313" lon="6.40116">
        <ele>1976.8000488281</ele>
        <time>2019-02-17T12:35:26.000Z</time>
      </trkpt>
      <trkpt lat="45.79309" lon="6.40116">
        <ele>1977.5999755859</ele>
        <time>2019-02-17T12:35:32.000Z</time>
      </trkpt>
      <trkpt lat="45.79309" lon="6.40116">
        <ele>1978.1999511719</ele>
        <time>2019-02-17T12:35:34.000Z</time>
      </trkpt>
      <trkpt lat="45.79306" lon="6.40117">
        <ele>1978</ele>
        <time>2019-02-17T12:35:40.000Z</time>
      </trkpt>
      <trkpt lat="45.79303" lon="6.40118">
        <ele>1978.8000488281</ele>
        <time>2019-02-17T12:35:47.000Z</time>
      </trkpt>
      <trkpt lat="45.79303" lon="6.40118">
        <ele>1979.1999511719</ele>
        <time>2019-02-17T12:35:50.000Z</time>
      </trkpt>
      <trkpt lat="45.79303" lon="6.40118">
        <ele>1978.8000488281</ele>
        <time>2019-02-17T12:36:00.000Z</time>
      </trkpt>
      <trkpt lat="45.793" lon="6.4012">
        <ele>1979.4000244141</ele>
        <time>2019-02-17T12:36:07.000Z</time>
      </trkpt>
      <trkpt lat="45.79298" lon="6.40122">
        <ele>1980</ele>
        <time>2019-02-17T12:36:13.000Z</time>
      </trkpt>
      <trkpt lat="45.79296" lon="6.40124">
        <ele>1980.1999511719</ele>
        <time>2019-02-17T12:36:15.000Z</time>
      </trkpt>
      <trkpt lat="45.79292" lon="6.40128">
        <ele>1980.8000488281</ele>
        <time>2019-02-17T12:36:21.000Z</time>
      </trkpt>
      <trkpt lat="45.79289" lon="6.40131">
        <ele>1981.1999511719</ele>
        <time>2019-02-17T12:36:26.000Z</time>
      </trkpt>
      <trkpt lat="45.79285" lon="6.40133">
        <ele>1981.5999755859</ele>
        <time>2019-02-17T12:36:32.000Z</time>
      </trkpt>
      <trkpt lat="45.79281" lon="6.40132">
        <ele>1982.1999511719</ele>
        <time>2019-02-17T12:36:38.000Z</time>
      </trkpt>
      <trkpt lat="45.79281" lon="6.40132">
        <ele>1982.1999511719</ele>
        <time>2019-02-17T12:36:39.000Z</time>
      </trkpt>
      <trkpt lat="45.79276" lon="6.40131">
        <ele>1983</ele>
        <time>2019-02-17T12:36:44.000Z</time>
      </trkpt>
      <trkpt lat="45.79275" lon="6.40131">
        <ele>1983.4000244141</ele>
        <time>2019-02-17T12:36:46.000Z</time>
      </trkpt>
      <trkpt lat="45.79274" lon="6.4013">
        <ele>1983.8000488281</ele>
        <time>2019-02-17T12:36:48.000Z</time>
      </trkpt>
      <trkpt lat="45.79273" lon="6.4013">
        <ele>1984</ele>
        <time>2019-02-17T12:36:49.000Z</time>
      </trkpt>
      <trkpt lat="45.79271" lon="6.40129">
        <ele>1984.5999755859</ele>
        <time>2019-02-17T12:36:53.000Z</time>
      </trkpt>
      <trkpt lat="45.7927" lon="6.40129">
        <ele>1984.8000488281</ele>
        <time>2019-02-17T12:36:54.000Z</time>
      </trkpt>
      <trkpt lat="45.79267" lon="6.40129">
        <ele>1985.4000244141</ele>
        <time>2019-02-17T12:37:00.000Z</time>
      </trkpt>
      <trkpt lat="45.79266" lon="6.40128">
        <ele>1985.5999755859</ele>
        <time>2019-02-17T12:37:01.000Z</time>
      </trkpt>
      <trkpt lat="45.79264" lon="6.40128">
        <ele>1986.4000244141</ele>
        <time>2019-02-17T12:37:08.000Z</time>
      </trkpt>
      <trkpt lat="45.79264" lon="6.40128">
        <ele>1986.5999755859</ele>
        <time>2019-02-17T12:37:20.000Z</time>
      </trkpt>
      <trkpt lat="45.79263" lon="6.40128">
        <ele>1986.8000488281</ele>
        <time>2019-02-17T12:37:21.000Z</time>
      </trkpt>
      <trkpt lat="45.7926" lon="6.40128">
        <ele>1986</ele>
        <time>2019-02-17T12:37:26.000Z</time>
      </trkpt>
      <trkpt lat="45.79258" lon="6.40128">
        <ele>1986.8000488281</ele>
        <time>2019-02-17T12:37:31.000Z</time>
      </trkpt>
      <trkpt lat="45.79254" lon="6.40127">
        <ele>1987.4000244141</ele>
        <time>2019-02-17T12:37:36.000Z</time>
      </trkpt>
      <trkpt lat="45.79251" lon="6.40127">
        <ele>1987.8000488281</ele>
        <time>2019-02-17T12:37:40.000Z</time>
      </trkpt>
      <trkpt lat="45.7925" lon="6.40127">
        <ele>1988.1999511719</ele>
        <time>2019-02-17T12:37:43.000Z</time>
      </trkpt>
      <trkpt lat="45.79248" lon="6.40127">
        <ele>1989</ele>
        <time>2019-02-17T12:37:47.000Z</time>
      </trkpt>
      <trkpt lat="45.79248" lon="6.40127">
        <ele>1989</ele>
        <time>2019-02-17T12:37:48.000Z</time>
      </trkpt>
      <trkpt lat="45.79247" lon="6.40127">
        <ele>1989.1999511719</ele>
        <time>2019-02-17T12:37:53.000Z</time>
      </trkpt>
      <trkpt lat="45.79247" lon="6.40127">
        <ele>1990</ele>
        <time>2019-02-17T12:37:57.000Z</time>
      </trkpt>
      <trkpt lat="45.79247" lon="6.40127">
        <ele>1990</ele>
        <time>2019-02-17T12:38:06.000Z</time>
      </trkpt>
      <trkpt lat="45.79246" lon="6.40127">
        <ele>1990.1999511719</ele>
        <time>2019-02-17T12:38:13.000Z</time>
      </trkpt>
      <trkpt lat="45.79246" lon="6.40127">
        <ele>1990.1999511719</ele>
        <time>2019-02-17T12:38:26.000Z</time>
      </trkpt>
      <trkpt lat="45.79244" lon="6.40127">
        <ele>1990</ele>
        <time>2019-02-17T12:38:38.000Z</time>
      </trkpt>
      <trkpt lat="45.79243" lon="6.40127">
        <ele>1991</ele>
        <time>2019-02-17T12:38:44.000Z</time>
      </trkpt>
      <trkpt lat="45.79243" lon="6.40127">
        <ele>1991.1999511719</ele>
        <time>2019-02-17T12:38:45.000Z</time>
      </trkpt>
      <trkpt lat="45.7924" lon="6.40127">
        <ele>1991</ele>
        <time>2019-02-17T12:38:50.000Z</time>
      </trkpt>
      <trkpt lat="45.79234" lon="6.40129">
        <ele>1992</ele>
        <time>2019-02-17T12:38:57.000Z</time>
      </trkpt>
      <trkpt lat="45.79233" lon="6.4013">
        <ele>1992.1999511719</ele>
        <time>2019-02-17T12:38:58.000Z</time>
      </trkpt>
      <trkpt lat="45.7923" lon="6.40132">
        <ele>1992.5999755859</ele>
        <time>2019-02-17T12:39:02.000Z</time>
      </trkpt>
      <trkpt lat="45.7923" lon="6.40132">
        <ele>1993.1999511719</ele>
        <time>2019-02-17T12:39:05.000Z</time>
      </trkpt>
      <trkpt lat="45.7923" lon="6.40132">
        <ele>1993.8000488281</ele>
        <time>2019-02-17T12:39:13.000Z</time>
      </trkpt>
      <trkpt lat="45.79228" lon="6.40133">
        <ele>1993.4000244141</ele>
        <time>2019-02-17T12:39:24.000Z</time>
      </trkpt>
      <trkpt lat="45.79226" lon="6.40133">
        <ele>1994.4000244141</ele>
        <time>2019-02-17T12:39:28.000Z</time>
      </trkpt>
      <trkpt lat="45.79224" lon="6.40134">
        <ele>1994.5999755859</ele>
        <time>2019-02-17T12:39:30.000Z</time>
      </trkpt>
      <trkpt lat="45.79221" lon="6.40136">
        <ele>1995.1999511719</ele>
        <time>2019-02-17T12:39:37.000Z</time>
      </trkpt>
      <trkpt lat="45.79221" lon="6.40136">
        <ele>1995.4000244141</ele>
        <time>2019-02-17T12:39:38.000Z</time>
      </trkpt>
      <trkpt lat="45.7922" lon="6.40136">
        <ele>1995.8000488281</ele>
        <time>2019-02-17T12:39:42.000Z</time>
      </trkpt>
      <trkpt lat="45.79215" lon="6.40139">
        <ele>1996.5999755859</ele>
        <time>2019-02-17T12:39:48.000Z</time>
      </trkpt>
      <trkpt lat="45.79214" lon="6.4014">
        <ele>1996.8000488281</ele>
        <time>2019-02-17T12:39:49.000Z</time>
      </trkpt>
      <trkpt lat="45.79211" lon="6.40142">
        <ele>1997.5999755859</ele>
        <time>2019-02-17T12:39:53.000Z</time>
      </trkpt>
      <trkpt lat="45.79211" lon="6.40143">
        <ele>1997.5999755859</ele>
        <time>2019-02-17T12:39:54.000Z</time>
      </trkpt>
      <trkpt lat="45.79209" lon="6.40144">
        <ele>1998.1999511719</ele>
        <time>2019-02-17T12:39:58.000Z</time>
      </trkpt>
      <trkpt lat="45.79208" lon="6.40144">
        <ele>1998.5999755859</ele>
        <time>2019-02-17T12:40:02.000Z</time>
      </trkpt>
      <trkpt lat="45.79208" lon="6.40144">
        <ele>1999.5999755859</ele>
        <time>2019-02-17T12:40:06.000Z</time>
      </trkpt>
      <trkpt lat="45.79207" lon="6.40146">
        <ele>1999.5999755859</ele>
        <time>2019-02-17T12:40:18.000Z</time>
      </trkpt>
      <trkpt lat="45.79207" lon="6.40146">
        <ele>1999.5999755859</ele>
        <time>2019-02-17T12:40:19.000Z</time>
      </trkpt>
      <trkpt lat="45.79208" lon="6.40147">
        <ele>2000.1999511719</ele>
        <time>2019-02-17T12:40:26.000Z</time>
      </trkpt>
      <trkpt lat="45.79209" lon="6.40148">
        <ele>2001.4000244141</ele>
        <time>2019-02-17T12:40:35.000Z</time>
      </trkpt>
      <trkpt lat="45.79209" lon="6.40148">
        <ele>2001.8000488281</ele>
        <time>2019-02-17T12:40:36.000Z</time>
      </trkpt>
      <trkpt lat="45.7921" lon="6.40149">
        <ele>2002.4000244141</ele>
        <time>2019-02-17T12:40:38.000Z</time>
      </trkpt>
      <trkpt lat="45.79212" lon="6.40149">
        <ele>2002.1999511719</ele>
        <time>2019-02-17T12:40:40.000Z</time>
      </trkpt>
      <trkpt lat="45.79215" lon="6.40151">
        <ele>2002.1999511719</ele>
        <time>2019-02-17T12:40:45.000Z</time>
      </trkpt>
      <trkpt lat="45.79219" lon="6.40153">
        <ele>2003.4000244141</ele>
        <time>2019-02-17T12:40:52.000Z</time>
      </trkpt>
      <trkpt lat="45.79219" lon="6.40153">
        <ele>2003.5999755859</ele>
        <time>2019-02-17T12:40:53.000Z</time>
      </trkpt>
      <trkpt lat="45.7922" lon="6.40153">
        <ele>2003.8000488281</ele>
        <time>2019-02-17T12:40:54.000Z</time>
      </trkpt>
      <trkpt lat="45.7922" lon="6.40154">
        <ele>2004.1999511719</ele>
        <time>2019-02-17T12:40:56.000Z</time>
      </trkpt>
      <trkpt lat="45.79221" lon="6.40155">
        <ele>2004.5999755859</ele>
        <time>2019-02-17T12:40:59.000Z</time>
      </trkpt>
      <trkpt lat="45.79222" lon="6.40156">
        <ele>2004.8000488281</ele>
        <time>2019-02-17T12:41:00.000Z</time>
      </trkpt>
      <trkpt lat="45.79223" lon="6.40158">
        <ele>2005.5999755859</ele>
        <time>2019-02-17T12:41:04.000Z</time>
      </trkpt>
      <trkpt lat="45.79225" lon="6.40161">
        <ele>2006.5999755859</ele>
        <time>2019-02-17T12:41:09.000Z</time>
      </trkpt>
      <trkpt lat="45.79225" lon="6.40162">
        <ele>2007</ele>
        <time>2019-02-17T12:41:10.000Z</time>
      </trkpt>
      <trkpt lat="45.79226" lon="6.40164">
        <ele>2008</ele>
        <time>2019-02-17T12:41:13.000Z</time>
      </trkpt>
      <trkpt lat="45.79226" lon="6.40164">
        <ele>2008.1999511719</ele>
        <time>2019-02-17T12:41:14.000Z</time>
      </trkpt>
      <trkpt lat="45.79224" lon="6.40165">
        <ele>2009</ele>
        <time>2019-02-17T12:41:22.000Z</time>
      </trkpt>
      <trkpt lat="45.79224" lon="6.40165">
        <ele>2009.4000244141</ele>
        <time>2019-02-17T12:41:24.000Z</time>
      </trkpt>
      <trkpt lat="45.79223" lon="6.40166">
        <ele>2009.8000488281</ele>
        <time>2019-02-17T12:41:27.000Z</time>
      </trkpt>
      <trkpt lat="45.7922" lon="6.40168">
        <ele>2010.4000244141</ele>
        <time>2019-02-17T12:41:33.000Z</time>
      </trkpt>
      <trkpt lat="45.7922" lon="6.40167">
        <ele>2010.5999755859</ele>
        <time>2019-02-17T12:41:34.000Z</time>
      </trkpt>
      <trkpt lat="45.7922" lon="6.40167">
        <ele>2011.5999755859</ele>
        <time>2019-02-17T12:41:43.000Z</time>
      </trkpt>
      <trkpt lat="45.7922" lon="6.40167">
        <ele>2011.5999755859</ele>
        <time>2019-02-17T12:41:47.000Z</time>
      </trkpt>
      <trkpt lat="45.7922" lon="6.40167">
        <ele>2011.4000244141</ele>
        <time>2019-02-17T12:42:08.000Z</time>
      </trkpt>
      <trkpt lat="45.7922" lon="6.40168">
        <ele>2011.4000244141</ele>
        <time>2019-02-17T12:42:29.000Z</time>
      </trkpt>
      <trkpt lat="45.7922" lon="6.40168">
        <ele>2012</ele>
        <time>2019-02-17T12:42:45.000Z</time>
      </trkpt>
      <trkpt lat="45.79218" lon="6.40169">
        <ele>2011.8000488281</ele>
        <time>2019-02-17T12:42:54.000Z</time>
      </trkpt>
      <trkpt lat="45.79216" lon="6.4017">
        <ele>2012</ele>
        <time>2019-02-17T12:42:57.000Z</time>
      </trkpt>
      <trkpt lat="45.79214" lon="6.40171">
        <ele>2012.4000244141</ele>
        <time>2019-02-17T12:42:59.000Z</time>
      </trkpt>
      <trkpt lat="45.79214" lon="6.40171">
        <ele>2012.8000488281</ele>
        <time>2019-02-17T12:43:01.000Z</time>
      </trkpt>
      <trkpt lat="45.79213" lon="6.40172">
        <ele>2013.1999511719</ele>
        <time>2019-02-17T12:43:03.000Z</time>
      </trkpt>
      <trkpt lat="45.79211" lon="6.40173">
        <ele>2014</ele>
        <time>2019-02-17T12:43:07.000Z</time>
      </trkpt>
      <trkpt lat="45.7921" lon="6.40173">
        <ele>2014.1999511719</ele>
        <time>2019-02-17T12:43:08.000Z</time>
      </trkpt>
      <trkpt lat="45.79208" lon="6.40174">
        <ele>2015.1999511719</ele>
        <time>2019-02-17T12:43:10.000Z</time>
      </trkpt>
      <trkpt lat="45.79206" lon="6.40176">
        <ele>2015.8000488281</ele>
        <time>2019-02-17T12:43:14.000Z</time>
      </trkpt>
      <trkpt lat="45.79203" lon="6.40178">
        <ele>2016.1999511719</ele>
        <time>2019-02-17T12:43:19.000Z</time>
      </trkpt>
      <trkpt lat="45.79202" lon="6.40179">
        <ele>2016.4000244141</ele>
        <time>2019-02-17T12:43:21.000Z</time>
      </trkpt>
      <trkpt lat="45.79198" lon="6.40182">
        <ele>2017</ele>
        <time>2019-02-17T12:43:27.000Z</time>
      </trkpt>
      <trkpt lat="45.79197" lon="6.40183">
        <ele>2017.1999511719</ele>
        <time>2019-02-17T12:43:29.000Z</time>
      </trkpt>
      <trkpt lat="45.79195" lon="6.40185">
        <ele>2017.8000488281</ele>
        <time>2019-02-17T12:43:32.000Z</time>
      </trkpt>
      <trkpt lat="45.79194" lon="6.40186">
        <ele>2018.5999755859</ele>
        <time>2019-02-17T12:43:34.000Z</time>
      </trkpt>
      <trkpt lat="45.79193" lon="6.40186">
        <ele>2019.5999755859</ele>
        <time>2019-02-17T12:43:37.000Z</time>
      </trkpt>
      <trkpt lat="45.7919" lon="6.40189">
        <ele>2020.4000244141</ele>
        <time>2019-02-17T12:43:43.000Z</time>
      </trkpt>
      <trkpt lat="45.79189" lon="6.4019">
        <ele>2020.5999755859</ele>
        <time>2019-02-17T12:43:47.000Z</time>
      </trkpt>
      <trkpt lat="45.79189" lon="6.40191">
        <ele>2021</ele>
        <time>2019-02-17T12:43:49.000Z</time>
      </trkpt>
      <trkpt lat="45.79188" lon="6.40191">
        <ele>2021.8000488281</ele>
        <time>2019-02-17T12:43:54.000Z</time>
      </trkpt>
      <trkpt lat="45.79187" lon="6.40193">
        <ele>2022</ele>
        <time>2019-02-17T12:43:56.000Z</time>
      </trkpt>
      <trkpt lat="45.79186" lon="6.40195">
        <ele>2022.8000488281</ele>
        <time>2019-02-17T12:44:00.000Z</time>
      </trkpt>
      <trkpt lat="45.79186" lon="6.40195">
        <ele>2023</ele>
        <time>2019-02-17T12:44:03.000Z</time>
      </trkpt>
      <trkpt lat="45.79188" lon="6.40196">
        <ele>2024</ele>
        <time>2019-02-17T12:44:10.000Z</time>
      </trkpt>
      <trkpt lat="45.79188" lon="6.40196">
        <ele>2024.4000244141</ele>
        <time>2019-02-17T12:44:12.000Z</time>
      </trkpt>
      <trkpt lat="45.7919" lon="6.40198">
        <ele>2024.8000488281</ele>
        <time>2019-02-17T12:44:15.000Z</time>
      </trkpt>
      <trkpt lat="45.7919" lon="6.40198">
        <ele>2025.1999511719</ele>
        <time>2019-02-17T12:44:16.000Z</time>
      </trkpt>
      <trkpt lat="45.79191" lon="6.402">
        <ele>2025.5999755859</ele>
        <time>2019-02-17T12:44:19.000Z</time>
      </trkpt>
      <trkpt lat="45.79192" lon="6.402">
        <ele>2026.4000244141</ele>
        <time>2019-02-17T12:44:22.000Z</time>
      </trkpt>
      <trkpt lat="45.79192" lon="6.40201">
        <ele>2026.8000488281</ele>
        <time>2019-02-17T12:44:23.000Z</time>
      </trkpt>
      <trkpt lat="45.79194" lon="6.40202">
        <ele>2027.4000244141</ele>
        <time>2019-02-17T12:44:26.000Z</time>
      </trkpt>
      <trkpt lat="45.79194" lon="6.40203">
        <ele>2027.5999755859</ele>
        <time>2019-02-17T12:44:27.000Z</time>
      </trkpt>
      <trkpt lat="45.79198" lon="6.40206">
        <ele>2028</ele>
        <time>2019-02-17T12:44:32.000Z</time>
      </trkpt>
      <trkpt lat="45.792" lon="6.40208">
        <ele>2028.4000244141</ele>
        <time>2019-02-17T12:44:37.000Z</time>
      </trkpt>
      <trkpt lat="45.79202" lon="6.40211">
        <ele>2029.5999755859</ele>
        <time>2019-02-17T12:44:42.000Z</time>
      </trkpt>
      <trkpt lat="45.79204" lon="6.40212">
        <ele>2031</ele>
        <time>2019-02-17T12:44:47.000Z</time>
      </trkpt>
      <trkpt lat="45.79206" lon="6.40215">
        <ele>2031.8000488281</ele>
        <time>2019-02-17T12:44:52.000Z</time>
      </trkpt>
      <trkpt lat="45.79209" lon="6.40217">
        <ele>2031.8000488281</ele>
        <time>2019-02-17T12:44:57.000Z</time>
      </trkpt>
      <trkpt lat="45.7921" lon="6.40217">
        <ele>2032.1999511719</ele>
        <time>2019-02-17T12:45:00.000Z</time>
      </trkpt>
      <trkpt lat="45.79211" lon="6.40218">
        <ele>2033.1999511719</ele>
        <time>2019-02-17T12:45:03.000Z</time>
      </trkpt>
      <trkpt lat="45.79212" lon="6.40219">
        <ele>2033.8000488281</ele>
        <time>2019-02-17T12:45:05.000Z</time>
      </trkpt>
      <trkpt lat="45.79212" lon="6.40219">
        <ele>2034.1999511719</ele>
        <time>2019-02-17T12:45:08.000Z</time>
      </trkpt>
      <trkpt lat="45.79213" lon="6.4022">
        <ele>2034.1999511719</ele>
        <time>2019-02-17T12:45:10.000Z</time>
      </trkpt>
      <trkpt lat="45.79214" lon="6.40221">
        <ele>2034.8000488281</ele>
        <time>2019-02-17T12:45:15.000Z</time>
      </trkpt>
      <trkpt lat="45.79214" lon="6.40221">
        <ele>2035.8000488281</ele>
        <time>2019-02-17T12:45:22.000Z</time>
      </trkpt>
      <trkpt lat="45.79214" lon="6.40221">
        <ele>2036.1999511719</ele>
        <time>2019-02-17T12:45:29.000Z</time>
      </trkpt>
      <trkpt lat="45.79211" lon="6.40224">
        <ele>2036.4000244141</ele>
        <time>2019-02-17T12:45:34.000Z</time>
      </trkpt>
      <trkpt lat="45.7921" lon="6.40225">
        <ele>2036.8000488281</ele>
        <time>2019-02-17T12:45:36.000Z</time>
      </trkpt>
      <trkpt lat="45.79209" lon="6.40226">
        <ele>2037</ele>
        <time>2019-02-17T12:45:39.000Z</time>
      </trkpt>
      <trkpt lat="45.79207" lon="6.40227">
        <ele>2037.8000488281</ele>
        <time>2019-02-17T12:45:43.000Z</time>
      </trkpt>
      <trkpt lat="45.79206" lon="6.40228">
        <ele>2038.4000244141</ele>
        <time>2019-02-17T12:45:45.000Z</time>
      </trkpt>
      <trkpt lat="45.79205" lon="6.40232">
        <ele>2039</ele>
        <time>2019-02-17T12:45:49.000Z</time>
      </trkpt>
      <trkpt lat="45.79204" lon="6.40233">
        <ele>2039.4000244141</ele>
        <time>2019-02-17T12:45:51.000Z</time>
      </trkpt>
      <trkpt lat="45.79202" lon="6.40238">
        <ele>2039.8000488281</ele>
        <time>2019-02-17T12:45:57.000Z</time>
      </trkpt>
      <trkpt lat="45.79201" lon="6.4024">
        <ele>2040.1999511719</ele>
        <time>2019-02-17T12:46:00.000Z</time>
      </trkpt>
      <trkpt lat="45.79201" lon="6.40242">
        <ele>2040.5999755859</ele>
        <time>2019-02-17T12:46:02.000Z</time>
      </trkpt>
      <trkpt lat="45.79202" lon="6.40244">
        <ele>2041.1999511719</ele>
        <time>2019-02-17T12:46:06.000Z</time>
      </trkpt>
      <trkpt lat="45.79203" lon="6.40244">
        <ele>2041.8000488281</ele>
        <time>2019-02-17T12:46:09.000Z</time>
      </trkpt>
      <trkpt lat="45.79203" lon="6.40244">
        <ele>2042.1999511719</ele>
        <time>2019-02-17T12:46:11.000Z</time>
      </trkpt>
      <trkpt lat="45.79203" lon="6.40244">
        <ele>2042</ele>
        <time>2019-02-17T12:46:26.000Z</time>
      </trkpt>
      <trkpt lat="45.79203" lon="6.40244">
        <ele>2042</ele>
        <time>2019-02-17T12:46:42.000Z</time>
      </trkpt>
      <trkpt lat="45.79203" lon="6.40244">
        <ele>2042.1999511719</ele>
        <time>2019-02-17T12:47:00.000Z</time>
      </trkpt>
      <trkpt lat="45.79203" lon="6.40244">
        <ele>2042.4000244141</ele>
        <time>2019-02-17T12:47:15.000Z</time>
      </trkpt>
      <trkpt lat="45.79203" lon="6.40244">
        <ele>2042.4000244141</ele>
        <time>2019-02-17T12:47:31.000Z</time>
      </trkpt>
      <trkpt lat="45.79203" lon="6.40244">
        <ele>2042.4000244141</ele>
        <time>2019-02-17T12:47:49.000Z</time>
      </trkpt>
      <trkpt lat="45.79205" lon="6.40247">
        <ele>2042.4000244141</ele>
        <time>2019-02-17T12:47:55.000Z</time>
      </trkpt>
      <trkpt lat="45.79205" lon="6.40247">
        <ele>2043.8000488281</ele>
        <time>2019-02-17T12:48:01.000Z</time>
      </trkpt>
      <trkpt lat="45.79205" lon="6.40247">
        <ele>2044.8000488281</ele>
        <time>2019-02-17T12:48:03.000Z</time>
      </trkpt>
      <trkpt lat="45.79206" lon="6.40248">
        <ele>2044.5999755859</ele>
        <time>2019-02-17T12:48:06.000Z</time>
      </trkpt>
      <trkpt lat="45.79206" lon="6.40249">
        <ele>2044.8000488281</ele>
        <time>2019-02-17T12:48:14.000Z</time>
      </trkpt>
      <trkpt lat="45.79208" lon="6.4025">
        <ele>2044.5999755859</ele>
        <time>2019-02-17T12:48:19.000Z</time>
      </trkpt>
      <trkpt lat="45.79211" lon="6.40252">
        <ele>2046</ele>
        <time>2019-02-17T12:48:23.000Z</time>
      </trkpt>
      <trkpt lat="45.79213" lon="6.40254">
        <ele>2046.8000488281</ele>
        <time>2019-02-17T12:48:29.000Z</time>
      </trkpt>
      <trkpt lat="45.79213" lon="6.40254">
        <ele>2047.1999511719</ele>
        <time>2019-02-17T12:48:30.000Z</time>
      </trkpt>
      <trkpt lat="45.79215" lon="6.40255">
        <ele>2048.1999511719</ele>
        <time>2019-02-17T12:48:34.000Z</time>
      </trkpt>
      <trkpt lat="45.79216" lon="6.40256">
        <ele>2049.6000976562</ele>
        <time>2019-02-17T12:48:37.000Z</time>
      </trkpt>
      <trkpt lat="45.79216" lon="6.40256">
        <ele>2050</ele>
        <time>2019-02-17T12:48:39.000Z</time>
      </trkpt>
      <trkpt lat="45.79218" lon="6.40257">
        <ele>2050</ele>
        <time>2019-02-17T12:48:43.000Z</time>
      </trkpt>
      <trkpt lat="45.79219" lon="6.40257">
        <ele>2050.8000488281</ele>
        <time>2019-02-17T12:48:46.000Z</time>
      </trkpt>
      <trkpt lat="45.79221" lon="6.40258">
        <ele>2051.6000976562</ele>
        <time>2019-02-17T12:48:48.000Z</time>
      </trkpt>
      <trkpt lat="45.79221" lon="6.40259">
        <ele>2051.8000488281</ele>
        <time>2019-02-17T12:48:49.000Z</time>
      </trkpt>
      <trkpt lat="45.79222" lon="6.40259">
        <ele>2052</ele>
        <time>2019-02-17T12:48:54.000Z</time>
      </trkpt>
      <trkpt lat="45.79222" lon="6.40259">
        <ele>2053</ele>
        <time>2019-02-17T12:48:57.000Z</time>
      </trkpt>
      <trkpt lat="45.79224" lon="6.4026">
        <ele>2053.1999511719</ele>
        <time>2019-02-17T12:49:03.000Z</time>
      </trkpt>
      <trkpt lat="45.79227" lon="6.40261">
        <ele>2053.1999511719</ele>
        <time>2019-02-17T12:49:08.000Z</time>
      </trkpt>
      <trkpt lat="45.7923" lon="6.40262">
        <ele>2054</ele>
        <time>2019-02-17T12:49:13.000Z</time>
      </trkpt>
      <trkpt lat="45.79234" lon="6.40262">
        <ele>2055.3999023438</ele>
        <time>2019-02-17T12:49:18.000Z</time>
      </trkpt>
      <trkpt lat="45.79237" lon="6.40263">
        <ele>2056.6000976562</ele>
        <time>2019-02-17T12:49:22.000Z</time>
      </trkpt>
      <trkpt lat="45.79238" lon="6.40263">
        <ele>2057.3999023438</ele>
        <time>2019-02-17T12:49:24.000Z</time>
      </trkpt>
      <trkpt lat="45.79239" lon="6.40264">
        <ele>2057.8000488281</ele>
        <time>2019-02-17T12:49:25.000Z</time>
      </trkpt>
      <trkpt lat="45.79241" lon="6.40264">
        <ele>2059</ele>
        <time>2019-02-17T12:49:29.000Z</time>
      </trkpt>
      <trkpt lat="45.79242" lon="6.40264">
        <ele>2059.1999511719</ele>
        <time>2019-02-17T12:49:30.000Z</time>
      </trkpt>
      <trkpt lat="45.79245" lon="6.40264">
        <ele>2060.3999023438</ele>
        <time>2019-02-17T12:49:35.000Z</time>
      </trkpt>
      <trkpt lat="45.79247" lon="6.40265">
        <ele>2060.6000976562</ele>
        <time>2019-02-17T12:49:38.000Z</time>
      </trkpt>
      <trkpt lat="45.79249" lon="6.40266">
        <ele>2061.3999023438</ele>
        <time>2019-02-17T12:49:43.000Z</time>
      </trkpt>
      <trkpt lat="45.79249" lon="6.40266">
        <ele>2061.6000976562</ele>
        <time>2019-02-17T12:49:44.000Z</time>
      </trkpt>
      <trkpt lat="45.79251" lon="6.40267">
        <ele>2062.1999511719</ele>
        <time>2019-02-17T12:49:48.000Z</time>
      </trkpt>
      <trkpt lat="45.79252" lon="6.40267">
        <ele>2062.8000488281</ele>
        <time>2019-02-17T12:49:52.000Z</time>
      </trkpt>
      <trkpt lat="45.79253" lon="6.40267">
        <ele>2062.8000488281</ele>
        <time>2019-02-17T12:49:53.000Z</time>
      </trkpt>
      <trkpt lat="45.79256" lon="6.40269">
        <ele>2064.1999511719</ele>
        <time>2019-02-17T12:49:59.000Z</time>
      </trkpt>
      <trkpt lat="45.79259" lon="6.4027">
        <ele>2064.6000976562</ele>
        <time>2019-02-17T12:50:05.000Z</time>
      </trkpt>
      <trkpt lat="45.79262" lon="6.40272">
        <ele>2065.1999511719</ele>
        <time>2019-02-17T12:50:11.000Z</time>
      </trkpt>
      <trkpt lat="45.79262" lon="6.40272">
        <ele>2065.3999023438</ele>
        <time>2019-02-17T12:50:12.000Z</time>
      </trkpt>
      <trkpt lat="45.79263" lon="6.40272">
        <ele>2066.3999023438</ele>
        <time>2019-02-17T12:50:16.000Z</time>
      </trkpt>
      <trkpt lat="45.79263" lon="6.40273">
        <ele>2066.8000488281</ele>
        <time>2019-02-17T12:50:18.000Z</time>
      </trkpt>
      <trkpt lat="45.79265" lon="6.40274">
        <ele>2067.6000976562</ele>
        <time>2019-02-17T12:50:23.000Z</time>
      </trkpt>
      <trkpt lat="45.79268" lon="6.40275">
        <ele>2068.3999023438</ele>
        <time>2019-02-17T12:50:29.000Z</time>
      </trkpt>
      <trkpt lat="45.79269" lon="6.40275">
        <ele>2068.6000976562</ele>
        <time>2019-02-17T12:50:30.000Z</time>
      </trkpt>
      <trkpt lat="45.79272" lon="6.40277">
        <ele>2069.6000976562</ele>
        <time>2019-02-17T12:50:36.000Z</time>
      </trkpt>
      <trkpt lat="45.79272" lon="6.40277">
        <ele>2070</ele>
        <time>2019-02-17T12:50:37.000Z</time>
      </trkpt>
      <trkpt lat="45.79272" lon="6.40277">
        <ele>2070.8000488281</ele>
        <time>2019-02-17T12:50:40.000Z</time>
      </trkpt>
      <trkpt lat="45.79274" lon="6.40278">
        <ele>2070.8000488281</ele>
        <time>2019-02-17T12:50:50.000Z</time>
      </trkpt>
      <trkpt lat="45.79276" lon="6.40279">
        <ele>2071.8000488281</ele>
        <time>2019-02-17T12:50:57.000Z</time>
      </trkpt>
      <trkpt lat="45.79276" lon="6.40279">
        <ele>2072</ele>
        <time>2019-02-17T12:50:58.000Z</time>
      </trkpt>
      <trkpt lat="45.79277" lon="6.4028">
        <ele>2072.1999511719</ele>
        <time>2019-02-17T12:51:06.000Z</time>
      </trkpt>
      <trkpt lat="45.79277" lon="6.4028">
        <ele>2073</ele>
        <time>2019-02-17T12:51:07.000Z</time>
      </trkpt>
      <trkpt lat="45.79276" lon="6.4028">
        <ele>2073.6000976562</ele>
        <time>2019-02-17T12:51:08.000Z</time>
      </trkpt>
      <trkpt lat="45.79275" lon="6.40281">
        <ele>2074</ele>
        <time>2019-02-17T12:51:10.000Z</time>
      </trkpt>
      <trkpt lat="45.79273" lon="6.40284">
        <ele>2073.8000488281</ele>
        <time>2019-02-17T12:51:15.000Z</time>
      </trkpt>
      <trkpt lat="45.79273" lon="6.40285">
        <ele>2074.8000488281</ele>
        <time>2019-02-17T12:51:20.000Z</time>
      </trkpt>
      <trkpt lat="45.79273" lon="6.40285">
        <ele>2075.1999511719</ele>
        <time>2019-02-17T12:51:22.000Z</time>
      </trkpt>
      <trkpt lat="45.79273" lon="6.40286">
        <ele>2075.3999023438</ele>
        <time>2019-02-17T12:51:31.000Z</time>
      </trkpt>
      <trkpt lat="45.79275" lon="6.40287">
        <ele>2075.1999511719</ele>
        <time>2019-02-17T12:51:36.000Z</time>
      </trkpt>
      <trkpt lat="45.79277" lon="6.40289">
        <ele>2076.1999511719</ele>
        <time>2019-02-17T12:51:40.000Z</time>
      </trkpt>
      <trkpt lat="45.79278" lon="6.4029">
        <ele>2077</ele>
        <time>2019-02-17T12:51:43.000Z</time>
      </trkpt>
      <trkpt lat="45.79279" lon="6.40291">
        <ele>2077.6000976562</ele>
        <time>2019-02-17T12:51:46.000Z</time>
      </trkpt>
      <trkpt lat="45.7928" lon="6.40292">
        <ele>2078.6000976562</ele>
        <time>2019-02-17T12:51:51.000Z</time>
      </trkpt>
      <trkpt lat="45.79283" lon="6.40293">
        <ele>2080.1999511719</ele>
        <time>2019-02-17T12:51:54.000Z</time>
      </trkpt>
      <trkpt lat="45.79284" lon="6.40293">
        <ele>2080.8000488281</ele>
        <time>2019-02-17T12:51:56.000Z</time>
      </trkpt>
      <trkpt lat="45.79286" lon="6.40294">
        <ele>2081.3999023438</ele>
        <time>2019-02-17T12:52:00.000Z</time>
      </trkpt>
      <trkpt lat="45.79286" lon="6.40294">
        <ele>2081.6000976562</ele>
        <time>2019-02-17T12:52:02.000Z</time>
      </trkpt>
      <trkpt lat="45.79289" lon="6.40295">
        <ele>2082</ele>
        <time>2019-02-17T12:52:08.000Z</time>
      </trkpt>
      <trkpt lat="45.7929" lon="6.40296">
        <ele>2082.6000976562</ele>
        <time>2019-02-17T12:52:10.000Z</time>
      </trkpt>
      <trkpt lat="45.79293" lon="6.40298">
        <ele>2083.8000488281</ele>
        <time>2019-02-17T12:52:16.000Z</time>
      </trkpt>
      <trkpt lat="45.79294" lon="6.40298">
        <ele>2083.8000488281</ele>
        <time>2019-02-17T12:52:17.000Z</time>
      </trkpt>
      <trkpt lat="45.79294" lon="6.40298">
        <ele>2085</ele>
        <time>2019-02-17T12:52:22.000Z</time>
      </trkpt>
      <trkpt lat="45.79294" lon="6.40298">
        <ele>2085.1999511719</ele>
        <time>2019-02-17T12:52:25.000Z</time>
      </trkpt>
      <trkpt lat="45.79294" lon="6.40298">
        <ele>2086.1999511719</ele>
        <time>2019-02-17T12:52:33.000Z</time>
      </trkpt>
      <trkpt lat="45.79294" lon="6.40298">
        <ele>2085.8000488281</ele>
        <time>2019-02-17T12:52:43.000Z</time>
      </trkpt>
      <trkpt lat="45.79294" lon="6.40298">
        <ele>2087</ele>
        <time>2019-02-17T12:52:52.000Z</time>
      </trkpt>
      <trkpt lat="45.79293" lon="6.40298">
        <ele>2086.6000976562</ele>
        <time>2019-02-17T12:52:57.000Z</time>
      </trkpt>
      <trkpt lat="45.79292" lon="6.40299">
        <ele>2086.3999023438</ele>
        <time>2019-02-17T12:53:00.000Z</time>
      </trkpt>
      <trkpt lat="45.7929" lon="6.40301">
        <ele>2086.6000976562</ele>
        <time>2019-02-17T12:53:02.000Z</time>
      </trkpt>
      <trkpt lat="45.79288" lon="6.40303">
        <ele>2087.1999511719</ele>
        <time>2019-02-17T12:53:07.000Z</time>
      </trkpt>
      <trkpt lat="45.79288" lon="6.40304">
        <ele>2087.1999511719</ele>
        <time>2019-02-17T12:53:08.000Z</time>
      </trkpt>
      <trkpt lat="45.79287" lon="6.40306">
        <ele>2088</ele>
        <time>2019-02-17T12:53:12.000Z</time>
      </trkpt>
      <trkpt lat="45.79287" lon="6.40306">
        <ele>2088.3999023438</ele>
        <time>2019-02-17T12:53:13.000Z</time>
      </trkpt>
      <trkpt lat="45.79287" lon="6.40306">
        <ele>2089.6000976562</ele>
        <time>2019-02-17T12:53:17.000Z</time>
      </trkpt>
      <trkpt lat="45.79287" lon="6.40306">
        <ele>2089.8000488281</ele>
        <time>2019-02-17T12:53:18.000Z</time>
      </trkpt>
      <trkpt lat="45.7929" lon="6.40307">
        <ele>2090</ele>
        <time>2019-02-17T12:53:24.000Z</time>
      </trkpt>
      <trkpt lat="45.79292" lon="6.40308">
        <ele>2090.8000488281</ele>
        <time>2019-02-17T12:53:28.000Z</time>
      </trkpt>
      <trkpt lat="45.79292" lon="6.40308">
        <ele>2090.1999511719</ele>
        <time>2019-02-17T12:53:32.000Z</time>
      </trkpt>
      <trkpt lat="45.79293" lon="6.40309">
        <ele>2090.1999511719</ele>
        <time>2019-02-17T12:53:41.000Z</time>
      </trkpt>
      <trkpt lat="45.79293" lon="6.40309">
        <ele>2091.8000488281</ele>
        <time>2019-02-17T12:53:46.000Z</time>
      </trkpt>
      <trkpt lat="45.79293" lon="6.4031">
        <ele>2093</ele>
        <time>2019-02-17T12:53:49.000Z</time>
      </trkpt>
      <trkpt lat="45.79292" lon="6.40312">
        <ele>2092</ele>
        <time>2019-02-17T12:53:55.000Z</time>
      </trkpt>
      <trkpt lat="45.79292" lon="6.40312">
        <ele>2091.8000488281</ele>
        <time>2019-02-17T12:53:56.000Z</time>
      </trkpt>
      <trkpt lat="45.79292" lon="6.40313">
        <ele>2093</ele>
        <time>2019-02-17T12:54:03.000Z</time>
      </trkpt>
      <trkpt lat="45.79292" lon="6.40313">
        <ele>2093</ele>
        <time>2019-02-17T12:54:04.000Z</time>
      </trkpt>
      <trkpt lat="45.79294" lon="6.40315">
        <ele>2094.1999511719</ele>
        <time>2019-02-17T12:54:09.000Z</time>
      </trkpt>
      <trkpt lat="45.79294" lon="6.40316">
        <ele>2095.1999511719</ele>
        <time>2019-02-17T12:54:13.000Z</time>
      </trkpt>
      <trkpt lat="45.79295" lon="6.40316">
        <ele>2095.3999023438</ele>
        <time>2019-02-17T12:54:14.000Z</time>
      </trkpt>
      <trkpt lat="45.79295" lon="6.40316">
        <ele>2095.8000488281</ele>
        <time>2019-02-17T12:54:19.000Z</time>
      </trkpt>
      <trkpt lat="45.79295" lon="6.40317">
        <ele>2096.3999023438</ele>
        <time>2019-02-17T12:54:23.000Z</time>
      </trkpt>
      <trkpt lat="45.79295" lon="6.40318">
        <ele>2097</ele>
        <time>2019-02-17T12:54:25.000Z</time>
      </trkpt>
      <trkpt lat="45.79294" lon="6.40319">
        <ele>2096.8000488281</ele>
        <time>2019-02-17T12:54:30.000Z</time>
      </trkpt>
      <trkpt lat="45.79294" lon="6.40319">
        <ele>2097.3999023438</ele>
        <time>2019-02-17T12:54:33.000Z</time>
      </trkpt>
      <trkpt lat="45.79294" lon="6.4032">
        <ele>2098</ele>
        <time>2019-02-17T12:54:41.000Z</time>
      </trkpt>
      <trkpt lat="45.79295" lon="6.40321">
        <ele>2098.6000976562</ele>
        <time>2019-02-17T12:54:45.000Z</time>
      </trkpt>
      <trkpt lat="45.79295" lon="6.40322">
        <ele>2098.8000488281</ele>
        <time>2019-02-17T12:54:46.000Z</time>
      </trkpt>
      <trkpt lat="45.79296" lon="6.40323">
        <ele>2099.6000976562</ele>
        <time>2019-02-17T12:54:49.000Z</time>
      </trkpt>
      <trkpt lat="45.79297" lon="6.40323">
        <ele>2099.8000488281</ele>
        <time>2019-02-17T12:54:50.000Z</time>
      </trkpt>
      <trkpt lat="45.79297" lon="6.40323">
        <ele>2100.1999511719</ele>
        <time>2019-02-17T12:54:55.000Z</time>
      </trkpt>
      <trkpt lat="45.79296" lon="6.40325">
        <ele>2100.8000488281</ele>
        <time>2019-02-17T12:55:00.000Z</time>
      </trkpt>
      <trkpt lat="45.79296" lon="6.40325">
        <ele>2101.3999023438</ele>
        <time>2019-02-17T12:55:01.000Z</time>
      </trkpt>
      <trkpt lat="45.79296" lon="6.40326">
        <ele>2102.1999511719</ele>
        <time>2019-02-17T12:55:04.000Z</time>
      </trkpt>
      <trkpt lat="45.79295" lon="6.40327">
        <ele>2102.3999023438</ele>
        <time>2019-02-17T12:55:09.000Z</time>
      </trkpt>
      <trkpt lat="45.79296" lon="6.40329">
        <ele>2102</ele>
        <time>2019-02-17T12:55:14.000Z</time>
      </trkpt>
      <trkpt lat="45.79298" lon="6.40332">
        <ele>2103</ele>
        <time>2019-02-17T12:55:19.000Z</time>
      </trkpt>
      <trkpt lat="45.79298" lon="6.40333">
        <ele>2103.1999511719</ele>
        <time>2019-02-17T12:55:20.000Z</time>
      </trkpt>
      <trkpt lat="45.79299" lon="6.40336">
        <ele>2104.1999511719</ele>
        <time>2019-02-17T12:55:24.000Z</time>
      </trkpt>
      <trkpt lat="45.793" lon="6.40337">
        <ele>2105.1999511719</ele>
        <time>2019-02-17T12:55:27.000Z</time>
      </trkpt>
      <trkpt lat="45.793" lon="6.40339">
        <ele>2106</ele>
        <time>2019-02-17T12:55:29.000Z</time>
      </trkpt>
      <trkpt lat="45.793" lon="6.40339">
        <ele>2106.3999023438</ele>
        <time>2019-02-17T12:55:31.000Z</time>
      </trkpt>
      <trkpt lat="45.793" lon="6.40339">
        <ele>2106.8000488281</ele>
        <time>2019-02-17T12:55:40.000Z</time>
      </trkpt>
      <trkpt lat="45.79301" lon="6.40341">
        <ele>2106.6000976562</ele>
        <time>2019-02-17T12:55:46.000Z</time>
      </trkpt>
      <trkpt lat="45.79302" lon="6.40346">
        <ele>2107.3999023438</ele>
        <time>2019-02-17T12:55:51.000Z</time>
      </trkpt>
      <trkpt lat="45.79303" lon="6.4035">
        <ele>2108.6000976562</ele>
        <time>2019-02-17T12:55:55.000Z</time>
      </trkpt>
      <trkpt lat="45.79304" lon="6.40352">
        <ele>2109.3999023438</ele>
        <time>2019-02-17T12:55:58.000Z</time>
      </trkpt>
      <trkpt lat="45.79305" lon="6.40353">
        <ele>2109.8000488281</ele>
        <time>2019-02-17T12:55:59.000Z</time>
      </trkpt>
      <trkpt lat="45.79306" lon="6.40355">
        <ele>2110.8000488281</ele>
        <time>2019-02-17T12:56:04.000Z</time>
      </trkpt>
      <trkpt lat="45.79307" lon="6.40355">
        <ele>2110.8000488281</ele>
        <time>2019-02-17T12:56:05.000Z</time>
      </trkpt>
      <trkpt lat="45.79309" lon="6.40358">
        <ele>2112</ele>
        <time>2019-02-17T12:56:13.000Z</time>
      </trkpt>
      <trkpt lat="45.79309" lon="6.4036">
        <ele>2113.1999511719</ele>
        <time>2019-02-17T12:56:18.000Z</time>
      </trkpt>
      <trkpt lat="45.79309" lon="6.4036">
        <ele>2113.8000488281</ele>
        <time>2019-02-17T12:56:20.000Z</time>
      </trkpt>
      <trkpt lat="45.79309" lon="6.4036">
        <ele>2114.1999511719</ele>
        <time>2019-02-17T12:56:21.000Z</time>
      </trkpt>
      <trkpt lat="45.79309" lon="6.4036">
        <ele>2113.8000488281</ele>
        <time>2019-02-17T12:56:37.000Z</time>
      </trkpt>
      <trkpt lat="45.79309" lon="6.4036">
        <ele>2114.1999511719</ele>
        <time>2019-02-17T12:56:53.000Z</time>
      </trkpt>
      <trkpt lat="45.79309" lon="6.40362">
        <ele>2114.1999511719</ele>
        <time>2019-02-17T12:56:59.000Z</time>
      </trkpt>
      <trkpt lat="45.79308" lon="6.40366">
        <ele>2115.3999023438</ele>
        <time>2019-02-17T12:57:04.000Z</time>
      </trkpt>
      <trkpt lat="45.79308" lon="6.40369">
        <ele>2116.6000976562</ele>
        <time>2019-02-17T12:57:07.000Z</time>
      </trkpt>
      <trkpt lat="45.79307" lon="6.40372">
        <ele>2117.6000976562</ele>
        <time>2019-02-17T12:57:11.000Z</time>
      </trkpt>
      <trkpt lat="45.79307" lon="6.40372">
        <ele>2117.8000488281</ele>
        <time>2019-02-17T12:57:12.000Z</time>
      </trkpt>
      <trkpt lat="45.79306" lon="6.40375">
        <ele>2118.3999023438</ele>
        <time>2019-02-17T12:57:16.000Z</time>
      </trkpt>
      <trkpt lat="45.79306" lon="6.40377">
        <ele>2118.8000488281</ele>
        <time>2019-02-17T12:57:21.000Z</time>
      </trkpt>
      <trkpt lat="45.79305" lon="6.40381">
        <ele>2119.8000488281</ele>
        <time>2019-02-17T12:57:26.000Z</time>
      </trkpt>
      <trkpt lat="45.79305" lon="6.40381">
        <ele>2120</ele>
        <time>2019-02-17T12:57:27.000Z</time>
      </trkpt>
      <trkpt lat="45.79305" lon="6.40382">
        <ele>2121</ele>
        <time>2019-02-17T12:57:30.000Z</time>
      </trkpt>
      <trkpt lat="45.79305" lon="6.40382">
        <ele>2121.3999023438</ele>
        <time>2019-02-17T12:57:31.000Z</time>
      </trkpt>
      <trkpt lat="45.79305" lon="6.40382">
        <ele>2121.3999023438</ele>
        <time>2019-02-17T12:57:32.000Z</time>
      </trkpt>
      <trkpt lat="45.79304" lon="6.40384">
        <ele>2121.3999023438</ele>
        <time>2019-02-17T12:57:42.000Z</time>
      </trkpt>
      <trkpt lat="45.79304" lon="6.40387">
        <ele>2122</ele>
        <time>2019-02-17T12:57:46.000Z</time>
      </trkpt>
      <trkpt lat="45.79304" lon="6.40387">
        <ele>2123.1999511719</ele>
        <time>2019-02-17T12:57:48.000Z</time>
      </trkpt>
      <trkpt lat="45.79304" lon="6.40387">
        <ele>2123.8000488281</ele>
        <time>2019-02-17T12:57:55.000Z</time>
      </trkpt>
      <trkpt lat="45.79304" lon="6.40389">
        <ele>2123.1999511719</ele>
        <time>2019-02-17T12:58:09.000Z</time>
      </trkpt>
      <trkpt lat="45.79303" lon="6.40391">
        <ele>2124.3999023438</ele>
        <time>2019-02-17T12:58:15.000Z</time>
      </trkpt>
      <trkpt lat="45.79303" lon="6.40391">
        <ele>2124.6000976562</ele>
        <time>2019-02-17T12:58:19.000Z</time>
      </trkpt>
      <trkpt lat="45.79303" lon="6.40391">
        <ele>2124.3999023438</ele>
        <time>2019-02-17T12:58:33.000Z</time>
      </trkpt>
      <trkpt lat="45.79303" lon="6.40391">
        <ele>2124.6000976562</ele>
        <time>2019-02-17T12:58:56.000Z</time>
      </trkpt>
      <trkpt lat="45.79303" lon="6.40391">
        <ele>2124.8000488281</ele>
        <time>2019-02-17T12:59:07.000Z</time>
      </trkpt>
      <trkpt lat="45.79303" lon="6.40391">
        <ele>2125</ele>
        <time>2019-02-17T12:59:20.000Z</time>
      </trkpt>
      <trkpt lat="45.79303" lon="6.40391">
        <ele>2124.8000488281</ele>
        <time>2019-02-17T12:59:33.000Z</time>
      </trkpt>
      <trkpt lat="45.79303" lon="6.40391">
        <ele>2125.3999023438</ele>
        <time>2019-02-17T12:59:49.000Z</time>
      </trkpt>
      <trkpt lat="45.79303" lon="6.40391">
        <ele>2124.8000488281</ele>
        <time>2019-02-17T13:00:01.000Z</time>
      </trkpt>
      <trkpt lat="45.79304" lon="6.40391">
        <ele>2124.1999511719</ele>
        <time>2019-02-17T13:00:10.000Z</time>
      </trkpt>
      <trkpt lat="45.79304" lon="6.40391">
        <ele>2123.6000976562</ele>
        <time>2019-02-17T13:00:11.000Z</time>
      </trkpt>
      <trkpt lat="45.79304" lon="6.40391">
        <ele>2123</ele>
        <time>2019-02-17T13:00:13.000Z</time>
      </trkpt>
      <trkpt lat="45.79304" lon="6.40391">
        <ele>2124.1999511719</ele>
        <time>2019-02-17T13:00:18.000Z</time>
      </trkpt>
      <trkpt lat="45.79304" lon="6.40391">
        <ele>2125.3999023438</ele>
        <time>2019-02-17T13:00:20.000Z</time>
      </trkpt>
      <trkpt lat="45.79304" lon="6.40391">
        <ele>2126.3999023438</ele>
        <time>2019-02-17T13:00:23.000Z</time>
      </trkpt>
      <trkpt lat="45.79304" lon="6.40391">
        <ele>2126.3999023438</ele>
        <time>2019-02-17T13:00:24.000Z</time>
      </trkpt>
      <trkpt lat="45.79304" lon="6.4039">
        <ele>2125</ele>
        <time>2019-02-17T13:00:26.000Z</time>
      </trkpt>
      <trkpt lat="45.79304" lon="6.40388">
        <ele>2124.1999511719</ele>
        <time>2019-02-17T13:00:30.000Z</time>
      </trkpt>
      <trkpt lat="45.79304" lon="6.40388">
        <ele>2123.8000488281</ele>
        <time>2019-02-17T13:00:36.000Z</time>
      </trkpt>
      <trkpt lat="45.79304" lon="6.40388">
        <ele>2123.3999023438</ele>
        <time>2019-02-17T13:00:39.000Z</time>
      </trkpt>
      <trkpt lat="45.79304" lon="6.40388">
        <ele>2123.3999023438</ele>
        <time>2019-02-17T13:00:40.000Z</time>
      </trkpt>
      <trkpt lat="45.79304" lon="6.40388">
        <ele>2123.3999023438</ele>
        <time>2019-02-17T13:00:46.000Z</time>
      </trkpt>
      <trkpt lat="45.79304" lon="6.40388">
        <ele>2122.6000976562</ele>
        <time>2019-02-17T13:00:49.000Z</time>
      </trkpt>
      <trkpt lat="45.79305" lon="6.40382">
        <ele>2122</ele>
        <time>2019-02-17T13:00:54.000Z</time>
      </trkpt>
      <trkpt lat="45.79308" lon="6.40378">
        <ele>2121.6000976562</ele>
        <time>2019-02-17T13:00:59.000Z</time>
      </trkpt>
      <trkpt lat="45.79308" lon="6.40377">
        <ele>2121.1999511719</ele>
        <time>2019-02-17T13:01:01.000Z</time>
      </trkpt>
      <trkpt lat="45.79308" lon="6.40377">
        <ele>2120.3999023438</ele>
        <time>2019-02-17T13:01:04.000Z</time>
      </trkpt>
      <trkpt lat="45.79308" lon="6.40377">
        <ele>2120.6000976562</ele>
        <time>2019-02-17T13:01:11.000Z</time>
      </trkpt>
      <trkpt lat="45.79308" lon="6.40377">
        <ele>2120</ele>
        <time>2019-02-17T13:01:21.000Z</time>
      </trkpt>
      <trkpt lat="45.79308" lon="6.40377">
        <ele>2119.1999511719</ele>
        <time>2019-02-17T13:01:29.000Z</time>
      </trkpt>
      <trkpt lat="45.79308" lon="6.40377">
        <ele>2118.8000488281</ele>
        <time>2019-02-17T13:01:31.000Z</time>
      </trkpt>
      <trkpt lat="45.79308" lon="6.40377">
        <ele>2120.6000976562</ele>
        <time>2019-02-17T13:01:35.000Z</time>
      </trkpt>
      <trkpt lat="45.79308" lon="6.40377">
        <ele>2120</ele>
        <time>2019-02-17T13:01:44.000Z</time>
      </trkpt>
      <trkpt lat="45.79308" lon="6.40377">
        <ele>2119.3999023438</ele>
        <time>2019-02-17T13:01:53.000Z</time>
      </trkpt>
      <trkpt lat="45.79308" lon="6.40377">
        <ele>2120.3999023438</ele>
        <time>2019-02-17T13:01:58.000Z</time>
      </trkpt>
      <trkpt lat="45.79308" lon="6.40377">
        <ele>2121</ele>
        <time>2019-02-17T13:02:00.000Z</time>
      </trkpt>
      <trkpt lat="45.79308" lon="6.40377">
        <ele>2118.8000488281</ele>
        <time>2019-02-17T13:02:05.000Z</time>
      </trkpt>
      <trkpt lat="45.79308" lon="6.40377">
        <ele>2120</ele>
        <time>2019-02-17T13:02:11.000Z</time>
      </trkpt>
      <trkpt lat="45.79308" lon="6.40377">
        <ele>2120.6000976562</ele>
        <time>2019-02-17T13:02:14.000Z</time>
      </trkpt>
      <trkpt lat="45.79308" lon="6.40377">
        <ele>2119.6000976562</ele>
        <time>2019-02-17T13:02:24.000Z</time>
      </trkpt>
      <trkpt lat="45.79308" lon="6.40377">
        <ele>2121.1999511719</ele>
        <time>2019-02-17T13:02:28.000Z</time>
      </trkpt>
      <trkpt lat="45.79308" lon="6.40377">
        <ele>2120</ele>
        <time>2019-02-17T13:02:39.000Z</time>
      </trkpt>
      <trkpt lat="45.79308" lon="6.40377">
        <ele>2120.1999511719</ele>
        <time>2019-02-17T13:02:43.000Z</time>
      </trkpt>
      <trkpt lat="45.79308" lon="6.40377">
        <ele>2120.1999511719</ele>
        <time>2019-02-17T13:02:59.000Z</time>
      </trkpt>
      <trkpt lat="45.79308" lon="6.40377">
        <ele>2119.8000488281</ele>
        <time>2019-02-17T13:03:11.000Z</time>
      </trkpt>
      <trkpt lat="45.79308" lon="6.40377">
        <ele>2120.1999511719</ele>
        <time>2019-02-17T13:03:21.000Z</time>
      </trkpt>
      <trkpt lat="45.79308" lon="6.40377">
        <ele>2119.8000488281</ele>
        <time>2019-02-17T13:03:37.000Z</time>
      </trkpt>
      <trkpt lat="45.79308" lon="6.40377">
        <ele>2120</ele>
        <time>2019-02-17T13:03:55.000Z</time>
      </trkpt>
      <trkpt lat="45.79308" lon="6.40377">
        <ele>2119.8000488281</ele>
        <time>2019-02-17T13:04:13.000Z</time>
      </trkpt>
      <trkpt lat="45.79308" lon="6.40377">
        <ele>2119.6000976562</ele>
        <time>2019-02-17T13:04:32.000Z</time>
      </trkpt>
      <trkpt lat="45.79308" lon="6.40377">
        <ele>2119.8000488281</ele>
        <time>2019-02-17T13:04:48.000Z</time>
      </trkpt>
      <trkpt lat="45.79308" lon="6.40377">
        <ele>2119.8000488281</ele>
        <time>2019-02-17T13:05:06.000Z</time>
      </trkpt>
      <trkpt lat="45.79308" lon="6.40377">
        <ele>2120</ele>
        <time>2019-02-17T13:05:23.000Z</time>
      </trkpt>
      <trkpt lat="45.79308" lon="6.40377">
        <ele>2120</ele>
        <time>2019-02-17T13:05:24.000Z</time>
      </trkpt>
      <trkpt lat="45.79308" lon="6.40377">
        <ele>2120</ele>
        <time>2019-02-17T13:05:40.000Z</time>
      </trkpt>
      <trkpt lat="45.79308" lon="6.40377">
        <ele>2120.1999511719</ele>
        <time>2019-02-17T13:05:52.000Z</time>
      </trkpt>
      <trkpt lat="45.79308" lon="6.40377">
        <ele>2120.1999511719</ele>
        <time>2019-02-17T13:06:10.000Z</time>
      </trkpt>
      <trkpt lat="45.79308" lon="6.40377">
        <ele>2120</ele>
        <time>2019-02-17T13:06:25.000Z</time>
      </trkpt>
      <trkpt lat="45.79308" lon="6.40377">
        <ele>2120.1999511719</ele>
        <time>2019-02-17T13:06:39.000Z</time>
      </trkpt>
      <trkpt lat="45.79308" lon="6.40377">
        <ele>2120.1999511719</ele>
        <time>2019-02-17T13:06:55.000Z</time>
      </trkpt>
      <trkpt lat="45.79308" lon="6.40376">
        <ele>2120</ele>
        <time>2019-02-17T13:07:13.000Z</time>
      </trkpt>
      <trkpt lat="45.79308" lon="6.40376">
        <ele>2120</ele>
        <time>2019-02-17T13:07:26.000Z</time>
      </trkpt>
      <trkpt lat="45.79308" lon="6.40376">
        <ele>2120.1999511719</ele>
        <time>2019-02-17T13:07:35.000Z</time>
      </trkpt>
      <trkpt lat="45.79309" lon="6.40376">
        <ele>2120.1999511719</ele>
        <time>2019-02-17T13:07:54.000Z</time>
      </trkpt>
      <trkpt lat="45.79309" lon="6.40376">
        <ele>2120.1999511719</ele>
        <time>2019-02-17T13:08:06.000Z</time>
      </trkpt>
      <trkpt lat="45.79309" lon="6.40376">
        <ele>2120.1999511719</ele>
        <time>2019-02-17T13:08:18.000Z</time>
      </trkpt>
      <trkpt lat="45.79309" lon="6.40376">
        <ele>2120</ele>
        <time>2019-02-17T13:08:21.000Z</time>
      </trkpt>
      <trkpt lat="45.79309" lon="6.40376">
        <ele>2120</ele>
        <time>2019-02-17T13:08:28.000Z</time>
      </trkpt>
      <trkpt lat="45.79308" lon="6.40376">
        <ele>2119</ele>
        <time>2019-02-17T13:08:33.000Z</time>
      </trkpt>
      <trkpt lat="45.79308" lon="6.40376">
        <ele>2119.3999023438</ele>
        <time>2019-02-17T13:08:39.000Z</time>
      </trkpt>
      <trkpt lat="45.79308" lon="6.40376">
        <ele>2120.1999511719</ele>
        <time>2019-02-17T13:08:41.000Z</time>
      </trkpt>
      <trkpt lat="45.79308" lon="6.40376">
        <ele>2120</ele>
        <time>2019-02-17T13:08:55.000Z</time>
      </trkpt>
      <trkpt lat="45.79308" lon="6.40376">
        <ele>2121</ele>
        <time>2019-02-17T13:09:07.000Z</time>
      </trkpt>
      <trkpt lat="45.79308" lon="6.40376">
        <ele>2120.8000488281</ele>
        <time>2019-02-17T13:09:22.000Z</time>
      </trkpt>
      <trkpt lat="45.79308" lon="6.40376">
        <ele>2121.1999511719</ele>
        <time>2019-02-17T13:09:38.000Z</time>
      </trkpt>
      <trkpt lat="45.79308" lon="6.40376">
        <ele>2119.6000976562</ele>
        <time>2019-02-17T13:09:46.000Z</time>
      </trkpt>
      <trkpt lat="45.79308" lon="6.40376">
        <ele>2118.6000976562</ele>
        <time>2019-02-17T13:09:48.000Z</time>
      </trkpt>
      <trkpt lat="45.79308" lon="6.40376">
        <ele>2118.6000976562</ele>
        <time>2019-02-17T13:09:50.000Z</time>
      </trkpt>
      <trkpt lat="45.79308" lon="6.40376">
        <ele>2120.3999023438</ele>
        <time>2019-02-17T13:09:51.000Z</time>
      </trkpt>
      <trkpt lat="45.79308" lon="6.40376">
        <ele>2121.3999023438</ele>
        <time>2019-02-17T13:09:52.000Z</time>
      </trkpt>
      <trkpt lat="45.79308" lon="6.40376">
        <ele>2119.8000488281</ele>
        <time>2019-02-17T13:09:56.000Z</time>
      </trkpt>
      <trkpt lat="45.79308" lon="6.40376">
        <ele>2118.3999023438</ele>
        <time>2019-02-17T13:09:58.000Z</time>
      </trkpt>
      <trkpt lat="45.79308" lon="6.40376">
        <ele>2119.6000976562</ele>
        <time>2019-02-17T13:10:00.000Z</time>
      </trkpt>
      <trkpt lat="45.79308" lon="6.40376">
        <ele>2121.1999511719</ele>
        <time>2019-02-17T13:10:01.000Z</time>
      </trkpt>
      <trkpt lat="45.79308" lon="6.40376">
        <ele>2122.6000976562</ele>
        <time>2019-02-17T13:10:02.000Z</time>
      </trkpt>
      <trkpt lat="45.79308" lon="6.40376">
        <ele>2122.8000488281</ele>
        <time>2019-02-17T13:10:03.000Z</time>
      </trkpt>
      <trkpt lat="45.79308" lon="6.40376">
        <ele>2121.1999511719</ele>
        <time>2019-02-17T13:10:06.000Z</time>
      </trkpt>
      <trkpt lat="45.79308" lon="6.40376">
        <ele>2121.1999511719</ele>
        <time>2019-02-17T13:10:16.000Z</time>
      </trkpt>
      <trkpt lat="45.79308" lon="6.40376">
        <ele>2120.8000488281</ele>
        <time>2019-02-17T13:10:33.000Z</time>
      </trkpt>
      <trkpt lat="45.79308" lon="6.40376">
        <ele>2120.8000488281</ele>
        <time>2019-02-17T13:10:53.000Z</time>
      </trkpt>
      <trkpt lat="45.79308" lon="6.40376">
        <ele>2121</ele>
        <time>2019-02-17T13:11:19.000Z</time>
      </trkpt>
      <trkpt lat="45.79308" lon="6.40376">
        <ele>2120.8000488281</ele>
        <time>2019-02-17T13:11:36.000Z</time>
      </trkpt>
      <trkpt lat="45.79308" lon="6.40376">
        <ele>2121.1999511719</ele>
        <time>2019-02-17T13:11:53.000Z</time>
      </trkpt>
      <trkpt lat="45.79308" lon="6.40376">
        <ele>2121.1999511719</ele>
        <time>2019-02-17T13:11:54.000Z</time>
      </trkpt>
      <trkpt lat="45.79308" lon="6.40376">
        <ele>2121</ele>
        <time>2019-02-17T13:12:12.000Z</time>
      </trkpt>
      <trkpt lat="45.79308" lon="6.40376">
        <ele>2121</ele>
        <time>2019-02-17T13:12:19.000Z</time>
      </trkpt>
      <trkpt lat="45.79308" lon="6.40376">
        <ele>2122</ele>
        <time>2019-02-17T13:12:29.000Z</time>
      </trkpt>
      <trkpt lat="45.79308" lon="6.40376">
        <ele>2121.3999023438</ele>
        <time>2019-02-17T13:12:42.000Z</time>
      </trkpt>
      <trkpt lat="45.79308" lon="6.40376">
        <ele>2121.1999511719</ele>
        <time>2019-02-17T13:12:57.000Z</time>
      </trkpt>
      <trkpt lat="45.79308" lon="6.40376">
        <ele>2120.3999023438</ele>
        <time>2019-02-17T13:13:13.000Z</time>
      </trkpt>
      <trkpt lat="45.79308" lon="6.40376">
        <ele>2120.1999511719</ele>
        <time>2019-02-17T13:13:15.000Z</time>
      </trkpt>
      <trkpt lat="45.79308" lon="6.40376">
        <ele>2121.1999511719</ele>
        <time>2019-02-17T13:13:22.000Z</time>
      </trkpt>
      <trkpt lat="45.79308" lon="6.40376">
        <ele>2121</ele>
        <time>2019-02-17T13:13:26.000Z</time>
      </trkpt>
      <trkpt lat="45.79308" lon="6.40376">
        <ele>2122.3999023438</ele>
        <time>2019-02-17T13:13:37.000Z</time>
      </trkpt>
      <trkpt lat="45.79308" lon="6.40376">
        <ele>2122.3999023438</ele>
        <time>2019-02-17T13:13:38.000Z</time>
      </trkpt>
      <trkpt lat="45.79308" lon="6.40377">
        <ele>2121.1999511719</ele>
        <time>2019-02-17T13:13:45.000Z</time>
      </trkpt>
      <trkpt lat="45.79308" lon="6.40377">
        <ele>2121.3999023438</ele>
        <time>2019-02-17T13:13:56.000Z</time>
      </trkpt>
      <trkpt lat="45.79308" lon="6.40377">
        <ele>2121</ele>
        <time>2019-02-17T13:14:10.000Z</time>
      </trkpt>
      <trkpt lat="45.79308" lon="6.40376">
        <ele>2121.1999511719</ele>
        <time>2019-02-17T13:14:30.000Z</time>
      </trkpt>
      <trkpt lat="45.79308" lon="6.40377">
        <ele>2121.1999511719</ele>
        <time>2019-02-17T13:14:46.000Z</time>
      </trkpt>
      <trkpt lat="45.79308" lon="6.40377">
        <ele>2120.8000488281</ele>
        <time>2019-02-17T13:14:59.000Z</time>
      </trkpt>
      <trkpt lat="45.79308" lon="6.40377">
        <ele>2120.6000976562</ele>
        <time>2019-02-17T13:15:10.000Z</time>
      </trkpt>
      <trkpt lat="45.79308" lon="6.40377">
        <ele>2120.8000488281</ele>
        <time>2019-02-17T13:15:22.000Z</time>
      </trkpt>
      <trkpt lat="45.79308" lon="6.40376">
        <ele>2121.1999511719</ele>
        <time>2019-02-17T13:15:30.000Z</time>
      </trkpt>
      <trkpt lat="45.79308" lon="6.40376">
        <ele>2121.6000976562</ele>
        <time>2019-02-17T13:15:35.000Z</time>
      </trkpt>
      <trkpt lat="45.79308" lon="6.40376">
        <ele>2121</ele>
        <time>2019-02-17T13:15:46.000Z</time>
      </trkpt>
      <trkpt lat="45.79308" lon="6.40376">
        <ele>2120.6000976562</ele>
        <time>2019-02-17T13:15:55.000Z</time>
      </trkpt>
      <trkpt lat="45.79308" lon="6.40376">
        <ele>2119.8000488281</ele>
        <time>2019-02-17T13:16:04.000Z</time>
      </trkpt>
      <trkpt lat="45.79308" lon="6.40376">
        <ele>2118.8000488281</ele>
        <time>2019-02-17T13:16:08.000Z</time>
      </trkpt>
      <trkpt lat="45.79308" lon="6.40376">
        <ele>2119</ele>
        <time>2019-02-17T13:16:09.000Z</time>
      </trkpt>
      <trkpt lat="45.79308" lon="6.40376">
        <ele>2120</ele>
        <time>2019-02-17T13:16:11.000Z</time>
      </trkpt>
      <trkpt lat="45.79308" lon="6.40376">
        <ele>2121</ele>
        <time>2019-02-17T13:16:15.000Z</time>
      </trkpt>
      <trkpt lat="45.79308" lon="6.40376">
        <ele>2122.1999511719</ele>
        <time>2019-02-17T13:16:20.000Z</time>
      </trkpt>
      <trkpt lat="45.79308" lon="6.40376">
        <ele>2121.1999511719</ele>
        <time>2019-02-17T13:16:26.000Z</time>
      </trkpt>
      <trkpt lat="45.79308" lon="6.40376">
        <ele>2121</ele>
        <time>2019-02-17T13:16:27.000Z</time>
      </trkpt>
      <trkpt lat="45.79308" lon="6.40376">
        <ele>2121.1999511719</ele>
        <time>2019-02-17T13:16:43.000Z</time>
      </trkpt>
      <trkpt lat="45.79308" lon="6.40376">
        <ele>2121.1999511719</ele>
        <time>2019-02-17T13:17:02.000Z</time>
      </trkpt>
      <trkpt lat="45.79308" lon="6.40376">
        <ele>2121.1999511719</ele>
        <time>2019-02-17T13:17:21.000Z</time>
      </trkpt>
      <trkpt lat="45.79308" lon="6.40377">
        <ele>2121</ele>
        <time>2019-02-17T13:17:37.000Z</time>
      </trkpt>
      <trkpt lat="45.79308" lon="6.40377">
        <ele>2121</ele>
        <time>2019-02-17T13:17:53.000Z</time>
      </trkpt>
      <trkpt lat="45.79308" lon="6.40377">
        <ele>2121.1999511719</ele>
        <time>2019-02-17T13:18:16.000Z</time>
      </trkpt>
      <trkpt lat="45.79308" lon="6.40377">
        <ele>2121.3999023438</ele>
        <time>2019-02-17T13:18:27.000Z</time>
      </trkpt>
      <trkpt lat="45.79308" lon="6.40377">
        <ele>2119.8000488281</ele>
        <time>2019-02-17T13:18:36.000Z</time>
      </trkpt>
      <trkpt lat="45.79308" lon="6.40377">
        <ele>2120.6000976562</ele>
        <time>2019-02-17T13:18:45.000Z</time>
      </trkpt>
      <trkpt lat="45.79308" lon="6.40377">
        <ele>2121</ele>
        <time>2019-02-17T13:18:48.000Z</time>
      </trkpt>
      <trkpt lat="45.79308" lon="6.40377">
        <ele>2121</ele>
        <time>2019-02-17T13:19:06.000Z</time>
      </trkpt>
      <trkpt lat="45.79308" lon="6.40377">
        <ele>2121.1999511719</ele>
        <time>2019-02-17T13:19:25.000Z</time>
      </trkpt>
      <trkpt lat="45.79308" lon="6.40377">
        <ele>2121</ele>
        <time>2019-02-17T13:19:44.000Z</time>
      </trkpt>
      <trkpt lat="45.79308" lon="6.40377">
        <ele>2121</ele>
        <time>2019-02-17T13:20:02.000Z</time>
      </trkpt>
      <trkpt lat="45.79308" lon="6.40377">
        <ele>2121.1999511719</ele>
        <time>2019-02-17T13:20:16.000Z</time>
      </trkpt>
      <trkpt lat="45.79308" lon="6.40377">
        <ele>2121</ele>
        <time>2019-02-17T13:20:30.000Z</time>
      </trkpt>
      <trkpt lat="45.79308" lon="6.40377">
        <ele>2121.1999511719</ele>
        <time>2019-02-17T13:20:50.000Z</time>
      </trkpt>
      <trkpt lat="45.79308" lon="6.40377">
        <ele>2121.1999511719</ele>
        <time>2019-02-17T13:21:04.000Z</time>
      </trkpt>
      <trkpt lat="45.79308" lon="6.40377">
        <ele>2121</ele>
        <time>2019-02-17T13:21:26.000Z</time>
      </trkpt>
      <trkpt lat="45.79308" lon="6.40377">
        <ele>2121.1999511719</ele>
        <time>2019-02-17T13:21:36.000Z</time>
      </trkpt>
      <trkpt lat="45.79308" lon="6.40377">
        <ele>2121.1999511719</ele>
        <time>2019-02-17T13:21:57.000Z</time>
      </trkpt>
      <trkpt lat="45.79308" lon="6.40377">
        <ele>2121.6000976562</ele>
        <time>2019-02-17T13:22:17.000Z</time>
      </trkpt>
      <trkpt lat="45.79308" lon="6.40377">
        <ele>2121.1999511719</ele>
        <time>2019-02-17T13:22:36.000Z</time>
      </trkpt>
      <trkpt lat="45.79308" lon="6.40377">
        <ele>2121.1999511719</ele>
        <time>2019-02-17T13:22:56.000Z</time>
      </trkpt>
      <trkpt lat="45.79308" lon="6.40377">
        <ele>2120.6000976562</ele>
        <time>2019-02-17T13:23:12.000Z</time>
      </trkpt>
      <trkpt lat="45.79308" lon="6.40377">
        <ele>2121.1999511719</ele>
        <time>2019-02-17T13:23:20.000Z</time>
      </trkpt>
      <trkpt lat="45.79308" lon="6.40377">
        <ele>2121</ele>
        <time>2019-02-17T13:23:30.000Z</time>
      </trkpt>
      <trkpt lat="45.79308" lon="6.40377">
        <ele>2121.1999511719</ele>
        <time>2019-02-17T13:23:43.000Z</time>
      </trkpt>
      <trkpt lat="45.79308" lon="6.40377">
        <ele>2121.1999511719</ele>
        <time>2019-02-17T13:24:00.000Z</time>
      </trkpt>
      <trkpt lat="45.79308" lon="6.40377">
        <ele>2121.1999511719</ele>
        <time>2019-02-17T13:24:17.000Z</time>
      </trkpt>
      <trkpt lat="45.79308" lon="6.40377">
        <ele>2121.1999511719</ele>
        <time>2019-02-17T13:24:28.000Z</time>
      </trkpt>
      <trkpt lat="45.79308" lon="6.40377">
        <ele>2121.1999511719</ele>
        <time>2019-02-17T13:24:44.000Z</time>
      </trkpt>
      <trkpt lat="45.79308" lon="6.40377">
        <ele>2121.3999023438</ele>
        <time>2019-02-17T13:24:57.000Z</time>
      </trkpt>
      <trkpt lat="45.79308" lon="6.40377">
        <ele>2121.3999023438</ele>
        <time>2019-02-17T13:25:18.000Z</time>
      </trkpt>
      <trkpt lat="45.79308" lon="6.40377">
        <ele>2121.1999511719</ele>
        <time>2019-02-17T13:25:35.000Z</time>
      </trkpt>
      <trkpt lat="45.79308" lon="6.40377">
        <ele>2120.8000488281</ele>
        <time>2019-02-17T13:25:53.000Z</time>
      </trkpt>
      <trkpt lat="45.79308" lon="6.40377">
        <ele>2121.1999511719</ele>
        <time>2019-02-17T13:26:15.000Z</time>
      </trkpt>
      <trkpt lat="45.79308" lon="6.40377">
        <ele>2121.1999511719</ele>
        <time>2019-02-17T13:26:32.000Z</time>
      </trkpt>
      <trkpt lat="45.79308" lon="6.40377">
        <ele>2121.3999023438</ele>
        <time>2019-02-17T13:26:51.000Z</time>
      </trkpt>
      <trkpt lat="45.79308" lon="6.40377">
        <ele>2121.3999023438</ele>
        <time>2019-02-17T13:27:11.000Z</time>
      </trkpt>
      <trkpt lat="45.79308" lon="6.40377">
        <ele>2121.3999023438</ele>
        <time>2019-02-17T13:27:13.000Z</time>
      </trkpt>
      <trkpt lat="45.79308" lon="6.40377">
        <ele>2121.3999023438</ele>
        <time>2019-02-17T13:27:25.000Z</time>
      </trkpt>
      <trkpt lat="45.79308" lon="6.40377">
        <ele>2121.3999023438</ele>
        <time>2019-02-17T13:27:46.000Z</time>
      </trkpt>
      <trkpt lat="45.79308" lon="6.40377">
        <ele>2121.8000488281</ele>
        <time>2019-02-17T13:28:01.000Z</time>
      </trkpt>
      <trkpt lat="45.79308" lon="6.40377">
        <ele>2122</ele>
        <time>2019-02-17T13:28:15.000Z</time>
      </trkpt>
      <trkpt lat="45.79308" lon="6.40377">
        <ele>2121.6000976562</ele>
        <time>2019-02-17T13:28:30.000Z</time>
      </trkpt>
      <trkpt lat="45.79308" lon="6.40377">
        <ele>2121.8000488281</ele>
        <time>2019-02-17T13:28:46.000Z</time>
      </trkpt>
      <trkpt lat="45.79308" lon="6.40377">
        <ele>2121.8000488281</ele>
        <time>2019-02-17T13:28:57.000Z</time>
      </trkpt>
      <trkpt lat="45.79308" lon="6.40377">
        <ele>2121.1999511719</ele>
        <time>2019-02-17T13:29:09.000Z</time>
      </trkpt>
      <trkpt lat="45.79308" lon="6.40377">
        <ele>2122</ele>
        <time>2019-02-17T13:29:12.000Z</time>
      </trkpt>
      <trkpt lat="45.79308" lon="6.40377">
        <ele>2121.8000488281</ele>
        <time>2019-02-17T13:29:22.000Z</time>
      </trkpt>
      <trkpt lat="45.79308" lon="6.40377">
        <ele>2123</ele>
        <time>2019-02-17T13:29:33.000Z</time>
      </trkpt>
      <trkpt lat="45.79308" lon="6.40377">
        <ele>2122.8000488281</ele>
        <time>2019-02-17T13:29:37.000Z</time>
      </trkpt>
      <trkpt lat="45.79308" lon="6.40377">
        <ele>2121.8000488281</ele>
        <time>2019-02-17T13:29:41.000Z</time>
      </trkpt>
      <trkpt lat="45.79308" lon="6.40377">
        <ele>2122.3999023438</ele>
        <time>2019-02-17T13:29:46.000Z</time>
      </trkpt>
      <trkpt lat="45.79308" lon="6.40377">
        <ele>2122.8000488281</ele>
        <time>2019-02-17T13:29:47.000Z</time>
      </trkpt>
      <trkpt lat="45.79308" lon="6.40377">
        <ele>2121.3999023438</ele>
        <time>2019-02-17T13:29:52.000Z</time>
      </trkpt>
      <trkpt lat="45.79308" lon="6.40377">
        <ele>2121.6000976562</ele>
        <time>2019-02-17T13:29:57.000Z</time>
      </trkpt>
      <trkpt lat="45.79308" lon="6.40377">
        <ele>2122.8000488281</ele>
        <time>2019-02-17T13:29:59.000Z</time>
      </trkpt>
      <trkpt lat="45.79308" lon="6.40377">
        <ele>2122.8000488281</ele>
        <time>2019-02-17T13:30:09.000Z</time>
      </trkpt>
      <trkpt lat="45.79308" lon="6.40377">
        <ele>2121.8000488281</ele>
        <time>2019-02-17T13:30:17.000Z</time>
      </trkpt>
      <trkpt lat="45.79308" lon="6.40377">
        <ele>2122.8000488281</ele>
        <time>2019-02-17T13:30:22.000Z</time>
      </trkpt>
      <trkpt lat="45.79308" lon="6.40377">
        <ele>2122.6000976562</ele>
        <time>2019-02-17T13:30:34.000Z</time>
      </trkpt>
      <trkpt lat="45.79308" lon="6.40377">
        <ele>2122</ele>
        <time>2019-02-17T13:30:48.000Z</time>
      </trkpt>
      <trkpt lat="45.79308" lon="6.40377">
        <ele>2123.6000976562</ele>
        <time>2019-02-17T13:31:02.000Z</time>
      </trkpt>
      <trkpt lat="45.79308" lon="6.40377">
        <ele>2122.6000976562</ele>
        <time>2019-02-17T13:31:13.000Z</time>
      </trkpt>
      <trkpt lat="45.79308" lon="6.40377">
        <ele>2122.8000488281</ele>
        <time>2019-02-17T13:31:27.000Z</time>
      </trkpt>
      <trkpt lat="45.79308" lon="6.40377">
        <ele>2122.1999511719</ele>
        <time>2019-02-17T13:31:39.000Z</time>
      </trkpt>
      <trkpt lat="45.79308" lon="6.40377">
        <ele>2122.8000488281</ele>
        <time>2019-02-17T13:31:51.000Z</time>
      </trkpt>
      <trkpt lat="45.79308" lon="6.40377">
        <ele>2122.6000976562</ele>
        <time>2019-02-17T13:32:09.000Z</time>
      </trkpt>
      <trkpt lat="45.79308" lon="6.40377">
        <ele>2122.8000488281</ele>
        <time>2019-02-17T13:32:26.000Z</time>
      </trkpt>
      <trkpt lat="45.79308" lon="6.40377">
        <ele>2122.6000976562</ele>
        <time>2019-02-17T13:32:42.000Z</time>
      </trkpt>
      <trkpt lat="45.79308" lon="6.40377">
        <ele>2123</ele>
        <time>2019-02-17T13:33:05.000Z</time>
      </trkpt>
      <trkpt lat="45.79308" lon="6.40377">
        <ele>2122.8000488281</ele>
        <time>2019-02-17T13:33:26.000Z</time>
      </trkpt>
      <trkpt lat="45.79309" lon="6.40373">
        <ele>2122.3999023438</ele>
        <time>2019-02-17T13:33:32.000Z</time>
      </trkpt>
      <trkpt lat="45.7931" lon="6.40371">
        <ele>2122</ele>
        <time>2019-02-17T13:33:38.000Z</time>
      </trkpt>
      <trkpt lat="45.79309" lon="6.4037">
        <ele>2121.8000488281</ele>
        <time>2019-02-17T13:33:40.000Z</time>
      </trkpt>
      <trkpt lat="45.7931" lon="6.40367">
        <ele>2121.6000976562</ele>
        <time>2019-02-17T13:33:42.000Z</time>
      </trkpt>
      <trkpt lat="45.79309" lon="6.40366">
        <ele>2121.6000976562</ele>
        <time>2019-02-17T13:33:43.000Z</time>
      </trkpt>
      <trkpt lat="45.79308" lon="6.40364">
        <ele>2121.1999511719</ele>
        <time>2019-02-17T13:33:47.000Z</time>
      </trkpt>
      <trkpt lat="45.79309" lon="6.40361">
        <ele>2120.8000488281</ele>
        <time>2019-02-17T13:33:48.000Z</time>
      </trkpt>
      <trkpt lat="45.79309" lon="6.4036">
        <ele>2120.1999511719</ele>
        <time>2019-02-17T13:33:49.000Z</time>
      </trkpt>
      <trkpt lat="45.7931" lon="6.4036">
        <ele>2118.6000976562</ele>
        <time>2019-02-17T13:33:51.000Z</time>
      </trkpt>
      <trkpt lat="45.79309" lon="6.4036">
        <ele>2118</ele>
        <time>2019-02-17T13:33:52.000Z</time>
      </trkpt>
      <trkpt lat="45.79308" lon="6.4036">
        <ele>2117.6000976562</ele>
        <time>2019-02-17T13:33:54.000Z</time>
      </trkpt>
      <trkpt lat="45.79308" lon="6.4036">
        <ele>2117</ele>
        <time>2019-02-17T13:33:58.000Z</time>
      </trkpt>
      <trkpt lat="45.79307" lon="6.4036">
        <ele>2116.3999023438</ele>
        <time>2019-02-17T13:34:03.000Z</time>
      </trkpt>
      <trkpt lat="45.79307" lon="6.40359">
        <ele>2116.1999511719</ele>
        <time>2019-02-17T13:34:05.000Z</time>
      </trkpt>
      <trkpt lat="45.79308" lon="6.40357">
        <ele>2115.1999511719</ele>
        <time>2019-02-17T13:34:12.000Z</time>
      </trkpt>
      <trkpt lat="45.79308" lon="6.40357">
        <ele>2114.6000976562</ele>
        <time>2019-02-17T13:34:22.000Z</time>
      </trkpt>
      <trkpt lat="45.79307" lon="6.40354">
        <ele>2114.3999023438</ele>
        <time>2019-02-17T13:34:29.000Z</time>
      </trkpt>
      <trkpt lat="45.79307" lon="6.40354">
        <ele>2114.1999511719</ele>
        <time>2019-02-17T13:34:30.000Z</time>
      </trkpt>
      <trkpt lat="45.79308" lon="6.40352">
        <ele>2113.8000488281</ele>
        <time>2019-02-17T13:34:35.000Z</time>
      </trkpt>
      <trkpt lat="45.79308" lon="6.40352">
        <ele>2113</ele>
        <time>2019-02-17T13:34:40.000Z</time>
      </trkpt>
      <trkpt lat="45.79308" lon="6.40352">
        <ele>2113</ele>
        <time>2019-02-17T13:34:41.000Z</time>
      </trkpt>
      <trkpt lat="45.79313" lon="6.40352">
        <ele>2112.8000488281</ele>
        <time>2019-02-17T13:34:43.000Z</time>
      </trkpt>
      <trkpt lat="45.79318" lon="6.40352">
        <ele>2112</ele>
        <time>2019-02-17T13:34:45.000Z</time>
      </trkpt>
      <trkpt lat="45.79317" lon="6.40351">
        <ele>2110.8000488281</ele>
        <time>2019-02-17T13:34:47.000Z</time>
      </trkpt>
      <trkpt lat="45.79316" lon="6.40349">
        <ele>2109.6000976562</ele>
        <time>2019-02-17T13:34:49.000Z</time>
      </trkpt>
      <trkpt lat="45.79316" lon="6.40348">
        <ele>2108.6000976562</ele>
        <time>2019-02-17T13:34:53.000Z</time>
      </trkpt>
      <trkpt lat="45.79315" lon="6.40348">
        <ele>2108.3999023438</ele>
        <time>2019-02-17T13:34:55.000Z</time>
      </trkpt>
      <trkpt lat="45.79315" lon="6.40346">
        <ele>2107.6000976562</ele>
        <time>2019-02-17T13:35:00.000Z</time>
      </trkpt>
      <trkpt lat="45.79318" lon="6.40345">
        <ele>2106.8000488281</ele>
        <time>2019-02-17T13:35:02.000Z</time>
      </trkpt>
      <trkpt lat="45.79319" lon="6.40345">
        <ele>2106.6000976562</ele>
        <time>2019-02-17T13:35:03.000Z</time>
      </trkpt>
      <trkpt lat="45.79319" lon="6.40345">
        <ele>2105.8000488281</ele>
        <time>2019-02-17T13:35:06.000Z</time>
      </trkpt>
      <trkpt lat="45.79319" lon="6.40344">
        <ele>2105.1999511719</ele>
        <time>2019-02-17T13:35:08.000Z</time>
      </trkpt>
      <trkpt lat="45.79319" lon="6.40342">
        <ele>2104.8000488281</ele>
        <time>2019-02-17T13:35:11.000Z</time>
      </trkpt>
      <trkpt lat="45.79321" lon="6.40342">
        <ele>2104.6000976562</ele>
        <time>2019-02-17T13:35:12.000Z</time>
      </trkpt>
      <trkpt lat="45.79322" lon="6.40341">
        <ele>2104</ele>
        <time>2019-02-17T13:35:15.000Z</time>
      </trkpt>
      <trkpt lat="45.79322" lon="6.4034">
        <ele>2102.8000488281</ele>
        <time>2019-02-17T13:35:17.000Z</time>
      </trkpt>
      <trkpt lat="45.79321" lon="6.40333">
        <ele>2102</ele>
        <time>2019-02-17T13:35:20.000Z</time>
      </trkpt>
      <trkpt lat="45.79324" lon="6.40333">
        <ele>2101.3999023438</ele>
        <time>2019-02-17T13:35:22.000Z</time>
      </trkpt>
      <trkpt lat="45.79324" lon="6.40333">
        <ele>2100.3999023438</ele>
        <time>2019-02-17T13:35:23.000Z</time>
      </trkpt>
      <trkpt lat="45.79324" lon="6.40333">
        <ele>2099.1999511719</ele>
        <time>2019-02-17T13:35:24.000Z</time>
      </trkpt>
      <trkpt lat="45.79324" lon="6.40333">
        <ele>2097.6000976562</ele>
        <time>2019-02-17T13:35:26.000Z</time>
      </trkpt>
      <trkpt lat="45.79326" lon="6.40332">
        <ele>2096.8000488281</ele>
        <time>2019-02-17T13:35:29.000Z</time>
      </trkpt>
      <trkpt lat="45.79326" lon="6.4033">
        <ele>2096.6000976562</ele>
        <time>2019-02-17T13:35:30.000Z</time>
      </trkpt>
      <trkpt lat="45.79326" lon="6.40327">
        <ele>2096.1999511719</ele>
        <time>2019-02-17T13:35:31.000Z</time>
      </trkpt>
      <trkpt lat="45.79325" lon="6.40324">
        <ele>2096</ele>
        <time>2019-02-17T13:35:32.000Z</time>
      </trkpt>
      <trkpt lat="45.79323" lon="6.40322">
        <ele>2095.3999023438</ele>
        <time>2019-02-17T13:35:34.000Z</time>
      </trkpt>
      <trkpt lat="45.79323" lon="6.40319">
        <ele>2094.6000976562</ele>
        <time>2019-02-17T13:35:36.000Z</time>
      </trkpt>
      <trkpt lat="45.79325" lon="6.40318">
        <ele>2093.8000488281</ele>
        <time>2019-02-17T13:35:37.000Z</time>
      </trkpt>
      <trkpt lat="45.79326" lon="6.40318">
        <ele>2091.8000488281</ele>
        <time>2019-02-17T13:35:39.000Z</time>
      </trkpt>
      <trkpt lat="45.79327" lon="6.40319">
        <ele>2089.6000976562</ele>
        <time>2019-02-17T13:35:40.000Z</time>
      </trkpt>
      <trkpt lat="45.79327" lon="6.40316">
        <ele>2088.6000976562</ele>
        <time>2019-02-17T13:35:43.000Z</time>
      </trkpt>
      <trkpt lat="45.79326" lon="6.40311">
        <ele>2088.3999023438</ele>
        <time>2019-02-17T13:35:44.000Z</time>
      </trkpt>
      <trkpt lat="45.79324" lon="6.40307">
        <ele>2087.8000488281</ele>
        <time>2019-02-17T13:35:47.000Z</time>
      </trkpt>
      <trkpt lat="45.79326" lon="6.40307">
        <ele>2087</ele>
        <time>2019-02-17T13:35:48.000Z</time>
      </trkpt>
      <trkpt lat="45.79328" lon="6.40309">
        <ele>2085.8000488281</ele>
        <time>2019-02-17T13:35:49.000Z</time>
      </trkpt>
      <trkpt lat="45.79331" lon="6.40308">
        <ele>2084.3999023438</ele>
        <time>2019-02-17T13:35:50.000Z</time>
      </trkpt>
      <trkpt lat="45.79332" lon="6.40304">
        <ele>2083.1999511719</ele>
        <time>2019-02-17T13:35:51.000Z</time>
      </trkpt>
      <trkpt lat="45.79331" lon="6.40301">
        <ele>2082.1999511719</ele>
        <time>2019-02-17T13:35:52.000Z</time>
      </trkpt>
      <trkpt lat="45.7933" lon="6.40299">
        <ele>2081.6000976562</ele>
        <time>2019-02-17T13:35:53.000Z</time>
      </trkpt>
      <trkpt lat="45.7933" lon="6.40297">
        <ele>2080.3999023438</ele>
        <time>2019-02-17T13:35:55.000Z</time>
      </trkpt>
      <trkpt lat="45.79332" lon="6.40296">
        <ele>2079.6000976562</ele>
        <time>2019-02-17T13:35:56.000Z</time>
      </trkpt>
      <trkpt lat="45.79334" lon="6.40297">
        <ele>2078.6000976562</ele>
        <time>2019-02-17T13:35:57.000Z</time>
      </trkpt>
      <trkpt lat="45.79336" lon="6.40297">
        <ele>2077.1999511719</ele>
        <time>2019-02-17T13:35:58.000Z</time>
      </trkpt>
      <trkpt lat="45.79337" lon="6.40294">
        <ele>2075.8000488281</ele>
        <time>2019-02-17T13:35:59.000Z</time>
      </trkpt>
      <trkpt lat="45.79337" lon="6.4029">
        <ele>2074.6000976562</ele>
        <time>2019-02-17T13:36:00.000Z</time>
      </trkpt>
      <trkpt lat="45.7934" lon="6.40287">
        <ele>2073.3999023438</ele>
        <time>2019-02-17T13:36:02.000Z</time>
      </trkpt>
      <trkpt lat="45.79341" lon="6.40287">
        <ele>2072.8000488281</ele>
        <time>2019-02-17T13:36:03.000Z</time>
      </trkpt>
      <trkpt lat="45.79342" lon="6.40288">
        <ele>2069.3999023438</ele>
        <time>2019-02-17T13:36:04.000Z</time>
      </trkpt>
      <trkpt lat="45.79343" lon="6.40288">
        <ele>2067.3999023438</ele>
        <time>2019-02-17T13:36:05.000Z</time>
      </trkpt>
      <trkpt lat="45.79343" lon="6.40288">
        <ele>2066.3999023438</ele>
        <time>2019-02-17T13:36:06.000Z</time>
      </trkpt>
      <trkpt lat="45.79343" lon="6.40289">
        <ele>2065</ele>
        <time>2019-02-17T13:36:08.000Z</time>
      </trkpt>
      <trkpt lat="45.79344" lon="6.40288">
        <ele>2064</ele>
        <time>2019-02-17T13:36:10.000Z</time>
      </trkpt>
      <trkpt lat="45.79343" lon="6.40285">
        <ele>2063.6000976562</ele>
        <time>2019-02-17T13:36:11.000Z</time>
      </trkpt>
      <trkpt lat="45.79343" lon="6.40282">
        <ele>2062.8000488281</ele>
        <time>2019-02-17T13:36:13.000Z</time>
      </trkpt>
      <trkpt lat="45.79346" lon="6.4028">
        <ele>2062.3999023438</ele>
        <time>2019-02-17T13:36:15.000Z</time>
      </trkpt>
      <trkpt lat="45.7935" lon="6.4028">
        <ele>2060.8000488281</ele>
        <time>2019-02-17T13:36:17.000Z</time>
      </trkpt>
      <trkpt lat="45.79352" lon="6.40278">
        <ele>2059.6000976562</ele>
        <time>2019-02-17T13:36:18.000Z</time>
      </trkpt>
      <trkpt lat="45.79352" lon="6.40276">
        <ele>2058.3999023438</ele>
        <time>2019-02-17T13:36:19.000Z</time>
      </trkpt>
      <trkpt lat="45.7935" lon="6.40273">
        <ele>2057</ele>
        <time>2019-02-17T13:36:21.000Z</time>
      </trkpt>
      <trkpt lat="45.79349" lon="6.40272">
        <ele>2056.6000976562</ele>
        <time>2019-02-17T13:36:22.000Z</time>
      </trkpt>
      <trkpt lat="45.79349" lon="6.4027">
        <ele>2055.8000488281</ele>
        <time>2019-02-17T13:36:23.000Z</time>
      </trkpt>
      <trkpt lat="45.7935" lon="6.40268">
        <ele>2054.8000488281</ele>
        <time>2019-02-17T13:36:24.000Z</time>
      </trkpt>
      <trkpt lat="45.79351" lon="6.40268">
        <ele>2053.6000976562</ele>
        <time>2019-02-17T13:36:25.000Z</time>
      </trkpt>
      <trkpt lat="45.79352" lon="6.40268">
        <ele>2052.1999511719</ele>
        <time>2019-02-17T13:36:26.000Z</time>
      </trkpt>
      <trkpt lat="45.79353" lon="6.40265">
        <ele>2051</ele>
        <time>2019-02-17T13:36:27.000Z</time>
      </trkpt>
      <trkpt lat="45.79352" lon="6.40261">
        <ele>2049.3999023438</ele>
        <time>2019-02-17T13:36:28.000Z</time>
      </trkpt>
      <trkpt lat="45.79351" lon="6.40257">
        <ele>2048.6000976562</ele>
        <time>2019-02-17T13:36:29.000Z</time>
      </trkpt>
      <trkpt lat="45.79349" lon="6.40255">
        <ele>2048.1999511719</ele>
        <time>2019-02-17T13:36:30.000Z</time>
      </trkpt>
      <trkpt lat="45.79346" lon="6.40251">
        <ele>2046.8000488281</ele>
        <time>2019-02-17T13:36:32.000Z</time>
      </trkpt>
      <trkpt lat="45.79346" lon="6.40251">
        <ele>2045.8000488281</ele>
        <time>2019-02-17T13:36:33.000Z</time>
      </trkpt>
      <trkpt lat="45.79346" lon="6.40251">
        <ele>2044.8000488281</ele>
        <time>2019-02-17T13:36:34.000Z</time>
      </trkpt>
      <trkpt lat="45.79346" lon="6.40251">
        <ele>2043.1999511719</ele>
        <time>2019-02-17T13:36:36.000Z</time>
      </trkpt>
      <trkpt lat="45.79347" lon="6.40254">
        <ele>2042.1999511719</ele>
        <time>2019-02-17T13:36:39.000Z</time>
      </trkpt>
      <trkpt lat="45.79348" lon="6.40255">
        <ele>2042.1999511719</ele>
        <time>2019-02-17T13:36:40.000Z</time>
      </trkpt>
      <trkpt lat="45.7935" lon="6.40256">
        <ele>2041.8000488281</ele>
        <time>2019-02-17T13:36:44.000Z</time>
      </trkpt>
      <trkpt lat="45.79351" lon="6.40255">
        <ele>2041.5999755859</ele>
        <time>2019-02-17T13:36:45.000Z</time>
      </trkpt>
      <trkpt lat="45.79354" lon="6.40254">
        <ele>2041</ele>
        <time>2019-02-17T13:36:47.000Z</time>
      </trkpt>
      <trkpt lat="45.79355" lon="6.4025">
        <ele>2040.5999755859</ele>
        <time>2019-02-17T13:36:48.000Z</time>
      </trkpt>
      <trkpt lat="45.79354" lon="6.40248">
        <ele>2040</ele>
        <time>2019-02-17T13:36:49.000Z</time>
      </trkpt>
      <trkpt lat="45.79355" lon="6.40245">
        <ele>2039</ele>
        <time>2019-02-17T13:36:51.000Z</time>
      </trkpt>
      <trkpt lat="45.79358" lon="6.40245">
        <ele>2038.1999511719</ele>
        <time>2019-02-17T13:36:52.000Z</time>
      </trkpt>
      <trkpt lat="45.7936" lon="6.40245">
        <ele>2036.1999511719</ele>
        <time>2019-02-17T13:36:54.000Z</time>
      </trkpt>
      <trkpt lat="45.7936" lon="6.40244">
        <ele>2034.8000488281</ele>
        <time>2019-02-17T13:36:55.000Z</time>
      </trkpt>
      <trkpt lat="45.7936" lon="6.40239">
        <ele>2033.5999755859</ele>
        <time>2019-02-17T13:36:56.000Z</time>
      </trkpt>
      <trkpt lat="45.79358" lon="6.40234">
        <ele>2033</ele>
        <time>2019-02-17T13:36:57.000Z</time>
      </trkpt>
      <trkpt lat="45.79356" lon="6.4023">
        <ele>2032.5999755859</ele>
        <time>2019-02-17T13:36:58.000Z</time>
      </trkpt>
      <trkpt lat="45.79355" lon="6.40227">
        <ele>2032.1999511719</ele>
        <time>2019-02-17T13:36:59.000Z</time>
      </trkpt>
      <trkpt lat="45.79353" lon="6.40224">
        <ele>2031.5999755859</ele>
        <time>2019-02-17T13:37:00.000Z</time>
      </trkpt>
      <trkpt lat="45.79351" lon="6.40222">
        <ele>2030.4000244141</ele>
        <time>2019-02-17T13:37:01.000Z</time>
      </trkpt>
      <trkpt lat="45.7935" lon="6.4022">
        <ele>2029.1999511719</ele>
        <time>2019-02-17T13:37:02.000Z</time>
      </trkpt>
      <trkpt lat="45.7935" lon="6.4022">
        <ele>2028</ele>
        <time>2019-02-17T13:37:03.000Z</time>
      </trkpt>
      <trkpt lat="45.7935" lon="6.40221">
        <ele>2027</ele>
        <time>2019-02-17T13:37:04.000Z</time>
      </trkpt>
      <trkpt lat="45.79351" lon="6.4022">
        <ele>2026</ele>
        <time>2019-02-17T13:37:05.000Z</time>
      </trkpt>
      <trkpt lat="45.79351" lon="6.40218">
        <ele>2025.1999511719</ele>
        <time>2019-02-17T13:37:06.000Z</time>
      </trkpt>
      <trkpt lat="45.79349" lon="6.40214">
        <ele>2024.1999511719</ele>
        <time>2019-02-17T13:37:08.000Z</time>
      </trkpt>
      <trkpt lat="45.7935" lon="6.40212">
        <ele>2023.5999755859</ele>
        <time>2019-02-17T13:37:10.000Z</time>
      </trkpt>
      <trkpt lat="45.79352" lon="6.40212">
        <ele>2023</ele>
        <time>2019-02-17T13:37:11.000Z</time>
      </trkpt>
      <trkpt lat="45.79353" lon="6.40211">
        <ele>2022.1999511719</ele>
        <time>2019-02-17T13:37:12.000Z</time>
      </trkpt>
      <trkpt lat="45.79353" lon="6.40207">
        <ele>2021.1999511719</ele>
        <time>2019-02-17T13:37:13.000Z</time>
      </trkpt>
      <trkpt lat="45.79352" lon="6.40204">
        <ele>2020.1999511719</ele>
        <time>2019-02-17T13:37:14.000Z</time>
      </trkpt>
      <trkpt lat="45.79351" lon="6.40202">
        <ele>2019.5999755859</ele>
        <time>2019-02-17T13:37:15.000Z</time>
      </trkpt>
      <trkpt lat="45.79352" lon="6.402">
        <ele>2018.5999755859</ele>
        <time>2019-02-17T13:37:16.000Z</time>
      </trkpt>
      <trkpt lat="45.79353" lon="6.40199">
        <ele>2018</ele>
        <time>2019-02-17T13:37:17.000Z</time>
      </trkpt>
      <trkpt lat="45.79355" lon="6.40196">
        <ele>2016.5999755859</ele>
        <time>2019-02-17T13:37:18.000Z</time>
      </trkpt>
      <trkpt lat="45.79355" lon="6.40192">
        <ele>2015</ele>
        <time>2019-02-17T13:37:19.000Z</time>
      </trkpt>
      <trkpt lat="45.79353" lon="6.40188">
        <ele>2013.4000244141</ele>
        <time>2019-02-17T13:37:20.000Z</time>
      </trkpt>
      <trkpt lat="45.79351" lon="6.40187">
        <ele>2012.4000244141</ele>
        <time>2019-02-17T13:37:21.000Z</time>
      </trkpt>
      <trkpt lat="45.7935" lon="6.40188">
        <ele>2010.4000244141</ele>
        <time>2019-02-17T13:37:23.000Z</time>
      </trkpt>
      <trkpt lat="45.79351" lon="6.40189">
        <ele>2009</ele>
        <time>2019-02-17T13:37:24.000Z</time>
      </trkpt>
      <trkpt lat="45.79352" lon="6.4019">
        <ele>2007.8000488281</ele>
        <time>2019-02-17T13:37:25.000Z</time>
      </trkpt>
      <trkpt lat="45.79352" lon="6.4019">
        <ele>2006.5999755859</ele>
        <time>2019-02-17T13:37:26.000Z</time>
      </trkpt>
      <trkpt lat="45.79353" lon="6.40191">
        <ele>2005.5999755859</ele>
        <time>2019-02-17T13:37:28.000Z</time>
      </trkpt>
      <trkpt lat="45.79353" lon="6.40192">
        <ele>2005.1999511719</ele>
        <time>2019-02-17T13:37:31.000Z</time>
      </trkpt>
      <trkpt lat="45.79352" lon="6.4019">
        <ele>2005</ele>
        <time>2019-02-17T13:37:36.000Z</time>
      </trkpt>
      <trkpt lat="45.7935" lon="6.40186">
        <ele>2004.8000488281</ele>
        <time>2019-02-17T13:37:37.000Z</time>
      </trkpt>
      <trkpt lat="45.79345" lon="6.40179">
        <ele>2004.4000244141</ele>
        <time>2019-02-17T13:37:40.000Z</time>
      </trkpt>
      <trkpt lat="45.79345" lon="6.40179">
        <ele>2004</ele>
        <time>2019-02-17T13:37:41.000Z</time>
      </trkpt>
      <trkpt lat="45.79344" lon="6.40177">
        <ele>2003</ele>
        <time>2019-02-17T13:37:43.000Z</time>
      </trkpt>
      <trkpt lat="45.79341" lon="6.40171">
        <ele>2002</ele>
        <time>2019-02-17T13:37:46.000Z</time>
      </trkpt>
      <trkpt lat="45.79343" lon="6.40161">
        <ele>2000.5999755859</ele>
        <time>2019-02-17T13:37:49.000Z</time>
      </trkpt>
      <trkpt lat="45.79343" lon="6.40157">
        <ele>1999.8000488281</ele>
        <time>2019-02-17T13:37:50.000Z</time>
      </trkpt>
      <trkpt lat="45.79342" lon="6.40154">
        <ele>1999.4000244141</ele>
        <time>2019-02-17T13:37:51.000Z</time>
      </trkpt>
      <trkpt lat="45.79343" lon="6.40152">
        <ele>1998.8000488281</ele>
        <time>2019-02-17T13:37:52.000Z</time>
      </trkpt>
      <trkpt lat="45.79346" lon="6.40147">
        <ele>1997.5999755859</ele>
        <time>2019-02-17T13:37:53.000Z</time>
      </trkpt>
      <trkpt lat="45.79345" lon="6.40142">
        <ele>1995.5999755859</ele>
        <time>2019-02-17T13:37:54.000Z</time>
      </trkpt>
      <trkpt lat="45.79347" lon="6.40138">
        <ele>1993.5999755859</ele>
        <time>2019-02-17T13:37:55.000Z</time>
      </trkpt>
      <trkpt lat="45.79349" lon="6.40135">
        <ele>1992.1999511719</ele>
        <time>2019-02-17T13:37:56.000Z</time>
      </trkpt>
      <trkpt lat="45.79351" lon="6.40133">
        <ele>1990.5999755859</ele>
        <time>2019-02-17T13:37:57.000Z</time>
      </trkpt>
      <trkpt lat="45.79354" lon="6.40134">
        <ele>1988.4000244141</ele>
        <time>2019-02-17T13:37:58.000Z</time>
      </trkpt>
      <trkpt lat="45.79356" lon="6.40129">
        <ele>1985.8000488281</ele>
        <time>2019-02-17T13:37:59.000Z</time>
      </trkpt>
      <trkpt lat="45.79356" lon="6.40126">
        <ele>1983.4000244141</ele>
        <time>2019-02-17T13:38:00.000Z</time>
      </trkpt>
      <trkpt lat="45.79356" lon="6.40122">
        <ele>1982</ele>
        <time>2019-02-17T13:38:01.000Z</time>
      </trkpt>
      <trkpt lat="45.79357" lon="6.40118">
        <ele>1981</ele>
        <time>2019-02-17T13:38:02.000Z</time>
      </trkpt>
      <trkpt lat="45.79357" lon="6.40114">
        <ele>1979.5999755859</ele>
        <time>2019-02-17T13:38:03.000Z</time>
      </trkpt>
      <trkpt lat="45.79359" lon="6.40112">
        <ele>1975.5999755859</ele>
        <time>2019-02-17T13:38:04.000Z</time>
      </trkpt>
      <trkpt lat="45.79362" lon="6.40117">
        <ele>1973.4000244141</ele>
        <time>2019-02-17T13:38:05.000Z</time>
      </trkpt>
      <trkpt lat="45.79364" lon="6.4012">
        <ele>1971.5999755859</ele>
        <time>2019-02-17T13:38:06.000Z</time>
      </trkpt>
      <trkpt lat="45.79364" lon="6.4012">
        <ele>1970.4000244141</ele>
        <time>2019-02-17T13:38:07.000Z</time>
      </trkpt>
      <trkpt lat="45.79364" lon="6.4012">
        <ele>1969</ele>
        <time>2019-02-17T13:38:09.000Z</time>
      </trkpt>
      <trkpt lat="45.79366" lon="6.40123">
        <ele>1968.1999511719</ele>
        <time>2019-02-17T13:38:12.000Z</time>
      </trkpt>
      <trkpt lat="45.79371" lon="6.40126">
        <ele>1968</ele>
        <time>2019-02-17T13:38:14.000Z</time>
      </trkpt>
      <trkpt lat="45.79374" lon="6.40127">
        <ele>1967.8000488281</ele>
        <time>2019-02-17T13:38:15.000Z</time>
      </trkpt>
      <trkpt lat="45.79378" lon="6.40122">
        <ele>1967.4000244141</ele>
        <time>2019-02-17T13:38:17.000Z</time>
      </trkpt>
      <trkpt lat="45.79385" lon="6.40121">
        <ele>1966.8000488281</ele>
        <time>2019-02-17T13:38:19.000Z</time>
      </trkpt>
      <trkpt lat="45.79383" lon="6.4011">
        <ele>1964.5999755859</ele>
        <time>2019-02-17T13:38:21.000Z</time>
      </trkpt>
      <trkpt lat="45.7938" lon="6.40106">
        <ele>1963.4000244141</ele>
        <time>2019-02-17T13:38:22.000Z</time>
      </trkpt>
      <trkpt lat="45.79375" lon="6.40102">
        <ele>1961.4000244141</ele>
        <time>2019-02-17T13:38:24.000Z</time>
      </trkpt>
      <trkpt lat="45.79373" lon="6.40101">
        <ele>1960</ele>
        <time>2019-02-17T13:38:25.000Z</time>
      </trkpt>
      <trkpt lat="45.79372" lon="6.401">
        <ele>1958.1999511719</ele>
        <time>2019-02-17T13:38:26.000Z</time>
      </trkpt>
      <trkpt lat="45.7937" lon="6.40099">
        <ele>1956.4000244141</ele>
        <time>2019-02-17T13:38:27.000Z</time>
      </trkpt>
      <trkpt lat="45.7937" lon="6.40098">
        <ele>1954.1999511719</ele>
        <time>2019-02-17T13:38:28.000Z</time>
      </trkpt>
      <trkpt lat="45.7937" lon="6.40095">
        <ele>1953.5999755859</ele>
        <time>2019-02-17T13:38:29.000Z</time>
      </trkpt>
      <trkpt lat="45.7937" lon="6.40092">
        <ele>1953</ele>
        <time>2019-02-17T13:38:30.000Z</time>
      </trkpt>
      <trkpt lat="45.79374" lon="6.40087">
        <ele>1951.4000244141</ele>
        <time>2019-02-17T13:38:32.000Z</time>
      </trkpt>
      <trkpt lat="45.79373" lon="6.40085">
        <ele>1950.5999755859</ele>
        <time>2019-02-17T13:38:33.000Z</time>
      </trkpt>
      <trkpt lat="45.79372" lon="6.40081">
        <ele>1950</ele>
        <time>2019-02-17T13:38:34.000Z</time>
      </trkpt>
      <trkpt lat="45.79374" lon="6.40077">
        <ele>1948.5999755859</ele>
        <time>2019-02-17T13:38:36.000Z</time>
      </trkpt>
      <trkpt lat="45.79377" lon="6.40077">
        <ele>1947</ele>
        <time>2019-02-17T13:38:37.000Z</time>
      </trkpt>
      <trkpt lat="45.79379" lon="6.40073">
        <ele>1944.8000488281</ele>
        <time>2019-02-17T13:38:38.000Z</time>
      </trkpt>
      <trkpt lat="45.79378" lon="6.40068">
        <ele>1943</ele>
        <time>2019-02-17T13:38:39.000Z</time>
      </trkpt>
      <trkpt lat="45.79375" lon="6.40066">
        <ele>1941.8000488281</ele>
        <time>2019-02-17T13:38:40.000Z</time>
      </trkpt>
      <trkpt lat="45.79373" lon="6.40065">
        <ele>1941</ele>
        <time>2019-02-17T13:38:41.000Z</time>
      </trkpt>
      <trkpt lat="45.79373" lon="6.40065">
        <ele>1940.4000244141</ele>
        <time>2019-02-17T13:38:42.000Z</time>
      </trkpt>
      <trkpt lat="45.79373" lon="6.40065">
        <ele>1938.1999511719</ele>
        <time>2019-02-17T13:38:44.000Z</time>
      </trkpt>
      <trkpt lat="45.79373" lon="6.40066">
        <ele>1937</ele>
        <time>2019-02-17T13:38:45.000Z</time>
      </trkpt>
      <trkpt lat="45.79373" lon="6.40067">
        <ele>1935.4000244141</ele>
        <time>2019-02-17T13:38:47.000Z</time>
      </trkpt>
      <trkpt lat="45.79373" lon="6.40069">
        <ele>1934.4000244141</ele>
        <time>2019-02-17T13:38:52.000Z</time>
      </trkpt>
      <trkpt lat="45.79373" lon="6.40069">
        <ele>1934.4000244141</ele>
        <time>2019-02-17T13:38:53.000Z</time>
      </trkpt>
      <trkpt lat="45.79373" lon="6.40068">
        <ele>1934.4000244141</ele>
        <time>2019-02-17T13:38:55.000Z</time>
      </trkpt>
      <trkpt lat="45.7937" lon="6.40063">
        <ele>1934.4000244141</ele>
        <time>2019-02-17T13:38:57.000Z</time>
      </trkpt>
      <trkpt lat="45.79354" lon="6.40045">
        <ele>1933.8000488281</ele>
        <time>2019-02-17T13:39:03.000Z</time>
      </trkpt>
      <trkpt lat="45.79347" lon="6.4004">
        <ele>1933.1999511719</ele>
        <time>2019-02-17T13:39:06.000Z</time>
      </trkpt>
      <trkpt lat="45.79347" lon="6.40037">
        <ele>1932.5999755859</ele>
        <time>2019-02-17T13:39:08.000Z</time>
      </trkpt>
      <trkpt lat="45.79351" lon="6.40031">
        <ele>1932</ele>
        <time>2019-02-17T13:39:10.000Z</time>
      </trkpt>
      <trkpt lat="45.79353" lon="6.40028">
        <ele>1931.1999511719</ele>
        <time>2019-02-17T13:39:11.000Z</time>
      </trkpt>
      <trkpt lat="45.79354" lon="6.40025">
        <ele>1930.4000244141</ele>
        <time>2019-02-17T13:39:12.000Z</time>
      </trkpt>
      <trkpt lat="45.79356" lon="6.40016">
        <ele>1928.5999755859</ele>
        <time>2019-02-17T13:39:14.000Z</time>
      </trkpt>
      <trkpt lat="45.7936" lon="6.40012">
        <ele>1925</ele>
        <time>2019-02-17T13:39:16.000Z</time>
      </trkpt>
      <trkpt lat="45.79361" lon="6.40012">
        <ele>1922.8000488281</ele>
        <time>2019-02-17T13:39:17.000Z</time>
      </trkpt>
      <trkpt lat="45.79362" lon="6.40013">
        <ele>1921.4000244141</ele>
        <time>2019-02-17T13:39:18.000Z</time>
      </trkpt>
      <trkpt lat="45.79362" lon="6.40013">
        <ele>1920</ele>
        <time>2019-02-17T13:39:20.000Z</time>
      </trkpt>
      <trkpt lat="45.79362" lon="6.40013">
        <ele>1919</ele>
        <time>2019-02-17T13:39:23.000Z</time>
      </trkpt>
      <trkpt lat="45.79363" lon="6.40014">
        <ele>1918.5999755859</ele>
        <time>2019-02-17T13:39:24.000Z</time>
      </trkpt>
      <trkpt lat="45.79365" lon="6.40014">
        <ele>1918.4000244141</ele>
        <time>2019-02-17T13:39:25.000Z</time>
      </trkpt>
      <trkpt lat="45.79366" lon="6.40008">
        <ele>1918.1999511719</ele>
        <time>2019-02-17T13:39:27.000Z</time>
      </trkpt>
      <trkpt lat="45.79364" lon="6.40005">
        <ele>1917.8000488281</ele>
        <time>2019-02-17T13:39:28.000Z</time>
      </trkpt>
      <trkpt lat="45.79368" lon="6.40001">
        <ele>1917.4000244141</ele>
        <time>2019-02-17T13:39:30.000Z</time>
      </trkpt>
      <trkpt lat="45.79371" lon="6.40001">
        <ele>1916.5999755859</ele>
        <time>2019-02-17T13:39:31.000Z</time>
      </trkpt>
      <trkpt lat="45.79374" lon="6.40003">
        <ele>1915</ele>
        <time>2019-02-17T13:39:32.000Z</time>
      </trkpt>
      <trkpt lat="45.79376" lon="6.40004">
        <ele>1913.1999511719</ele>
        <time>2019-02-17T13:39:33.000Z</time>
      </trkpt>
      <trkpt lat="45.79376" lon="6.40004">
        <ele>1912.1999511719</ele>
        <time>2019-02-17T13:39:34.000Z</time>
      </trkpt>
      <trkpt lat="45.79378" lon="6.40002">
        <ele>1910.5999755859</ele>
        <time>2019-02-17T13:39:36.000Z</time>
      </trkpt>
      <trkpt lat="45.79376" lon="6.39997">
        <ele>1910</ele>
        <time>2019-02-17T13:39:37.000Z</time>
      </trkpt>
      <trkpt lat="45.79373" lon="6.39995">
        <ele>1909.4000244141</ele>
        <time>2019-02-17T13:39:38.000Z</time>
      </trkpt>
      <trkpt lat="45.79367" lon="6.39993">
        <ele>1908.1999511719</ele>
        <time>2019-02-17T13:39:40.000Z</time>
      </trkpt>
      <trkpt lat="45.79362" lon="6.39992">
        <ele>1906.8000488281</ele>
        <time>2019-02-17T13:39:42.000Z</time>
      </trkpt>
      <trkpt lat="45.7936" lon="6.39991">
        <ele>1905.8000488281</ele>
        <time>2019-02-17T13:39:43.000Z</time>
      </trkpt>
      <trkpt lat="45.79359" lon="6.39991">
        <ele>1904</ele>
        <time>2019-02-17T13:39:45.000Z</time>
      </trkpt>
      <trkpt lat="45.79359" lon="6.3999">
        <ele>1903.5999755859</ele>
        <time>2019-02-17T13:39:46.000Z</time>
      </trkpt>
      <trkpt lat="45.79359" lon="6.39985">
        <ele>1903</ele>
        <time>2019-02-17T13:39:47.000Z</time>
      </trkpt>
      <trkpt lat="45.79362" lon="6.39983">
        <ele>1902.5999755859</ele>
        <time>2019-02-17T13:39:48.000Z</time>
      </trkpt>
      <trkpt lat="45.79363" lon="6.39983">
        <ele>1902</ele>
        <time>2019-02-17T13:39:49.000Z</time>
      </trkpt>
      <trkpt lat="45.79364" lon="6.39983">
        <ele>1900.1999511719</ele>
        <time>2019-02-17T13:39:51.000Z</time>
      </trkpt>
      <trkpt lat="45.79365" lon="6.39981">
        <ele>1899.4000244141</ele>
        <time>2019-02-17T13:39:52.000Z</time>
      </trkpt>
      <trkpt lat="45.79368" lon="6.3998">
        <ele>1899</ele>
        <time>2019-02-17T13:39:53.000Z</time>
      </trkpt>
      <trkpt lat="45.79371" lon="6.39979">
        <ele>1898.4000244141</ele>
        <time>2019-02-17T13:39:54.000Z</time>
      </trkpt>
      <trkpt lat="45.79373" lon="6.3998">
        <ele>1897.5999755859</ele>
        <time>2019-02-17T13:39:55.000Z</time>
      </trkpt>
      <trkpt lat="45.79378" lon="6.39981">
        <ele>1896.5999755859</ele>
        <time>2019-02-17T13:39:58.000Z</time>
      </trkpt>
      <trkpt lat="45.7938" lon="6.39979">
        <ele>1896.1999511719</ele>
        <time>2019-02-17T13:39:59.000Z</time>
      </trkpt>
      <trkpt lat="45.79379" lon="6.39975">
        <ele>1895.4000244141</ele>
        <time>2019-02-17T13:40:01.000Z</time>
      </trkpt>
      <trkpt lat="45.79382" lon="6.39971">
        <ele>1893.5999755859</ele>
        <time>2019-02-17T13:40:04.000Z</time>
      </trkpt>
      <trkpt lat="45.79382" lon="6.39971">
        <ele>1892.4000244141</ele>
        <time>2019-02-17T13:40:05.000Z</time>
      </trkpt>
      <trkpt lat="45.79384" lon="6.3997">
        <ele>1891.1999511719</ele>
        <time>2019-02-17T13:40:06.000Z</time>
      </trkpt>
      <trkpt lat="45.79389" lon="6.39969">
        <ele>1889.5999755859</ele>
        <time>2019-02-17T13:40:08.000Z</time>
      </trkpt>
      <trkpt lat="45.79392" lon="6.39971">
        <ele>1888.1999511719</ele>
        <time>2019-02-17T13:40:10.000Z</time>
      </trkpt>
      <trkpt lat="45.79393" lon="6.39969">
        <ele>1886.4000244141</ele>
        <time>2019-02-17T13:40:12.000Z</time>
      </trkpt>
      <trkpt lat="45.7939" lon="6.39965">
        <ele>1885.4000244141</ele>
        <time>2019-02-17T13:40:14.000Z</time>
      </trkpt>
      <trkpt lat="45.79387" lon="6.39962">
        <ele>1884.8000488281</ele>
        <time>2019-02-17T13:40:16.000Z</time>
      </trkpt>
      <trkpt lat="45.79386" lon="6.3996">
        <ele>1884.4000244141</ele>
        <time>2019-02-17T13:40:17.000Z</time>
      </trkpt>
      <trkpt lat="45.79387" lon="6.39957">
        <ele>1883.5999755859</ele>
        <time>2019-02-17T13:40:18.000Z</time>
      </trkpt>
      <trkpt lat="45.79389" lon="6.39955">
        <ele>1882.1999511719</ele>
        <time>2019-02-17T13:40:19.000Z</time>
      </trkpt>
      <trkpt lat="45.79389" lon="6.39955">
        <ele>1880.8000488281</ele>
        <time>2019-02-17T13:40:20.000Z</time>
      </trkpt>
      <trkpt lat="45.7939" lon="6.39953">
        <ele>1879</ele>
        <time>2019-02-17T13:40:21.000Z</time>
      </trkpt>
      <trkpt lat="45.79391" lon="6.39951">
        <ele>1878</ele>
        <time>2019-02-17T13:40:22.000Z</time>
      </trkpt>
      <trkpt lat="45.79393" lon="6.39951">
        <ele>1877.1999511719</ele>
        <time>2019-02-17T13:40:23.000Z</time>
      </trkpt>
      <trkpt lat="45.79394" lon="6.3995">
        <ele>1876.5999755859</ele>
        <time>2019-02-17T13:40:24.000Z</time>
      </trkpt>
      <trkpt lat="45.79398" lon="6.39949">
        <ele>1875.1999511719</ele>
        <time>2019-02-17T13:40:27.000Z</time>
      </trkpt>
      <trkpt lat="45.79399" lon="6.39949">
        <ele>1873.1999511719</ele>
        <time>2019-02-17T13:40:28.000Z</time>
      </trkpt>
      <trkpt lat="45.79399" lon="6.39949">
        <ele>1872.1999511719</ele>
        <time>2019-02-17T13:40:31.000Z</time>
      </trkpt>
      <trkpt lat="45.79403" lon="6.39947">
        <ele>1871.5999755859</ele>
        <time>2019-02-17T13:40:33.000Z</time>
      </trkpt>
      <trkpt lat="45.79405" lon="6.39948">
        <ele>1871</ele>
        <time>2019-02-17T13:40:34.000Z</time>
      </trkpt>
      <trkpt lat="45.7941" lon="6.39949">
        <ele>1869.4000244141</ele>
        <time>2019-02-17T13:40:36.000Z</time>
      </trkpt>
      <trkpt lat="45.79414" lon="6.39952">
        <ele>1868.4000244141</ele>
        <time>2019-02-17T13:40:38.000Z</time>
      </trkpt>
      <trkpt lat="45.79416" lon="6.39952">
        <ele>1868.1999511719</ele>
        <time>2019-02-17T13:40:39.000Z</time>
      </trkpt>
      <trkpt lat="45.7942" lon="6.39954">
        <ele>1866.8000488281</ele>
        <time>2019-02-17T13:40:42.000Z</time>
      </trkpt>
      <trkpt lat="45.79422" lon="6.39954">
        <ele>1866.4000244141</ele>
        <time>2019-02-17T13:40:43.000Z</time>
      </trkpt>
      <trkpt lat="45.79422" lon="6.39951">
        <ele>1866</ele>
        <time>2019-02-17T13:40:44.000Z</time>
      </trkpt>
      <trkpt lat="45.79421" lon="6.3995">
        <ele>1865.8000488281</ele>
        <time>2019-02-17T13:40:45.000Z</time>
      </trkpt>
      <trkpt lat="45.79423" lon="6.39947">
        <ele>1865</ele>
        <time>2019-02-17T13:40:47.000Z</time>
      </trkpt>
      <trkpt lat="45.79424" lon="6.39947">
        <ele>1864.4000244141</ele>
        <time>2019-02-17T13:40:48.000Z</time>
      </trkpt>
      <trkpt lat="45.79426" lon="6.39948">
        <ele>1863.4000244141</ele>
        <time>2019-02-17T13:40:49.000Z</time>
      </trkpt>
      <trkpt lat="45.79428" lon="6.3995">
        <ele>1861.5999755859</ele>
        <time>2019-02-17T13:40:50.000Z</time>
      </trkpt>
      <trkpt lat="45.7943" lon="6.39948">
        <ele>1860.1999511719</ele>
        <time>2019-02-17T13:40:51.000Z</time>
      </trkpt>
      <trkpt lat="45.79431" lon="6.39945">
        <ele>1858.8000488281</ele>
        <time>2019-02-17T13:40:52.000Z</time>
      </trkpt>
      <trkpt lat="45.79431" lon="6.39936">
        <ele>1857.8000488281</ele>
        <time>2019-02-17T13:40:54.000Z</time>
      </trkpt>
      <trkpt lat="45.79435" lon="6.39929">
        <ele>1855.4000244141</ele>
        <time>2019-02-17T13:40:56.000Z</time>
      </trkpt>
      <trkpt lat="45.79434" lon="6.39925">
        <ele>1853.5999755859</ele>
        <time>2019-02-17T13:40:57.000Z</time>
      </trkpt>
      <trkpt lat="45.79432" lon="6.3992">
        <ele>1852.1999511719</ele>
        <time>2019-02-17T13:40:58.000Z</time>
      </trkpt>
      <trkpt lat="45.79429" lon="6.39911">
        <ele>1850.1999511719</ele>
        <time>2019-02-17T13:41:00.000Z</time>
      </trkpt>
      <trkpt lat="45.79428" lon="6.3991">
        <ele>1848.1999511719</ele>
        <time>2019-02-17T13:41:01.000Z</time>
      </trkpt>
      <trkpt lat="45.79431" lon="6.39912">
        <ele>1845.5999755859</ele>
        <time>2019-02-17T13:41:02.000Z</time>
      </trkpt>
      <trkpt lat="45.79434" lon="6.39915">
        <ele>1843</ele>
        <time>2019-02-17T13:41:03.000Z</time>
      </trkpt>
      <trkpt lat="45.79438" lon="6.39917">
        <ele>1841</ele>
        <time>2019-02-17T13:41:04.000Z</time>
      </trkpt>
      <trkpt lat="45.79441" lon="6.39917">
        <ele>1839.5999755859</ele>
        <time>2019-02-17T13:41:05.000Z</time>
      </trkpt>
      <trkpt lat="45.79443" lon="6.39914">
        <ele>1838.5999755859</ele>
        <time>2019-02-17T13:41:06.000Z</time>
      </trkpt>
      <trkpt lat="45.79446" lon="6.39911">
        <ele>1837.8000488281</ele>
        <time>2019-02-17T13:41:07.000Z</time>
      </trkpt>
      <trkpt lat="45.79448" lon="6.3991">
        <ele>1836.8000488281</ele>
        <time>2019-02-17T13:41:08.000Z</time>
      </trkpt>
      <trkpt lat="45.79452" lon="6.39908">
        <ele>1835.1999511719</ele>
        <time>2019-02-17T13:41:09.000Z</time>
      </trkpt>
      <trkpt lat="45.79454" lon="6.39906">
        <ele>1833</ele>
        <time>2019-02-17T13:41:10.000Z</time>
      </trkpt>
      <trkpt lat="45.79455" lon="6.39904">
        <ele>1830.8000488281</ele>
        <time>2019-02-17T13:41:11.000Z</time>
      </trkpt>
      <trkpt lat="45.79454" lon="6.39903">
        <ele>1829.4000244141</ele>
        <time>2019-02-17T13:41:12.000Z</time>
      </trkpt>
      <trkpt lat="45.79453" lon="6.39901">
        <ele>1827.4000244141</ele>
        <time>2019-02-17T13:41:14.000Z</time>
      </trkpt>
      <trkpt lat="45.79453" lon="6.39901">
        <ele>1825.5999755859</ele>
        <time>2019-02-17T13:41:15.000Z</time>
      </trkpt>
      <trkpt lat="45.79453" lon="6.39902">
        <ele>1822.5999755859</ele>
        <time>2019-02-17T13:41:16.000Z</time>
      </trkpt>
      <trkpt lat="45.79454" lon="6.39905">
        <ele>1821.4000244141</ele>
        <time>2019-02-17T13:41:18.000Z</time>
      </trkpt>
      <trkpt lat="45.79454" lon="6.39907">
        <ele>1821</ele>
        <time>2019-02-17T13:41:19.000Z</time>
      </trkpt>
      <trkpt lat="45.79456" lon="6.39916">
        <ele>1820.4000244141</ele>
        <time>2019-02-17T13:41:32.000Z</time>
      </trkpt>
      <trkpt lat="45.79456" lon="6.39916">
        <ele>1820.5999755859</ele>
        <time>2019-02-17T13:41:47.000Z</time>
      </trkpt>
      <trkpt lat="45.79454" lon="6.39913">
        <ele>1820.4000244141</ele>
        <time>2019-02-17T13:41:49.000Z</time>
      </trkpt>
      <trkpt lat="45.79453" lon="6.39909">
        <ele>1820.4000244141</ele>
        <time>2019-02-17T13:41:50.000Z</time>
      </trkpt>
      <trkpt lat="45.79451" lon="6.39905">
        <ele>1820.4000244141</ele>
        <time>2019-02-17T13:41:51.000Z</time>
      </trkpt>
      <trkpt lat="45.79441" lon="6.3988">
        <ele>1819.5999755859</ele>
        <time>2019-02-17T13:41:56.000Z</time>
      </trkpt>
      <trkpt lat="45.79438" lon="6.39874">
        <ele>1819.4000244141</ele>
        <time>2019-02-17T13:41:57.000Z</time>
      </trkpt>
      <trkpt lat="45.79431" lon="6.39857">
        <ele>1818.1999511719</ele>
        <time>2019-02-17T13:42:00.000Z</time>
      </trkpt>
      <trkpt lat="45.79427" lon="6.39853">
        <ele>1817.8000488281</ele>
        <time>2019-02-17T13:42:01.000Z</time>
      </trkpt>
      <trkpt lat="45.79423" lon="6.39848">
        <ele>1816.8000488281</ele>
        <time>2019-02-17T13:42:03.000Z</time>
      </trkpt>
      <trkpt lat="45.79422" lon="6.39847">
        <ele>1816</ele>
        <time>2019-02-17T13:42:04.000Z</time>
      </trkpt>
      <trkpt lat="45.79421" lon="6.39847">
        <ele>1814.8000488281</ele>
        <time>2019-02-17T13:42:05.000Z</time>
      </trkpt>
      <trkpt lat="45.79416" lon="6.3984">
        <ele>1813.5999755859</ele>
        <time>2019-02-17T13:42:09.000Z</time>
      </trkpt>
      <trkpt lat="45.79413" lon="6.39836">
        <ele>1813.4000244141</ele>
        <time>2019-02-17T13:42:10.000Z</time>
      </trkpt>
      <trkpt lat="45.79405" lon="6.39829">
        <ele>1813</ele>
        <time>2019-02-17T13:42:12.000Z</time>
      </trkpt>
      <trkpt lat="45.79402" lon="6.39827">
        <ele>1812.5999755859</ele>
        <time>2019-02-17T13:42:13.000Z</time>
      </trkpt>
      <trkpt lat="45.794" lon="6.39827">
        <ele>1812</ele>
        <time>2019-02-17T13:42:14.000Z</time>
      </trkpt>
      <trkpt lat="45.794" lon="6.39826">
        <ele>1811.1999511719</ele>
        <time>2019-02-17T13:42:15.000Z</time>
      </trkpt>
      <trkpt lat="45.79399" lon="6.39825">
        <ele>1810</ele>
        <time>2019-02-17T13:42:17.000Z</time>
      </trkpt>
      <trkpt lat="45.79399" lon="6.39825">
        <ele>1809.4000244141</ele>
        <time>2019-02-17T13:42:30.000Z</time>
      </trkpt>
      <trkpt lat="45.79399" lon="6.39825">
        <ele>1809.1999511719</ele>
        <time>2019-02-17T13:42:44.000Z</time>
      </trkpt>
      <trkpt lat="45.79399" lon="6.39825">
        <ele>1809.1999511719</ele>
        <time>2019-02-17T13:42:57.000Z</time>
      </trkpt>
      <trkpt lat="45.79398" lon="6.39823">
        <ele>1809.4000244141</ele>
        <time>2019-02-17T13:43:06.000Z</time>
      </trkpt>
      <trkpt lat="45.79388" lon="6.39815">
        <ele>1809.1999511719</ele>
        <time>2019-02-17T13:43:09.000Z</time>
      </trkpt>
      <trkpt lat="45.79383" lon="6.39813">
        <ele>1809</ele>
        <time>2019-02-17T13:43:10.000Z</time>
      </trkpt>
      <trkpt lat="45.79373" lon="6.39809">
        <ele>1808</ele>
        <time>2019-02-17T13:43:12.000Z</time>
      </trkpt>
      <trkpt lat="45.79368" lon="6.39807">
        <ele>1807.1999511719</ele>
        <time>2019-02-17T13:43:13.000Z</time>
      </trkpt>
      <trkpt lat="45.79359" lon="6.39802">
        <ele>1806</ele>
        <time>2019-02-17T13:43:15.000Z</time>
      </trkpt>
      <trkpt lat="45.79351" lon="6.39798">
        <ele>1805</ele>
        <time>2019-02-17T13:43:17.000Z</time>
      </trkpt>
      <trkpt lat="45.79347" lon="6.39795">
        <ele>1804</ele>
        <time>2019-02-17T13:43:18.000Z</time>
      </trkpt>
      <trkpt lat="45.79343" lon="6.39792">
        <ele>1803.4000244141</ele>
        <time>2019-02-17T13:43:19.000Z</time>
      </trkpt>
      <trkpt lat="45.79341" lon="6.39787">
        <ele>1802.8000488281</ele>
        <time>2019-02-17T13:43:20.000Z</time>
      </trkpt>
      <trkpt lat="45.79341" lon="6.39781">
        <ele>1802</ele>
        <time>2019-02-17T13:43:21.000Z</time>
      </trkpt>
      <trkpt lat="45.79345" lon="6.39779">
        <ele>1800.8000488281</ele>
        <time>2019-02-17T13:43:22.000Z</time>
      </trkpt>
      <trkpt lat="45.7935" lon="6.39776">
        <ele>1799.4000244141</ele>
        <time>2019-02-17T13:43:23.000Z</time>
      </trkpt>
      <trkpt lat="45.79353" lon="6.39773">
        <ele>1798</ele>
        <time>2019-02-17T13:43:24.000Z</time>
      </trkpt>
      <trkpt lat="45.79356" lon="6.39763">
        <ele>1796.1999511719</ele>
        <time>2019-02-17T13:43:26.000Z</time>
      </trkpt>
      <trkpt lat="45.7936" lon="6.39758">
        <ele>1794.5999755859</ele>
        <time>2019-02-17T13:43:27.000Z</time>
      </trkpt>
      <trkpt lat="45.79362" lon="6.39752">
        <ele>1792.1999511719</ele>
        <time>2019-02-17T13:43:28.000Z</time>
      </trkpt>
      <trkpt lat="45.79364" lon="6.39748">
        <ele>1789.5999755859</ele>
        <time>2019-02-17T13:43:29.000Z</time>
      </trkpt>
      <trkpt lat="45.79362" lon="6.3974">
        <ele>1787.8000488281</ele>
        <time>2019-02-17T13:43:30.000Z</time>
      </trkpt>
      <trkpt lat="45.79362" lon="6.39734">
        <ele>1786.4000244141</ele>
        <time>2019-02-17T13:43:31.000Z</time>
      </trkpt>
      <trkpt lat="45.79363" lon="6.39727">
        <ele>1784.5999755859</ele>
        <time>2019-02-17T13:43:32.000Z</time>
      </trkpt>
      <trkpt lat="45.79367" lon="6.39722">
        <ele>1781.4000244141</ele>
        <time>2019-02-17T13:43:33.000Z</time>
      </trkpt>
      <trkpt lat="45.7937" lon="6.39718">
        <ele>1777.8000488281</ele>
        <time>2019-02-17T13:43:34.000Z</time>
      </trkpt>
      <trkpt lat="45.7937" lon="6.39714">
        <ele>1775.4000244141</ele>
        <time>2019-02-17T13:43:35.000Z</time>
      </trkpt>
      <trkpt lat="45.79368" lon="6.39709">
        <ele>1773.8000488281</ele>
        <time>2019-02-17T13:43:36.000Z</time>
      </trkpt>
      <trkpt lat="45.79366" lon="6.39701">
        <ele>1772.4000244141</ele>
        <time>2019-02-17T13:43:37.000Z</time>
      </trkpt>
      <trkpt lat="45.79367" lon="6.39695">
        <ele>1770.5999755859</ele>
        <time>2019-02-17T13:43:38.000Z</time>
      </trkpt>
      <trkpt lat="45.7937" lon="6.39691">
        <ele>1767.5999755859</ele>
        <time>2019-02-17T13:43:39.000Z</time>
      </trkpt>
      <trkpt lat="45.79372" lon="6.39686">
        <ele>1764.1999511719</ele>
        <time>2019-02-17T13:43:40.000Z</time>
      </trkpt>
      <trkpt lat="45.79371" lon="6.3968">
        <ele>1762.1999511719</ele>
        <time>2019-02-17T13:43:41.000Z</time>
      </trkpt>
      <trkpt lat="45.79369" lon="6.39675">
        <ele>1759.1999511719</ele>
        <time>2019-02-17T13:43:42.000Z</time>
      </trkpt>
      <trkpt lat="45.79366" lon="6.3967">
        <ele>1757.5999755859</ele>
        <time>2019-02-17T13:43:43.000Z</time>
      </trkpt>
      <trkpt lat="45.79362" lon="6.39663">
        <ele>1756.1999511719</ele>
        <time>2019-02-17T13:43:44.000Z</time>
      </trkpt>
      <trkpt lat="45.7936" lon="6.39655">
        <ele>1753.5999755859</ele>
        <time>2019-02-17T13:43:45.000Z</time>
      </trkpt>
      <trkpt lat="45.7936" lon="6.39649">
        <ele>1750.1999511719</ele>
        <time>2019-02-17T13:43:46.000Z</time>
      </trkpt>
      <trkpt lat="45.79362" lon="6.39649">
        <ele>1748</ele>
        <time>2019-02-17T13:43:47.000Z</time>
      </trkpt>
      <trkpt lat="45.79363" lon="6.3965">
        <ele>1746.8000488281</ele>
        <time>2019-02-17T13:43:48.000Z</time>
      </trkpt>
      <trkpt lat="45.79363" lon="6.3965">
        <ele>1745.4000244141</ele>
        <time>2019-02-17T13:43:49.000Z</time>
      </trkpt>
      <trkpt lat="45.79363" lon="6.3965">
        <ele>1744.4000244141</ele>
        <time>2019-02-17T13:43:50.000Z</time>
      </trkpt>
      <trkpt lat="45.79363" lon="6.3965">
        <ele>1743</ele>
        <time>2019-02-17T13:43:53.000Z</time>
      </trkpt>
      <trkpt lat="45.79365" lon="6.3965">
        <ele>1741.8000488281</ele>
        <time>2019-02-17T13:43:56.000Z</time>
      </trkpt>
      <trkpt lat="45.79365" lon="6.3965">
        <ele>1741.5999755859</ele>
        <time>2019-02-17T13:43:58.000Z</time>
      </trkpt>
      <trkpt lat="45.79367" lon="6.39648">
        <ele>1741.5999755859</ele>
        <time>2019-02-17T13:44:02.000Z</time>
      </trkpt>
      <trkpt lat="45.79368" lon="6.39644">
        <ele>1741.4000244141</ele>
        <time>2019-02-17T13:44:03.000Z</time>
      </trkpt>
      <trkpt lat="45.79374" lon="6.39633">
        <ele>1740.1999511719</ele>
        <time>2019-02-17T13:44:06.000Z</time>
      </trkpt>
      <trkpt lat="45.79379" lon="6.39631">
        <ele>1739</ele>
        <time>2019-02-17T13:44:07.000Z</time>
      </trkpt>
      <trkpt lat="45.79381" lon="6.39626">
        <ele>1737.8000488281</ele>
        <time>2019-02-17T13:44:08.000Z</time>
      </trkpt>
      <trkpt lat="45.7938" lon="6.39621">
        <ele>1736.4000244141</ele>
        <time>2019-02-17T13:44:09.000Z</time>
      </trkpt>
      <trkpt lat="45.79383" lon="6.39611">
        <ele>1734.8000488281</ele>
        <time>2019-02-17T13:44:11.000Z</time>
      </trkpt>
      <trkpt lat="45.79387" lon="6.39607">
        <ele>1733.4000244141</ele>
        <time>2019-02-17T13:44:12.000Z</time>
      </trkpt>
      <trkpt lat="45.79389" lon="6.39603">
        <ele>1731.1999511719</ele>
        <time>2019-02-17T13:44:13.000Z</time>
      </trkpt>
      <trkpt lat="45.79389" lon="6.396">
        <ele>1729</ele>
        <time>2019-02-17T13:44:14.000Z</time>
      </trkpt>
      <trkpt lat="45.79389" lon="6.39593">
        <ele>1727.4000244141</ele>
        <time>2019-02-17T13:44:15.000Z</time>
      </trkpt>
      <trkpt lat="45.7939" lon="6.39587">
        <ele>1726.1999511719</ele>
        <time>2019-02-17T13:44:16.000Z</time>
      </trkpt>
      <trkpt lat="45.79391" lon="6.39581">
        <ele>1724.8000488281</ele>
        <time>2019-02-17T13:44:17.000Z</time>
      </trkpt>
      <trkpt lat="45.79388" lon="6.39575">
        <ele>1722.1999511719</ele>
        <time>2019-02-17T13:44:18.000Z</time>
      </trkpt>
      <trkpt lat="45.79383" lon="6.39573">
        <ele>1719.1999511719</ele>
        <time>2019-02-17T13:44:19.000Z</time>
      </trkpt>
      <trkpt lat="45.79381" lon="6.39569">
        <ele>1717</ele>
        <time>2019-02-17T13:44:20.000Z</time>
      </trkpt>
      <trkpt lat="45.79381" lon="6.39564">
        <ele>1715.8000488281</ele>
        <time>2019-02-17T13:44:21.000Z</time>
      </trkpt>
      <trkpt lat="45.79384" lon="6.39563">
        <ele>1714</ele>
        <time>2019-02-17T13:44:22.000Z</time>
      </trkpt>
      <trkpt lat="45.79386" lon="6.39563">
        <ele>1711</ele>
        <time>2019-02-17T13:44:23.000Z</time>
      </trkpt>
      <trkpt lat="45.79387" lon="6.39563">
        <ele>1708</ele>
        <time>2019-02-17T13:44:24.000Z</time>
      </trkpt>
      <trkpt lat="45.79388" lon="6.39564">
        <ele>1705.8000488281</ele>
        <time>2019-02-17T13:44:25.000Z</time>
      </trkpt>
      <trkpt lat="45.79388" lon="6.39564">
        <ele>1704.4000244141</ele>
        <time>2019-02-17T13:44:26.000Z</time>
      </trkpt>
      <trkpt lat="45.79388" lon="6.39564">
        <ele>1703.4000244141</ele>
        <time>2019-02-17T13:44:27.000Z</time>
      </trkpt>
      <trkpt lat="45.79388" lon="6.39564">
        <ele>1701.5999755859</ele>
        <time>2019-02-17T13:44:30.000Z</time>
      </trkpt>
      <trkpt lat="45.79389" lon="6.39558">
        <ele>1700.8000488281</ele>
        <time>2019-02-17T13:44:35.000Z</time>
      </trkpt>
      <trkpt lat="45.79387" lon="6.39556">
        <ele>1700.5999755859</ele>
        <time>2019-02-17T13:44:36.000Z</time>
      </trkpt>
      <trkpt lat="45.79387" lon="6.3955">
        <ele>1700.4000244141</ele>
        <time>2019-02-17T13:44:37.000Z</time>
      </trkpt>
      <trkpt lat="45.7939" lon="6.39545">
        <ele>1700.4000244141</ele>
        <time>2019-02-17T13:44:38.000Z</time>
      </trkpt>
      <trkpt lat="45.79395" lon="6.39534">
        <ele>1698.1999511719</ele>
        <time>2019-02-17T13:44:40.000Z</time>
      </trkpt>
      <trkpt lat="45.79394" lon="6.3953">
        <ele>1696.5999755859</ele>
        <time>2019-02-17T13:44:41.000Z</time>
      </trkpt>
      <trkpt lat="45.79392" lon="6.39526">
        <ele>1695.4000244141</ele>
        <time>2019-02-17T13:44:42.000Z</time>
      </trkpt>
      <trkpt lat="45.79392" lon="6.39521">
        <ele>1694.1999511719</ele>
        <time>2019-02-17T13:44:43.000Z</time>
      </trkpt>
      <trkpt lat="45.79395" lon="6.39517">
        <ele>1693.1999511719</ele>
        <time>2019-02-17T13:44:44.000Z</time>
      </trkpt>
      <trkpt lat="45.79396" lon="6.39513">
        <ele>1691.1999511719</ele>
        <time>2019-02-17T13:44:45.000Z</time>
      </trkpt>
      <trkpt lat="45.79395" lon="6.39511">
        <ele>1689</ele>
        <time>2019-02-17T13:44:46.000Z</time>
      </trkpt>
      <trkpt lat="45.79393" lon="6.39512">
        <ele>1687</ele>
        <time>2019-02-17T13:44:47.000Z</time>
      </trkpt>
      <trkpt lat="45.79392" lon="6.39512">
        <ele>1685.8000488281</ele>
        <time>2019-02-17T13:44:48.000Z</time>
      </trkpt>
      <trkpt lat="45.79392" lon="6.39513">
        <ele>1684.8000488281</ele>
        <time>2019-02-17T13:44:49.000Z</time>
      </trkpt>
      <trkpt lat="45.79392" lon="6.39513">
        <ele>1683.4000244141</ele>
        <time>2019-02-17T13:44:50.000Z</time>
      </trkpt>
      <trkpt lat="45.79392" lon="6.39513">
        <ele>1681.8000488281</ele>
        <time>2019-02-17T13:44:51.000Z</time>
      </trkpt>
      <trkpt lat="45.79392" lon="6.39513">
        <ele>1680.1999511719</ele>
        <time>2019-02-17T13:44:52.000Z</time>
      </trkpt>
      <trkpt lat="45.79392" lon="6.39513">
        <ele>1679.1999511719</ele>
        <time>2019-02-17T13:44:53.000Z</time>
      </trkpt>
      <trkpt lat="45.79392" lon="6.39513">
        <ele>1678</ele>
        <time>2019-02-17T13:44:55.000Z</time>
      </trkpt>
      <trkpt lat="45.79392" lon="6.39511">
        <ele>1677.5999755859</ele>
        <time>2019-02-17T13:45:02.000Z</time>
      </trkpt>
      <trkpt lat="45.7938" lon="6.395">
        <ele>1677.1999511719</ele>
        <time>2019-02-17T13:45:05.000Z</time>
      </trkpt>
      <trkpt lat="45.79376" lon="6.395">
        <ele>1676.5999755859</ele>
        <time>2019-02-17T13:45:07.000Z</time>
      </trkpt>
      <trkpt lat="45.79376" lon="6.395">
        <ele>1675.4000244141</ele>
        <time>2019-02-17T13:45:08.000Z</time>
      </trkpt>
      <trkpt lat="45.79376" lon="6.395">
        <ele>1674</ele>
        <time>2019-02-17T13:45:09.000Z</time>
      </trkpt>
      <trkpt lat="45.79375" lon="6.39498">
        <ele>1672.8000488281</ele>
        <time>2019-02-17T13:45:10.000Z</time>
      </trkpt>
      <trkpt lat="45.79371" lon="6.39494">
        <ele>1671.8000488281</ele>
        <time>2019-02-17T13:45:11.000Z</time>
      </trkpt>
      <trkpt lat="45.79359" lon="6.39488">
        <ele>1670.1999511719</ele>
        <time>2019-02-17T13:45:13.000Z</time>
      </trkpt>
      <trkpt lat="45.79355" lon="6.39485">
        <ele>1669.5999755859</ele>
        <time>2019-02-17T13:45:14.000Z</time>
      </trkpt>
      <trkpt lat="45.79352" lon="6.39483">
        <ele>1668.8000488281</ele>
        <time>2019-02-17T13:45:15.000Z</time>
      </trkpt>
      <trkpt lat="45.7935" lon="6.3948">
        <ele>1667.5999755859</ele>
        <time>2019-02-17T13:45:16.000Z</time>
      </trkpt>
      <trkpt lat="45.79344" lon="6.39475">
        <ele>1665.8000488281</ele>
        <time>2019-02-17T13:45:18.000Z</time>
      </trkpt>
      <trkpt lat="45.79341" lon="6.39473">
        <ele>1665.4000244141</ele>
        <time>2019-02-17T13:45:19.000Z</time>
      </trkpt>
      <trkpt lat="45.79327" lon="6.39462">
        <ele>1664.5999755859</ele>
        <time>2019-02-17T13:45:23.000Z</time>
      </trkpt>
      <trkpt lat="45.79321" lon="6.39457">
        <ele>1663.8000488281</ele>
        <time>2019-02-17T13:45:25.000Z</time>
      </trkpt>
      <trkpt lat="45.79319" lon="6.39456">
        <ele>1663.4000244141</ele>
        <time>2019-02-17T13:45:26.000Z</time>
      </trkpt>
      <trkpt lat="45.79318" lon="6.39456">
        <ele>1662.5999755859</ele>
        <time>2019-02-17T13:45:28.000Z</time>
      </trkpt>
      <trkpt lat="45.79318" lon="6.39456">
        <ele>1662.4000244141</ele>
        <time>2019-02-17T13:45:30.000Z</time>
      </trkpt>
      <trkpt lat="45.79318" lon="6.39456">
        <ele>1662.1999511719</ele>
        <time>2019-02-17T13:45:36.000Z</time>
      </trkpt>
      <trkpt lat="45.79316" lon="6.39453">
        <ele>1662</ele>
        <time>2019-02-17T13:45:42.000Z</time>
      </trkpt>
      <trkpt lat="45.79315" lon="6.39452">
        <ele>1662</ele>
        <time>2019-02-17T13:45:43.000Z</time>
      </trkpt>
      <trkpt lat="45.79315" lon="6.39446">
        <ele>1661.5999755859</ele>
        <time>2019-02-17T13:45:45.000Z</time>
      </trkpt>
      <trkpt lat="45.79318" lon="6.39443">
        <ele>1661</ele>
        <time>2019-02-17T13:45:46.000Z</time>
      </trkpt>
      <trkpt lat="45.79326" lon="6.39445">
        <ele>1659</ele>
        <time>2019-02-17T13:45:48.000Z</time>
      </trkpt>
      <trkpt lat="45.7933" lon="6.39446">
        <ele>1657.8000488281</ele>
        <time>2019-02-17T13:45:49.000Z</time>
      </trkpt>
      <trkpt lat="45.79335" lon="6.39448">
        <ele>1656.4000244141</ele>
        <time>2019-02-17T13:45:51.000Z</time>
      </trkpt>
      <trkpt lat="45.79338" lon="6.39447">
        <ele>1655.8000488281</ele>
        <time>2019-02-17T13:45:52.000Z</time>
      </trkpt>
      <trkpt lat="45.79338" lon="6.39444">
        <ele>1655.5999755859</ele>
        <time>2019-02-17T13:45:53.000Z</time>
      </trkpt>
      <trkpt lat="45.79337" lon="6.3944">
        <ele>1655.1999511719</ele>
        <time>2019-02-17T13:45:54.000Z</time>
      </trkpt>
      <trkpt lat="45.79335" lon="6.39436">
        <ele>1654.1999511719</ele>
        <time>2019-02-17T13:45:56.000Z</time>
      </trkpt>
      <trkpt lat="45.79334" lon="6.39434">
        <ele>1653.4000244141</ele>
        <time>2019-02-17T13:45:57.000Z</time>
      </trkpt>
      <trkpt lat="45.79335" lon="6.3943">
        <ele>1652</ele>
        <time>2019-02-17T13:45:58.000Z</time>
      </trkpt>
      <trkpt lat="45.79337" lon="6.39429">
        <ele>1650</ele>
        <time>2019-02-17T13:45:59.000Z</time>
      </trkpt>
      <trkpt lat="45.7934" lon="6.39428">
        <ele>1647.5999755859</ele>
        <time>2019-02-17T13:46:00.000Z</time>
      </trkpt>
      <trkpt lat="45.79343" lon="6.39427">
        <ele>1646.1999511719</ele>
        <time>2019-02-17T13:46:01.000Z</time>
      </trkpt>
      <trkpt lat="45.79342" lon="6.3942">
        <ele>1643.8000488281</ele>
        <time>2019-02-17T13:46:03.000Z</time>
      </trkpt>
      <trkpt lat="45.79343" lon="6.39414">
        <ele>1642.1999511719</ele>
        <time>2019-02-17T13:46:04.000Z</time>
      </trkpt>
      <trkpt lat="45.79346" lon="6.39406">
        <ele>1638.5999755859</ele>
        <time>2019-02-17T13:46:06.000Z</time>
      </trkpt>
      <trkpt lat="45.79346" lon="6.39402">
        <ele>1636.4000244141</ele>
        <time>2019-02-17T13:46:07.000Z</time>
      </trkpt>
      <trkpt lat="45.79343" lon="6.39396">
        <ele>1634.8000488281</ele>
        <time>2019-02-17T13:46:08.000Z</time>
      </trkpt>
      <trkpt lat="45.79344" lon="6.3939">
        <ele>1633.4000244141</ele>
        <time>2019-02-17T13:46:09.000Z</time>
      </trkpt>
      <trkpt lat="45.79342" lon="6.39386">
        <ele>1631.4000244141</ele>
        <time>2019-02-17T13:46:10.000Z</time>
      </trkpt>
      <trkpt lat="45.79339" lon="6.39382">
        <ele>1629.1999511719</ele>
        <time>2019-02-17T13:46:11.000Z</time>
      </trkpt>
      <trkpt lat="45.79337" lon="6.39378">
        <ele>1627.4000244141</ele>
        <time>2019-02-17T13:46:12.000Z</time>
      </trkpt>
      <trkpt lat="45.79335" lon="6.39375">
        <ele>1626.1999511719</ele>
        <time>2019-02-17T13:46:13.000Z</time>
      </trkpt>
      <trkpt lat="45.79334" lon="6.39374">
        <ele>1624.8000488281</ele>
        <time>2019-02-17T13:46:14.000Z</time>
      </trkpt>
      <trkpt lat="45.79333" lon="6.39373">
        <ele>1623</ele>
        <time>2019-02-17T13:46:15.000Z</time>
      </trkpt>
      <trkpt lat="45.79334" lon="6.39373">
        <ele>1621</ele>
        <time>2019-02-17T13:46:16.000Z</time>
      </trkpt>
      <trkpt lat="45.79334" lon="6.39373">
        <ele>1619.1999511719</ele>
        <time>2019-02-17T13:46:17.000Z</time>
      </trkpt>
      <trkpt lat="45.79334" lon="6.39373">
        <ele>1618.1999511719</ele>
        <time>2019-02-17T13:46:18.000Z</time>
      </trkpt>
      <trkpt lat="45.79334" lon="6.39373">
        <ele>1617.1999511719</ele>
        <time>2019-02-17T13:46:20.000Z</time>
      </trkpt>
      <trkpt lat="45.79334" lon="6.39372">
        <ele>1616.5999755859</ele>
        <time>2019-02-17T13:46:27.000Z</time>
      </trkpt>
      <trkpt lat="45.79333" lon="6.39367">
        <ele>1616.5999755859</ele>
        <time>2019-02-17T13:46:28.000Z</time>
      </trkpt>
      <trkpt lat="45.79327" lon="6.39357">
        <ele>1615.8000488281</ele>
        <time>2019-02-17T13:46:31.000Z</time>
      </trkpt>
      <trkpt lat="45.79326" lon="6.39356">
        <ele>1615</ele>
        <time>2019-02-17T13:46:32.000Z</time>
      </trkpt>
      <trkpt lat="45.79326" lon="6.39354">
        <ele>1614.4000244141</ele>
        <time>2019-02-17T13:46:33.000Z</time>
      </trkpt>
      <trkpt lat="45.79326" lon="6.39352">
        <ele>1613.5999755859</ele>
        <time>2019-02-17T13:46:34.000Z</time>
      </trkpt>
      <trkpt lat="45.79327" lon="6.3935">
        <ele>1612.8000488281</ele>
        <time>2019-02-17T13:46:35.000Z</time>
      </trkpt>
      <trkpt lat="45.79331" lon="6.39347">
        <ele>1610.5999755859</ele>
        <time>2019-02-17T13:46:37.000Z</time>
      </trkpt>
      <trkpt lat="45.79331" lon="6.39343">
        <ele>1610</ele>
        <time>2019-02-17T13:46:38.000Z</time>
      </trkpt>
      <trkpt lat="45.7933" lon="6.39342">
        <ele>1609.1999511719</ele>
        <time>2019-02-17T13:46:39.000Z</time>
      </trkpt>
      <trkpt lat="45.79329" lon="6.39339">
        <ele>1607.4000244141</ele>
        <time>2019-02-17T13:46:41.000Z</time>
      </trkpt>
      <trkpt lat="45.79329" lon="6.39336">
        <ele>1606.8000488281</ele>
        <time>2019-02-17T13:46:42.000Z</time>
      </trkpt>
      <trkpt lat="45.79328" lon="6.39335">
        <ele>1606.1999511719</ele>
        <time>2019-02-17T13:46:43.000Z</time>
      </trkpt>
      <trkpt lat="45.79328" lon="6.39335">
        <ele>1605.1999511719</ele>
        <time>2019-02-17T13:46:44.000Z</time>
      </trkpt>
      <trkpt lat="45.79328" lon="6.39335">
        <ele>1604.1999511719</ele>
        <time>2019-02-17T13:46:45.000Z</time>
      </trkpt>
      <trkpt lat="45.79328" lon="6.39334">
        <ele>1603.1999511719</ele>
        <time>2019-02-17T13:46:46.000Z</time>
      </trkpt>
      <trkpt lat="45.79328" lon="6.39334">
        <ele>1602.1999511719</ele>
        <time>2019-02-17T13:46:47.000Z</time>
      </trkpt>
      <trkpt lat="45.79334" lon="6.39334">
        <ele>1600.8000488281</ele>
        <time>2019-02-17T13:46:49.000Z</time>
      </trkpt>
      <trkpt lat="45.79336" lon="6.39335">
        <ele>1599.5999755859</ele>
        <time>2019-02-17T13:46:50.000Z</time>
      </trkpt>
      <trkpt lat="45.79338" lon="6.39335">
        <ele>1598.4000244141</ele>
        <time>2019-02-17T13:46:52.000Z</time>
      </trkpt>
      <trkpt lat="45.79341" lon="6.39337">
        <ele>1596.5999755859</ele>
        <time>2019-02-17T13:46:54.000Z</time>
      </trkpt>
      <trkpt lat="45.79346" lon="6.39344">
        <ele>1595.1999511719</ele>
        <time>2019-02-17T13:46:57.000Z</time>
      </trkpt>
      <trkpt lat="45.79349" lon="6.39345">
        <ele>1594</ele>
        <time>2019-02-17T13:47:01.000Z</time>
      </trkpt>
      <trkpt lat="45.79349" lon="6.39344">
        <ele>1594</ele>
        <time>2019-02-17T13:47:02.000Z</time>
      </trkpt>
      <trkpt lat="45.79345" lon="6.39332">
        <ele>1594.4000244141</ele>
        <time>2019-02-17T13:47:05.000Z</time>
      </trkpt>
      <trkpt lat="45.79344" lon="6.39331">
        <ele>1592.5999755859</ele>
        <time>2019-02-17T13:47:08.000Z</time>
      </trkpt>
      <trkpt lat="45.79344" lon="6.39332">
        <ele>1591</ele>
        <time>2019-02-17T13:47:09.000Z</time>
      </trkpt>
      <trkpt lat="45.79344" lon="6.39332">
        <ele>1589.8000488281</ele>
        <time>2019-02-17T13:47:10.000Z</time>
      </trkpt>
      <trkpt lat="45.79344" lon="6.39333">
        <ele>1588.5999755859</ele>
        <time>2019-02-17T13:47:12.000Z</time>
      </trkpt>
      <trkpt lat="45.79346" lon="6.3933">
        <ele>1587.4000244141</ele>
        <time>2019-02-17T13:47:16.000Z</time>
      </trkpt>
      <trkpt lat="45.79352" lon="6.39326">
        <ele>1585.5999755859</ele>
        <time>2019-02-17T13:47:20.000Z</time>
      </trkpt>
      <trkpt lat="45.79355" lon="6.39328">
        <ele>1584</ele>
        <time>2019-02-17T13:47:21.000Z</time>
      </trkpt>
      <trkpt lat="45.79358" lon="6.3933">
        <ele>1582.5999755859</ele>
        <time>2019-02-17T13:47:22.000Z</time>
      </trkpt>
      <trkpt lat="45.79364" lon="6.39333">
        <ele>1580.5999755859</ele>
        <time>2019-02-17T13:47:24.000Z</time>
      </trkpt>
      <trkpt lat="45.79369" lon="6.39334">
        <ele>1579</ele>
        <time>2019-02-17T13:47:26.000Z</time>
      </trkpt>
      <trkpt lat="45.7937" lon="6.39327">
        <ele>1577.8000488281</ele>
        <time>2019-02-17T13:47:28.000Z</time>
      </trkpt>
      <trkpt lat="45.7937" lon="6.39324">
        <ele>1577.1999511719</ele>
        <time>2019-02-17T13:47:29.000Z</time>
      </trkpt>
      <trkpt lat="45.79371" lon="6.39324">
        <ele>1576.4000244141</ele>
        <time>2019-02-17T13:47:30.000Z</time>
      </trkpt>
      <trkpt lat="45.79371" lon="6.39322">
        <ele>1574.4000244141</ele>
        <time>2019-02-17T13:47:31.000Z</time>
      </trkpt>
      <trkpt lat="45.79373" lon="6.39319">
        <ele>1572.1999511719</ele>
        <time>2019-02-17T13:47:32.000Z</time>
      </trkpt>
      <trkpt lat="45.79376" lon="6.39312">
        <ele>1570</ele>
        <time>2019-02-17T13:47:33.000Z</time>
      </trkpt>
      <trkpt lat="45.79373" lon="6.39306">
        <ele>1568.4000244141</ele>
        <time>2019-02-17T13:47:34.000Z</time>
      </trkpt>
      <trkpt lat="45.79373" lon="6.39301">
        <ele>1567.4000244141</ele>
        <time>2019-02-17T13:47:35.000Z</time>
      </trkpt>
      <trkpt lat="45.79371" lon="6.39298">
        <ele>1566.1999511719</ele>
        <time>2019-02-17T13:47:36.000Z</time>
      </trkpt>
      <trkpt lat="45.79372" lon="6.39296">
        <ele>1564.1999511719</ele>
        <time>2019-02-17T13:47:37.000Z</time>
      </trkpt>
      <trkpt lat="45.79373" lon="6.39293">
        <ele>1562</ele>
        <time>2019-02-17T13:47:38.000Z</time>
      </trkpt>
      <trkpt lat="45.79373" lon="6.39289">
        <ele>1560</ele>
        <time>2019-02-17T13:47:39.000Z</time>
      </trkpt>
      <trkpt lat="45.79373" lon="6.39289">
        <ele>1558.8000488281</ele>
        <time>2019-02-17T13:47:40.000Z</time>
      </trkpt>
      <trkpt lat="45.79376" lon="6.39287">
        <ele>1557.5999755859</ele>
        <time>2019-02-17T13:47:41.000Z</time>
      </trkpt>
      <trkpt lat="45.7938" lon="6.39284">
        <ele>1555.1999511719</ele>
        <time>2019-02-17T13:47:42.000Z</time>
      </trkpt>
      <trkpt lat="45.7938" lon="6.39281">
        <ele>1554</ele>
        <time>2019-02-17T13:47:43.000Z</time>
      </trkpt>
      <trkpt lat="45.7938" lon="6.3928">
        <ele>1552.5999755859</ele>
        <time>2019-02-17T13:47:44.000Z</time>
      </trkpt>
      <trkpt lat="45.79381" lon="6.39278">
        <ele>1551.4000244141</ele>
        <time>2019-02-17T13:47:45.000Z</time>
      </trkpt>
      <trkpt lat="45.79383" lon="6.39274">
        <ele>1549</ele>
        <time>2019-02-17T13:47:47.000Z</time>
      </trkpt>
      <trkpt lat="45.79387" lon="6.39276">
        <ele>1546.8000488281</ele>
        <time>2019-02-17T13:47:48.000Z</time>
      </trkpt>
      <trkpt lat="45.79391" lon="6.39279">
        <ele>1544.5999755859</ele>
        <time>2019-02-17T13:47:49.000Z</time>
      </trkpt>
      <trkpt lat="45.79395" lon="6.39282">
        <ele>1543</ele>
        <time>2019-02-17T13:47:50.000Z</time>
      </trkpt>
      <trkpt lat="45.79399" lon="6.39284">
        <ele>1542</ele>
        <time>2019-02-17T13:47:51.000Z</time>
      </trkpt>
      <trkpt lat="45.79403" lon="6.39286">
        <ele>1541</ele>
        <time>2019-02-17T13:47:52.000Z</time>
      </trkpt>
      <trkpt lat="45.79406" lon="6.39285">
        <ele>1539.4000244141</ele>
        <time>2019-02-17T13:47:54.000Z</time>
      </trkpt>
      <trkpt lat="45.79408" lon="6.39281">
        <ele>1538.8000488281</ele>
        <time>2019-02-17T13:47:56.000Z</time>
      </trkpt>
      <trkpt lat="45.79409" lon="6.39277">
        <ele>1538.4000244141</ele>
        <time>2019-02-17T13:47:57.000Z</time>
      </trkpt>
      <trkpt lat="45.79413" lon="6.39271">
        <ele>1537.1999511719</ele>
        <time>2019-02-17T13:47:59.000Z</time>
      </trkpt>
      <trkpt lat="45.79414" lon="6.39267">
        <ele>1536</ele>
        <time>2019-02-17T13:48:00.000Z</time>
      </trkpt>
      <trkpt lat="45.79417" lon="6.39262">
        <ele>1534.4000244141</ele>
        <time>2019-02-17T13:48:01.000Z</time>
      </trkpt>
      <trkpt lat="45.79419" lon="6.39259">
        <ele>1532.8000488281</ele>
        <time>2019-02-17T13:48:02.000Z</time>
      </trkpt>
      <trkpt lat="45.79421" lon="6.39254">
        <ele>1531.5999755859</ele>
        <time>2019-02-17T13:48:03.000Z</time>
      </trkpt>
      <trkpt lat="45.79424" lon="6.39247">
        <ele>1530.1999511719</ele>
        <time>2019-02-17T13:48:04.000Z</time>
      </trkpt>
      <trkpt lat="45.79425" lon="6.3924">
        <ele>1528.1999511719</ele>
        <time>2019-02-17T13:48:05.000Z</time>
      </trkpt>
      <trkpt lat="45.79425" lon="6.39235">
        <ele>1525.5999755859</ele>
        <time>2019-02-17T13:48:06.000Z</time>
      </trkpt>
      <trkpt lat="45.79424" lon="6.39235">
        <ele>1524.5999755859</ele>
        <time>2019-02-17T13:48:07.000Z</time>
      </trkpt>
      <trkpt lat="45.79424" lon="6.39235">
        <ele>1522.4000244141</ele>
        <time>2019-02-17T13:48:08.000Z</time>
      </trkpt>
      <trkpt lat="45.79423" lon="6.39236">
        <ele>1520.1999511719</ele>
        <time>2019-02-17T13:48:09.000Z</time>
      </trkpt>
      <trkpt lat="45.79423" lon="6.39236">
        <ele>1518.5999755859</ele>
        <time>2019-02-17T13:48:10.000Z</time>
      </trkpt>
      <trkpt lat="45.79424" lon="6.39233">
        <ele>1517.5999755859</ele>
        <time>2019-02-17T13:48:11.000Z</time>
      </trkpt>
      <trkpt lat="45.79426" lon="6.39229">
        <ele>1516.8000488281</ele>
        <time>2019-02-17T13:48:12.000Z</time>
      </trkpt>
      <trkpt lat="45.79429" lon="6.39222">
        <ele>1516.1999511719</ele>
        <time>2019-02-17T13:48:13.000Z</time>
      </trkpt>
      <trkpt lat="45.79429" lon="6.39212">
        <ele>1515.8000488281</ele>
        <time>2019-02-17T13:48:14.000Z</time>
      </trkpt>
      <trkpt lat="45.79434" lon="6.39195">
        <ele>1514.5999755859</ele>
        <time>2019-02-17T13:48:16.000Z</time>
      </trkpt>
      <trkpt lat="45.79436" lon="6.39185">
        <ele>1513.1999511719</ele>
        <time>2019-02-17T13:48:17.000Z</time>
      </trkpt>
      <trkpt lat="45.79435" lon="6.39174">
        <ele>1511.4000244141</ele>
        <time>2019-02-17T13:48:18.000Z</time>
      </trkpt>
      <trkpt lat="45.79431" lon="6.39166">
        <ele>1509.5999755859</ele>
        <time>2019-02-17T13:48:19.000Z</time>
      </trkpt>
      <trkpt lat="45.79428" lon="6.39159">
        <ele>1507.8000488281</ele>
        <time>2019-02-17T13:48:20.000Z</time>
      </trkpt>
      <trkpt lat="45.79425" lon="6.39152">
        <ele>1505.8000488281</ele>
        <time>2019-02-17T13:48:21.000Z</time>
      </trkpt>
      <trkpt lat="45.79421" lon="6.39148">
        <ele>1504</ele>
        <time>2019-02-17T13:48:22.000Z</time>
      </trkpt>
      <trkpt lat="45.79418" lon="6.39145">
        <ele>1502.4000244141</ele>
        <time>2019-02-17T13:48:23.000Z</time>
      </trkpt>
      <trkpt lat="45.79415" lon="6.39141">
        <ele>1501.4000244141</ele>
        <time>2019-02-17T13:48:24.000Z</time>
      </trkpt>
      <trkpt lat="45.79411" lon="6.39135">
        <ele>1500.8000488281</ele>
        <time>2019-02-17T13:48:25.000Z</time>
      </trkpt>
      <trkpt lat="45.79408" lon="6.39134">
        <ele>1500.1999511719</ele>
        <time>2019-02-17T13:48:26.000Z</time>
      </trkpt>
      <trkpt lat="45.79406" lon="6.39133">
        <ele>1499.1999511719</ele>
        <time>2019-02-17T13:48:28.000Z</time>
      </trkpt>
      <trkpt lat="45.79404" lon="6.39133">
        <ele>1498.1999511719</ele>
        <time>2019-02-17T13:48:29.000Z</time>
      </trkpt>
      <trkpt lat="45.79403" lon="6.39133">
        <ele>1496.8000488281</ele>
        <time>2019-02-17T13:48:30.000Z</time>
      </trkpt>
      <trkpt lat="45.79402" lon="6.39118">
        <ele>1495.8000488281</ele>
        <time>2019-02-17T13:48:33.000Z</time>
      </trkpt>
      <trkpt lat="45.79408" lon="6.39105">
        <ele>1494.4000244141</ele>
        <time>2019-02-17T13:48:35.000Z</time>
      </trkpt>
      <trkpt lat="45.79412" lon="6.39101">
        <ele>1493.4000244141</ele>
        <time>2019-02-17T13:48:36.000Z</time>
      </trkpt>
      <trkpt lat="45.79412" lon="6.39087">
        <ele>1492</ele>
        <time>2019-02-17T13:48:38.000Z</time>
      </trkpt>
      <trkpt lat="45.79408" lon="6.39079">
        <ele>1491.4000244141</ele>
        <time>2019-02-17T13:48:39.000Z</time>
      </trkpt>
      <trkpt lat="45.79398" lon="6.39064">
        <ele>1490.1999511719</ele>
        <time>2019-02-17T13:48:41.000Z</time>
      </trkpt>
      <trkpt lat="45.79394" lon="6.39056">
        <ele>1489.1999511719</ele>
        <time>2019-02-17T13:48:42.000Z</time>
      </trkpt>
      <trkpt lat="45.7939" lon="6.39048">
        <ele>1487.8000488281</ele>
        <time>2019-02-17T13:48:43.000Z</time>
      </trkpt>
      <trkpt lat="45.79385" lon="6.39041">
        <ele>1486.5999755859</ele>
        <time>2019-02-17T13:48:44.000Z</time>
      </trkpt>
      <trkpt lat="45.79379" lon="6.39026">
        <ele>1484.8000488281</ele>
        <time>2019-02-17T13:48:46.000Z</time>
      </trkpt>
      <trkpt lat="45.7938" lon="6.39018">
        <ele>1484</ele>
        <time>2019-02-17T13:48:47.000Z</time>
      </trkpt>
      <trkpt lat="45.79382" lon="6.39013">
        <ele>1483</ele>
        <time>2019-02-17T13:48:48.000Z</time>
      </trkpt>
      <trkpt lat="45.79385" lon="6.39004">
        <ele>1481.8000488281</ele>
        <time>2019-02-17T13:48:49.000Z</time>
      </trkpt>
      <trkpt lat="45.79385" lon="6.38995">
        <ele>1480.4000244141</ele>
        <time>2019-02-17T13:48:50.000Z</time>
      </trkpt>
      <trkpt lat="45.79382" lon="6.38987">
        <ele>1479.1999511719</ele>
        <time>2019-02-17T13:48:51.000Z</time>
      </trkpt>
      <trkpt lat="45.79378" lon="6.38981">
        <ele>1478.1999511719</ele>
        <time>2019-02-17T13:48:52.000Z</time>
      </trkpt>
      <trkpt lat="45.79375" lon="6.38973">
        <ele>1477.1999511719</ele>
        <time>2019-02-17T13:48:53.000Z</time>
      </trkpt>
      <trkpt lat="45.79374" lon="6.38965">
        <ele>1474.5999755859</ele>
        <time>2019-02-17T13:48:54.000Z</time>
      </trkpt>
      <trkpt lat="45.79376" lon="6.38959">
        <ele>1473.4000244141</ele>
        <time>2019-02-17T13:48:55.000Z</time>
      </trkpt>
      <trkpt lat="45.79379" lon="6.38951">
        <ele>1472.1999511719</ele>
        <time>2019-02-17T13:48:56.000Z</time>
      </trkpt>
      <trkpt lat="45.7938" lon="6.38933">
        <ele>1470.4000244141</ele>
        <time>2019-02-17T13:48:58.000Z</time>
      </trkpt>
      <trkpt lat="45.79382" lon="6.38924">
        <ele>1469.4000244141</ele>
        <time>2019-02-17T13:48:59.000Z</time>
      </trkpt>
      <trkpt lat="45.79388" lon="6.38915">
        <ele>1468</ele>
        <time>2019-02-17T13:49:00.000Z</time>
      </trkpt>
      <trkpt lat="45.7939" lon="6.38904">
        <ele>1466</ele>
        <time>2019-02-17T13:49:01.000Z</time>
      </trkpt>
      <trkpt lat="45.79393" lon="6.38893">
        <ele>1464</ele>
        <time>2019-02-17T13:49:02.000Z</time>
      </trkpt>
      <trkpt lat="45.79397" lon="6.38884">
        <ele>1462.1999511719</ele>
        <time>2019-02-17T13:49:03.000Z</time>
      </trkpt>
      <trkpt lat="45.79403" lon="6.38878">
        <ele>1460</ele>
        <time>2019-02-17T13:49:04.000Z</time>
      </trkpt>
      <trkpt lat="45.79408" lon="6.38873">
        <ele>1457.1999511719</ele>
        <time>2019-02-17T13:49:05.000Z</time>
      </trkpt>
      <trkpt lat="45.79413" lon="6.3887">
        <ele>1454.8000488281</ele>
        <time>2019-02-17T13:49:06.000Z</time>
      </trkpt>
      <trkpt lat="45.79417" lon="6.38864">
        <ele>1453.1999511719</ele>
        <time>2019-02-17T13:49:07.000Z</time>
      </trkpt>
      <trkpt lat="45.79422" lon="6.38857">
        <ele>1451.8000488281</ele>
        <time>2019-02-17T13:49:08.000Z</time>
      </trkpt>
      <trkpt lat="45.79426" lon="6.38837">
        <ele>1450.1999511719</ele>
        <time>2019-02-17T13:49:10.000Z</time>
      </trkpt>
      <trkpt lat="45.79429" lon="6.38829">
        <ele>1449</ele>
        <time>2019-02-17T13:49:11.000Z</time>
      </trkpt>
      <trkpt lat="45.79433" lon="6.38823">
        <ele>1447.1999511719</ele>
        <time>2019-02-17T13:49:12.000Z</time>
      </trkpt>
      <trkpt lat="45.79436" lon="6.38817">
        <ele>1445.4000244141</ele>
        <time>2019-02-17T13:49:13.000Z</time>
      </trkpt>
      <trkpt lat="45.79441" lon="6.38821">
        <ele>1443.8000488281</ele>
        <time>2019-02-17T13:49:14.000Z</time>
      </trkpt>
      <trkpt lat="45.79442" lon="6.38829">
        <ele>1442.8000488281</ele>
        <time>2019-02-17T13:49:15.000Z</time>
      </trkpt>
      <trkpt lat="45.79443" lon="6.38832">
        <ele>1442.1999511719</ele>
        <time>2019-02-17T13:49:16.000Z</time>
      </trkpt>
      <trkpt lat="45.79443" lon="6.38832">
        <ele>1441.5999755859</ele>
        <time>2019-02-17T13:49:17.000Z</time>
      </trkpt>
      <trkpt lat="45.79443" lon="6.38832">
        <ele>1440.1999511719</ele>
        <time>2019-02-17T13:49:18.000Z</time>
      </trkpt>
      <trkpt lat="45.79443" lon="6.38832">
        <ele>1439.5999755859</ele>
        <time>2019-02-17T13:49:29.000Z</time>
      </trkpt>
      <trkpt lat="45.79443" lon="6.38832">
        <ele>1439.1999511719</ele>
        <time>2019-02-17T13:49:35.000Z</time>
      </trkpt>
      <trkpt lat="45.79443" lon="6.38832">
        <ele>1439.1999511719</ele>
        <time>2019-02-17T13:49:39.000Z</time>
      </trkpt>
      <trkpt lat="45.79443" lon="6.38832">
        <ele>1440.4000244141</ele>
        <time>2019-02-17T13:49:45.000Z</time>
      </trkpt>
      <trkpt lat="45.79443" lon="6.38832">
        <ele>1441.1999511719</ele>
        <time>2019-02-17T13:49:48.000Z</time>
      </trkpt>
      <trkpt lat="45.79444" lon="6.38833">
        <ele>1439.5999755859</ele>
        <time>2019-02-17T13:50:02.000Z</time>
      </trkpt>
      <trkpt lat="45.79444" lon="6.38833">
        <ele>1439.5999755859</ele>
        <time>2019-02-17T13:50:15.000Z</time>
      </trkpt>
      <trkpt lat="45.79444" lon="6.38833">
        <ele>1439.4000244141</ele>
        <time>2019-02-17T13:50:18.000Z</time>
      </trkpt>
      <trkpt lat="45.79444" lon="6.38833">
        <ele>1439.5999755859</ele>
        <time>2019-02-17T13:50:24.000Z</time>
      </trkpt>
      <trkpt lat="45.79444" lon="6.38833">
        <ele>1439.4000244141</ele>
        <time>2019-02-17T13:50:37.000Z</time>
      </trkpt>
      <trkpt lat="45.79449" lon="6.3884">
        <ele>1440.1999511719</ele>
        <time>2019-02-17T13:50:41.000Z</time>
      </trkpt>
      <trkpt lat="45.79457" lon="6.3882">
        <ele>1439.5999755859</ele>
        <time>2019-02-17T13:50:44.000Z</time>
      </trkpt>
      <trkpt lat="45.79461" lon="6.38811">
        <ele>1438.8000488281</ele>
        <time>2019-02-17T13:50:45.000Z</time>
      </trkpt>
      <trkpt lat="45.79465" lon="6.38801">
        <ele>1437.5999755859</ele>
        <time>2019-02-17T13:50:46.000Z</time>
      </trkpt>
      <trkpt lat="45.7947" lon="6.38793">
        <ele>1436.1999511719</ele>
        <time>2019-02-17T13:50:47.000Z</time>
      </trkpt>
      <trkpt lat="45.79477" lon="6.38783">
        <ele>1434.5999755859</ele>
        <time>2019-02-17T13:50:48.000Z</time>
      </trkpt>
      <trkpt lat="45.79483" lon="6.38774">
        <ele>1432.8000488281</ele>
        <time>2019-02-17T13:50:49.000Z</time>
      </trkpt>
      <trkpt lat="45.79491" lon="6.38765">
        <ele>1431</ele>
        <time>2019-02-17T13:50:50.000Z</time>
      </trkpt>
      <trkpt lat="45.79498" lon="6.38757">
        <ele>1429.1999511719</ele>
        <time>2019-02-17T13:50:51.000Z</time>
      </trkpt>
      <trkpt lat="45.79505" lon="6.38749">
        <ele>1427.4000244141</ele>
        <time>2019-02-17T13:50:52.000Z</time>
      </trkpt>
      <trkpt lat="45.79511" lon="6.38739">
        <ele>1425.8000488281</ele>
        <time>2019-02-17T13:50:53.000Z</time>
      </trkpt>
      <trkpt lat="45.79517" lon="6.38729">
        <ele>1422.1999511719</ele>
        <time>2019-02-17T13:50:54.000Z</time>
      </trkpt>
      <trkpt lat="45.79517" lon="6.38721">
        <ele>1420.8000488281</ele>
        <time>2019-02-17T13:50:55.000Z</time>
      </trkpt>
      <trkpt lat="45.79516" lon="6.38714">
        <ele>1419.5999755859</ele>
        <time>2019-02-17T13:50:56.000Z</time>
      </trkpt>
      <trkpt lat="45.79516" lon="6.38711">
        <ele>1418.1999511719</ele>
        <time>2019-02-17T13:50:57.000Z</time>
      </trkpt>
      <trkpt lat="45.79516" lon="6.38712">
        <ele>1416.8000488281</ele>
        <time>2019-02-17T13:50:59.000Z</time>
      </trkpt>
      <trkpt lat="45.79516" lon="6.38712">
        <ele>1416.5999755859</ele>
        <time>2019-02-17T13:51:00.000Z</time>
      </trkpt>
      <trkpt lat="45.79516" lon="6.38712">
        <ele>1416</ele>
        <time>2019-02-17T13:51:13.000Z</time>
      </trkpt>
      <trkpt lat="45.79516" lon="6.38712">
        <ele>1416</ele>
        <time>2019-02-17T13:51:33.000Z</time>
      </trkpt>
      <trkpt lat="45.79516" lon="6.38712">
        <ele>1415.8000488281</ele>
        <time>2019-02-17T13:51:40.000Z</time>
      </trkpt>
      <trkpt lat="45.79516" lon="6.38712">
        <ele>1415.4000244141</ele>
        <time>2019-02-17T13:51:44.000Z</time>
      </trkpt>
      <trkpt lat="45.79516" lon="6.38712">
        <ele>1416.1999511719</ele>
        <time>2019-02-17T13:51:54.000Z</time>
      </trkpt>
      <trkpt lat="45.79516" lon="6.38712">
        <ele>1416</ele>
        <time>2019-02-17T13:52:09.000Z</time>
      </trkpt>
      <trkpt lat="45.79516" lon="6.38713">
        <ele>1416</ele>
        <time>2019-02-17T13:52:26.000Z</time>
      </trkpt>
      <trkpt lat="45.79516" lon="6.38713">
        <ele>1416.4000244141</ele>
        <time>2019-02-17T13:52:38.000Z</time>
      </trkpt>
      <trkpt lat="45.79515" lon="6.38713">
        <ele>1416.4000244141</ele>
        <time>2019-02-17T13:52:45.000Z</time>
      </trkpt>
      <trkpt lat="45.79515" lon="6.38714">
        <ele>1416.4000244141</ele>
        <time>2019-02-17T13:52:51.000Z</time>
      </trkpt>
      <trkpt lat="45.79515" lon="6.38714">
        <ele>1416.8000488281</ele>
        <time>2019-02-17T13:53:02.000Z</time>
      </trkpt>
      <trkpt lat="45.79515" lon="6.38714">
        <ele>1416.5999755859</ele>
        <time>2019-02-17T13:53:04.000Z</time>
      </trkpt>
      <trkpt lat="45.79516" lon="6.38713">
        <ele>1416.5999755859</ele>
        <time>2019-02-17T13:53:20.000Z</time>
      </trkpt>
      <trkpt lat="45.79517" lon="6.38713">
        <ele>1416.5999755859</ele>
        <time>2019-02-17T13:53:23.000Z</time>
      </trkpt>
      <trkpt lat="45.79516" lon="6.38712">
        <ele>1416.5999755859</ele>
        <time>2019-02-17T13:53:24.000Z</time>
      </trkpt>
      <trkpt lat="45.79515" lon="6.38712">
        <ele>1415.8000488281</ele>
        <time>2019-02-17T13:53:28.000Z</time>
      </trkpt>
      <trkpt lat="45.79515" lon="6.38712">
        <ele>1415.5999755859</ele>
        <time>2019-02-17T13:53:29.000Z</time>
      </trkpt>
      <trkpt lat="45.79515" lon="6.38712">
        <ele>1415.1999511719</ele>
        <time>2019-02-17T13:53:36.000Z</time>
      </trkpt>
      <trkpt lat="45.79516" lon="6.38712">
        <ele>1415.4000244141</ele>
        <time>2019-02-17T13:53:41.000Z</time>
      </trkpt>
      <trkpt lat="45.79516" lon="6.38712">
        <ele>1415.1999511719</ele>
        <time>2019-02-17T13:53:48.000Z</time>
      </trkpt>
      <trkpt lat="45.79516" lon="6.38712">
        <ele>1414.8000488281</ele>
        <time>2019-02-17T13:54:01.000Z</time>
      </trkpt>
      <trkpt lat="45.79516" lon="6.38712">
        <ele>1415</ele>
        <time>2019-02-17T13:54:13.000Z</time>
      </trkpt>
      <trkpt lat="45.79516" lon="6.38712">
        <ele>1415</ele>
        <time>2019-02-17T13:54:26.000Z</time>
      </trkpt>
      <trkpt lat="45.79516" lon="6.38712">
        <ele>1415</ele>
        <time>2019-02-17T13:54:44.000Z</time>
      </trkpt>
      <trkpt lat="45.79515" lon="6.38712">
        <ele>1414.8000488281</ele>
        <time>2019-02-17T13:54:51.000Z</time>
      </trkpt>
      <trkpt lat="45.79515" lon="6.38712">
        <ele>1414.4000244141</ele>
        <time>2019-02-17T13:54:53.000Z</time>
      </trkpt>
      <trkpt lat="45.79515" lon="6.38712">
        <ele>1414.5999755859</ele>
        <time>2019-02-17T13:55:02.000Z</time>
      </trkpt>
      <trkpt lat="45.79515" lon="6.38712">
        <ele>1414.5999755859</ele>
        <time>2019-02-17T13:55:19.000Z</time>
      </trkpt>
      <trkpt lat="45.79515" lon="6.38712">
        <ele>1414.1999511719</ele>
        <time>2019-02-17T13:55:31.000Z</time>
      </trkpt>
      <trkpt lat="45.79515" lon="6.38712">
        <ele>1414.4000244141</ele>
        <time>2019-02-17T13:55:52.000Z</time>
      </trkpt>
      <trkpt lat="45.79515" lon="6.38712">
        <ele>1414.8000488281</ele>
        <time>2019-02-17T13:56:05.000Z</time>
      </trkpt>
      <trkpt lat="45.79514" lon="6.38711">
        <ele>1414.5999755859</ele>
        <time>2019-02-17T13:56:24.000Z</time>
      </trkpt>
      <trkpt lat="45.79514" lon="6.38711">
        <ele>1414.8000488281</ele>
        <time>2019-02-17T13:56:40.000Z</time>
      </trkpt>
      <trkpt lat="45.79513" lon="6.38711">
        <ele>1414.8000488281</ele>
        <time>2019-02-17T13:56:59.000Z</time>
      </trkpt>
      <trkpt lat="45.79516" lon="6.38713">
        <ele>1414.8000488281</ele>
        <time>2019-02-17T13:57:10.000Z</time>
      </trkpt>
      <trkpt lat="45.7952" lon="6.38715">
        <ele>1414.8000488281</ele>
        <time>2019-02-17T13:57:11.000Z</time>
      </trkpt>
      <trkpt lat="45.79525" lon="6.38715">
        <ele>1414.5999755859</ele>
        <time>2019-02-17T13:57:12.000Z</time>
      </trkpt>
      <trkpt lat="45.79543" lon="6.38723">
        <ele>1414.1999511719</ele>
        <time>2019-02-17T13:57:15.000Z</time>
      </trkpt>
      <trkpt lat="45.79547" lon="6.38726">
        <ele>1413.5999755859</ele>
        <time>2019-02-17T13:57:16.000Z</time>
      </trkpt>
      <trkpt lat="45.79552" lon="6.38728">
        <ele>1413</ele>
        <time>2019-02-17T13:57:17.000Z</time>
      </trkpt>
      <trkpt lat="45.79557" lon="6.38729">
        <ele>1412.1999511719</ele>
        <time>2019-02-17T13:57:18.000Z</time>
      </trkpt>
      <trkpt lat="45.79562" lon="6.38731">
        <ele>1411.1999511719</ele>
        <time>2019-02-17T13:57:19.000Z</time>
      </trkpt>
      <trkpt lat="45.79568" lon="6.38734">
        <ele>1410.8000488281</ele>
        <time>2019-02-17T13:57:20.000Z</time>
      </trkpt>
      <trkpt lat="45.79584" lon="6.38731">
        <ele>1409.8000488281</ele>
        <time>2019-02-17T13:57:22.000Z</time>
      </trkpt>
      <trkpt lat="45.79591" lon="6.38728">
        <ele>1409</ele>
        <time>2019-02-17T13:57:23.000Z</time>
      </trkpt>
      <trkpt lat="45.79597" lon="6.38726">
        <ele>1407.5999755859</ele>
        <time>2019-02-17T13:57:24.000Z</time>
      </trkpt>
      <trkpt lat="45.79601" lon="6.38724">
        <ele>1406</ele>
        <time>2019-02-17T13:57:25.000Z</time>
      </trkpt>
      <trkpt lat="45.79605" lon="6.38722">
        <ele>1404.5999755859</ele>
        <time>2019-02-17T13:57:26.000Z</time>
      </trkpt>
      <trkpt lat="45.79618" lon="6.38712">
        <ele>1403.4000244141</ele>
        <time>2019-02-17T13:57:28.000Z</time>
      </trkpt>
      <trkpt lat="45.79625" lon="6.38708">
        <ele>1402.8000488281</ele>
        <time>2019-02-17T13:57:29.000Z</time>
      </trkpt>
      <trkpt lat="45.79638" lon="6.387">
        <ele>1402.1999511719</ele>
        <time>2019-02-17T13:57:31.000Z</time>
      </trkpt>
      <trkpt lat="45.79651" lon="6.38692">
        <ele>1401.1999511719</ele>
        <time>2019-02-17T13:57:33.000Z</time>
      </trkpt>
      <trkpt lat="45.79657" lon="6.38688">
        <ele>1400.4000244141</ele>
        <time>2019-02-17T13:57:34.000Z</time>
      </trkpt>
      <trkpt lat="45.79662" lon="6.38684">
        <ele>1399.8000488281</ele>
        <time>2019-02-17T13:57:35.000Z</time>
      </trkpt>
      <trkpt lat="45.79671" lon="6.38678">
        <ele>1398.8000488281</ele>
        <time>2019-02-17T13:57:37.000Z</time>
      </trkpt>
      <trkpt lat="45.79677" lon="6.38672">
        <ele>1397.8000488281</ele>
        <time>2019-02-17T13:57:39.000Z</time>
      </trkpt>
      <trkpt lat="45.7968" lon="6.38669">
        <ele>1397.4000244141</ele>
        <time>2019-02-17T13:57:40.000Z</time>
      </trkpt>
      <trkpt lat="45.79698" lon="6.38653">
        <ele>1396.5999755859</ele>
        <time>2019-02-17T13:57:46.000Z</time>
      </trkpt>
      <trkpt lat="45.79705" lon="6.38645">
        <ele>1396.4000244141</ele>
        <time>2019-02-17T13:57:49.000Z</time>
      </trkpt>
      <trkpt lat="45.79711" lon="6.38639">
        <ele>1395.8000488281</ele>
        <time>2019-02-17T13:57:52.000Z</time>
      </trkpt>
      <trkpt lat="45.79713" lon="6.38638">
        <ele>1395.4000244141</ele>
        <time>2019-02-17T13:57:55.000Z</time>
      </trkpt>
      <trkpt lat="45.79713" lon="6.38638">
        <ele>1395.1999511719</ele>
        <time>2019-02-17T13:57:56.000Z</time>
      </trkpt>
      <trkpt lat="45.79713" lon="6.38638">
        <ele>1395.1999511719</ele>
        <time>2019-02-17T13:58:03.000Z</time>
      </trkpt>
      <trkpt lat="45.79713" lon="6.38638">
        <ele>1395.1999511719</ele>
        <time>2019-02-17T13:58:12.000Z</time>
      </trkpt>
      <trkpt lat="45.79713" lon="6.38638">
        <ele>1395.1999511719</ele>
        <time>2019-02-17T13:58:20.000Z</time>
      </trkpt>
      <trkpt lat="45.79713" lon="6.38638">
        <ele>1395.1999511719</ele>
        <time>2019-02-17T13:58:33.000Z</time>
      </trkpt>
      <trkpt lat="45.79713" lon="6.38638">
        <ele>1395.4000244141</ele>
        <time>2019-02-17T13:58:43.000Z</time>
      </trkpt>
      <trkpt lat="45.79712" lon="6.38638">
        <ele>1395.4000244141</ele>
        <time>2019-02-17T13:58:52.000Z</time>
      </trkpt>
      <trkpt lat="45.79713" lon="6.38639">
        <ele>1395.4000244141</ele>
        <time>2019-02-17T13:58:53.000Z</time>
      </trkpt>
      <trkpt lat="45.79713" lon="6.38639">
        <ele>1394.8000488281</ele>
        <time>2019-02-17T13:58:59.000Z</time>
      </trkpt>
      <trkpt lat="45.79713" lon="6.38639">
        <ele>1394.8000488281</ele>
        <time>2019-02-17T13:59:07.000Z</time>
      </trkpt>
      <trkpt lat="45.79713" lon="6.38638">
        <ele>1394.8000488281</ele>
        <time>2019-02-17T13:59:09.000Z</time>
      </trkpt>
      <trkpt lat="45.79713" lon="6.38628">
        <ele>1395</ele>
        <time>2019-02-17T13:59:11.000Z</time>
      </trkpt>
      <trkpt lat="45.79711" lon="6.38599">
        <ele>1394.8000488281</ele>
        <time>2019-02-17T13:59:14.000Z</time>
      </trkpt>
      <trkpt lat="45.79702" lon="6.38582">
        <ele>1394.1999511719</ele>
        <time>2019-02-17T13:59:16.000Z</time>
      </trkpt>
      <trkpt lat="45.79697" lon="6.38561">
        <ele>1392.8000488281</ele>
        <time>2019-02-17T13:59:18.000Z</time>
      </trkpt>
      <trkpt lat="45.79699" lon="6.38551">
        <ele>1390.8000488281</ele>
        <time>2019-02-17T13:59:19.000Z</time>
      </trkpt>
      <trkpt lat="45.79699" lon="6.38539">
        <ele>1389</ele>
        <time>2019-02-17T13:59:20.000Z</time>
      </trkpt>
      <trkpt lat="45.79701" lon="6.38528">
        <ele>1387.4000244141</ele>
        <time>2019-02-17T13:59:21.000Z</time>
      </trkpt>
      <trkpt lat="45.79703" lon="6.38518">
        <ele>1386</ele>
        <time>2019-02-17T13:59:22.000Z</time>
      </trkpt>
      <trkpt lat="45.79703" lon="6.38509">
        <ele>1384.8000488281</ele>
        <time>2019-02-17T13:59:23.000Z</time>
      </trkpt>
      <trkpt lat="45.79704" lon="6.38499">
        <ele>1383.4000244141</ele>
        <time>2019-02-17T13:59:24.000Z</time>
      </trkpt>
      <trkpt lat="45.79708" lon="6.38488">
        <ele>1382</ele>
        <time>2019-02-17T13:59:25.000Z</time>
      </trkpt>
      <trkpt lat="45.79706" lon="6.38477">
        <ele>1380.5999755859</ele>
        <time>2019-02-17T13:59:26.000Z</time>
      </trkpt>
      <trkpt lat="45.79704" lon="6.38466">
        <ele>1379.4000244141</ele>
        <time>2019-02-17T13:59:27.000Z</time>
      </trkpt>
      <trkpt lat="45.79706" lon="6.38444">
        <ele>1377.1999511719</ele>
        <time>2019-02-17T13:59:29.000Z</time>
      </trkpt>
      <trkpt lat="45.79704" lon="6.38434">
        <ele>1375.1999511719</ele>
        <time>2019-02-17T13:59:30.000Z</time>
      </trkpt>
      <trkpt lat="45.79702" lon="6.38422">
        <ele>1373.4000244141</ele>
        <time>2019-02-17T13:59:31.000Z</time>
      </trkpt>
      <trkpt lat="45.79702" lon="6.38411">
        <ele>1372.1999511719</ele>
        <time>2019-02-17T13:59:32.000Z</time>
      </trkpt>
      <trkpt lat="45.79704" lon="6.384">
        <ele>1370.5999755859</ele>
        <time>2019-02-17T13:59:33.000Z</time>
      </trkpt>
      <trkpt lat="45.79703" lon="6.38391">
        <ele>1368.4000244141</ele>
        <time>2019-02-17T13:59:34.000Z</time>
      </trkpt>
      <trkpt lat="45.79701" lon="6.38382">
        <ele>1366.1999511719</ele>
        <time>2019-02-17T13:59:35.000Z</time>
      </trkpt>
      <trkpt lat="45.79702" lon="6.38372">
        <ele>1364.8000488281</ele>
        <time>2019-02-17T13:59:36.000Z</time>
      </trkpt>
      <trkpt lat="45.79703" lon="6.38361">
        <ele>1363.5999755859</ele>
        <time>2019-02-17T13:59:37.000Z</time>
      </trkpt>
      <trkpt lat="45.79706" lon="6.38352">
        <ele>1361.8000488281</ele>
        <time>2019-02-17T13:59:38.000Z</time>
      </trkpt>
      <trkpt lat="45.79713" lon="6.38347">
        <ele>1359.4000244141</ele>
        <time>2019-02-17T13:59:39.000Z</time>
      </trkpt>
      <trkpt lat="45.79718" lon="6.38339">
        <ele>1356.5999755859</ele>
        <time>2019-02-17T13:59:40.000Z</time>
      </trkpt>
      <trkpt lat="45.79721" lon="6.3833">
        <ele>1354.1999511719</ele>
        <time>2019-02-17T13:59:41.000Z</time>
      </trkpt>
      <trkpt lat="45.79722" lon="6.38324">
        <ele>1352.5999755859</ele>
        <time>2019-02-17T13:59:42.000Z</time>
      </trkpt>
      <trkpt lat="45.79725" lon="6.38316">
        <ele>1350.1999511719</ele>
        <time>2019-02-17T13:59:43.000Z</time>
      </trkpt>
      <trkpt lat="45.79726" lon="6.38304">
        <ele>1348.1999511719</ele>
        <time>2019-02-17T13:59:44.000Z</time>
      </trkpt>
      <trkpt lat="45.79726" lon="6.38293">
        <ele>1345.8000488281</ele>
        <time>2019-02-17T13:59:45.000Z</time>
      </trkpt>
      <trkpt lat="45.79725" lon="6.38282">
        <ele>1343.5999755859</ele>
        <time>2019-02-17T13:59:46.000Z</time>
      </trkpt>
      <trkpt lat="45.79722" lon="6.38273">
        <ele>1341.8000488281</ele>
        <time>2019-02-17T13:59:47.000Z</time>
      </trkpt>
      <trkpt lat="45.79718" lon="6.38266">
        <ele>1340.1999511719</ele>
        <time>2019-02-17T13:59:48.000Z</time>
      </trkpt>
      <trkpt lat="45.79714" lon="6.38265">
        <ele>1338.5999755859</ele>
        <time>2019-02-17T13:59:49.000Z</time>
      </trkpt>
      <trkpt lat="45.7971" lon="6.38262">
        <ele>1336.8000488281</ele>
        <time>2019-02-17T13:59:50.000Z</time>
      </trkpt>
      <trkpt lat="45.79706" lon="6.38259">
        <ele>1335</ele>
        <time>2019-02-17T13:59:51.000Z</time>
      </trkpt>
      <trkpt lat="45.79701" lon="6.38254">
        <ele>1333.4000244141</ele>
        <time>2019-02-17T13:59:52.000Z</time>
      </trkpt>
      <trkpt lat="45.79696" lon="6.3825">
        <ele>1332</ele>
        <time>2019-02-17T13:59:53.000Z</time>
      </trkpt>
      <trkpt lat="45.79691" lon="6.38246">
        <ele>1331.1999511719</ele>
        <time>2019-02-17T13:59:54.000Z</time>
      </trkpt>
      <trkpt lat="45.79688" lon="6.3824">
        <ele>1330.4000244141</ele>
        <time>2019-02-17T13:59:55.000Z</time>
      </trkpt>
      <trkpt lat="45.79688" lon="6.38236">
        <ele>1329.4000244141</ele>
        <time>2019-02-17T13:59:56.000Z</time>
      </trkpt>
      <trkpt lat="45.79689" lon="6.38238">
        <ele>1328</ele>
        <time>2019-02-17T13:59:57.000Z</time>
      </trkpt>
      <trkpt lat="45.79689" lon="6.38238">
        <ele>1327</ele>
        <time>2019-02-17T13:59:58.000Z</time>
      </trkpt>
      <trkpt lat="45.7969" lon="6.38238">
        <ele>1325.5999755859</ele>
        <time>2019-02-17T14:00:00.000Z</time>
      </trkpt>
      <trkpt lat="45.79689" lon="6.38239">
        <ele>1324.4000244141</ele>
        <time>2019-02-17T14:00:03.000Z</time>
      </trkpt>
      <trkpt lat="45.79689" lon="6.38239">
        <ele>1324</ele>
        <time>2019-02-17T14:00:05.000Z</time>
      </trkpt>
      <trkpt lat="45.79689" lon="6.38239">
        <ele>1324.1999511719</ele>
        <time>2019-02-17T14:00:12.000Z</time>
      </trkpt>
      <trkpt lat="45.79689" lon="6.3824">
        <ele>1324.1999511719</ele>
        <time>2019-02-17T14:00:19.000Z</time>
      </trkpt>
      <trkpt lat="45.79691" lon="6.38241">
        <ele>1323.8000488281</ele>
        <time>2019-02-17T14:00:21.000Z</time>
      </trkpt>
      <trkpt lat="45.79696" lon="6.38251">
        <ele>1323.4000244141</ele>
        <time>2019-02-17T14:00:25.000Z</time>
      </trkpt>
      <trkpt lat="45.79698" lon="6.38253">
        <ele>1323.4000244141</ele>
        <time>2019-02-17T14:00:26.000Z</time>
      </trkpt>
      <trkpt lat="45.79706" lon="6.38256">
        <ele>1322.5999755859</ele>
        <time>2019-02-17T14:00:29.000Z</time>
      </trkpt>
      <trkpt lat="45.7971" lon="6.38255">
        <ele>1322.4000244141</ele>
        <time>2019-02-17T14:00:30.000Z</time>
      </trkpt>
      <trkpt lat="45.79719" lon="6.38252">
        <ele>1321</ele>
        <time>2019-02-17T14:00:32.000Z</time>
      </trkpt>
      <trkpt lat="45.79724" lon="6.3825">
        <ele>1320</ele>
        <time>2019-02-17T14:00:33.000Z</time>
      </trkpt>
      <trkpt lat="45.7973" lon="6.38248">
        <ele>1319</ele>
        <time>2019-02-17T14:00:34.000Z</time>
      </trkpt>
      <trkpt lat="45.79743" lon="6.38244">
        <ele>1317.4000244141</ele>
        <time>2019-02-17T14:00:36.000Z</time>
      </trkpt>
      <trkpt lat="45.79755" lon="6.38241">
        <ele>1315.8000488281</ele>
        <time>2019-02-17T14:00:38.000Z</time>
      </trkpt>
      <trkpt lat="45.79761" lon="6.38241">
        <ele>1314.5999755859</ele>
        <time>2019-02-17T14:00:39.000Z</time>
      </trkpt>
      <trkpt lat="45.79772" lon="6.38242">
        <ele>1313</ele>
        <time>2019-02-17T14:00:41.000Z</time>
      </trkpt>
      <trkpt lat="45.79783" lon="6.38244">
        <ele>1312</ele>
        <time>2019-02-17T14:00:43.000Z</time>
      </trkpt>
      <trkpt lat="45.79793" lon="6.38251">
        <ele>1311.4000244141</ele>
        <time>2019-02-17T14:00:46.000Z</time>
      </trkpt>
      <trkpt lat="45.798" lon="6.38261">
        <ele>1311.4000244141</ele>
        <time>2019-02-17T14:00:50.000Z</time>
      </trkpt>
      <trkpt lat="45.79807" lon="6.3827">
        <ele>1311</ele>
        <time>2019-02-17T14:00:57.000Z</time>
      </trkpt>
      <trkpt lat="45.79808" lon="6.38271">
        <ele>1310.5999755859</ele>
        <time>2019-02-17T14:00:58.000Z</time>
      </trkpt>
      <trkpt lat="45.79808" lon="6.38272">
        <ele>1311</ele>
        <time>2019-02-17T14:01:09.000Z</time>
      </trkpt>
      <trkpt lat="45.79814" lon="6.38281">
        <ele>1311.5999755859</ele>
        <time>2019-02-17T14:01:19.000Z</time>
      </trkpt>
      <trkpt lat="45.79823" lon="6.38282">
        <ele>1310.5999755859</ele>
        <time>2019-02-17T14:01:25.000Z</time>
      </trkpt>
      <trkpt lat="45.79829" lon="6.38279">
        <ele>1310.8000488281</ele>
        <time>2019-02-17T14:01:29.000Z</time>
      </trkpt>
      <trkpt lat="45.79834" lon="6.38276">
        <ele>1311.4000244141</ele>
        <time>2019-02-17T14:01:33.000Z</time>
      </trkpt>
      <trkpt lat="45.79844" lon="6.38271">
        <ele>1311.5999755859</ele>
        <time>2019-02-17T14:01:40.000Z</time>
      </trkpt>
      <trkpt lat="45.79853" lon="6.38269">
        <ele>1311.5999755859</ele>
        <time>2019-02-17T14:01:48.000Z</time>
      </trkpt>
      <trkpt lat="45.79856" lon="6.38266">
        <ele>1311.8000488281</ele>
        <time>2019-02-17T14:01:57.000Z</time>
      </trkpt>
      <trkpt lat="45.79856" lon="6.38266">
        <ele>1310.5999755859</ele>
        <time>2019-02-17T14:02:08.000Z</time>
      </trkpt>
      <trkpt lat="45.79856" lon="6.38266">
        <ele>1311.8000488281</ele>
        <time>2019-02-17T14:02:20.000Z</time>
      </trkpt>
      <trkpt lat="45.79856" lon="6.38266">
        <ele>1312</ele>
        <time>2019-02-17T14:02:21.000Z</time>
      </trkpt>
      <trkpt lat="45.79856" lon="6.38266">
        <ele>1311.5999755859</ele>
        <time>2019-02-17T14:02:28.000Z</time>
      </trkpt>
      <trkpt lat="45.79855" lon="6.38266">
        <ele>1311.4000244141</ele>
        <time>2019-02-17T14:02:38.000Z</time>
      </trkpt>
      <trkpt lat="45.79855" lon="6.38265">
        <ele>1311.1999511719</ele>
        <time>2019-02-17T14:02:49.000Z</time>
      </trkpt>
      <trkpt lat="45.79863" lon="6.38263">
        <ele>1311.4000244141</ele>
        <time>2019-02-17T14:02:53.000Z</time>
      </trkpt>
      <trkpt lat="45.79864" lon="6.38263">
        <ele>1311.4000244141</ele>
        <time>2019-02-17T14:02:56.000Z</time>
      </trkpt>
      <trkpt lat="45.79871" lon="6.38268">
        <ele>1311.4000244141</ele>
        <time>2019-02-17T14:03:02.000Z</time>
      </trkpt>
      <trkpt lat="45.79871" lon="6.3827">
        <ele>1311.4000244141</ele>
        <time>2019-02-17T14:03:08.000Z</time>
      </trkpt>
      <trkpt lat="45.79871" lon="6.3827">
        <ele>1311.4000244141</ele>
        <time>2019-02-17T14:03:18.000Z</time>
      </trkpt>
      <trkpt lat="45.79871" lon="6.3827">
        <ele>1311.4000244141</ele>
        <time>2019-02-17T14:03:27.000Z</time>
      </trkpt>
      <trkpt lat="45.79871" lon="6.38269">
        <ele>1311.4000244141</ele>
        <time>2019-02-17T14:03:33.000Z</time>
      </trkpt>
      <trkpt lat="45.79872" lon="6.38271">
        <ele>1311.4000244141</ele>
        <time>2019-02-17T14:03:40.000Z</time>
      </trkpt>
      <trkpt lat="45.79872" lon="6.38272">
        <ele>1310</ele>
        <time>2019-02-17T14:03:45.000Z</time>
      </trkpt>
      <trkpt lat="45.79872" lon="6.38272">
        <ele>1311.4000244141</ele>
        <time>2019-02-17T14:03:49.000Z</time>
      </trkpt>
      <trkpt lat="45.79872" lon="6.38272">
        <ele>1313.1999511719</ele>
        <time>2019-02-17T14:03:50.000Z</time>
      </trkpt>
      <trkpt lat="45.79872" lon="6.38272">
        <ele>1314.5999755859</ele>
        <time>2019-02-17T14:03:52.000Z</time>
      </trkpt>
      <trkpt lat="45.79874" lon="6.38272">
        <ele>1312.8000488281</ele>
        <time>2019-02-17T14:03:54.000Z</time>
      </trkpt>
      <trkpt lat="45.79874" lon="6.38274">
        <ele>1312.1999511719</ele>
        <time>2019-02-17T14:03:55.000Z</time>
      </trkpt>
      <trkpt lat="45.79875" lon="6.38275">
        <ele>1311.5999755859</ele>
        <time>2019-02-17T14:03:57.000Z</time>
      </trkpt>
      <trkpt lat="45.79875" lon="6.38276">
        <ele>1311.4000244141</ele>
        <time>2019-02-17T14:04:01.000Z</time>
      </trkpt>
      <trkpt lat="45.79875" lon="6.38276">
        <ele>1311.4000244141</ele>
        <time>2019-02-17T14:04:15.000Z</time>
      </trkpt>
      <trkpt lat="45.79875" lon="6.38274">
        <ele>1311.4000244141</ele>
        <time>2019-02-17T14:04:27.000Z</time>
      </trkpt>
      <trkpt lat="45.79877" lon="6.38271">
        <ele>1311.5999755859</ele>
        <time>2019-02-17T14:04:33.000Z</time>
      </trkpt>
      <trkpt lat="45.79875" lon="6.38271">
        <ele>1311.1999511719</ele>
        <time>2019-02-17T14:04:41.000Z</time>
      </trkpt>
    </trkseg>
  </trk>
</gpx>